<?xml version="1.0" encoding="UTF-8" standalone="no" ?>
<gpx xmlns="http://www.topografix.com/GPX/1/1" xmlns:xsi="http://www.w3.org/2001/XMLSchema-instance" xsi:schemaLocation="http://www.topografix.com/GPX/1/1 http://www.topografix.com/GPX/1/1/gpx.xsd" version="1.1" creator="VisuGPX - https://www.visugpx.com">
  <metadata>
    <name>Petite sortie mont Saint Cyr</name>
  </metadata>
  <trk>
    <name><![CDATA[Petite sortie mont Saint Cyr_1]]></name>
    <trkseg>
      <trkpt lat="44.42139" lon="1.49364">
        <ele>254.9</ele>
        <time>2021-08-16T07:03:49Z</time>
      </trkpt>
      <trkpt lat="44.42136" lon="1.49355">
        <ele>255.1</ele>
        <time>2021-08-16T07:03:50Z</time>
      </trkpt>
      <trkpt lat="44.42132" lon="1.49337">
        <ele>255.6</ele>
        <time>2021-08-16T07:03:52Z</time>
      </trkpt>
      <trkpt lat="44.4213" lon="1.49329">
        <ele>255.8</ele>
        <time>2021-08-16T07:03:53Z</time>
      </trkpt>
      <trkpt lat="44.42128" lon="1.49321">
        <ele>256</ele>
        <time>2021-08-16T07:03:54Z</time>
      </trkpt>
      <trkpt lat="44.42125" lon="1.49306">
        <ele>256.4</ele>
        <time>2021-08-16T07:03:56Z</time>
      </trkpt>
      <trkpt lat="44.42123" lon="1.49298">
        <ele>256.6</ele>
        <time>2021-08-16T07:03:57Z</time>
      </trkpt>
      <trkpt lat="44.4212" lon="1.49283">
        <ele>257</ele>
        <time>2021-08-16T07:03:59Z</time>
      </trkpt>
      <trkpt lat="44.42117" lon="1.49268">
        <ele>257.5</ele>
        <time>2021-08-16T07:04:01Z</time>
      </trkpt>
      <trkpt lat="44.42116" lon="1.49261">
        <ele>257.7</ele>
        <time>2021-08-16T07:04:02Z</time>
      </trkpt>
      <trkpt lat="44.42115" lon="1.49253">
        <ele>257.9</ele>
        <time>2021-08-16T07:04:03Z</time>
      </trkpt>
      <trkpt lat="44.42113" lon="1.49245">
        <ele>258.1</ele>
        <time>2021-08-16T07:04:04Z</time>
      </trkpt>
      <trkpt lat="44.42109" lon="1.4923">
        <ele>258.4</ele>
        <time>2021-08-16T07:04:06Z</time>
      </trkpt>
      <trkpt lat="44.42105" lon="1.49214">
        <ele>258.7</ele>
        <time>2021-08-16T07:04:08Z</time>
      </trkpt>
      <trkpt lat="44.42102" lon="1.49198">
        <ele>259.1</ele>
        <time>2021-08-16T07:04:10Z</time>
      </trkpt>
      <trkpt lat="44.42101" lon="1.49189">
        <ele>259.3</ele>
        <time>2021-08-16T07:04:11Z</time>
      </trkpt>
      <trkpt lat="44.42099" lon="1.49181">
        <ele>259.6</ele>
        <time>2021-08-16T07:04:12Z</time>
      </trkpt>
      <trkpt lat="44.42098" lon="1.49173">
        <ele>259.8</ele>
        <time>2021-08-16T07:04:13Z</time>
      </trkpt>
      <trkpt lat="44.42097" lon="1.49164">
        <ele>260.1</ele>
        <time>2021-08-16T07:04:14Z</time>
      </trkpt>
      <trkpt lat="44.42095" lon="1.49148">
        <ele>260.5</ele>
        <time>2021-08-16T07:04:16Z</time>
      </trkpt>
      <trkpt lat="44.42095" lon="1.4914">
        <ele>260.8</ele>
        <time>2021-08-16T07:04:17Z</time>
      </trkpt>
      <trkpt lat="44.42093" lon="1.49132">
        <ele>261.1</ele>
        <time>2021-08-16T07:04:18Z</time>
      </trkpt>
      <trkpt lat="44.42091" lon="1.49117">
        <ele>261.7</ele>
        <time>2021-08-16T07:04:20Z</time>
      </trkpt>
      <trkpt lat="44.42089" lon="1.49103">
        <ele>262.3</ele>
        <time>2021-08-16T07:04:22Z</time>
      </trkpt>
      <trkpt lat="44.42087" lon="1.49096">
        <ele>262.5</ele>
        <time>2021-08-16T07:04:23Z</time>
      </trkpt>
      <trkpt lat="44.42086" lon="1.4909">
        <ele>262.8</ele>
        <time>2021-08-16T07:04:24Z</time>
      </trkpt>
      <trkpt lat="44.42085" lon="1.49084">
        <ele>263</ele>
        <time>2021-08-16T07:04:25Z</time>
      </trkpt>
      <trkpt lat="44.42082" lon="1.49073">
        <ele>263.6</ele>
        <time>2021-08-16T07:04:27Z</time>
      </trkpt>
      <trkpt lat="44.42079" lon="1.49063">
        <ele>264.3</ele>
        <time>2021-08-16T07:04:29Z</time>
      </trkpt>
      <trkpt lat="44.42078" lon="1.49056">
        <ele>264.7</ele>
        <time>2021-08-16T07:04:30Z</time>
      </trkpt>
      <trkpt lat="44.42077" lon="1.49052">
        <ele>264.9</ele>
        <time>2021-08-16T07:04:31Z</time>
      </trkpt>
      <trkpt lat="44.42076" lon="1.49044">
        <ele>265.4</ele>
        <time>2021-08-16T07:04:33Z</time>
      </trkpt>
      <trkpt lat="44.42074" lon="1.49039">
        <ele>265.7</ele>
        <time>2021-08-16T07:04:34Z</time>
      </trkpt>
      <trkpt lat="44.42072" lon="1.49036">
        <ele>266</ele>
        <time>2021-08-16T07:04:35Z</time>
      </trkpt>
      <trkpt lat="44.42071" lon="1.49027">
        <ele>266.5</ele>
        <time>2021-08-16T07:04:36Z</time>
      </trkpt>
      <trkpt lat="44.42069" lon="1.49017">
        <ele>267.1</ele>
        <time>2021-08-16T07:04:38Z</time>
      </trkpt>
      <trkpt lat="44.42068" lon="1.49009">
        <ele>267.6</ele>
        <time>2021-08-16T07:04:39Z</time>
      </trkpt>
      <trkpt lat="44.42067" lon="1.49004">
        <ele>268</ele>
        <time>2021-08-16T07:04:40Z</time>
      </trkpt>
      <trkpt lat="44.42065" lon="1.48997">
        <ele>268.4</ele>
        <time>2021-08-16T07:04:42Z</time>
      </trkpt>
      <trkpt lat="44.42064" lon="1.48992">
        <ele>268.7</ele>
        <time>2021-08-16T07:04:43Z</time>
      </trkpt>
      <trkpt lat="44.42063" lon="1.48986">
        <ele>269</ele>
        <time>2021-08-16T07:04:44Z</time>
      </trkpt>
      <trkpt lat="44.42062" lon="1.48979">
        <ele>269.4</ele>
        <time>2021-08-16T07:04:46Z</time>
      </trkpt>
      <trkpt lat="44.42061" lon="1.48973">
        <ele>269.7</ele>
        <time>2021-08-16T07:04:47Z</time>
      </trkpt>
      <trkpt lat="44.42059" lon="1.48967">
        <ele>270</ele>
        <time>2021-08-16T07:04:49Z</time>
      </trkpt>
      <trkpt lat="44.42058" lon="1.48962">
        <ele>270.3</ele>
        <time>2021-08-16T07:04:50Z</time>
      </trkpt>
      <trkpt lat="44.42057" lon="1.48956">
        <ele>270.5</ele>
        <time>2021-08-16T07:04:52Z</time>
      </trkpt>
      <trkpt lat="44.42056" lon="1.48951">
        <ele>270.8</ele>
        <time>2021-08-16T07:04:53Z</time>
      </trkpt>
      <trkpt lat="44.42055" lon="1.48945">
        <ele>271</ele>
        <time>2021-08-16T07:04:54Z</time>
      </trkpt>
      <trkpt lat="44.42055" lon="1.48943">
        <ele>271.1</ele>
        <time>2021-08-16T07:04:55Z</time>
      </trkpt>
      <trkpt lat="44.42054" lon="1.48936">
        <ele>271.4</ele>
        <time>2021-08-16T07:04:57Z</time>
      </trkpt>
      <trkpt lat="44.42053" lon="1.4893">
        <ele>271.5</ele>
        <time>2021-08-16T07:04:58Z</time>
      </trkpt>
      <trkpt lat="44.42051" lon="1.48923">
        <ele>271.8</ele>
        <time>2021-08-16T07:05:00Z</time>
      </trkpt>
      <trkpt lat="44.4205" lon="1.48918">
        <ele>272</ele>
        <time>2021-08-16T07:05:01Z</time>
      </trkpt>
      <trkpt lat="44.4205" lon="1.48915">
        <ele>272.1</ele>
        <time>2021-08-16T07:05:02Z</time>
      </trkpt>
      <trkpt lat="44.42047" lon="1.48907">
        <ele>272.3</ele>
        <time>2021-08-16T07:05:04Z</time>
      </trkpt>
      <trkpt lat="44.42045" lon="1.48902">
        <ele>272.5</ele>
        <time>2021-08-16T07:05:05Z</time>
      </trkpt>
      <trkpt lat="44.42044" lon="1.48898">
        <ele>272.6</ele>
        <time>2021-08-16T07:05:06Z</time>
      </trkpt>
      <trkpt lat="44.42043" lon="1.48893">
        <ele>272.7</ele>
        <time>2021-08-16T07:05:07Z</time>
      </trkpt>
      <trkpt lat="44.4204" lon="1.48887">
        <ele>272.8</ele>
        <time>2021-08-16T07:05:09Z</time>
      </trkpt>
      <trkpt lat="44.42038" lon="1.4888">
        <ele>272.9</ele>
        <time>2021-08-16T07:05:11Z</time>
      </trkpt>
      <trkpt lat="44.42036" lon="1.48874">
        <ele>273</ele>
        <time>2021-08-16T07:05:12Z</time>
      </trkpt>
      <trkpt lat="44.42033" lon="1.48869">
        <ele>273.1</ele>
        <time>2021-08-16T07:05:13Z</time>
      </trkpt>
      <trkpt lat="44.42031" lon="1.48864">
        <ele>273.2</ele>
        <time>2021-08-16T07:05:15Z</time>
      </trkpt>
      <trkpt lat="44.42028" lon="1.48858">
        <ele>273.3</ele>
        <time>2021-08-16T07:05:16Z</time>
      </trkpt>
      <trkpt lat="44.42023" lon="1.4885">
        <ele>273.4</ele>
        <time>2021-08-16T07:05:18Z</time>
      </trkpt>
      <trkpt lat="44.42021" lon="1.48846">
        <ele>273.5</ele>
        <time>2021-08-16T07:05:19Z</time>
      </trkpt>
      <trkpt lat="44.42016" lon="1.48841">
        <ele>273.5</ele>
        <time>2021-08-16T07:05:21Z</time>
      </trkpt>
      <trkpt lat="44.42013" lon="1.48836">
        <ele>273.5</ele>
        <time>2021-08-16T07:05:22Z</time>
      </trkpt>
      <trkpt lat="44.42009" lon="1.48832">
        <ele>273.4</ele>
        <time>2021-08-16T07:05:24Z</time>
      </trkpt>
      <trkpt lat="44.42003" lon="1.48826">
        <ele>273.3</ele>
        <time>2021-08-16T07:05:26Z</time>
      </trkpt>
      <trkpt lat="44.41999" lon="1.48821">
        <ele>273.2</ele>
        <time>2021-08-16T07:05:27Z</time>
      </trkpt>
      <trkpt lat="44.41992" lon="1.48812">
        <ele>273.1</ele>
        <time>2021-08-16T07:05:29Z</time>
      </trkpt>
      <trkpt lat="44.41988" lon="1.48807">
        <ele>273</ele>
        <time>2021-08-16T07:05:30Z</time>
      </trkpt>
      <trkpt lat="44.41981" lon="1.48798">
        <ele>272.9</ele>
        <time>2021-08-16T07:05:32Z</time>
      </trkpt>
      <trkpt lat="44.41978" lon="1.48792">
        <ele>272.8</ele>
        <time>2021-08-16T07:05:33Z</time>
      </trkpt>
      <trkpt lat="44.41973" lon="1.48781">
        <ele>272.7</ele>
        <time>2021-08-16T07:05:35Z</time>
      </trkpt>
      <trkpt lat="44.41968" lon="1.48769">
        <ele>272.6</ele>
        <time>2021-08-16T07:05:37Z</time>
      </trkpt>
      <trkpt lat="44.41965" lon="1.48764">
        <ele>272.5</ele>
        <time>2021-08-16T07:05:38Z</time>
      </trkpt>
      <trkpt lat="44.4196" lon="1.48752">
        <ele>272.4</ele>
        <time>2021-08-16T07:05:40Z</time>
      </trkpt>
      <trkpt lat="44.41957" lon="1.48746">
        <ele>272.4</ele>
        <time>2021-08-16T07:05:41Z</time>
      </trkpt>
      <trkpt lat="44.41952" lon="1.48735">
        <ele>272.3</ele>
        <time>2021-08-16T07:05:43Z</time>
      </trkpt>
      <trkpt lat="44.41949" lon="1.48729">
        <ele>272.2</ele>
        <time>2021-08-16T07:05:44Z</time>
      </trkpt>
      <trkpt lat="44.41943" lon="1.48717">
        <ele>272.1</ele>
        <time>2021-08-16T07:05:46Z</time>
      </trkpt>
      <trkpt lat="44.41937" lon="1.48705">
        <ele>272</ele>
        <time>2021-08-16T07:05:48Z</time>
      </trkpt>
      <trkpt lat="44.41931" lon="1.48693">
        <ele>271.8</ele>
        <time>2021-08-16T07:05:50Z</time>
      </trkpt>
      <trkpt lat="44.41923" lon="1.48682">
        <ele>271.7</ele>
        <time>2021-08-16T07:05:52Z</time>
      </trkpt>
      <trkpt lat="44.4192" lon="1.48676">
        <ele>271.6</ele>
        <time>2021-08-16T07:05:53Z</time>
      </trkpt>
      <trkpt lat="44.41917" lon="1.4867">
        <ele>271.6</ele>
        <time>2021-08-16T07:05:54Z</time>
      </trkpt>
      <trkpt lat="44.4191" lon="1.48658">
        <ele>271.4</ele>
        <time>2021-08-16T07:05:56Z</time>
      </trkpt>
      <trkpt lat="44.41906" lon="1.48653">
        <ele>271.4</ele>
        <time>2021-08-16T07:05:57Z</time>
      </trkpt>
      <trkpt lat="44.41899" lon="1.48642">
        <ele>271.1</ele>
        <time>2021-08-16T07:05:59Z</time>
      </trkpt>
      <trkpt lat="44.41892" lon="1.48631">
        <ele>270.8</ele>
        <time>2021-08-16T07:06:01Z</time>
      </trkpt>
      <trkpt lat="44.41889" lon="1.48626">
        <ele>270.7</ele>
        <time>2021-08-16T07:06:02Z</time>
      </trkpt>
      <trkpt lat="44.41885" lon="1.48619">
        <ele>270.5</ele>
        <time>2021-08-16T07:06:03Z</time>
      </trkpt>
      <trkpt lat="44.41878" lon="1.48607">
        <ele>270</ele>
        <time>2021-08-16T07:06:05Z</time>
      </trkpt>
      <trkpt lat="44.41874" lon="1.48601">
        <ele>269.8</ele>
        <time>2021-08-16T07:06:06Z</time>
      </trkpt>
      <trkpt lat="44.41867" lon="1.48588">
        <ele>269.3</ele>
        <time>2021-08-16T07:06:08Z</time>
      </trkpt>
      <trkpt lat="44.41861" lon="1.48573">
        <ele>268.7</ele>
        <time>2021-08-16T07:06:10Z</time>
      </trkpt>
      <trkpt lat="44.41859" lon="1.48565">
        <ele>268.5</ele>
        <time>2021-08-16T07:06:11Z</time>
      </trkpt>
      <trkpt lat="44.41857" lon="1.48547">
        <ele>267.9</ele>
        <time>2021-08-16T07:06:13Z</time>
      </trkpt>
      <trkpt lat="44.41857" lon="1.48538">
        <ele>267.9</ele>
        <time>2021-08-16T07:06:14Z</time>
      </trkpt>
      <trkpt lat="44.41861" lon="1.48521">
        <ele>267.9</ele>
        <time>2021-08-16T07:06:16Z</time>
      </trkpt>
      <trkpt lat="44.41865" lon="1.48505">
        <ele>267.8</ele>
        <time>2021-08-16T07:06:18Z</time>
      </trkpt>
      <trkpt lat="44.41868" lon="1.48497">
        <ele>267.8</ele>
        <time>2021-08-16T07:06:19Z</time>
      </trkpt>
      <trkpt lat="44.4187" lon="1.4849">
        <ele>267.9</ele>
        <time>2021-08-16T07:06:20Z</time>
      </trkpt>
      <trkpt lat="44.41873" lon="1.48479">
        <ele>267.9</ele>
        <time>2021-08-16T07:06:22Z</time>
      </trkpt>
      <trkpt lat="44.41875" lon="1.48475">
        <ele>268</ele>
        <time>2021-08-16T07:06:23Z</time>
      </trkpt>
      <trkpt lat="44.41876" lon="1.4847">
        <ele>268</ele>
        <time>2021-08-16T07:06:24Z</time>
      </trkpt>
      <trkpt lat="44.41878" lon="1.48464">
        <ele>268</ele>
        <time>2021-08-16T07:06:25Z</time>
      </trkpt>
      <trkpt lat="44.41881" lon="1.48454">
        <ele>268.1</ele>
        <time>2021-08-16T07:06:27Z</time>
      </trkpt>
      <trkpt lat="44.41883" lon="1.48449">
        <ele>268.2</ele>
        <time>2021-08-16T07:06:28Z</time>
      </trkpt>
      <trkpt lat="44.41885" lon="1.48442">
        <ele>268.3</ele>
        <time>2021-08-16T07:06:30Z</time>
      </trkpt>
      <trkpt lat="44.4189" lon="1.48432">
        <ele>268.5</ele>
        <time>2021-08-16T07:06:31Z</time>
      </trkpt>
      <trkpt lat="44.41894" lon="1.48419">
        <ele>268.7</ele>
        <time>2021-08-16T07:06:33Z</time>
      </trkpt>
      <trkpt lat="44.41898" lon="1.48407">
        <ele>269</ele>
        <time>2021-08-16T07:06:35Z</time>
      </trkpt>
      <trkpt lat="44.419" lon="1.48401">
        <ele>269.1</ele>
        <time>2021-08-16T07:06:36Z</time>
      </trkpt>
      <trkpt lat="44.41904" lon="1.48388">
        <ele>269.4</ele>
        <time>2021-08-16T07:06:38Z</time>
      </trkpt>
      <trkpt lat="44.41906" lon="1.48382">
        <ele>269.6</ele>
        <time>2021-08-16T07:06:39Z</time>
      </trkpt>
      <trkpt lat="44.41909" lon="1.4837">
        <ele>269.9</ele>
        <time>2021-08-16T07:06:41Z</time>
      </trkpt>
      <trkpt lat="44.41911" lon="1.48365">
        <ele>270.1</ele>
        <time>2021-08-16T07:06:42Z</time>
      </trkpt>
      <trkpt lat="44.41912" lon="1.4836">
        <ele>270.3</ele>
        <time>2021-08-16T07:06:43Z</time>
      </trkpt>
      <trkpt lat="44.41913" lon="1.48354">
        <ele>270.5</ele>
        <time>2021-08-16T07:06:44Z</time>
      </trkpt>
      <trkpt lat="44.41915" lon="1.4835">
        <ele>270.7</ele>
        <time>2021-08-16T07:06:45Z</time>
      </trkpt>
      <trkpt lat="44.41919" lon="1.48338">
        <ele>271.2</ele>
        <time>2021-08-16T07:06:47Z</time>
      </trkpt>
      <trkpt lat="44.4192" lon="1.48331">
        <ele>271.5</ele>
        <time>2021-08-16T07:06:49Z</time>
      </trkpt>
      <trkpt lat="44.41923" lon="1.48324">
        <ele>271.8</ele>
        <time>2021-08-16T07:06:50Z</time>
      </trkpt>
      <trkpt lat="44.41926" lon="1.48315">
        <ele>272.2</ele>
        <time>2021-08-16T07:06:52Z</time>
      </trkpt>
      <trkpt lat="44.41929" lon="1.48305">
        <ele>272.6</ele>
        <time>2021-08-16T07:06:53Z</time>
      </trkpt>
      <trkpt lat="44.41932" lon="1.48296">
        <ele>273</ele>
        <time>2021-08-16T07:06:55Z</time>
      </trkpt>
      <trkpt lat="44.41934" lon="1.48291">
        <ele>273.2</ele>
        <time>2021-08-16T07:06:56Z</time>
      </trkpt>
      <trkpt lat="44.41935" lon="1.48286">
        <ele>273.4</ele>
        <time>2021-08-16T07:06:57Z</time>
      </trkpt>
      <trkpt lat="44.41937" lon="1.48279">
        <ele>273.6</ele>
        <time>2021-08-16T07:06:58Z</time>
      </trkpt>
      <trkpt lat="44.4194" lon="1.48269">
        <ele>274</ele>
        <time>2021-08-16T07:07:00Z</time>
      </trkpt>
      <trkpt lat="44.41942" lon="1.48261">
        <ele>274.4</ele>
        <time>2021-08-16T07:07:01Z</time>
      </trkpt>
      <trkpt lat="44.41944" lon="1.48256">
        <ele>274.6</ele>
        <time>2021-08-16T07:07:02Z</time>
      </trkpt>
      <trkpt lat="44.41945" lon="1.4825">
        <ele>274.8</ele>
        <time>2021-08-16T07:07:03Z</time>
      </trkpt>
      <trkpt lat="44.41947" lon="1.48245">
        <ele>275</ele>
        <time>2021-08-16T07:07:04Z</time>
      </trkpt>
      <trkpt lat="44.41948" lon="1.48241">
        <ele>275.2</ele>
        <time>2021-08-16T07:07:06Z</time>
      </trkpt>
      <trkpt lat="44.41951" lon="1.48235">
        <ele>275.4</ele>
        <time>2021-08-16T07:07:07Z</time>
      </trkpt>
      <trkpt lat="44.41952" lon="1.48232">
        <ele>275.6</ele>
        <time>2021-08-16T07:07:08Z</time>
      </trkpt>
      <trkpt lat="44.41954" lon="1.48226">
        <ele>275.8</ele>
        <time>2021-08-16T07:07:10Z</time>
      </trkpt>
      <trkpt lat="44.41955" lon="1.48222">
        <ele>275.9</ele>
        <time>2021-08-16T07:07:11Z</time>
      </trkpt>
      <trkpt lat="44.41958" lon="1.48218">
        <ele>276.1</ele>
        <time>2021-08-16T07:07:12Z</time>
      </trkpt>
      <trkpt lat="44.4196" lon="1.48214">
        <ele>276.2</ele>
        <time>2021-08-16T07:07:13Z</time>
      </trkpt>
      <trkpt lat="44.41961" lon="1.4821">
        <ele>276.4</ele>
        <time>2021-08-16T07:07:14Z</time>
      </trkpt>
      <trkpt lat="44.41963" lon="1.48206">
        <ele>276.5</ele>
        <time>2021-08-16T07:07:15Z</time>
      </trkpt>
      <trkpt lat="44.41965" lon="1.48203">
        <ele>276.7</ele>
        <time>2021-08-16T07:07:16Z</time>
      </trkpt>
      <trkpt lat="44.41969" lon="1.48194">
        <ele>277</ele>
        <time>2021-08-16T07:07:18Z</time>
      </trkpt>
      <trkpt lat="44.41971" lon="1.4819">
        <ele>277.2</ele>
        <time>2021-08-16T07:07:19Z</time>
      </trkpt>
      <trkpt lat="44.41973" lon="1.48186">
        <ele>277.3</ele>
        <time>2021-08-16T07:07:20Z</time>
      </trkpt>
      <trkpt lat="44.41975" lon="1.48182">
        <ele>277.5</ele>
        <time>2021-08-16T07:07:21Z</time>
      </trkpt>
      <trkpt lat="44.41977" lon="1.48178">
        <ele>277.6</ele>
        <time>2021-08-16T07:07:23Z</time>
      </trkpt>
      <trkpt lat="44.41981" lon="1.48172">
        <ele>277.9</ele>
        <time>2021-08-16T07:07:24Z</time>
      </trkpt>
      <trkpt lat="44.41983" lon="1.48167">
        <ele>278.1</ele>
        <time>2021-08-16T07:07:26Z</time>
      </trkpt>
      <trkpt lat="44.41985" lon="1.48162">
        <ele>278.3</ele>
        <time>2021-08-16T07:07:27Z</time>
      </trkpt>
      <trkpt lat="44.41988" lon="1.48157">
        <ele>278.5</ele>
        <time>2021-08-16T07:07:28Z</time>
      </trkpt>
      <trkpt lat="44.41991" lon="1.48149">
        <ele>278.8</ele>
        <time>2021-08-16T07:07:30Z</time>
      </trkpt>
      <trkpt lat="44.41994" lon="1.48144">
        <ele>279</ele>
        <time>2021-08-16T07:07:31Z</time>
      </trkpt>
      <trkpt lat="44.41996" lon="1.4814">
        <ele>279.2</ele>
        <time>2021-08-16T07:07:32Z</time>
      </trkpt>
      <trkpt lat="44.41998" lon="1.48134">
        <ele>279.5</ele>
        <time>2021-08-16T07:07:34Z</time>
      </trkpt>
      <trkpt lat="44.42" lon="1.4813">
        <ele>279.7</ele>
        <time>2021-08-16T07:07:35Z</time>
      </trkpt>
      <trkpt lat="44.42002" lon="1.48126">
        <ele>279.9</ele>
        <time>2021-08-16T07:07:36Z</time>
      </trkpt>
      <trkpt lat="44.42004" lon="1.48121">
        <ele>280.2</ele>
        <time>2021-08-16T07:07:37Z</time>
      </trkpt>
      <trkpt lat="44.42006" lon="1.48116">
        <ele>280.4</ele>
        <time>2021-08-16T07:07:39Z</time>
      </trkpt>
      <trkpt lat="44.42008" lon="1.48111">
        <ele>280.7</ele>
        <time>2021-08-16T07:07:40Z</time>
      </trkpt>
      <trkpt lat="44.4201" lon="1.48108">
        <ele>280.8</ele>
        <time>2021-08-16T07:07:41Z</time>
      </trkpt>
      <trkpt lat="44.42011" lon="1.48104">
        <ele>281</ele>
        <time>2021-08-16T07:07:42Z</time>
      </trkpt>
      <trkpt lat="44.42012" lon="1.48101">
        <ele>281.1</ele>
        <time>2021-08-16T07:07:44Z</time>
      </trkpt>
      <trkpt lat="44.42015" lon="1.48097">
        <ele>281.3</ele>
        <time>2021-08-16T07:07:45Z</time>
      </trkpt>
      <trkpt lat="44.42015" lon="1.48096">
        <ele>281.4</ele>
        <time>2021-08-16T07:07:46Z</time>
      </trkpt>
      <trkpt lat="44.42018" lon="1.48092">
        <ele>281.7</ele>
        <time>2021-08-16T07:07:48Z</time>
      </trkpt>
      <trkpt lat="44.4202" lon="1.48087">
        <ele>281.9</ele>
        <time>2021-08-16T07:07:49Z</time>
      </trkpt>
      <trkpt lat="44.42022" lon="1.48084">
        <ele>282.1</ele>
        <time>2021-08-16T07:07:50Z</time>
      </trkpt>
      <trkpt lat="44.42024" lon="1.48078">
        <ele>282.3</ele>
        <time>2021-08-16T07:07:52Z</time>
      </trkpt>
      <trkpt lat="44.42024" lon="1.48074">
        <ele>282.5</ele>
        <time>2021-08-16T07:07:53Z</time>
      </trkpt>
      <trkpt lat="44.42024" lon="1.48068">
        <ele>282.7</ele>
        <time>2021-08-16T07:07:55Z</time>
      </trkpt>
      <trkpt lat="44.42025" lon="1.48064">
        <ele>282.9</ele>
        <time>2021-08-16T07:07:56Z</time>
      </trkpt>
      <trkpt lat="44.42023" lon="1.48058">
        <ele>284</ele>
        <time>2021-08-16T07:07:57Z</time>
      </trkpt>
      <trkpt lat="44.42023" lon="1.48057">
        <ele>284</ele>
        <time>2021-08-16T07:07:58Z</time>
      </trkpt>
      <trkpt lat="44.42021" lon="1.48053">
        <ele>284.1</ele>
        <time>2021-08-16T07:07:59Z</time>
      </trkpt>
      <trkpt lat="44.4202" lon="1.48052">
        <ele>284.1</ele>
        <time>2021-08-16T07:08:00Z</time>
      </trkpt>
      <trkpt lat="44.42015" lon="1.4805">
        <ele>284.2</ele>
        <time>2021-08-16T07:08:02Z</time>
      </trkpt>
      <trkpt lat="44.42013" lon="1.4805">
        <ele>284.3</ele>
        <time>2021-08-16T07:08:03Z</time>
      </trkpt>
      <trkpt lat="44.42008" lon="1.4805">
        <ele>284.4</ele>
        <time>2021-08-16T07:08:05Z</time>
      </trkpt>
      <trkpt lat="44.42004" lon="1.4805">
        <ele>284.5</ele>
        <time>2021-08-16T07:08:06Z</time>
      </trkpt>
      <trkpt lat="44.42" lon="1.48051">
        <ele>284.6</ele>
        <time>2021-08-16T07:08:08Z</time>
      </trkpt>
      <trkpt lat="44.41996" lon="1.48051">
        <ele>284.7</ele>
        <time>2021-08-16T07:08:09Z</time>
      </trkpt>
      <trkpt lat="44.41992" lon="1.48051">
        <ele>284.8</ele>
        <time>2021-08-16T07:08:10Z</time>
      </trkpt>
      <trkpt lat="44.41989" lon="1.48051">
        <ele>284.9</ele>
        <time>2021-08-16T07:08:11Z</time>
      </trkpt>
      <trkpt lat="44.41986" lon="1.48051">
        <ele>284.9</ele>
        <time>2021-08-16T07:08:12Z</time>
      </trkpt>
      <trkpt lat="44.41982" lon="1.48052">
        <ele>285.1</ele>
        <time>2021-08-16T07:08:14Z</time>
      </trkpt>
      <trkpt lat="44.41978" lon="1.48052">
        <ele>285.2</ele>
        <time>2021-08-16T07:08:15Z</time>
      </trkpt>
      <trkpt lat="44.41974" lon="1.48052">
        <ele>285.2</ele>
        <time>2021-08-16T07:08:16Z</time>
      </trkpt>
      <trkpt lat="44.41971" lon="1.48052">
        <ele>285.3</ele>
        <time>2021-08-16T07:08:17Z</time>
      </trkpt>
      <trkpt lat="44.41966" lon="1.48052">
        <ele>285.4</ele>
        <time>2021-08-16T07:08:19Z</time>
      </trkpt>
      <trkpt lat="44.41962" lon="1.48052">
        <ele>285.5</ele>
        <time>2021-08-16T07:08:20Z</time>
      </trkpt>
      <trkpt lat="44.41957" lon="1.48052">
        <ele>285.5</ele>
        <time>2021-08-16T07:08:21Z</time>
      </trkpt>
      <trkpt lat="44.41953" lon="1.48053">
        <ele>285.6</ele>
        <time>2021-08-16T07:08:22Z</time>
      </trkpt>
      <trkpt lat="44.41949" lon="1.48052">
        <ele>285.6</ele>
        <time>2021-08-16T07:08:24Z</time>
      </trkpt>
      <trkpt lat="44.41944" lon="1.48053">
        <ele>285.6</ele>
        <time>2021-08-16T07:08:25Z</time>
      </trkpt>
      <trkpt lat="44.4194" lon="1.48053">
        <ele>285.6</ele>
        <time>2021-08-16T07:08:26Z</time>
      </trkpt>
      <trkpt lat="44.41937" lon="1.48054">
        <ele>285.6</ele>
        <time>2021-08-16T07:08:27Z</time>
      </trkpt>
      <trkpt lat="44.41934" lon="1.48054">
        <ele>285.6</ele>
        <time>2021-08-16T07:08:28Z</time>
      </trkpt>
      <trkpt lat="44.4193" lon="1.48054">
        <ele>285.5</ele>
        <time>2021-08-16T07:08:29Z</time>
      </trkpt>
      <trkpt lat="44.41927" lon="1.48054">
        <ele>285.5</ele>
        <time>2021-08-16T07:08:30Z</time>
      </trkpt>
      <trkpt lat="44.41921" lon="1.48053">
        <ele>285.3</ele>
        <time>2021-08-16T07:08:32Z</time>
      </trkpt>
      <trkpt lat="44.41917" lon="1.48053">
        <ele>285.2</ele>
        <time>2021-08-16T07:08:33Z</time>
      </trkpt>
      <trkpt lat="44.41913" lon="1.48053">
        <ele>285</ele>
        <time>2021-08-16T07:08:34Z</time>
      </trkpt>
      <trkpt lat="44.41908" lon="1.48053">
        <ele>284.9</ele>
        <time>2021-08-16T07:08:36Z</time>
      </trkpt>
      <trkpt lat="44.41904" lon="1.48053">
        <ele>284.7</ele>
        <time>2021-08-16T07:08:37Z</time>
      </trkpt>
      <trkpt lat="44.41898" lon="1.48053">
        <ele>284.4</ele>
        <time>2021-08-16T07:08:38Z</time>
      </trkpt>
      <trkpt lat="44.41894" lon="1.48053">
        <ele>284.3</ele>
        <time>2021-08-16T07:08:39Z</time>
      </trkpt>
      <trkpt lat="44.4189" lon="1.48053">
        <ele>284.1</ele>
        <time>2021-08-16T07:08:40Z</time>
      </trkpt>
      <trkpt lat="44.41883" lon="1.48053">
        <ele>283.8</ele>
        <time>2021-08-16T07:08:42Z</time>
      </trkpt>
      <trkpt lat="44.41878" lon="1.48053">
        <ele>283.7</ele>
        <time>2021-08-16T07:08:43Z</time>
      </trkpt>
      <trkpt lat="44.41873" lon="1.48053">
        <ele>283.5</ele>
        <time>2021-08-16T07:08:44Z</time>
      </trkpt>
      <trkpt lat="44.41866" lon="1.48053">
        <ele>283.2</ele>
        <time>2021-08-16T07:08:46Z</time>
      </trkpt>
      <trkpt lat="44.41862" lon="1.48052">
        <ele>283</ele>
        <time>2021-08-16T07:08:47Z</time>
      </trkpt>
      <trkpt lat="44.41858" lon="1.48052">
        <ele>282.8</ele>
        <time>2021-08-16T07:08:48Z</time>
      </trkpt>
      <trkpt lat="44.41851" lon="1.48052">
        <ele>282.6</ele>
        <time>2021-08-16T07:08:50Z</time>
      </trkpt>
      <trkpt lat="44.41846" lon="1.48053">
        <ele>282.4</ele>
        <time>2021-08-16T07:08:51Z</time>
      </trkpt>
      <trkpt lat="44.41841" lon="1.48053">
        <ele>282.2</ele>
        <time>2021-08-16T07:08:52Z</time>
      </trkpt>
      <trkpt lat="44.41837" lon="1.48054">
        <ele>282</ele>
        <time>2021-08-16T07:08:54Z</time>
      </trkpt>
      <trkpt lat="44.41833" lon="1.48055">
        <ele>281.8</ele>
        <time>2021-08-16T07:08:55Z</time>
      </trkpt>
      <trkpt lat="44.41828" lon="1.48055">
        <ele>281.6</ele>
        <time>2021-08-16T07:08:56Z</time>
      </trkpt>
      <trkpt lat="44.41824" lon="1.48055">
        <ele>281.5</ele>
        <time>2021-08-16T07:08:57Z</time>
      </trkpt>
      <trkpt lat="44.41819" lon="1.48055">
        <ele>281.3</ele>
        <time>2021-08-16T07:08:58Z</time>
      </trkpt>
      <trkpt lat="44.41813" lon="1.48054">
        <ele>281.1</ele>
        <time>2021-08-16T07:08:59Z</time>
      </trkpt>
      <trkpt lat="44.41809" lon="1.48053">
        <ele>280.9</ele>
        <time>2021-08-16T07:09:01Z</time>
      </trkpt>
      <trkpt lat="44.41804" lon="1.48053">
        <ele>280.7</ele>
        <time>2021-08-16T07:09:02Z</time>
      </trkpt>
      <trkpt lat="44.41797" lon="1.48053">
        <ele>280.4</ele>
        <time>2021-08-16T07:09:03Z</time>
      </trkpt>
      <trkpt lat="44.41789" lon="1.48052">
        <ele>280.1</ele>
        <time>2021-08-16T07:09:05Z</time>
      </trkpt>
      <trkpt lat="44.41785" lon="1.48051">
        <ele>279.9</ele>
        <time>2021-08-16T07:09:06Z</time>
      </trkpt>
      <trkpt lat="44.4178" lon="1.48052">
        <ele>279.7</ele>
        <time>2021-08-16T07:09:07Z</time>
      </trkpt>
      <trkpt lat="44.41775" lon="1.48052">
        <ele>279.5</ele>
        <time>2021-08-16T07:09:08Z</time>
      </trkpt>
      <trkpt lat="44.41767" lon="1.4805">
        <ele>279.2</ele>
        <time>2021-08-16T07:09:10Z</time>
      </trkpt>
      <trkpt lat="44.4176" lon="1.48047">
        <ele>279</ele>
        <time>2021-08-16T07:09:12Z</time>
      </trkpt>
      <trkpt lat="44.41755" lon="1.48046">
        <ele>278.8</ele>
        <time>2021-08-16T07:09:13Z</time>
      </trkpt>
      <trkpt lat="44.41751" lon="1.48044">
        <ele>278.6</ele>
        <time>2021-08-16T07:09:14Z</time>
      </trkpt>
      <trkpt lat="44.41744" lon="1.48041">
        <ele>278.4</ele>
        <time>2021-08-16T07:09:16Z</time>
      </trkpt>
      <trkpt lat="44.4174" lon="1.48039">
        <ele>278.2</ele>
        <time>2021-08-16T07:09:17Z</time>
      </trkpt>
      <trkpt lat="44.41735" lon="1.48036">
        <ele>278.1</ele>
        <time>2021-08-16T07:09:18Z</time>
      </trkpt>
      <trkpt lat="44.41727" lon="1.48033">
        <ele>277.8</ele>
        <time>2021-08-16T07:09:20Z</time>
      </trkpt>
      <trkpt lat="44.41722" lon="1.48031">
        <ele>277.7</ele>
        <time>2021-08-16T07:09:21Z</time>
      </trkpt>
      <trkpt lat="44.41716" lon="1.48028">
        <ele>277.6</ele>
        <time>2021-08-16T07:09:22Z</time>
      </trkpt>
      <trkpt lat="44.41712" lon="1.48026">
        <ele>277.5</ele>
        <time>2021-08-16T07:09:23Z</time>
      </trkpt>
      <trkpt lat="44.41704" lon="1.48022">
        <ele>277.3</ele>
        <time>2021-08-16T07:09:25Z</time>
      </trkpt>
      <trkpt lat="44.41698" lon="1.48021">
        <ele>277.2</ele>
        <time>2021-08-16T07:09:27Z</time>
      </trkpt>
      <trkpt lat="44.41691" lon="1.48018">
        <ele>277.1</ele>
        <time>2021-08-16T07:09:28Z</time>
      </trkpt>
      <trkpt lat="44.41683" lon="1.48016">
        <ele>276.9</ele>
        <time>2021-08-16T07:09:30Z</time>
      </trkpt>
      <trkpt lat="44.41678" lon="1.48015">
        <ele>276.9</ele>
        <time>2021-08-16T07:09:31Z</time>
      </trkpt>
      <trkpt lat="44.41673" lon="1.48012">
        <ele>276.7</ele>
        <time>2021-08-16T07:09:32Z</time>
      </trkpt>
      <trkpt lat="44.41668" lon="1.4801">
        <ele>276.7</ele>
        <time>2021-08-16T07:09:34Z</time>
      </trkpt>
      <trkpt lat="44.41662" lon="1.48008">
        <ele>276.6</ele>
        <time>2021-08-16T07:09:35Z</time>
      </trkpt>
      <trkpt lat="44.41654" lon="1.48005">
        <ele>276.5</ele>
        <time>2021-08-16T07:09:37Z</time>
      </trkpt>
      <trkpt lat="44.4165" lon="1.48004">
        <ele>276.4</ele>
        <time>2021-08-16T07:09:38Z</time>
      </trkpt>
      <trkpt lat="44.41645" lon="1.48003">
        <ele>276.3</ele>
        <time>2021-08-16T07:09:40Z</time>
      </trkpt>
      <trkpt lat="44.41641" lon="1.48001">
        <ele>276.2</ele>
        <time>2021-08-16T07:09:41Z</time>
      </trkpt>
      <trkpt lat="44.41635" lon="1.47999">
        <ele>276.2</ele>
        <time>2021-08-16T07:09:42Z</time>
      </trkpt>
      <trkpt lat="44.41631" lon="1.47997">
        <ele>276.1</ele>
        <time>2021-08-16T07:09:43Z</time>
      </trkpt>
      <trkpt lat="44.41627" lon="1.47995">
        <ele>276.1</ele>
        <time>2021-08-16T07:09:44Z</time>
      </trkpt>
      <trkpt lat="44.4162" lon="1.47992">
        <ele>276</ele>
        <time>2021-08-16T07:09:46Z</time>
      </trkpt>
      <trkpt lat="44.41616" lon="1.47989">
        <ele>276</ele>
        <time>2021-08-16T07:09:47Z</time>
      </trkpt>
      <trkpt lat="44.41608" lon="1.47984">
        <ele>275.9</ele>
        <time>2021-08-16T07:09:49Z</time>
      </trkpt>
      <trkpt lat="44.41603" lon="1.4798">
        <ele>275.9</ele>
        <time>2021-08-16T07:09:50Z</time>
      </trkpt>
      <trkpt lat="44.41599" lon="1.47977">
        <ele>275.9</ele>
        <time>2021-08-16T07:09:51Z</time>
      </trkpt>
      <trkpt lat="44.41596" lon="1.47973">
        <ele>275.9</ele>
        <time>2021-08-16T07:09:52Z</time>
      </trkpt>
      <trkpt lat="44.41592" lon="1.47969">
        <ele>275.9</ele>
        <time>2021-08-16T07:09:53Z</time>
      </trkpt>
      <trkpt lat="44.41588" lon="1.47964">
        <ele>276</ele>
        <time>2021-08-16T07:09:54Z</time>
      </trkpt>
      <trkpt lat="44.41584" lon="1.4796">
        <ele>276</ele>
        <time>2021-08-16T07:09:56Z</time>
      </trkpt>
      <trkpt lat="44.41579" lon="1.47955">
        <ele>276.1</ele>
        <time>2021-08-16T07:09:57Z</time>
      </trkpt>
      <trkpt lat="44.41576" lon="1.47951">
        <ele>276.1</ele>
        <time>2021-08-16T07:09:58Z</time>
      </trkpt>
      <trkpt lat="44.41572" lon="1.47946">
        <ele>276.2</ele>
        <time>2021-08-16T07:10:00Z</time>
      </trkpt>
      <trkpt lat="44.41569" lon="1.47942">
        <ele>276.3</ele>
        <time>2021-08-16T07:10:01Z</time>
      </trkpt>
      <trkpt lat="44.41569" lon="1.47941">
        <ele>276.3</ele>
        <time>2021-08-16T07:10:02Z</time>
      </trkpt>
      <trkpt lat="44.41567" lon="1.4794">
        <ele>276.3</ele>
        <time>2021-08-16T07:10:04Z</time>
      </trkpt>
      <trkpt lat="44.41566" lon="1.47939">
        <ele>276.3</ele>
        <time>2021-08-16T07:10:05Z</time>
      </trkpt>
      <trkpt lat="44.41565" lon="1.47939">
        <ele>276.3</ele>
        <time>2021-08-16T07:10:06Z</time>
      </trkpt>
      <trkpt lat="44.41564" lon="1.47938">
        <ele>276.4</ele>
        <time>2021-08-16T07:10:08Z</time>
      </trkpt>
      <trkpt lat="44.41563" lon="1.47938">
        <ele>276.4</ele>
        <time>2021-08-16T07:10:10Z</time>
      </trkpt>
      <trkpt lat="44.41561" lon="1.47937">
        <ele>276.4</ele>
        <time>2021-08-16T07:10:11Z</time>
      </trkpt>
      <trkpt lat="44.4156" lon="1.47936">
        <ele>276.4</ele>
        <time>2021-08-16T07:10:12Z</time>
      </trkpt>
      <trkpt lat="44.41559" lon="1.47936">
        <ele>276.4</ele>
        <time>2021-08-16T07:19:58Z</time>
      </trkpt>
      <trkpt lat="44.41558" lon="1.47935">
        <ele>276.5</ele>
        <time>2021-08-16T07:19:59Z</time>
      </trkpt>
      <trkpt lat="44.41555" lon="1.47929">
        <ele>276.5</ele>
        <time>2021-08-16T07:20:00Z</time>
      </trkpt>
      <trkpt lat="44.41547" lon="1.47917">
        <ele>276.8</ele>
        <time>2021-08-16T07:20:02Z</time>
      </trkpt>
      <trkpt lat="44.41535" lon="1.47909">
        <ele>276.9</ele>
        <time>2021-08-16T07:20:04Z</time>
      </trkpt>
      <trkpt lat="44.41529" lon="1.47904">
        <ele>277</ele>
        <time>2021-08-16T07:20:05Z</time>
      </trkpt>
      <trkpt lat="44.41524" lon="1.47898">
        <ele>277.2</ele>
        <time>2021-08-16T07:20:06Z</time>
      </trkpt>
      <trkpt lat="44.41515" lon="1.47882">
        <ele>277.3</ele>
        <time>2021-08-16T07:20:08Z</time>
      </trkpt>
      <trkpt lat="44.41508" lon="1.47864">
        <ele>277.4</ele>
        <time>2021-08-16T07:20:10Z</time>
      </trkpt>
      <trkpt lat="44.41505" lon="1.47855">
        <ele>277.5</ele>
        <time>2021-08-16T07:20:11Z</time>
      </trkpt>
      <trkpt lat="44.415" lon="1.47846">
        <ele>277.7</ele>
        <time>2021-08-16T07:20:12Z</time>
      </trkpt>
      <trkpt lat="44.41493" lon="1.47829">
        <ele>278.1</ele>
        <time>2021-08-16T07:20:14Z</time>
      </trkpt>
      <trkpt lat="44.41486" lon="1.47813">
        <ele>278.6</ele>
        <time>2021-08-16T07:20:16Z</time>
      </trkpt>
      <trkpt lat="44.41482" lon="1.47805">
        <ele>278.9</ele>
        <time>2021-08-16T07:20:17Z</time>
      </trkpt>
      <trkpt lat="44.41475" lon="1.47789">
        <ele>279.5</ele>
        <time>2021-08-16T07:20:19Z</time>
      </trkpt>
      <trkpt lat="44.41471" lon="1.47781">
        <ele>279.9</ele>
        <time>2021-08-16T07:20:20Z</time>
      </trkpt>
      <trkpt lat="44.41465" lon="1.47767">
        <ele>280.6</ele>
        <time>2021-08-16T07:20:22Z</time>
      </trkpt>
      <trkpt lat="44.41462" lon="1.4776">
        <ele>280.9</ele>
        <time>2021-08-16T07:20:23Z</time>
      </trkpt>
      <trkpt lat="44.41459" lon="1.47753">
        <ele>281.2</ele>
        <time>2021-08-16T07:20:24Z</time>
      </trkpt>
      <trkpt lat="44.41454" lon="1.47741">
        <ele>281.9</ele>
        <time>2021-08-16T07:20:26Z</time>
      </trkpt>
      <trkpt lat="44.41449" lon="1.4773">
        <ele>282.4</ele>
        <time>2021-08-16T07:20:28Z</time>
      </trkpt>
      <trkpt lat="44.41447" lon="1.47726">
        <ele>282.6</ele>
        <time>2021-08-16T07:20:29Z</time>
      </trkpt>
      <trkpt lat="44.41445" lon="1.4772">
        <ele>282.9</ele>
        <time>2021-08-16T07:20:30Z</time>
      </trkpt>
      <trkpt lat="44.4144" lon="1.4771">
        <ele>283.4</ele>
        <time>2021-08-16T07:20:32Z</time>
      </trkpt>
      <trkpt lat="44.41435" lon="1.477">
        <ele>283.9</ele>
        <time>2021-08-16T07:20:34Z</time>
      </trkpt>
      <trkpt lat="44.41432" lon="1.47694">
        <ele>284.1</ele>
        <time>2021-08-16T07:20:35Z</time>
      </trkpt>
      <trkpt lat="44.41429" lon="1.47688">
        <ele>284.4</ele>
        <time>2021-08-16T07:20:36Z</time>
      </trkpt>
      <trkpt lat="44.41426" lon="1.47683">
        <ele>284.6</ele>
        <time>2021-08-16T07:20:37Z</time>
      </trkpt>
      <trkpt lat="44.41423" lon="1.47677">
        <ele>284.8</ele>
        <time>2021-08-16T07:20:38Z</time>
      </trkpt>
      <trkpt lat="44.41417" lon="1.47667">
        <ele>285.2</ele>
        <time>2021-08-16T07:20:40Z</time>
      </trkpt>
      <trkpt lat="44.41415" lon="1.47663">
        <ele>285.3</ele>
        <time>2021-08-16T07:20:41Z</time>
      </trkpt>
      <trkpt lat="44.41411" lon="1.47658">
        <ele>285.5</ele>
        <time>2021-08-16T07:20:42Z</time>
      </trkpt>
      <trkpt lat="44.41406" lon="1.47649">
        <ele>285.8</ele>
        <time>2021-08-16T07:20:44Z</time>
      </trkpt>
      <trkpt lat="44.414" lon="1.4764">
        <ele>286</ele>
        <time>2021-08-16T07:20:46Z</time>
      </trkpt>
      <trkpt lat="44.41397" lon="1.47635">
        <ele>286.1</ele>
        <time>2021-08-16T07:20:47Z</time>
      </trkpt>
      <trkpt lat="44.41393" lon="1.4763">
        <ele>286.2</ele>
        <time>2021-08-16T07:20:48Z</time>
      </trkpt>
      <trkpt lat="44.4139" lon="1.47625">
        <ele>286.4</ele>
        <time>2021-08-16T07:20:49Z</time>
      </trkpt>
      <trkpt lat="44.41387" lon="1.4762">
        <ele>286.5</ele>
        <time>2021-08-16T07:20:50Z</time>
      </trkpt>
      <trkpt lat="44.4138" lon="1.4761">
        <ele>286.7</ele>
        <time>2021-08-16T07:20:52Z</time>
      </trkpt>
      <trkpt lat="44.41377" lon="1.47605">
        <ele>286.8</ele>
        <time>2021-08-16T07:20:53Z</time>
      </trkpt>
      <trkpt lat="44.41371" lon="1.47596">
        <ele>287</ele>
        <time>2021-08-16T07:20:55Z</time>
      </trkpt>
      <trkpt lat="44.41369" lon="1.47592">
        <ele>287.1</ele>
        <time>2021-08-16T07:20:56Z</time>
      </trkpt>
      <trkpt lat="44.41363" lon="1.47582">
        <ele>287.4</ele>
        <time>2021-08-16T07:20:58Z</time>
      </trkpt>
      <trkpt lat="44.4136" lon="1.47577">
        <ele>287.5</ele>
        <time>2021-08-16T07:20:59Z</time>
      </trkpt>
      <trkpt lat="44.41357" lon="1.47572">
        <ele>287.7</ele>
        <time>2021-08-16T07:21:00Z</time>
      </trkpt>
      <trkpt lat="44.41354" lon="1.47567">
        <ele>287.8</ele>
        <time>2021-08-16T07:21:01Z</time>
      </trkpt>
      <trkpt lat="44.41348" lon="1.47557">
        <ele>288.1</ele>
        <time>2021-08-16T07:21:03Z</time>
      </trkpt>
      <trkpt lat="44.41342" lon="1.47546">
        <ele>288.4</ele>
        <time>2021-08-16T07:21:05Z</time>
      </trkpt>
      <trkpt lat="44.41336" lon="1.47538">
        <ele>288.7</ele>
        <time>2021-08-16T07:21:07Z</time>
      </trkpt>
      <trkpt lat="44.41333" lon="1.47533">
        <ele>288.8</ele>
        <time>2021-08-16T07:21:08Z</time>
      </trkpt>
      <trkpt lat="44.41328" lon="1.47524">
        <ele>289</ele>
        <time>2021-08-16T07:21:10Z</time>
      </trkpt>
      <trkpt lat="44.41325" lon="1.47519">
        <ele>289.1</ele>
        <time>2021-08-16T07:21:11Z</time>
      </trkpt>
      <trkpt lat="44.41322" lon="1.47514">
        <ele>289.2</ele>
        <time>2021-08-16T07:21:12Z</time>
      </trkpt>
      <trkpt lat="44.41317" lon="1.47505">
        <ele>289.4</ele>
        <time>2021-08-16T07:21:14Z</time>
      </trkpt>
      <trkpt lat="44.41312" lon="1.47496">
        <ele>289.5</ele>
        <time>2021-08-16T07:21:16Z</time>
      </trkpt>
      <trkpt lat="44.4131" lon="1.47491">
        <ele>289.6</ele>
        <time>2021-08-16T07:21:17Z</time>
      </trkpt>
      <trkpt lat="44.41305" lon="1.47482">
        <ele>289.6</ele>
        <time>2021-08-16T07:21:19Z</time>
      </trkpt>
      <trkpt lat="44.41303" lon="1.47477">
        <ele>289.7</ele>
        <time>2021-08-16T07:21:20Z</time>
      </trkpt>
      <trkpt lat="44.41298" lon="1.47466">
        <ele>289.7</ele>
        <time>2021-08-16T07:21:22Z</time>
      </trkpt>
      <trkpt lat="44.41292" lon="1.47456">
        <ele>289.6</ele>
        <time>2021-08-16T07:21:24Z</time>
      </trkpt>
      <trkpt lat="44.41289" lon="1.4745">
        <ele>289.5</ele>
        <time>2021-08-16T07:21:25Z</time>
      </trkpt>
      <trkpt lat="44.41286" lon="1.47443">
        <ele>289.4</ele>
        <time>2021-08-16T07:21:26Z</time>
      </trkpt>
      <trkpt lat="44.41281" lon="1.47431">
        <ele>289.1</ele>
        <time>2021-08-16T07:21:28Z</time>
      </trkpt>
      <trkpt lat="44.41276" lon="1.47419">
        <ele>288.7</ele>
        <time>2021-08-16T07:21:30Z</time>
      </trkpt>
      <trkpt lat="44.41274" lon="1.47412">
        <ele>288.5</ele>
        <time>2021-08-16T07:21:31Z</time>
      </trkpt>
      <trkpt lat="44.41271" lon="1.47405">
        <ele>288.4</ele>
        <time>2021-08-16T07:21:32Z</time>
      </trkpt>
      <trkpt lat="44.41266" lon="1.47389">
        <ele>288.1</ele>
        <time>2021-08-16T07:21:34Z</time>
      </trkpt>
      <trkpt lat="44.41262" lon="1.47374">
        <ele>287.7</ele>
        <time>2021-08-16T07:21:36Z</time>
      </trkpt>
      <trkpt lat="44.41258" lon="1.47357">
        <ele>287.4</ele>
        <time>2021-08-16T07:21:38Z</time>
      </trkpt>
      <trkpt lat="44.41253" lon="1.47341">
        <ele>287</ele>
        <time>2021-08-16T07:21:40Z</time>
      </trkpt>
      <trkpt lat="44.41251" lon="1.47333">
        <ele>286.9</ele>
        <time>2021-08-16T07:21:41Z</time>
      </trkpt>
      <trkpt lat="44.41249" lon="1.47325">
        <ele>286.7</ele>
        <time>2021-08-16T07:21:42Z</time>
      </trkpt>
      <trkpt lat="44.41244" lon="1.4731">
        <ele>286.4</ele>
        <time>2021-08-16T07:21:44Z</time>
      </trkpt>
      <trkpt lat="44.41238" lon="1.47295">
        <ele>286</ele>
        <time>2021-08-16T07:21:46Z</time>
      </trkpt>
      <trkpt lat="44.41235" lon="1.47287">
        <ele>285.7</ele>
        <time>2021-08-16T07:21:47Z</time>
      </trkpt>
      <trkpt lat="44.41232" lon="1.4728">
        <ele>285.5</ele>
        <time>2021-08-16T07:21:48Z</time>
      </trkpt>
      <trkpt lat="44.41226" lon="1.47265">
        <ele>285</ele>
        <time>2021-08-16T07:21:50Z</time>
      </trkpt>
      <trkpt lat="44.41219" lon="1.47251">
        <ele>284.5</ele>
        <time>2021-08-16T07:21:52Z</time>
      </trkpt>
      <trkpt lat="44.41215" lon="1.47244">
        <ele>284.3</ele>
        <time>2021-08-16T07:21:53Z</time>
      </trkpt>
      <trkpt lat="44.41208" lon="1.47229">
        <ele>283.7</ele>
        <time>2021-08-16T07:21:55Z</time>
      </trkpt>
      <trkpt lat="44.41204" lon="1.47222">
        <ele>283.4</ele>
        <time>2021-08-16T07:21:56Z</time>
      </trkpt>
      <trkpt lat="44.41197" lon="1.47207">
        <ele>282.8</ele>
        <time>2021-08-16T07:21:58Z</time>
      </trkpt>
      <trkpt lat="44.41189" lon="1.47192">
        <ele>282.1</ele>
        <time>2021-08-16T07:22:00Z</time>
      </trkpt>
      <trkpt lat="44.41184" lon="1.47184">
        <ele>281.8</ele>
        <time>2021-08-16T07:22:01Z</time>
      </trkpt>
      <trkpt lat="44.4118" lon="1.47176">
        <ele>281.4</ele>
        <time>2021-08-16T07:22:02Z</time>
      </trkpt>
      <trkpt lat="44.41171" lon="1.4716">
        <ele>280.7</ele>
        <time>2021-08-16T07:22:04Z</time>
      </trkpt>
      <trkpt lat="44.41167" lon="1.47152">
        <ele>280.3</ele>
        <time>2021-08-16T07:22:05Z</time>
      </trkpt>
      <trkpt lat="44.41158" lon="1.47135">
        <ele>279.5</ele>
        <time>2021-08-16T07:22:07Z</time>
      </trkpt>
      <trkpt lat="44.41154" lon="1.47125">
        <ele>279.1</ele>
        <time>2021-08-16T07:22:08Z</time>
      </trkpt>
      <trkpt lat="44.41146" lon="1.47108">
        <ele>278.5</ele>
        <time>2021-08-16T07:22:10Z</time>
      </trkpt>
      <trkpt lat="44.41141" lon="1.471">
        <ele>278.2</ele>
        <time>2021-08-16T07:22:11Z</time>
      </trkpt>
      <trkpt lat="44.41136" lon="1.47092">
        <ele>277.9</ele>
        <time>2021-08-16T07:22:12Z</time>
      </trkpt>
      <trkpt lat="44.41131" lon="1.47085">
        <ele>277.7</ele>
        <time>2021-08-16T07:22:13Z</time>
      </trkpt>
      <trkpt lat="44.41125" lon="1.47079">
        <ele>277.5</ele>
        <time>2021-08-16T07:22:14Z</time>
      </trkpt>
      <trkpt lat="44.41114" lon="1.47067">
        <ele>277.1</ele>
        <time>2021-08-16T07:22:16Z</time>
      </trkpt>
      <trkpt lat="44.41104" lon="1.47056">
        <ele>276.8</ele>
        <time>2021-08-16T07:22:18Z</time>
      </trkpt>
      <trkpt lat="44.41098" lon="1.4705">
        <ele>276.7</ele>
        <time>2021-08-16T07:22:19Z</time>
      </trkpt>
      <trkpt lat="44.41093" lon="1.47044">
        <ele>276.5</ele>
        <time>2021-08-16T07:22:20Z</time>
      </trkpt>
      <trkpt lat="44.41081" lon="1.47033">
        <ele>276.2</ele>
        <time>2021-08-16T07:22:22Z</time>
      </trkpt>
      <trkpt lat="44.41076" lon="1.47028">
        <ele>276</ele>
        <time>2021-08-16T07:22:23Z</time>
      </trkpt>
      <trkpt lat="44.41071" lon="1.47022">
        <ele>275.9</ele>
        <time>2021-08-16T07:22:24Z</time>
      </trkpt>
      <trkpt lat="44.4106" lon="1.47009">
        <ele>275.6</ele>
        <time>2021-08-16T07:22:26Z</time>
      </trkpt>
      <trkpt lat="44.4105" lon="1.46998">
        <ele>275.3</ele>
        <time>2021-08-16T07:22:28Z</time>
      </trkpt>
      <trkpt lat="44.41039" lon="1.46986">
        <ele>275.2</ele>
        <time>2021-08-16T07:22:30Z</time>
      </trkpt>
      <trkpt lat="44.41034" lon="1.4698">
        <ele>275.1</ele>
        <time>2021-08-16T07:22:31Z</time>
      </trkpt>
      <trkpt lat="44.41028" lon="1.46974">
        <ele>275.1</ele>
        <time>2021-08-16T07:22:32Z</time>
      </trkpt>
      <trkpt lat="44.41017" lon="1.46964">
        <ele>274.9</ele>
        <time>2021-08-16T07:22:34Z</time>
      </trkpt>
      <trkpt lat="44.41007" lon="1.46956">
        <ele>274.8</ele>
        <time>2021-08-16T07:22:36Z</time>
      </trkpt>
      <trkpt lat="44.40996" lon="1.46949">
        <ele>274.6</ele>
        <time>2021-08-16T07:22:38Z</time>
      </trkpt>
      <trkpt lat="44.40985" lon="1.46943">
        <ele>274.4</ele>
        <time>2021-08-16T07:22:40Z</time>
      </trkpt>
      <trkpt lat="44.40978" lon="1.46941">
        <ele>274.3</ele>
        <time>2021-08-16T07:22:41Z</time>
      </trkpt>
      <trkpt lat="44.40965" lon="1.46935">
        <ele>274.1</ele>
        <time>2021-08-16T07:22:43Z</time>
      </trkpt>
      <trkpt lat="44.40959" lon="1.46932">
        <ele>273.9</ele>
        <time>2021-08-16T07:22:44Z</time>
      </trkpt>
      <trkpt lat="44.40949" lon="1.46927">
        <ele>273.6</ele>
        <time>2021-08-16T07:22:46Z</time>
      </trkpt>
      <trkpt lat="44.40943" lon="1.46924">
        <ele>273.5</ele>
        <time>2021-08-16T07:22:47Z</time>
      </trkpt>
      <trkpt lat="44.40932" lon="1.46919">
        <ele>273.3</ele>
        <time>2021-08-16T07:22:49Z</time>
      </trkpt>
      <trkpt lat="44.40928" lon="1.46914">
        <ele>273.3</ele>
        <time>2021-08-16T07:22:50Z</time>
      </trkpt>
      <trkpt lat="44.4092" lon="1.46906">
        <ele>273.1</ele>
        <time>2021-08-16T07:22:52Z</time>
      </trkpt>
      <trkpt lat="44.40918" lon="1.46904">
        <ele>273.1</ele>
        <time>2021-08-16T07:22:54Z</time>
      </trkpt>
      <trkpt lat="44.40916" lon="1.46903">
        <ele>273.1</ele>
        <time>2021-08-16T07:22:56Z</time>
      </trkpt>
      <trkpt lat="44.40914" lon="1.46901">
        <ele>273.1</ele>
        <time>2021-08-16T07:22:58Z</time>
      </trkpt>
      <trkpt lat="44.40911" lon="1.469">
        <ele>273</ele>
        <time>2021-08-16T07:22:59Z</time>
      </trkpt>
      <trkpt lat="44.40909" lon="1.469">
        <ele>273.1</ele>
        <time>2021-08-16T07:23:01Z</time>
      </trkpt>
      <trkpt lat="44.40909" lon="1.46901">
        <ele>273.1</ele>
        <time>2021-08-16T07:23:02Z</time>
      </trkpt>
      <trkpt lat="44.40909" lon="1.46906">
        <ele>273.2</ele>
        <time>2021-08-16T07:23:04Z</time>
      </trkpt>
      <trkpt lat="44.4091" lon="1.46907">
        <ele>273.2</ele>
        <time>2021-08-16T07:23:05Z</time>
      </trkpt>
      <trkpt lat="44.40912" lon="1.46906">
        <ele>273.3</ele>
        <time>2021-08-16T07:23:06Z</time>
      </trkpt>
      <trkpt lat="44.40916" lon="1.46905">
        <ele>273.4</ele>
        <time>2021-08-16T07:23:07Z</time>
      </trkpt>
      <trkpt lat="44.40917" lon="1.46905">
        <ele>273.5</ele>
        <time>2021-08-16T07:23:08Z</time>
      </trkpt>
      <trkpt lat="44.40924" lon="1.46902">
        <ele>273.8</ele>
        <time>2021-08-16T07:23:10Z</time>
      </trkpt>
      <trkpt lat="44.40927" lon="1.46899">
        <ele>273.9</ele>
        <time>2021-08-16T07:23:11Z</time>
      </trkpt>
      <trkpt lat="44.40933" lon="1.46896">
        <ele>274.3</ele>
        <time>2021-08-16T07:23:13Z</time>
      </trkpt>
      <trkpt lat="44.40936" lon="1.46894">
        <ele>274.5</ele>
        <time>2021-08-16T07:23:14Z</time>
      </trkpt>
      <trkpt lat="44.40944" lon="1.46891">
        <ele>274.8</ele>
        <time>2021-08-16T07:23:16Z</time>
      </trkpt>
      <trkpt lat="44.4095" lon="1.46888">
        <ele>275.2</ele>
        <time>2021-08-16T07:23:18Z</time>
      </trkpt>
      <trkpt lat="44.40954" lon="1.46886">
        <ele>275.4</ele>
        <time>2021-08-16T07:23:19Z</time>
      </trkpt>
      <trkpt lat="44.40958" lon="1.46884">
        <ele>275.6</ele>
        <time>2021-08-16T07:23:20Z</time>
      </trkpt>
      <trkpt lat="44.40966" lon="1.46881">
        <ele>276</ele>
        <time>2021-08-16T07:23:22Z</time>
      </trkpt>
      <trkpt lat="44.40969" lon="1.46879">
        <ele>276.2</ele>
        <time>2021-08-16T07:23:23Z</time>
      </trkpt>
      <trkpt lat="44.40973" lon="1.46877">
        <ele>276.4</ele>
        <time>2021-08-16T07:23:24Z</time>
      </trkpt>
      <trkpt lat="44.40976" lon="1.46875">
        <ele>276.6</ele>
        <time>2021-08-16T07:23:25Z</time>
      </trkpt>
      <trkpt lat="44.40981" lon="1.46873">
        <ele>276.9</ele>
        <time>2021-08-16T07:23:27Z</time>
      </trkpt>
      <trkpt lat="44.40986" lon="1.46872">
        <ele>277.2</ele>
        <time>2021-08-16T07:23:28Z</time>
      </trkpt>
      <trkpt lat="44.40992" lon="1.46871">
        <ele>277.6</ele>
        <time>2021-08-16T07:23:30Z</time>
      </trkpt>
      <trkpt lat="44.40998" lon="1.46871">
        <ele>278</ele>
        <time>2021-08-16T07:23:31Z</time>
      </trkpt>
      <trkpt lat="44.41003" lon="1.46871">
        <ele>278.2</ele>
        <time>2021-08-16T07:23:33Z</time>
      </trkpt>
      <trkpt lat="44.41009" lon="1.46871">
        <ele>278.6</ele>
        <time>2021-08-16T07:23:34Z</time>
      </trkpt>
      <trkpt lat="44.41014" lon="1.4687">
        <ele>279</ele>
        <time>2021-08-16T07:23:36Z</time>
      </trkpt>
      <trkpt lat="44.4102" lon="1.4687">
        <ele>279.3</ele>
        <time>2021-08-16T07:23:37Z</time>
      </trkpt>
      <trkpt lat="44.41024" lon="1.4687">
        <ele>279.6</ele>
        <time>2021-08-16T07:23:38Z</time>
      </trkpt>
      <trkpt lat="44.41027" lon="1.4687">
        <ele>279.9</ele>
        <time>2021-08-16T07:23:39Z</time>
      </trkpt>
      <trkpt lat="44.41031" lon="1.4687">
        <ele>280.1</ele>
        <time>2021-08-16T07:23:40Z</time>
      </trkpt>
      <trkpt lat="44.41034" lon="1.4687">
        <ele>280.3</ele>
        <time>2021-08-16T07:23:41Z</time>
      </trkpt>
      <trkpt lat="44.41037" lon="1.4687">
        <ele>280.5</ele>
        <time>2021-08-16T07:23:42Z</time>
      </trkpt>
      <trkpt lat="44.41041" lon="1.4687">
        <ele>280.6</ele>
        <time>2021-08-16T07:23:43Z</time>
      </trkpt>
      <trkpt lat="44.41045" lon="1.4687">
        <ele>280.8</ele>
        <time>2021-08-16T07:23:44Z</time>
      </trkpt>
      <trkpt lat="44.41052" lon="1.4687">
        <ele>281.1</ele>
        <time>2021-08-16T07:23:46Z</time>
      </trkpt>
      <trkpt lat="44.41058" lon="1.4687">
        <ele>281.3</ele>
        <time>2021-08-16T07:23:48Z</time>
      </trkpt>
      <trkpt lat="44.41062" lon="1.46871">
        <ele>281.5</ele>
        <time>2021-08-16T07:23:49Z</time>
      </trkpt>
      <trkpt lat="44.41066" lon="1.46871">
        <ele>281.6</ele>
        <time>2021-08-16T07:23:50Z</time>
      </trkpt>
      <trkpt lat="44.41073" lon="1.46869">
        <ele>281.8</ele>
        <time>2021-08-16T07:23:52Z</time>
      </trkpt>
      <trkpt lat="44.41077" lon="1.46867">
        <ele>281.9</ele>
        <time>2021-08-16T07:23:53Z</time>
      </trkpt>
      <trkpt lat="44.41084" lon="1.46867">
        <ele>282.1</ele>
        <time>2021-08-16T07:23:55Z</time>
      </trkpt>
      <trkpt lat="44.41087" lon="1.46867">
        <ele>282.1</ele>
        <time>2021-08-16T07:23:56Z</time>
      </trkpt>
      <trkpt lat="44.41092" lon="1.46865">
        <ele>282.3</ele>
        <time>2021-08-16T07:23:58Z</time>
      </trkpt>
      <trkpt lat="44.41097" lon="1.46863">
        <ele>282.3</ele>
        <time>2021-08-16T07:23:59Z</time>
      </trkpt>
      <trkpt lat="44.41102" lon="1.46861">
        <ele>282.4</ele>
        <time>2021-08-16T07:24:01Z</time>
      </trkpt>
      <trkpt lat="44.41105" lon="1.4686">
        <ele>282.5</ele>
        <time>2021-08-16T07:24:02Z</time>
      </trkpt>
      <trkpt lat="44.41108" lon="1.46859">
        <ele>282.5</ele>
        <time>2021-08-16T07:24:03Z</time>
      </trkpt>
      <trkpt lat="44.41115" lon="1.46858">
        <ele>282.5</ele>
        <time>2021-08-16T07:24:05Z</time>
      </trkpt>
      <trkpt lat="44.41121" lon="1.46855">
        <ele>282.5</ele>
        <time>2021-08-16T07:24:07Z</time>
      </trkpt>
      <trkpt lat="44.41127" lon="1.46852">
        <ele>282.5</ele>
        <time>2021-08-16T07:24:09Z</time>
      </trkpt>
      <trkpt lat="44.41132" lon="1.4685">
        <ele>282.4</ele>
        <time>2021-08-16T07:24:10Z</time>
      </trkpt>
      <trkpt lat="44.41136" lon="1.46848">
        <ele>282.4</ele>
        <time>2021-08-16T07:24:11Z</time>
      </trkpt>
      <trkpt lat="44.4114" lon="1.46846">
        <ele>282.3</ele>
        <time>2021-08-16T07:24:12Z</time>
      </trkpt>
      <trkpt lat="44.41144" lon="1.46845">
        <ele>282.3</ele>
        <time>2021-08-16T07:24:13Z</time>
      </trkpt>
      <trkpt lat="44.41148" lon="1.46843">
        <ele>282.2</ele>
        <time>2021-08-16T07:24:14Z</time>
      </trkpt>
      <trkpt lat="44.41155" lon="1.4684">
        <ele>282.1</ele>
        <time>2021-08-16T07:24:16Z</time>
      </trkpt>
      <trkpt lat="44.4116" lon="1.46838">
        <ele>282</ele>
        <time>2021-08-16T07:24:17Z</time>
      </trkpt>
      <trkpt lat="44.41165" lon="1.46837">
        <ele>281.9</ele>
        <time>2021-08-16T07:24:18Z</time>
      </trkpt>
      <trkpt lat="44.41171" lon="1.46835">
        <ele>281.6</ele>
        <time>2021-08-16T07:24:19Z</time>
      </trkpt>
      <trkpt lat="44.41177" lon="1.46833">
        <ele>281.4</ele>
        <time>2021-08-16T07:24:21Z</time>
      </trkpt>
      <trkpt lat="44.41183" lon="1.46832">
        <ele>281.1</ele>
        <time>2021-08-16T07:24:22Z</time>
      </trkpt>
      <trkpt lat="44.41195" lon="1.46829">
        <ele>280.6</ele>
        <time>2021-08-16T07:24:24Z</time>
      </trkpt>
      <trkpt lat="44.41201" lon="1.46828">
        <ele>280.3</ele>
        <time>2021-08-16T07:24:25Z</time>
      </trkpt>
      <trkpt lat="44.41206" lon="1.46826">
        <ele>280</ele>
        <time>2021-08-16T07:24:26Z</time>
      </trkpt>
      <trkpt lat="44.41217" lon="1.46822">
        <ele>279.4</ele>
        <time>2021-08-16T07:24:28Z</time>
      </trkpt>
      <trkpt lat="44.41222" lon="1.4682">
        <ele>279.1</ele>
        <time>2021-08-16T07:24:29Z</time>
      </trkpt>
      <trkpt lat="44.41234" lon="1.46815">
        <ele>278.4</ele>
        <time>2021-08-16T07:24:31Z</time>
      </trkpt>
      <trkpt lat="44.4124" lon="1.46812">
        <ele>278</ele>
        <time>2021-08-16T07:24:32Z</time>
      </trkpt>
      <trkpt lat="44.41253" lon="1.46805">
        <ele>277.4</ele>
        <time>2021-08-16T07:24:34Z</time>
      </trkpt>
      <trkpt lat="44.41259" lon="1.46801">
        <ele>277.1</ele>
        <time>2021-08-16T07:24:35Z</time>
      </trkpt>
      <trkpt lat="44.41273" lon="1.46793">
        <ele>276.5</ele>
        <time>2021-08-16T07:24:37Z</time>
      </trkpt>
      <trkpt lat="44.4128" lon="1.46789">
        <ele>276.2</ele>
        <time>2021-08-16T07:24:38Z</time>
      </trkpt>
      <trkpt lat="44.41294" lon="1.4678">
        <ele>275.5</ele>
        <time>2021-08-16T07:24:40Z</time>
      </trkpt>
      <trkpt lat="44.413" lon="1.46773">
        <ele>275.2</ele>
        <time>2021-08-16T07:24:41Z</time>
      </trkpt>
      <trkpt lat="44.4131" lon="1.46759">
        <ele>274.5</ele>
        <time>2021-08-16T07:24:43Z</time>
      </trkpt>
      <trkpt lat="44.41315" lon="1.46751">
        <ele>274.1</ele>
        <time>2021-08-16T07:24:44Z</time>
      </trkpt>
      <trkpt lat="44.41326" lon="1.46736">
        <ele>273.7</ele>
        <time>2021-08-16T07:24:46Z</time>
      </trkpt>
      <trkpt lat="44.4133" lon="1.46728">
        <ele>273.4</ele>
        <time>2021-08-16T07:24:47Z</time>
      </trkpt>
      <trkpt lat="44.4134" lon="1.46711">
        <ele>272.9</ele>
        <time>2021-08-16T07:24:49Z</time>
      </trkpt>
      <trkpt lat="44.41345" lon="1.46704">
        <ele>272.7</ele>
        <time>2021-08-16T07:24:50Z</time>
      </trkpt>
      <trkpt lat="44.41355" lon="1.46689">
        <ele>272.4</ele>
        <time>2021-08-16T07:24:52Z</time>
      </trkpt>
      <trkpt lat="44.41359" lon="1.46682">
        <ele>272.2</ele>
        <time>2021-08-16T07:24:53Z</time>
      </trkpt>
      <trkpt lat="44.41368" lon="1.46667">
        <ele>271.9</ele>
        <time>2021-08-16T07:24:55Z</time>
      </trkpt>
      <trkpt lat="44.41372" lon="1.46659">
        <ele>271.7</ele>
        <time>2021-08-16T07:24:56Z</time>
      </trkpt>
      <trkpt lat="44.41379" lon="1.46644">
        <ele>271.4</ele>
        <time>2021-08-16T07:24:58Z</time>
      </trkpt>
      <trkpt lat="44.41383" lon="1.46636">
        <ele>271.3</ele>
        <time>2021-08-16T07:24:59Z</time>
      </trkpt>
      <trkpt lat="44.41387" lon="1.46629">
        <ele>271.1</ele>
        <time>2021-08-16T07:25:00Z</time>
      </trkpt>
      <trkpt lat="44.41391" lon="1.46622">
        <ele>271</ele>
        <time>2021-08-16T07:25:01Z</time>
      </trkpt>
      <trkpt lat="44.41396" lon="1.46616">
        <ele>270.8</ele>
        <time>2021-08-16T07:25:02Z</time>
      </trkpt>
      <trkpt lat="44.41405" lon="1.46604">
        <ele>270.4</ele>
        <time>2021-08-16T07:25:04Z</time>
      </trkpt>
      <trkpt lat="44.41409" lon="1.46598">
        <ele>270.2</ele>
        <time>2021-08-16T07:25:05Z</time>
      </trkpt>
      <trkpt lat="44.41419" lon="1.46586">
        <ele>269.8</ele>
        <time>2021-08-16T07:25:07Z</time>
      </trkpt>
      <trkpt lat="44.41424" lon="1.4658">
        <ele>269.5</ele>
        <time>2021-08-16T07:25:08Z</time>
      </trkpt>
      <trkpt lat="44.41433" lon="1.46568">
        <ele>269.1</ele>
        <time>2021-08-16T07:25:10Z</time>
      </trkpt>
      <trkpt lat="44.41437" lon="1.46562">
        <ele>268.9</ele>
        <time>2021-08-16T07:25:11Z</time>
      </trkpt>
      <trkpt lat="44.41446" lon="1.46549">
        <ele>268.5</ele>
        <time>2021-08-16T07:25:13Z</time>
      </trkpt>
      <trkpt lat="44.41451" lon="1.46543">
        <ele>268.3</ele>
        <time>2021-08-16T07:25:14Z</time>
      </trkpt>
      <trkpt lat="44.4146" lon="1.46531">
        <ele>267.9</ele>
        <time>2021-08-16T07:25:16Z</time>
      </trkpt>
      <trkpt lat="44.41465" lon="1.46525">
        <ele>267.7</ele>
        <time>2021-08-16T07:25:17Z</time>
      </trkpt>
      <trkpt lat="44.41474" lon="1.46512">
        <ele>267.5</ele>
        <time>2021-08-16T07:25:19Z</time>
      </trkpt>
      <trkpt lat="44.41478" lon="1.46506">
        <ele>267.4</ele>
        <time>2021-08-16T07:25:20Z</time>
      </trkpt>
      <trkpt lat="44.41485" lon="1.46492">
        <ele>267.3</ele>
        <time>2021-08-16T07:25:22Z</time>
      </trkpt>
      <trkpt lat="44.41489" lon="1.46477">
        <ele>267.2</ele>
        <time>2021-08-16T07:25:24Z</time>
      </trkpt>
      <trkpt lat="44.41491" lon="1.46469">
        <ele>267.2</ele>
        <time>2021-08-16T07:25:25Z</time>
      </trkpt>
      <trkpt lat="44.41493" lon="1.46462">
        <ele>267.2</ele>
        <time>2021-08-16T07:25:26Z</time>
      </trkpt>
      <trkpt lat="44.41499" lon="1.46449">
        <ele>267.3</ele>
        <time>2021-08-16T07:25:28Z</time>
      </trkpt>
      <trkpt lat="44.41502" lon="1.46443">
        <ele>267.4</ele>
        <time>2021-08-16T07:25:29Z</time>
      </trkpt>
      <trkpt lat="44.41508" lon="1.46432">
        <ele>267.5</ele>
        <time>2021-08-16T07:25:31Z</time>
      </trkpt>
      <trkpt lat="44.41511" lon="1.46426">
        <ele>267.7</ele>
        <time>2021-08-16T07:25:32Z</time>
      </trkpt>
      <trkpt lat="44.41517" lon="1.46414">
        <ele>268</ele>
        <time>2021-08-16T07:25:34Z</time>
      </trkpt>
      <trkpt lat="44.4152" lon="1.46408">
        <ele>268.2</ele>
        <time>2021-08-16T07:25:35Z</time>
      </trkpt>
      <trkpt lat="44.41525" lon="1.46396">
        <ele>268.6</ele>
        <time>2021-08-16T07:25:37Z</time>
      </trkpt>
      <trkpt lat="44.41528" lon="1.4639">
        <ele>268.8</ele>
        <time>2021-08-16T07:25:38Z</time>
      </trkpt>
      <trkpt lat="44.41534" lon="1.4638">
        <ele>269.3</ele>
        <time>2021-08-16T07:25:40Z</time>
      </trkpt>
      <trkpt lat="44.41539" lon="1.46372">
        <ele>269.6</ele>
        <time>2021-08-16T07:25:42Z</time>
      </trkpt>
      <trkpt lat="44.41544" lon="1.46364">
        <ele>269.9</ele>
        <time>2021-08-16T07:25:44Z</time>
      </trkpt>
      <trkpt lat="44.4155" lon="1.46356">
        <ele>270.2</ele>
        <time>2021-08-16T07:25:46Z</time>
      </trkpt>
      <trkpt lat="44.41554" lon="1.46348">
        <ele>270.5</ele>
        <time>2021-08-16T07:25:47Z</time>
      </trkpt>
      <trkpt lat="44.41552" lon="1.46352">
        <ele>270.6</ele>
        <time>2021-08-16T07:25:48Z</time>
      </trkpt>
      <trkpt lat="44.41556" lon="1.46344">
        <ele>270.9</ele>
        <time>2021-08-16T07:25:49Z</time>
      </trkpt>
      <trkpt lat="44.4156" lon="1.46336">
        <ele>271.1</ele>
        <time>2021-08-16T07:25:51Z</time>
      </trkpt>
      <trkpt lat="44.41563" lon="1.4633">
        <ele>271.3</ele>
        <time>2021-08-16T07:25:52Z</time>
      </trkpt>
      <trkpt lat="44.41568" lon="1.46321">
        <ele>271.6</ele>
        <time>2021-08-16T07:25:54Z</time>
      </trkpt>
      <trkpt lat="44.4157" lon="1.46318">
        <ele>271.7</ele>
        <time>2021-08-16T07:25:55Z</time>
      </trkpt>
      <trkpt lat="44.41573" lon="1.46311">
        <ele>272</ele>
        <time>2021-08-16T07:25:57Z</time>
      </trkpt>
      <trkpt lat="44.41576" lon="1.46305">
        <ele>272.2</ele>
        <time>2021-08-16T07:25:58Z</time>
      </trkpt>
      <trkpt lat="44.41579" lon="1.46301">
        <ele>272.4</ele>
        <time>2021-08-16T07:25:59Z</time>
      </trkpt>
      <trkpt lat="44.41581" lon="1.46297">
        <ele>272.5</ele>
        <time>2021-08-16T07:26:00Z</time>
      </trkpt>
      <trkpt lat="44.41584" lon="1.46292">
        <ele>272.7</ele>
        <time>2021-08-16T07:26:01Z</time>
      </trkpt>
      <trkpt lat="44.41584" lon="1.4629">
        <ele>272.8</ele>
        <time>2021-08-16T07:26:02Z</time>
      </trkpt>
      <trkpt lat="44.41587" lon="1.46285">
        <ele>272.9</ele>
        <time>2021-08-16T07:26:04Z</time>
      </trkpt>
      <trkpt lat="44.41589" lon="1.46279">
        <ele>273</ele>
        <time>2021-08-16T07:26:05Z</time>
      </trkpt>
      <trkpt lat="44.41593" lon="1.46274">
        <ele>273.1</ele>
        <time>2021-08-16T07:26:06Z</time>
      </trkpt>
      <trkpt lat="44.41596" lon="1.46269">
        <ele>273.2</ele>
        <time>2021-08-16T07:26:07Z</time>
      </trkpt>
      <trkpt lat="44.416" lon="1.46263">
        <ele>273.3</ele>
        <time>2021-08-16T07:26:09Z</time>
      </trkpt>
      <trkpt lat="44.41603" lon="1.46258">
        <ele>273.4</ele>
        <time>2021-08-16T07:26:10Z</time>
      </trkpt>
      <trkpt lat="44.41605" lon="1.46254">
        <ele>273.5</ele>
        <time>2021-08-16T07:26:11Z</time>
      </trkpt>
      <trkpt lat="44.41609" lon="1.46249">
        <ele>273.5</ele>
        <time>2021-08-16T07:26:13Z</time>
      </trkpt>
      <trkpt lat="44.4161" lon="1.46244">
        <ele>273.6</ele>
        <time>2021-08-16T07:26:14Z</time>
      </trkpt>
      <trkpt lat="44.41612" lon="1.46239">
        <ele>273.6</ele>
        <time>2021-08-16T07:26:15Z</time>
      </trkpt>
      <trkpt lat="44.41617" lon="1.46234">
        <ele>273.7</ele>
        <time>2021-08-16T07:26:16Z</time>
      </trkpt>
      <trkpt lat="44.41622" lon="1.46229">
        <ele>273.7</ele>
        <time>2021-08-16T07:26:18Z</time>
      </trkpt>
      <trkpt lat="44.41626" lon="1.46225">
        <ele>273.8</ele>
        <time>2021-08-16T07:26:19Z</time>
      </trkpt>
      <trkpt lat="44.41629" lon="1.46223">
        <ele>273.8</ele>
        <time>2021-08-16T07:26:20Z</time>
      </trkpt>
      <trkpt lat="44.41633" lon="1.46219">
        <ele>273.8</ele>
        <time>2021-08-16T07:26:21Z</time>
      </trkpt>
      <trkpt lat="44.41637" lon="1.46215">
        <ele>273.9</ele>
        <time>2021-08-16T07:26:23Z</time>
      </trkpt>
      <trkpt lat="44.41643" lon="1.4621">
        <ele>273.9</ele>
        <time>2021-08-16T07:26:24Z</time>
      </trkpt>
      <trkpt lat="44.41648" lon="1.46206">
        <ele>273.9</ele>
        <time>2021-08-16T07:26:25Z</time>
      </trkpt>
      <trkpt lat="44.41651" lon="1.46202">
        <ele>273.9</ele>
        <time>2021-08-16T07:26:26Z</time>
      </trkpt>
      <trkpt lat="44.41657" lon="1.46196">
        <ele>273.9</ele>
        <time>2021-08-16T07:26:28Z</time>
      </trkpt>
      <trkpt lat="44.41664" lon="1.46189">
        <ele>273.8</ele>
        <time>2021-08-16T07:26:29Z</time>
      </trkpt>
      <trkpt lat="44.41667" lon="1.46181">
        <ele>273.8</ele>
        <time>2021-08-16T07:26:31Z</time>
      </trkpt>
      <trkpt lat="44.41672" lon="1.4617">
        <ele>273.6</ele>
        <time>2021-08-16T07:26:32Z</time>
      </trkpt>
      <trkpt lat="44.41679" lon="1.46161">
        <ele>273.5</ele>
        <time>2021-08-16T07:26:34Z</time>
      </trkpt>
      <trkpt lat="44.41684" lon="1.46157">
        <ele>273.4</ele>
        <time>2021-08-16T07:26:35Z</time>
      </trkpt>
      <trkpt lat="44.41694" lon="1.46153">
        <ele>273.3</ele>
        <time>2021-08-16T07:26:37Z</time>
      </trkpt>
      <trkpt lat="44.41699" lon="1.46152">
        <ele>273.2</ele>
        <time>2021-08-16T07:26:38Z</time>
      </trkpt>
      <trkpt lat="44.41709" lon="1.4615">
        <ele>272.9</ele>
        <time>2021-08-16T07:26:40Z</time>
      </trkpt>
      <trkpt lat="44.41715" lon="1.4615">
        <ele>272.6</ele>
        <time>2021-08-16T07:26:41Z</time>
      </trkpt>
      <trkpt lat="44.41727" lon="1.46148">
        <ele>272.1</ele>
        <time>2021-08-16T07:26:43Z</time>
      </trkpt>
      <trkpt lat="44.41734" lon="1.46147">
        <ele>271.8</ele>
        <time>2021-08-16T07:26:44Z</time>
      </trkpt>
      <trkpt lat="44.41747" lon="1.4615">
        <ele>271.3</ele>
        <time>2021-08-16T07:26:46Z</time>
      </trkpt>
      <trkpt lat="44.4176" lon="1.46154">
        <ele>271</ele>
        <time>2021-08-16T07:26:48Z</time>
      </trkpt>
      <trkpt lat="44.41771" lon="1.46157">
        <ele>270.8</ele>
        <time>2021-08-16T07:26:50Z</time>
      </trkpt>
      <trkpt lat="44.4178" lon="1.4616">
        <ele>270.7</ele>
        <time>2021-08-16T07:26:52Z</time>
      </trkpt>
      <trkpt lat="44.41784" lon="1.4616">
        <ele>270.6</ele>
        <time>2021-08-16T07:26:53Z</time>
      </trkpt>
      <trkpt lat="44.41787" lon="1.4616">
        <ele>270.6</ele>
        <time>2021-08-16T07:26:54Z</time>
      </trkpt>
      <trkpt lat="44.41792" lon="1.46158">
        <ele>270.6</ele>
        <time>2021-08-16T07:26:55Z</time>
      </trkpt>
      <trkpt lat="44.41795" lon="1.46156">
        <ele>270.5</ele>
        <time>2021-08-16T07:26:56Z</time>
      </trkpt>
      <trkpt lat="44.41804" lon="1.46151">
        <ele>270.5</ele>
        <time>2021-08-16T07:26:58Z</time>
      </trkpt>
      <trkpt lat="44.41806" lon="1.46146">
        <ele>270.4</ele>
        <time>2021-08-16T07:26:59Z</time>
      </trkpt>
      <trkpt lat="44.41813" lon="1.46147">
        <ele>270.4</ele>
        <time>2021-08-16T07:27:01Z</time>
      </trkpt>
      <trkpt lat="44.41818" lon="1.46147">
        <ele>270.4</ele>
        <time>2021-08-16T07:27:02Z</time>
      </trkpt>
      <trkpt lat="44.41825" lon="1.46146">
        <ele>270.3</ele>
        <time>2021-08-16T07:27:04Z</time>
      </trkpt>
      <trkpt lat="44.41828" lon="1.46144">
        <ele>270.3</ele>
        <time>2021-08-16T07:27:05Z</time>
      </trkpt>
      <trkpt lat="44.41832" lon="1.46141">
        <ele>270.2</ele>
        <time>2021-08-16T07:27:07Z</time>
      </trkpt>
      <trkpt lat="44.41837" lon="1.46139">
        <ele>270.2</ele>
        <time>2021-08-16T07:27:08Z</time>
      </trkpt>
      <trkpt lat="44.41842" lon="1.46135">
        <ele>270.1</ele>
        <time>2021-08-16T07:27:09Z</time>
      </trkpt>
      <trkpt lat="44.41847" lon="1.46133">
        <ele>270</ele>
        <time>2021-08-16T07:27:11Z</time>
      </trkpt>
      <trkpt lat="44.41851" lon="1.46131">
        <ele>270</ele>
        <time>2021-08-16T07:27:12Z</time>
      </trkpt>
      <trkpt lat="44.41855" lon="1.4613">
        <ele>269.9</ele>
        <time>2021-08-16T07:27:13Z</time>
      </trkpt>
      <trkpt lat="44.41859" lon="1.46128">
        <ele>269.8</ele>
        <time>2021-08-16T07:27:14Z</time>
      </trkpt>
      <trkpt lat="44.41864" lon="1.46126">
        <ele>269.7</ele>
        <time>2021-08-16T07:27:16Z</time>
      </trkpt>
      <trkpt lat="44.41868" lon="1.46124">
        <ele>269.7</ele>
        <time>2021-08-16T07:27:17Z</time>
      </trkpt>
      <trkpt lat="44.41873" lon="1.46121">
        <ele>269.5</ele>
        <time>2021-08-16T07:27:18Z</time>
      </trkpt>
      <trkpt lat="44.41877" lon="1.46119">
        <ele>269.4</ele>
        <time>2021-08-16T07:27:19Z</time>
      </trkpt>
      <trkpt lat="44.41882" lon="1.46117">
        <ele>269.3</ele>
        <time>2021-08-16T07:27:21Z</time>
      </trkpt>
      <trkpt lat="44.41886" lon="1.46115">
        <ele>269.2</ele>
        <time>2021-08-16T07:27:22Z</time>
      </trkpt>
      <trkpt lat="44.4189" lon="1.46114">
        <ele>269</ele>
        <time>2021-08-16T07:27:23Z</time>
      </trkpt>
      <trkpt lat="44.41894" lon="1.46113">
        <ele>268.9</ele>
        <time>2021-08-16T07:27:24Z</time>
      </trkpt>
      <trkpt lat="44.41899" lon="1.46112">
        <ele>268.7</ele>
        <time>2021-08-16T07:27:26Z</time>
      </trkpt>
      <trkpt lat="44.41901" lon="1.46112">
        <ele>268.6</ele>
        <time>2021-08-16T07:27:27Z</time>
      </trkpt>
      <trkpt lat="44.41902" lon="1.46112">
        <ele>268.6</ele>
        <time>2021-08-16T07:27:28Z</time>
      </trkpt>
      <trkpt lat="44.41903" lon="1.46112">
        <ele>268.5</ele>
        <time>2021-08-16T07:27:29Z</time>
      </trkpt>
      <trkpt lat="44.41904" lon="1.46112">
        <ele>268.5</ele>
        <time>2021-08-16T07:27:31Z</time>
      </trkpt>
      <trkpt lat="44.41905" lon="1.46113">
        <ele>268.5</ele>
        <time>2021-08-16T07:27:32Z</time>
      </trkpt>
      <trkpt lat="44.41906" lon="1.46113">
        <ele>268.4</ele>
        <time>2021-08-16T07:27:34Z</time>
      </trkpt>
      <trkpt lat="44.41908" lon="1.46113">
        <ele>268.4</ele>
        <time>2021-08-16T07:27:36Z</time>
      </trkpt>
      <trkpt lat="44.41909" lon="1.46113">
        <ele>268.3</ele>
        <time>2021-08-16T07:27:37Z</time>
      </trkpt>
      <trkpt lat="44.4191" lon="1.46114">
        <ele>268.3</ele>
        <time>2021-08-16T07:30:28Z</time>
      </trkpt>
      <trkpt lat="44.41911" lon="1.46114">
        <ele>268.2</ele>
        <time>2021-08-16T07:30:30Z</time>
      </trkpt>
      <trkpt lat="44.41912" lon="1.46114">
        <ele>268.2</ele>
        <time>2021-08-16T07:30:31Z</time>
      </trkpt>
      <trkpt lat="44.41913" lon="1.46115">
        <ele>268.2</ele>
        <time>2021-08-16T07:30:32Z</time>
      </trkpt>
      <trkpt lat="44.41917" lon="1.46114">
        <ele>268</ele>
        <time>2021-08-16T07:30:34Z</time>
      </trkpt>
      <trkpt lat="44.4192" lon="1.46114">
        <ele>267.9</ele>
        <time>2021-08-16T07:30:35Z</time>
      </trkpt>
      <trkpt lat="44.41921" lon="1.46114">
        <ele>267.9</ele>
        <time>2021-08-16T07:30:36Z</time>
      </trkpt>
      <trkpt lat="44.41924" lon="1.46116">
        <ele>267.7</ele>
        <time>2021-08-16T07:30:38Z</time>
      </trkpt>
      <trkpt lat="44.41925" lon="1.46116">
        <ele>267.7</ele>
        <time>2021-08-16T07:30:39Z</time>
      </trkpt>
      <trkpt lat="44.41928" lon="1.46118">
        <ele>267.5</ele>
        <time>2021-08-16T07:30:40Z</time>
      </trkpt>
      <trkpt lat="44.41929" lon="1.46119">
        <ele>267.5</ele>
        <time>2021-08-16T07:30:41Z</time>
      </trkpt>
      <trkpt lat="44.41932" lon="1.4612">
        <ele>267.3</ele>
        <time>2021-08-16T07:30:42Z</time>
      </trkpt>
      <trkpt lat="44.41935" lon="1.46124">
        <ele>267.1</ele>
        <time>2021-08-16T07:30:44Z</time>
      </trkpt>
      <trkpt lat="44.41937" lon="1.46125">
        <ele>266.9</ele>
        <time>2021-08-16T07:30:45Z</time>
      </trkpt>
      <trkpt lat="44.41941" lon="1.46127">
        <ele>266.6</ele>
        <time>2021-08-16T07:30:47Z</time>
      </trkpt>
      <trkpt lat="44.41945" lon="1.46127">
        <ele>266.4</ele>
        <time>2021-08-16T07:30:48Z</time>
      </trkpt>
      <trkpt lat="44.41948" lon="1.46127">
        <ele>266.2</ele>
        <time>2021-08-16T07:30:49Z</time>
      </trkpt>
      <trkpt lat="44.41953" lon="1.46126">
        <ele>265.9</ele>
        <time>2021-08-16T07:30:51Z</time>
      </trkpt>
      <trkpt lat="44.41957" lon="1.46125">
        <ele>265.7</ele>
        <time>2021-08-16T07:30:52Z</time>
      </trkpt>
      <trkpt lat="44.41961" lon="1.46125">
        <ele>265.4</ele>
        <time>2021-08-16T07:30:53Z</time>
      </trkpt>
      <trkpt lat="44.41965" lon="1.46124">
        <ele>265.2</ele>
        <time>2021-08-16T07:30:55Z</time>
      </trkpt>
      <trkpt lat="44.41968" lon="1.46124">
        <ele>265</ele>
        <time>2021-08-16T07:30:56Z</time>
      </trkpt>
      <trkpt lat="44.41972" lon="1.46123">
        <ele>264.7</ele>
        <time>2021-08-16T07:30:57Z</time>
      </trkpt>
      <trkpt lat="44.41975" lon="1.46123">
        <ele>264.5</ele>
        <time>2021-08-16T07:30:58Z</time>
      </trkpt>
      <trkpt lat="44.41979" lon="1.46122">
        <ele>264.3</ele>
        <time>2021-08-16T07:30:59Z</time>
      </trkpt>
      <trkpt lat="44.41983" lon="1.46121">
        <ele>264</ele>
        <time>2021-08-16T07:31:00Z</time>
      </trkpt>
      <trkpt lat="44.41988" lon="1.46119">
        <ele>263.7</ele>
        <time>2021-08-16T07:31:02Z</time>
      </trkpt>
      <trkpt lat="44.41992" lon="1.46117">
        <ele>263.4</ele>
        <time>2021-08-16T07:31:03Z</time>
      </trkpt>
      <trkpt lat="44.41996" lon="1.46115">
        <ele>263.1</ele>
        <time>2021-08-16T07:31:04Z</time>
      </trkpt>
      <trkpt lat="44.42" lon="1.46112">
        <ele>262.8</ele>
        <time>2021-08-16T07:31:05Z</time>
      </trkpt>
      <trkpt lat="44.42007" lon="1.4611">
        <ele>262.3</ele>
        <time>2021-08-16T07:31:07Z</time>
      </trkpt>
      <trkpt lat="44.42011" lon="1.46111">
        <ele>262.1</ele>
        <time>2021-08-16T07:31:08Z</time>
      </trkpt>
      <trkpt lat="44.42015" lon="1.46111">
        <ele>261.8</ele>
        <time>2021-08-16T07:31:09Z</time>
      </trkpt>
      <trkpt lat="44.42019" lon="1.46112">
        <ele>261.5</ele>
        <time>2021-08-16T07:31:10Z</time>
      </trkpt>
      <trkpt lat="44.42023" lon="1.46112">
        <ele>261.3</ele>
        <time>2021-08-16T07:31:11Z</time>
      </trkpt>
      <trkpt lat="44.42027" lon="1.46111">
        <ele>261</ele>
        <time>2021-08-16T07:31:12Z</time>
      </trkpt>
      <trkpt lat="44.42033" lon="1.46112">
        <ele>260.7</ele>
        <time>2021-08-16T07:31:14Z</time>
      </trkpt>
      <trkpt lat="44.42036" lon="1.46112">
        <ele>260.5</ele>
        <time>2021-08-16T07:31:15Z</time>
      </trkpt>
      <trkpt lat="44.42041" lon="1.46112">
        <ele>260.2</ele>
        <time>2021-08-16T07:31:16Z</time>
      </trkpt>
      <trkpt lat="44.42045" lon="1.46112">
        <ele>259.9</ele>
        <time>2021-08-16T07:31:18Z</time>
      </trkpt>
      <trkpt lat="44.42049" lon="1.46112">
        <ele>259.7</ele>
        <time>2021-08-16T07:31:19Z</time>
      </trkpt>
      <trkpt lat="44.42052" lon="1.46111">
        <ele>259.6</ele>
        <time>2021-08-16T07:31:21Z</time>
      </trkpt>
      <trkpt lat="44.42056" lon="1.46111">
        <ele>259.4</ele>
        <time>2021-08-16T07:31:22Z</time>
      </trkpt>
      <trkpt lat="44.4206" lon="1.4611">
        <ele>259.2</ele>
        <time>2021-08-16T07:31:23Z</time>
      </trkpt>
      <trkpt lat="44.42064" lon="1.46109">
        <ele>258.9</ele>
        <time>2021-08-16T07:31:24Z</time>
      </trkpt>
      <trkpt lat="44.42068" lon="1.46108">
        <ele>258.7</ele>
        <time>2021-08-16T07:31:25Z</time>
      </trkpt>
      <trkpt lat="44.42073" lon="1.46107">
        <ele>258.5</ele>
        <time>2021-08-16T07:31:26Z</time>
      </trkpt>
      <trkpt lat="44.42078" lon="1.46105">
        <ele>258.3</ele>
        <time>2021-08-16T07:31:28Z</time>
      </trkpt>
      <trkpt lat="44.42083" lon="1.46101">
        <ele>258</ele>
        <time>2021-08-16T07:31:30Z</time>
      </trkpt>
      <trkpt lat="44.42086" lon="1.46098">
        <ele>257.9</ele>
        <time>2021-08-16T07:31:31Z</time>
      </trkpt>
      <trkpt lat="44.42089" lon="1.46096">
        <ele>257.7</ele>
        <time>2021-08-16T07:31:32Z</time>
      </trkpt>
      <trkpt lat="44.42093" lon="1.46094">
        <ele>257.6</ele>
        <time>2021-08-16T07:31:33Z</time>
      </trkpt>
      <trkpt lat="44.42096" lon="1.46092">
        <ele>257.4</ele>
        <time>2021-08-16T07:31:35Z</time>
      </trkpt>
      <trkpt lat="44.42099" lon="1.4609">
        <ele>257.3</ele>
        <time>2021-08-16T07:31:36Z</time>
      </trkpt>
      <trkpt lat="44.42103" lon="1.46089">
        <ele>257.1</ele>
        <time>2021-08-16T07:31:37Z</time>
      </trkpt>
      <trkpt lat="44.42108" lon="1.46087">
        <ele>256.9</ele>
        <time>2021-08-16T07:31:38Z</time>
      </trkpt>
      <trkpt lat="44.42112" lon="1.46085">
        <ele>256.7</ele>
        <time>2021-08-16T07:31:40Z</time>
      </trkpt>
      <trkpt lat="44.42116" lon="1.46083">
        <ele>256.5</ele>
        <time>2021-08-16T07:31:41Z</time>
      </trkpt>
      <trkpt lat="44.4212" lon="1.46082">
        <ele>256.3</ele>
        <time>2021-08-16T07:31:42Z</time>
      </trkpt>
      <trkpt lat="44.42122" lon="1.46081">
        <ele>256.2</ele>
        <time>2021-08-16T07:31:43Z</time>
      </trkpt>
      <trkpt lat="44.42127" lon="1.46079">
        <ele>256</ele>
        <time>2021-08-16T07:31:45Z</time>
      </trkpt>
      <trkpt lat="44.4213" lon="1.46079">
        <ele>255.9</ele>
        <time>2021-08-16T07:31:46Z</time>
      </trkpt>
      <trkpt lat="44.42134" lon="1.46078">
        <ele>255.7</ele>
        <time>2021-08-16T07:31:47Z</time>
      </trkpt>
      <trkpt lat="44.42138" lon="1.46077">
        <ele>255.6</ele>
        <time>2021-08-16T07:31:48Z</time>
      </trkpt>
      <trkpt lat="44.42141" lon="1.46078">
        <ele>255.4</ele>
        <time>2021-08-16T07:31:49Z</time>
      </trkpt>
      <trkpt lat="44.42145" lon="1.46078">
        <ele>255.3</ele>
        <time>2021-08-16T07:31:50Z</time>
      </trkpt>
      <trkpt lat="44.42151" lon="1.46079">
        <ele>255.1</ele>
        <time>2021-08-16T07:31:52Z</time>
      </trkpt>
      <trkpt lat="44.42154" lon="1.46079">
        <ele>254.9</ele>
        <time>2021-08-16T07:31:53Z</time>
      </trkpt>
      <trkpt lat="44.4216" lon="1.46079">
        <ele>254.7</ele>
        <time>2021-08-16T07:31:55Z</time>
      </trkpt>
      <trkpt lat="44.42164" lon="1.46076">
        <ele>254.5</ele>
        <time>2021-08-16T07:31:56Z</time>
      </trkpt>
      <trkpt lat="44.42167" lon="1.46073">
        <ele>254.4</ele>
        <time>2021-08-16T07:31:57Z</time>
      </trkpt>
      <trkpt lat="44.42171" lon="1.46069">
        <ele>254.2</ele>
        <time>2021-08-16T07:31:59Z</time>
      </trkpt>
      <trkpt lat="44.42174" lon="1.46065">
        <ele>254</ele>
        <time>2021-08-16T07:32:00Z</time>
      </trkpt>
      <trkpt lat="44.42177" lon="1.4606">
        <ele>253.8</ele>
        <time>2021-08-16T07:32:02Z</time>
      </trkpt>
      <trkpt lat="44.42179" lon="1.46056">
        <ele>253.7</ele>
        <time>2021-08-16T07:32:03Z</time>
      </trkpt>
      <trkpt lat="44.42181" lon="1.46052">
        <ele>253.6</ele>
        <time>2021-08-16T07:32:04Z</time>
      </trkpt>
      <trkpt lat="44.42184" lon="1.46049">
        <ele>253.5</ele>
        <time>2021-08-16T07:32:05Z</time>
      </trkpt>
      <trkpt lat="44.42186" lon="1.46046">
        <ele>253.3</ele>
        <time>2021-08-16T07:32:06Z</time>
      </trkpt>
      <trkpt lat="44.42191" lon="1.46042">
        <ele>253.1</ele>
        <time>2021-08-16T07:32:07Z</time>
      </trkpt>
      <trkpt lat="44.42195" lon="1.46039">
        <ele>252.9</ele>
        <time>2021-08-16T07:32:09Z</time>
      </trkpt>
      <trkpt lat="44.42199" lon="1.46033">
        <ele>252.7</ele>
        <time>2021-08-16T07:32:11Z</time>
      </trkpt>
      <trkpt lat="44.422" lon="1.4603">
        <ele>252.6</ele>
        <time>2021-08-16T07:32:12Z</time>
      </trkpt>
      <trkpt lat="44.42202" lon="1.46025">
        <ele>252.4</ele>
        <time>2021-08-16T07:32:14Z</time>
      </trkpt>
      <trkpt lat="44.42203" lon="1.46021">
        <ele>252.3</ele>
        <time>2021-08-16T07:32:15Z</time>
      </trkpt>
      <trkpt lat="44.42205" lon="1.46017">
        <ele>252.1</ele>
        <time>2021-08-16T07:32:17Z</time>
      </trkpt>
      <trkpt lat="44.42208" lon="1.46013">
        <ele>252</ele>
        <time>2021-08-16T07:32:18Z</time>
      </trkpt>
      <trkpt lat="44.4221" lon="1.46011">
        <ele>251.9</ele>
        <time>2021-08-16T07:32:19Z</time>
      </trkpt>
      <trkpt lat="44.42212" lon="1.46008">
        <ele>251.8</ele>
        <time>2021-08-16T07:32:21Z</time>
      </trkpt>
      <trkpt lat="44.42211" lon="1.46004">
        <ele>251.7</ele>
        <time>2021-08-16T07:32:22Z</time>
      </trkpt>
      <trkpt lat="44.4221" lon="1.45998">
        <ele>251.5</ele>
        <time>2021-08-16T07:32:24Z</time>
      </trkpt>
      <trkpt lat="44.4221" lon="1.45996">
        <ele>251.4</ele>
        <time>2021-08-16T07:32:25Z</time>
      </trkpt>
      <trkpt lat="44.4221" lon="1.45994">
        <ele>251.4</ele>
        <time>2021-08-16T07:32:26Z</time>
      </trkpt>
      <trkpt lat="44.4221" lon="1.45994">
        <ele>251.4</ele>
        <time>2021-08-16T07:32:28Z</time>
      </trkpt>
      <trkpt lat="44.4221" lon="1.45994">
        <ele>251.4</ele>
        <time>2021-08-16T07:32:29Z</time>
      </trkpt>
      <trkpt lat="44.4221" lon="1.45994">
        <ele>251.4</ele>
        <time>2021-08-16T07:32:30Z</time>
      </trkpt>
      <trkpt lat="44.4221" lon="1.45994">
        <ele>251.4</ele>
        <time>2021-08-16T07:32:32Z</time>
      </trkpt>
      <trkpt lat="44.4221" lon="1.45994">
        <ele>251.3</ele>
        <time>2021-08-16T07:32:34Z</time>
      </trkpt>
      <trkpt lat="44.4221" lon="1.45994">
        <ele>251.3</ele>
        <time>2021-08-16T07:32:35Z</time>
      </trkpt>
      <trkpt lat="44.42212" lon="1.4599">
        <ele>251.2</ele>
        <time>2021-08-16T07:33:05Z</time>
      </trkpt>
      <trkpt lat="44.42211" lon="1.45981">
        <ele>250.9</ele>
        <time>2021-08-16T07:33:07Z</time>
      </trkpt>
      <trkpt lat="44.42211" lon="1.45975">
        <ele>250.8</ele>
        <time>2021-08-16T07:33:08Z</time>
      </trkpt>
      <trkpt lat="44.42211" lon="1.45965">
        <ele>250.5</ele>
        <time>2021-08-16T07:33:10Z</time>
      </trkpt>
      <trkpt lat="44.42214" lon="1.45958">
        <ele>250.2</ele>
        <time>2021-08-16T07:33:12Z</time>
      </trkpt>
      <trkpt lat="44.42216" lon="1.45956">
        <ele>250.1</ele>
        <time>2021-08-16T07:33:13Z</time>
      </trkpt>
      <trkpt lat="44.42219" lon="1.45953">
        <ele>249.9</ele>
        <time>2021-08-16T07:33:14Z</time>
      </trkpt>
      <trkpt lat="44.42224" lon="1.45947">
        <ele>249.6</ele>
        <time>2021-08-16T07:33:16Z</time>
      </trkpt>
      <trkpt lat="44.42232" lon="1.45934">
        <ele>248.8</ele>
        <time>2021-08-16T07:33:18Z</time>
      </trkpt>
      <trkpt lat="44.42235" lon="1.45928">
        <ele>248.6</ele>
        <time>2021-08-16T07:33:19Z</time>
      </trkpt>
      <trkpt lat="44.42237" lon="1.45925">
        <ele>248.4</ele>
        <time>2021-08-16T07:33:20Z</time>
      </trkpt>
      <trkpt lat="44.42239" lon="1.45914">
        <ele>247.9</ele>
        <time>2021-08-16T07:33:22Z</time>
      </trkpt>
      <trkpt lat="44.42242" lon="1.4591">
        <ele>247.6</ele>
        <time>2021-08-16T07:33:23Z</time>
      </trkpt>
      <trkpt lat="44.42244" lon="1.45909">
        <ele>247.5</ele>
        <time>2021-08-16T07:33:24Z</time>
      </trkpt>
      <trkpt lat="44.42246" lon="1.45909">
        <ele>247.3</ele>
        <time>2021-08-16T07:33:25Z</time>
      </trkpt>
      <trkpt lat="44.4225" lon="1.45909">
        <ele>247.1</ele>
        <time>2021-08-16T07:33:26Z</time>
      </trkpt>
      <trkpt lat="44.42257" lon="1.45907">
        <ele>246.6</ele>
        <time>2021-08-16T07:33:28Z</time>
      </trkpt>
      <trkpt lat="44.42264" lon="1.45902">
        <ele>246</ele>
        <time>2021-08-16T07:33:30Z</time>
      </trkpt>
      <trkpt lat="44.42269" lon="1.45896">
        <ele>245.4</ele>
        <time>2021-08-16T07:33:31Z</time>
      </trkpt>
      <trkpt lat="44.42276" lon="1.45885">
        <ele>244.5</ele>
        <time>2021-08-16T07:33:33Z</time>
      </trkpt>
      <trkpt lat="44.42281" lon="1.4588">
        <ele>243.9</ele>
        <time>2021-08-16T07:33:35Z</time>
      </trkpt>
      <trkpt lat="44.42283" lon="1.45879">
        <ele>243.7</ele>
        <time>2021-08-16T07:33:36Z</time>
      </trkpt>
      <trkpt lat="44.42287" lon="1.45878">
        <ele>243.3</ele>
        <time>2021-08-16T07:33:38Z</time>
      </trkpt>
      <trkpt lat="44.42291" lon="1.45879">
        <ele>242.8</ele>
        <time>2021-08-16T07:33:39Z</time>
      </trkpt>
      <trkpt lat="44.42296" lon="1.45881">
        <ele>242.2</ele>
        <time>2021-08-16T07:33:41Z</time>
      </trkpt>
      <trkpt lat="44.42299" lon="1.45883">
        <ele>241.8</ele>
        <time>2021-08-16T07:33:42Z</time>
      </trkpt>
      <trkpt lat="44.42299" lon="1.45882">
        <ele>241.8</ele>
        <time>2021-08-16T07:33:43Z</time>
      </trkpt>
      <trkpt lat="44.42299" lon="1.45883">
        <ele>241.8</ele>
        <time>2021-08-16T07:33:44Z</time>
      </trkpt>
      <trkpt lat="44.42299" lon="1.45883">
        <ele>241.8</ele>
        <time>2021-08-16T07:33:46Z</time>
      </trkpt>
      <trkpt lat="44.42299" lon="1.45883">
        <ele>241.8</ele>
        <time>2021-08-16T07:33:47Z</time>
      </trkpt>
      <trkpt lat="44.42299" lon="1.45883">
        <ele>241.8</ele>
        <time>2021-08-16T07:33:49Z</time>
      </trkpt>
      <trkpt lat="44.42299" lon="1.45883">
        <ele>241.7</ele>
        <time>2021-08-16T07:33:50Z</time>
      </trkpt>
      <trkpt lat="44.42299" lon="1.45883">
        <ele>241.7</ele>
        <time>2021-08-16T07:33:52Z</time>
      </trkpt>
      <trkpt lat="44.42302" lon="1.45883">
        <ele>241.4</ele>
        <time>2021-08-16T07:33:55Z</time>
      </trkpt>
      <trkpt lat="44.42307" lon="1.45883">
        <ele>240.8</ele>
        <time>2021-08-16T07:33:57Z</time>
      </trkpt>
      <trkpt lat="44.42313" lon="1.45885">
        <ele>240.1</ele>
        <time>2021-08-16T07:33:58Z</time>
      </trkpt>
      <trkpt lat="44.42319" lon="1.45888">
        <ele>239.3</ele>
        <time>2021-08-16T07:33:59Z</time>
      </trkpt>
      <trkpt lat="44.42322" lon="1.45888">
        <ele>238.8</ele>
        <time>2021-08-16T07:34:01Z</time>
      </trkpt>
      <trkpt lat="44.42327" lon="1.45886">
        <ele>238.2</ele>
        <time>2021-08-16T07:34:02Z</time>
      </trkpt>
      <trkpt lat="44.42333" lon="1.45886">
        <ele>237.3</ele>
        <time>2021-08-16T07:34:04Z</time>
      </trkpt>
      <trkpt lat="44.42338" lon="1.45888">
        <ele>236.6</ele>
        <time>2021-08-16T07:34:05Z</time>
      </trkpt>
      <trkpt lat="44.42341" lon="1.45892">
        <ele>236.1</ele>
        <time>2021-08-16T07:34:06Z</time>
      </trkpt>
      <trkpt lat="44.4235" lon="1.45904">
        <ele>234.6</ele>
        <time>2021-08-16T07:34:08Z</time>
      </trkpt>
      <trkpt lat="44.4236" lon="1.4591">
        <ele>233.3</ele>
        <time>2021-08-16T07:34:10Z</time>
      </trkpt>
      <trkpt lat="44.42369" lon="1.45903">
        <ele>231.9</ele>
        <time>2021-08-16T07:34:12Z</time>
      </trkpt>
      <trkpt lat="44.42373" lon="1.45893">
        <ele>230.9</ele>
        <time>2021-08-16T07:34:13Z</time>
      </trkpt>
      <trkpt lat="44.42376" lon="1.45883">
        <ele>229.8</ele>
        <time>2021-08-16T07:34:14Z</time>
      </trkpt>
      <trkpt lat="44.42382" lon="1.45867">
        <ele>228.1</ele>
        <time>2021-08-16T07:34:16Z</time>
      </trkpt>
      <trkpt lat="44.42386" lon="1.45863">
        <ele>227.5</ele>
        <time>2021-08-16T07:34:17Z</time>
      </trkpt>
      <trkpt lat="44.42397" lon="1.45863">
        <ele>226.3</ele>
        <time>2021-08-16T07:34:19Z</time>
      </trkpt>
      <trkpt lat="44.42402" lon="1.45863">
        <ele>225.7</ele>
        <time>2021-08-16T07:34:20Z</time>
      </trkpt>
      <trkpt lat="44.42414" lon="1.45859">
        <ele>224.4</ele>
        <time>2021-08-16T07:34:22Z</time>
      </trkpt>
      <trkpt lat="44.4242" lon="1.45857">
        <ele>223.7</ele>
        <time>2021-08-16T07:34:23Z</time>
      </trkpt>
      <trkpt lat="44.42425" lon="1.45856">
        <ele>223.1</ele>
        <time>2021-08-16T07:34:24Z</time>
      </trkpt>
      <trkpt lat="44.4243" lon="1.45856">
        <ele>222.5</ele>
        <time>2021-08-16T07:34:25Z</time>
      </trkpt>
      <trkpt lat="44.42435" lon="1.45858">
        <ele>221.9</ele>
        <time>2021-08-16T07:34:26Z</time>
      </trkpt>
      <trkpt lat="44.42443" lon="1.4586">
        <ele>221</ele>
        <time>2021-08-16T07:34:28Z</time>
      </trkpt>
      <trkpt lat="44.42451" lon="1.45855">
        <ele>220</ele>
        <time>2021-08-16T07:34:30Z</time>
      </trkpt>
      <trkpt lat="44.42459" lon="1.45846">
        <ele>218.9</ele>
        <time>2021-08-16T07:34:32Z</time>
      </trkpt>
      <trkpt lat="44.42467" lon="1.45841">
        <ele>217.8</ele>
        <time>2021-08-16T07:34:34Z</time>
      </trkpt>
      <trkpt lat="44.42473" lon="1.45842">
        <ele>217</ele>
        <time>2021-08-16T07:34:35Z</time>
      </trkpt>
      <trkpt lat="44.4248" lon="1.45845">
        <ele>216.1</ele>
        <time>2021-08-16T07:34:36Z</time>
      </trkpt>
      <trkpt lat="44.42492" lon="1.4585">
        <ele>214.3</ele>
        <time>2021-08-16T07:34:38Z</time>
      </trkpt>
      <trkpt lat="44.42496" lon="1.45849">
        <ele>213.6</ele>
        <time>2021-08-16T07:34:39Z</time>
      </trkpt>
      <trkpt lat="44.42499" lon="1.45845">
        <ele>213</ele>
        <time>2021-08-16T07:34:41Z</time>
      </trkpt>
      <trkpt lat="44.42501" lon="1.45838">
        <ele>212.2</ele>
        <time>2021-08-16T07:34:42Z</time>
      </trkpt>
      <trkpt lat="44.42505" lon="1.45833">
        <ele>211.4</ele>
        <time>2021-08-16T07:34:43Z</time>
      </trkpt>
      <trkpt lat="44.4251" lon="1.45834">
        <ele>210.7</ele>
        <time>2021-08-16T07:34:44Z</time>
      </trkpt>
      <trkpt lat="44.42521" lon="1.45838">
        <ele>209</ele>
        <time>2021-08-16T07:34:46Z</time>
      </trkpt>
      <trkpt lat="44.42526" lon="1.45839">
        <ele>208.2</ele>
        <time>2021-08-16T07:34:47Z</time>
      </trkpt>
      <trkpt lat="44.42531" lon="1.4584">
        <ele>207.5</ele>
        <time>2021-08-16T07:34:49Z</time>
      </trkpt>
      <trkpt lat="44.42534" lon="1.4584">
        <ele>206.8</ele>
        <time>2021-08-16T07:34:50Z</time>
      </trkpt>
      <trkpt lat="44.42535" lon="1.45839">
        <ele>206.6</ele>
        <time>2021-08-16T07:34:52Z</time>
      </trkpt>
      <trkpt lat="44.42536" lon="1.45838">
        <ele>205.9</ele>
        <time>2021-08-16T07:34:53Z</time>
      </trkpt>
      <trkpt lat="44.42537" lon="1.45837">
        <ele>205.7</ele>
        <time>2021-08-16T07:34:55Z</time>
      </trkpt>
      <trkpt lat="44.42538" lon="1.45836">
        <ele>205.6</ele>
        <time>2021-08-16T07:34:56Z</time>
      </trkpt>
      <trkpt lat="44.42539" lon="1.45835">
        <ele>204.9</ele>
        <time>2021-08-16T07:34:58Z</time>
      </trkpt>
      <trkpt lat="44.42541" lon="1.45834">
        <ele>204.7</ele>
        <time>2021-08-16T07:34:59Z</time>
      </trkpt>
      <trkpt lat="44.42542" lon="1.45833">
        <ele>204.1</ele>
        <time>2021-08-16T07:35:06Z</time>
      </trkpt>
      <trkpt lat="44.42543" lon="1.45832">
        <ele>203.9</ele>
        <time>2021-08-16T07:35:07Z</time>
      </trkpt>
      <trkpt lat="44.42548" lon="1.45827">
        <ele>202.7</ele>
        <time>2021-08-16T07:35:09Z</time>
      </trkpt>
      <trkpt lat="44.42554" lon="1.45823">
        <ele>201.3</ele>
        <time>2021-08-16T07:35:10Z</time>
      </trkpt>
      <trkpt lat="44.42559" lon="1.45817">
        <ele>200.6</ele>
        <time>2021-08-16T07:35:12Z</time>
      </trkpt>
      <trkpt lat="44.42563" lon="1.45812">
        <ele>199.8</ele>
        <time>2021-08-16T07:35:13Z</time>
      </trkpt>
      <trkpt lat="44.42567" lon="1.4581">
        <ele>198.6</ele>
        <time>2021-08-16T07:35:14Z</time>
      </trkpt>
      <trkpt lat="44.4257" lon="1.4581">
        <ele>198</ele>
        <time>2021-08-16T07:35:15Z</time>
      </trkpt>
      <trkpt lat="44.42573" lon="1.45812">
        <ele>197.4</ele>
        <time>2021-08-16T07:35:17Z</time>
      </trkpt>
      <trkpt lat="44.42577" lon="1.45813">
        <ele>196.8</ele>
        <time>2021-08-16T07:35:18Z</time>
      </trkpt>
      <trkpt lat="44.4258" lon="1.45812">
        <ele>196.2</ele>
        <time>2021-08-16T07:35:19Z</time>
      </trkpt>
      <trkpt lat="44.42584" lon="1.45809">
        <ele>195.6</ele>
        <time>2021-08-16T07:35:21Z</time>
      </trkpt>
      <trkpt lat="44.42592" lon="1.45805">
        <ele>194</ele>
        <time>2021-08-16T07:35:22Z</time>
      </trkpt>
      <trkpt lat="44.42598" lon="1.458">
        <ele>192.7</ele>
        <time>2021-08-16T07:35:24Z</time>
      </trkpt>
      <trkpt lat="44.42603" lon="1.45798">
        <ele>192</ele>
        <time>2021-08-16T07:35:25Z</time>
      </trkpt>
      <trkpt lat="44.42606" lon="1.45798">
        <ele>190.7</ele>
        <time>2021-08-16T07:35:26Z</time>
      </trkpt>
      <trkpt lat="44.42612" lon="1.458">
        <ele>190</ele>
        <time>2021-08-16T07:35:28Z</time>
      </trkpt>
      <trkpt lat="44.42616" lon="1.45801">
        <ele>188.4</ele>
        <time>2021-08-16T07:35:29Z</time>
      </trkpt>
      <trkpt lat="44.42619" lon="1.45798">
        <ele>187.9</ele>
        <time>2021-08-16T07:35:31Z</time>
      </trkpt>
      <trkpt lat="44.42622" lon="1.45797">
        <ele>187.2</ele>
        <time>2021-08-16T07:35:33Z</time>
      </trkpt>
      <trkpt lat="44.42625" lon="1.45797">
        <ele>186.5</ele>
        <time>2021-08-16T07:35:34Z</time>
      </trkpt>
      <trkpt lat="44.42628" lon="1.45796">
        <ele>186.1</ele>
        <time>2021-08-16T07:35:35Z</time>
      </trkpt>
      <trkpt lat="44.42631" lon="1.45794">
        <ele>185.4</ele>
        <time>2021-08-16T07:35:36Z</time>
      </trkpt>
      <trkpt lat="44.42632" lon="1.45792">
        <ele>185.3</ele>
        <time>2021-08-16T07:35:37Z</time>
      </trkpt>
      <trkpt lat="44.42634" lon="1.45792">
        <ele>185</ele>
        <time>2021-08-16T07:35:38Z</time>
      </trkpt>
      <trkpt lat="44.42637" lon="1.4579">
        <ele>184.3</ele>
        <time>2021-08-16T07:35:40Z</time>
      </trkpt>
      <trkpt lat="44.42638" lon="1.45791">
        <ele>184.2</ele>
        <time>2021-08-16T07:35:41Z</time>
      </trkpt>
      <trkpt lat="44.42639" lon="1.4579">
        <ele>184.1</ele>
        <time>2021-08-16T07:35:43Z</time>
      </trkpt>
      <trkpt lat="44.42639" lon="1.45789">
        <ele>183.9</ele>
        <time>2021-08-16T07:35:44Z</time>
      </trkpt>
      <trkpt lat="44.42639" lon="1.45789">
        <ele>183.8</ele>
        <time>2021-08-16T07:35:45Z</time>
      </trkpt>
      <trkpt lat="44.42639" lon="1.45788">
        <ele>184</ele>
        <time>2021-08-16T07:35:46Z</time>
      </trkpt>
      <trkpt lat="44.42638" lon="1.45785">
        <ele>183.9</ele>
        <time>2021-08-16T07:35:48Z</time>
      </trkpt>
      <trkpt lat="44.42638" lon="1.45783">
        <ele>184.2</ele>
        <time>2021-08-16T07:35:49Z</time>
      </trkpt>
      <trkpt lat="44.42641" lon="1.45781">
        <ele>183.6</ele>
        <time>2021-08-16T07:35:50Z</time>
      </trkpt>
      <trkpt lat="44.42642" lon="1.45781">
        <ele>183.5</ele>
        <time>2021-08-16T07:35:51Z</time>
      </trkpt>
      <trkpt lat="44.42646" lon="1.45783">
        <ele>182.5</ele>
        <time>2021-08-16T07:35:53Z</time>
      </trkpt>
      <trkpt lat="44.4265" lon="1.45788">
        <ele>181.5</ele>
        <time>2021-08-16T07:35:54Z</time>
      </trkpt>
      <trkpt lat="44.42653" lon="1.45793">
        <ele>180.3</ele>
        <time>2021-08-16T07:35:55Z</time>
      </trkpt>
      <trkpt lat="44.42656" lon="1.45799">
        <ele>179.5</ele>
        <time>2021-08-16T07:35:56Z</time>
      </trkpt>
      <trkpt lat="44.4266" lon="1.45801">
        <ele>178.7</ele>
        <time>2021-08-16T07:35:58Z</time>
      </trkpt>
      <trkpt lat="44.42664" lon="1.45802">
        <ele>178.3</ele>
        <time>2021-08-16T07:35:59Z</time>
      </trkpt>
      <trkpt lat="44.42667" lon="1.45802">
        <ele>178</ele>
        <time>2021-08-16T07:36:00Z</time>
      </trkpt>
      <trkpt lat="44.4267" lon="1.45802">
        <ele>177.6</ele>
        <time>2021-08-16T07:36:01Z</time>
      </trkpt>
      <trkpt lat="44.42672" lon="1.45802">
        <ele>177.3</ele>
        <time>2021-08-16T07:36:02Z</time>
      </trkpt>
      <trkpt lat="44.42679" lon="1.45804">
        <ele>176.9</ele>
        <time>2021-08-16T07:36:03Z</time>
      </trkpt>
      <trkpt lat="44.4269" lon="1.45808">
        <ele>175.7</ele>
        <time>2021-08-16T07:36:05Z</time>
      </trkpt>
      <trkpt lat="44.42695" lon="1.45804">
        <ele>176.1</ele>
        <time>2021-08-16T07:36:07Z</time>
      </trkpt>
      <trkpt lat="44.42702" lon="1.45803">
        <ele>175.9</ele>
        <time>2021-08-16T07:36:08Z</time>
      </trkpt>
      <trkpt lat="44.42705" lon="1.45802">
        <ele>175.5</ele>
        <time>2021-08-16T07:36:10Z</time>
      </trkpt>
      <trkpt lat="44.42703" lon="1.45803">
        <ele>175.3</ele>
        <time>2021-08-16T07:36:11Z</time>
      </trkpt>
      <trkpt lat="44.42703" lon="1.45803">
        <ele>175.3</ele>
        <time>2021-08-16T07:36:12Z</time>
      </trkpt>
      <trkpt lat="44.42703" lon="1.45803">
        <ele>175.3</ele>
        <time>2021-08-16T07:36:13Z</time>
      </trkpt>
      <trkpt lat="44.42702" lon="1.45805">
        <ele>175.1</ele>
        <time>2021-08-16T07:36:15Z</time>
      </trkpt>
      <trkpt lat="44.42702" lon="1.45807">
        <ele>175</ele>
        <time>2021-08-16T07:36:17Z</time>
      </trkpt>
      <trkpt lat="44.42702" lon="1.45809">
        <ele>174.9</ele>
        <time>2021-08-16T07:36:18Z</time>
      </trkpt>
      <trkpt lat="44.42702" lon="1.45811">
        <ele>174.8</ele>
        <time>2021-08-16T07:39:37Z</time>
      </trkpt>
      <trkpt lat="44.42701" lon="1.45813">
        <ele>174.6</ele>
        <time>2021-08-16T07:39:38Z</time>
      </trkpt>
      <trkpt lat="44.42702" lon="1.45816">
        <ele>174.4</ele>
        <time>2021-08-16T07:39:40Z</time>
      </trkpt>
      <trkpt lat="44.42703" lon="1.45818">
        <ele>174.2</ele>
        <time>2021-08-16T07:39:41Z</time>
      </trkpt>
      <trkpt lat="44.42706" lon="1.45823">
        <ele>173.8</ele>
        <time>2021-08-16T07:39:42Z</time>
      </trkpt>
      <trkpt lat="44.42709" lon="1.45827">
        <ele>173.5</ele>
        <time>2021-08-16T07:39:44Z</time>
      </trkpt>
      <trkpt lat="44.42712" lon="1.4583">
        <ele>173.2</ele>
        <time>2021-08-16T07:39:45Z</time>
      </trkpt>
      <trkpt lat="44.42716" lon="1.45834">
        <ele>172.9</ele>
        <time>2021-08-16T07:39:47Z</time>
      </trkpt>
      <trkpt lat="44.42717" lon="1.45836">
        <ele>172.7</ele>
        <time>2021-08-16T07:39:48Z</time>
      </trkpt>
      <trkpt lat="44.42719" lon="1.45838">
        <ele>172.6</ele>
        <time>2021-08-16T07:39:49Z</time>
      </trkpt>
      <trkpt lat="44.42721" lon="1.45842">
        <ele>172.3</ele>
        <time>2021-08-16T07:39:50Z</time>
      </trkpt>
      <trkpt lat="44.42724" lon="1.45845">
        <ele>172.1</ele>
        <time>2021-08-16T07:39:51Z</time>
      </trkpt>
      <trkpt lat="44.42726" lon="1.45848">
        <ele>171.8</ele>
        <time>2021-08-16T07:39:53Z</time>
      </trkpt>
      <trkpt lat="44.42727" lon="1.4585">
        <ele>171.7</ele>
        <time>2021-08-16T07:39:54Z</time>
      </trkpt>
      <trkpt lat="44.42729" lon="1.45854">
        <ele>171.5</ele>
        <time>2021-08-16T07:39:55Z</time>
      </trkpt>
      <trkpt lat="44.4273" lon="1.45856">
        <ele>171.4</ele>
        <time>2021-08-16T07:39:56Z</time>
      </trkpt>
      <trkpt lat="44.42733" lon="1.45858">
        <ele>171.1</ele>
        <time>2021-08-16T07:39:58Z</time>
      </trkpt>
      <trkpt lat="44.42734" lon="1.45859">
        <ele>171</ele>
        <time>2021-08-16T07:39:59Z</time>
      </trkpt>
      <trkpt lat="44.42736" lon="1.4586">
        <ele>170.9</ele>
        <time>2021-08-16T07:40:00Z</time>
      </trkpt>
      <trkpt lat="44.42737" lon="1.4586">
        <ele>170.8</ele>
        <time>2021-08-16T07:40:02Z</time>
      </trkpt>
      <trkpt lat="44.42739" lon="1.45861">
        <ele>170.7</ele>
        <time>2021-08-16T07:40:04Z</time>
      </trkpt>
      <trkpt lat="44.4274" lon="1.45862">
        <ele>170.6</ele>
        <time>2021-08-16T07:40:05Z</time>
      </trkpt>
      <trkpt lat="44.42742" lon="1.45862">
        <ele>170.5</ele>
        <time>2021-08-16T07:40:06Z</time>
      </trkpt>
      <trkpt lat="44.42743" lon="1.45863">
        <ele>170.4</ele>
        <time>2021-08-16T07:40:10Z</time>
      </trkpt>
      <trkpt lat="44.42744" lon="1.45864">
        <ele>170.3</ele>
        <time>2021-08-16T07:40:11Z</time>
      </trkpt>
      <trkpt lat="44.4275" lon="1.45865">
        <ele>169.9</ele>
        <time>2021-08-16T07:40:12Z</time>
      </trkpt>
      <trkpt lat="44.42757" lon="1.45868">
        <ele>169.5</ele>
        <time>2021-08-16T07:40:13Z</time>
      </trkpt>
      <trkpt lat="44.4277" lon="1.4587">
        <ele>168.7</ele>
        <time>2021-08-16T07:40:15Z</time>
      </trkpt>
      <trkpt lat="44.4278" lon="1.45869">
        <ele>168.1</ele>
        <time>2021-08-16T07:40:17Z</time>
      </trkpt>
      <trkpt lat="44.42785" lon="1.45866">
        <ele>167.8</ele>
        <time>2021-08-16T07:40:18Z</time>
      </trkpt>
      <trkpt lat="44.4279" lon="1.45862">
        <ele>167.5</ele>
        <time>2021-08-16T07:40:19Z</time>
      </trkpt>
      <trkpt lat="44.42796" lon="1.45857">
        <ele>167.2</ele>
        <time>2021-08-16T07:40:20Z</time>
      </trkpt>
      <trkpt lat="44.42807" lon="1.45845">
        <ele>166.4</ele>
        <time>2021-08-16T07:40:22Z</time>
      </trkpt>
      <trkpt lat="44.42817" lon="1.45833">
        <ele>165.7</ele>
        <time>2021-08-16T07:40:24Z</time>
      </trkpt>
      <trkpt lat="44.42828" lon="1.45819">
        <ele>164.8</ele>
        <time>2021-08-16T07:40:26Z</time>
      </trkpt>
      <trkpt lat="44.42839" lon="1.45805">
        <ele>164</ele>
        <time>2021-08-16T07:40:28Z</time>
      </trkpt>
      <trkpt lat="44.42845" lon="1.45799">
        <ele>163.6</ele>
        <time>2021-08-16T07:40:29Z</time>
      </trkpt>
      <trkpt lat="44.42852" lon="1.45794">
        <ele>163.2</ele>
        <time>2021-08-16T07:40:30Z</time>
      </trkpt>
      <trkpt lat="44.42866" lon="1.45784">
        <ele>162.5</ele>
        <time>2021-08-16T07:40:32Z</time>
      </trkpt>
      <trkpt lat="44.42881" lon="1.4578">
        <ele>161.7</ele>
        <time>2021-08-16T07:40:34Z</time>
      </trkpt>
      <trkpt lat="44.42897" lon="1.45778">
        <ele>161.1</ele>
        <time>2021-08-16T07:40:36Z</time>
      </trkpt>
      <trkpt lat="44.42905" lon="1.45776">
        <ele>160.7</ele>
        <time>2021-08-16T07:40:37Z</time>
      </trkpt>
      <trkpt lat="44.42913" lon="1.45775">
        <ele>160.5</ele>
        <time>2021-08-16T07:40:38Z</time>
      </trkpt>
      <trkpt lat="44.42928" lon="1.45772">
        <ele>160</ele>
        <time>2021-08-16T07:40:40Z</time>
      </trkpt>
      <trkpt lat="44.42943" lon="1.45769">
        <ele>159.6</ele>
        <time>2021-08-16T07:40:42Z</time>
      </trkpt>
      <trkpt lat="44.42957" lon="1.45766">
        <ele>159.1</ele>
        <time>2021-08-16T07:40:44Z</time>
      </trkpt>
      <trkpt lat="44.42969" lon="1.45762">
        <ele>158.8</ele>
        <time>2021-08-16T07:40:46Z</time>
      </trkpt>
      <trkpt lat="44.42976" lon="1.4576">
        <ele>158.6</ele>
        <time>2021-08-16T07:40:47Z</time>
      </trkpt>
      <trkpt lat="44.42983" lon="1.45758">
        <ele>158.5</ele>
        <time>2021-08-16T07:40:48Z</time>
      </trkpt>
      <trkpt lat="44.42996" lon="1.45753">
        <ele>158.2</ele>
        <time>2021-08-16T07:40:50Z</time>
      </trkpt>
      <trkpt lat="44.43002" lon="1.45751">
        <ele>158.1</ele>
        <time>2021-08-16T07:40:51Z</time>
      </trkpt>
      <trkpt lat="44.43014" lon="1.45747">
        <ele>157.9</ele>
        <time>2021-08-16T07:40:53Z</time>
      </trkpt>
      <trkpt lat="44.43028" lon="1.45743">
        <ele>157.6</ele>
        <time>2021-08-16T07:40:55Z</time>
      </trkpt>
      <trkpt lat="44.43041" lon="1.45738">
        <ele>157.4</ele>
        <time>2021-08-16T07:40:57Z</time>
      </trkpt>
      <trkpt lat="44.43053" lon="1.45734">
        <ele>157.2</ele>
        <time>2021-08-16T07:40:59Z</time>
      </trkpt>
      <trkpt lat="44.43059" lon="1.45731">
        <ele>157</ele>
        <time>2021-08-16T07:41:00Z</time>
      </trkpt>
      <trkpt lat="44.4307" lon="1.45727">
        <ele>156.8</ele>
        <time>2021-08-16T07:41:02Z</time>
      </trkpt>
      <trkpt lat="44.43076" lon="1.45724">
        <ele>156.6</ele>
        <time>2021-08-16T07:41:03Z</time>
      </trkpt>
      <trkpt lat="44.43087" lon="1.4572">
        <ele>156.4</ele>
        <time>2021-08-16T07:41:05Z</time>
      </trkpt>
      <trkpt lat="44.43098" lon="1.45714">
        <ele>156.1</ele>
        <time>2021-08-16T07:41:07Z</time>
      </trkpt>
      <trkpt lat="44.43104" lon="1.4571">
        <ele>156</ele>
        <time>2021-08-16T07:41:08Z</time>
      </trkpt>
      <trkpt lat="44.4311" lon="1.45707">
        <ele>155.8</ele>
        <time>2021-08-16T07:41:09Z</time>
      </trkpt>
      <trkpt lat="44.43122" lon="1.45701">
        <ele>155.6</ele>
        <time>2021-08-16T07:41:11Z</time>
      </trkpt>
      <trkpt lat="44.43134" lon="1.45695">
        <ele>155.3</ele>
        <time>2021-08-16T07:41:13Z</time>
      </trkpt>
      <trkpt lat="44.4314" lon="1.45692">
        <ele>155.2</ele>
        <time>2021-08-16T07:41:14Z</time>
      </trkpt>
      <trkpt lat="44.43152" lon="1.45685">
        <ele>154.9</ele>
        <time>2021-08-16T07:41:16Z</time>
      </trkpt>
      <trkpt lat="44.43158" lon="1.45682">
        <ele>154.7</ele>
        <time>2021-08-16T07:41:17Z</time>
      </trkpt>
      <trkpt lat="44.43165" lon="1.45681">
        <ele>154.6</ele>
        <time>2021-08-16T07:41:18Z</time>
      </trkpt>
      <trkpt lat="44.43178" lon="1.4568">
        <ele>154.3</ele>
        <time>2021-08-16T07:41:20Z</time>
      </trkpt>
      <trkpt lat="44.43183" lon="1.4568">
        <ele>154.2</ele>
        <time>2021-08-16T07:41:21Z</time>
      </trkpt>
      <trkpt lat="44.43194" lon="1.45676">
        <ele>153.9</ele>
        <time>2021-08-16T07:41:23Z</time>
      </trkpt>
      <trkpt lat="44.43199" lon="1.45674">
        <ele>153.8</ele>
        <time>2021-08-16T07:41:24Z</time>
      </trkpt>
      <trkpt lat="44.43204" lon="1.45672">
        <ele>153.7</ele>
        <time>2021-08-16T07:41:25Z</time>
      </trkpt>
      <trkpt lat="44.43209" lon="1.4567">
        <ele>153.5</ele>
        <time>2021-08-16T07:41:26Z</time>
      </trkpt>
      <trkpt lat="44.43215" lon="1.45668">
        <ele>153.4</ele>
        <time>2021-08-16T07:41:27Z</time>
      </trkpt>
      <trkpt lat="44.43225" lon="1.45665">
        <ele>153.2</ele>
        <time>2021-08-16T07:41:29Z</time>
      </trkpt>
      <trkpt lat="44.4323" lon="1.45663">
        <ele>153.1</ele>
        <time>2021-08-16T07:41:30Z</time>
      </trkpt>
      <trkpt lat="44.4324" lon="1.4566">
        <ele>152.9</ele>
        <time>2021-08-16T07:41:32Z</time>
      </trkpt>
      <trkpt lat="44.43249" lon="1.45656">
        <ele>152.7</ele>
        <time>2021-08-16T07:41:34Z</time>
      </trkpt>
      <trkpt lat="44.43257" lon="1.45652">
        <ele>152.5</ele>
        <time>2021-08-16T07:41:36Z</time>
      </trkpt>
      <trkpt lat="44.43262" lon="1.45651">
        <ele>152.4</ele>
        <time>2021-08-16T07:41:37Z</time>
      </trkpt>
      <trkpt lat="44.43265" lon="1.45651">
        <ele>152.2</ele>
        <time>2021-08-16T07:41:38Z</time>
      </trkpt>
      <trkpt lat="44.43269" lon="1.45652">
        <ele>152.3</ele>
        <time>2021-08-16T07:41:39Z</time>
      </trkpt>
      <trkpt lat="44.43277" lon="1.45663">
        <ele>152.4</ele>
        <time>2021-08-16T07:41:41Z</time>
      </trkpt>
      <trkpt lat="44.43278" lon="1.45669">
        <ele>152.4</ele>
        <time>2021-08-16T07:41:42Z</time>
      </trkpt>
      <trkpt lat="44.43278" lon="1.45675">
        <ele>152.5</ele>
        <time>2021-08-16T07:41:43Z</time>
      </trkpt>
      <trkpt lat="44.43279" lon="1.45681">
        <ele>152.5</ele>
        <time>2021-08-16T07:41:45Z</time>
      </trkpt>
      <trkpt lat="44.43279" lon="1.45688">
        <ele>152.6</ele>
        <time>2021-08-16T07:41:46Z</time>
      </trkpt>
      <trkpt lat="44.4328" lon="1.45696">
        <ele>152.7</ele>
        <time>2021-08-16T07:41:47Z</time>
      </trkpt>
      <trkpt lat="44.4328" lon="1.45704">
        <ele>152.9</ele>
        <time>2021-08-16T07:41:49Z</time>
      </trkpt>
      <trkpt lat="44.43281" lon="1.45709">
        <ele>153</ele>
        <time>2021-08-16T07:41:50Z</time>
      </trkpt>
      <trkpt lat="44.43282" lon="1.45716">
        <ele>153.2</ele>
        <time>2021-08-16T07:41:51Z</time>
      </trkpt>
      <trkpt lat="44.43282" lon="1.45721">
        <ele>153.3</ele>
        <time>2021-08-16T07:41:52Z</time>
      </trkpt>
      <trkpt lat="44.43283" lon="1.4573">
        <ele>153.5</ele>
        <time>2021-08-16T07:41:54Z</time>
      </trkpt>
      <trkpt lat="44.43283" lon="1.45735">
        <ele>153.6</ele>
        <time>2021-08-16T07:41:55Z</time>
      </trkpt>
      <trkpt lat="44.43283" lon="1.45739">
        <ele>153.7</ele>
        <time>2021-08-16T07:41:56Z</time>
      </trkpt>
      <trkpt lat="44.43284" lon="1.45745">
        <ele>153.8</ele>
        <time>2021-08-16T07:41:58Z</time>
      </trkpt>
      <trkpt lat="44.43285" lon="1.45749">
        <ele>153.9</ele>
        <time>2021-08-16T07:41:59Z</time>
      </trkpt>
      <trkpt lat="44.43285" lon="1.45756">
        <ele>154.1</ele>
        <time>2021-08-16T07:42:00Z</time>
      </trkpt>
      <trkpt lat="44.43286" lon="1.45763">
        <ele>154.4</ele>
        <time>2021-08-16T07:42:02Z</time>
      </trkpt>
      <trkpt lat="44.43287" lon="1.45768">
        <ele>154.5</ele>
        <time>2021-08-16T07:42:03Z</time>
      </trkpt>
      <trkpt lat="44.43287" lon="1.45773">
        <ele>154.7</ele>
        <time>2021-08-16T07:42:04Z</time>
      </trkpt>
      <trkpt lat="44.43288" lon="1.45778">
        <ele>154.8</ele>
        <time>2021-08-16T07:42:06Z</time>
      </trkpt>
      <trkpt lat="44.43288" lon="1.45782">
        <ele>155</ele>
        <time>2021-08-16T07:42:07Z</time>
      </trkpt>
      <trkpt lat="44.43288" lon="1.45787">
        <ele>155.1</ele>
        <time>2021-08-16T07:42:08Z</time>
      </trkpt>
      <trkpt lat="44.43288" lon="1.45792">
        <ele>155.3</ele>
        <time>2021-08-16T07:42:09Z</time>
      </trkpt>
      <trkpt lat="44.43288" lon="1.45799">
        <ele>155.5</ele>
        <time>2021-08-16T07:42:11Z</time>
      </trkpt>
      <trkpt lat="44.43288" lon="1.45803">
        <ele>155.7</ele>
        <time>2021-08-16T07:42:12Z</time>
      </trkpt>
      <trkpt lat="44.43287" lon="1.45807">
        <ele>155.9</ele>
        <time>2021-08-16T07:42:13Z</time>
      </trkpt>
      <trkpt lat="44.43287" lon="1.45814">
        <ele>156.2</ele>
        <time>2021-08-16T07:42:15Z</time>
      </trkpt>
      <trkpt lat="44.43287" lon="1.45818">
        <ele>156.4</ele>
        <time>2021-08-16T07:42:16Z</time>
      </trkpt>
      <trkpt lat="44.43287" lon="1.45822">
        <ele>156.6</ele>
        <time>2021-08-16T07:42:17Z</time>
      </trkpt>
      <trkpt lat="44.43286" lon="1.45828">
        <ele>156.9</ele>
        <time>2021-08-16T07:42:19Z</time>
      </trkpt>
      <trkpt lat="44.43286" lon="1.45833">
        <ele>157.1</ele>
        <time>2021-08-16T07:42:20Z</time>
      </trkpt>
      <trkpt lat="44.43285" lon="1.4584">
        <ele>157.5</ele>
        <time>2021-08-16T07:42:22Z</time>
      </trkpt>
      <trkpt lat="44.43285" lon="1.45842">
        <ele>157.6</ele>
        <time>2021-08-16T07:42:24Z</time>
      </trkpt>
      <trkpt lat="44.43285" lon="1.45844">
        <ele>157.7</ele>
        <time>2021-08-16T07:42:25Z</time>
      </trkpt>
      <trkpt lat="44.43286" lon="1.45846">
        <ele>157.9</ele>
        <time>2021-08-16T07:42:26Z</time>
      </trkpt>
      <trkpt lat="44.43286" lon="1.4585">
        <ele>158.2</ele>
        <time>2021-08-16T07:42:28Z</time>
      </trkpt>
      <trkpt lat="44.43286" lon="1.45853">
        <ele>158.3</ele>
        <time>2021-08-16T07:42:29Z</time>
      </trkpt>
      <trkpt lat="44.43286" lon="1.45857">
        <ele>158.6</ele>
        <time>2021-08-16T07:42:31Z</time>
      </trkpt>
      <trkpt lat="44.43285" lon="1.4586">
        <ele>158.8</ele>
        <time>2021-08-16T07:42:32Z</time>
      </trkpt>
      <trkpt lat="44.43285" lon="1.45864">
        <ele>159</ele>
        <time>2021-08-16T07:42:34Z</time>
      </trkpt>
      <trkpt lat="44.43285" lon="1.45866">
        <ele>159.2</ele>
        <time>2021-08-16T07:42:35Z</time>
      </trkpt>
      <trkpt lat="44.43285" lon="1.45869">
        <ele>159.4</ele>
        <time>2021-08-16T07:42:36Z</time>
      </trkpt>
      <trkpt lat="44.43285" lon="1.45871">
        <ele>159.6</ele>
        <time>2021-08-16T07:42:37Z</time>
      </trkpt>
      <trkpt lat="44.43285" lon="1.45874">
        <ele>159.8</ele>
        <time>2021-08-16T07:42:38Z</time>
      </trkpt>
      <trkpt lat="44.43285" lon="1.45878">
        <ele>160.1</ele>
        <time>2021-08-16T07:42:40Z</time>
      </trkpt>
      <trkpt lat="44.43284" lon="1.45882">
        <ele>160.4</ele>
        <time>2021-08-16T07:42:42Z</time>
      </trkpt>
      <trkpt lat="44.43284" lon="1.45884">
        <ele>160.6</ele>
        <time>2021-08-16T07:42:43Z</time>
      </trkpt>
      <trkpt lat="44.43284" lon="1.45887">
        <ele>160.8</ele>
        <time>2021-08-16T07:42:44Z</time>
      </trkpt>
      <trkpt lat="44.43283" lon="1.45891">
        <ele>161.1</ele>
        <time>2021-08-16T07:42:46Z</time>
      </trkpt>
      <trkpt lat="44.43282" lon="1.45895">
        <ele>161.5</ele>
        <time>2021-08-16T07:42:48Z</time>
      </trkpt>
      <trkpt lat="44.43282" lon="1.45897">
        <ele>161.6</ele>
        <time>2021-08-16T07:42:49Z</time>
      </trkpt>
      <trkpt lat="44.43282" lon="1.45899">
        <ele>161.8</ele>
        <time>2021-08-16T07:42:50Z</time>
      </trkpt>
      <trkpt lat="44.43281" lon="1.45905">
        <ele>162.3</ele>
        <time>2021-08-16T07:42:52Z</time>
      </trkpt>
      <trkpt lat="44.4328" lon="1.4591">
        <ele>162.8</ele>
        <time>2021-08-16T07:42:54Z</time>
      </trkpt>
      <trkpt lat="44.43279" lon="1.45912">
        <ele>163</ele>
        <time>2021-08-16T07:42:55Z</time>
      </trkpt>
      <trkpt lat="44.43279" lon="1.45917">
        <ele>163.4</ele>
        <time>2021-08-16T07:42:57Z</time>
      </trkpt>
      <trkpt lat="44.43278" lon="1.45923">
        <ele>163.7</ele>
        <time>2021-08-16T07:42:59Z</time>
      </trkpt>
      <trkpt lat="44.43276" lon="1.45927">
        <ele>164</ele>
        <time>2021-08-16T07:43:01Z</time>
      </trkpt>
      <trkpt lat="44.43275" lon="1.4593">
        <ele>164.2</ele>
        <time>2021-08-16T07:43:02Z</time>
      </trkpt>
      <trkpt lat="44.43273" lon="1.45934">
        <ele>164.4</ele>
        <time>2021-08-16T07:43:04Z</time>
      </trkpt>
      <trkpt lat="44.4327" lon="1.45939">
        <ele>164.8</ele>
        <time>2021-08-16T07:43:06Z</time>
      </trkpt>
      <trkpt lat="44.43268" lon="1.45942">
        <ele>165</ele>
        <time>2021-08-16T07:43:07Z</time>
      </trkpt>
      <trkpt lat="44.43267" lon="1.45943">
        <ele>165.1</ele>
        <time>2021-08-16T07:43:08Z</time>
      </trkpt>
      <trkpt lat="44.43264" lon="1.45948">
        <ele>165.4</ele>
        <time>2021-08-16T07:43:10Z</time>
      </trkpt>
      <trkpt lat="44.43262" lon="1.45952">
        <ele>165.7</ele>
        <time>2021-08-16T07:43:12Z</time>
      </trkpt>
      <trkpt lat="44.4326" lon="1.45955">
        <ele>165.9</ele>
        <time>2021-08-16T07:43:13Z</time>
      </trkpt>
      <trkpt lat="44.43257" lon="1.45958">
        <ele>166.2</ele>
        <time>2021-08-16T07:43:15Z</time>
      </trkpt>
      <trkpt lat="44.43254" lon="1.45962">
        <ele>166.5</ele>
        <time>2021-08-16T07:43:17Z</time>
      </trkpt>
      <trkpt lat="44.43251" lon="1.45965">
        <ele>166.8</ele>
        <time>2021-08-16T07:43:19Z</time>
      </trkpt>
      <trkpt lat="44.4325" lon="1.45968">
        <ele>166.9</ele>
        <time>2021-08-16T07:43:20Z</time>
      </trkpt>
      <trkpt lat="44.43247" lon="1.45972">
        <ele>167.2</ele>
        <time>2021-08-16T07:43:22Z</time>
      </trkpt>
      <trkpt lat="44.43245" lon="1.45974">
        <ele>167.3</ele>
        <time>2021-08-16T07:43:23Z</time>
      </trkpt>
      <trkpt lat="44.43242" lon="1.45977">
        <ele>167.6</ele>
        <time>2021-08-16T07:43:25Z</time>
      </trkpt>
      <trkpt lat="44.43241" lon="1.45979">
        <ele>167.8</ele>
        <time>2021-08-16T07:43:26Z</time>
      </trkpt>
      <trkpt lat="44.43238" lon="1.45983">
        <ele>168</ele>
        <time>2021-08-16T07:43:28Z</time>
      </trkpt>
      <trkpt lat="44.43237" lon="1.45984">
        <ele>168.2</ele>
        <time>2021-08-16T07:43:29Z</time>
      </trkpt>
      <trkpt lat="44.43234" lon="1.45986">
        <ele>168.4</ele>
        <time>2021-08-16T07:43:31Z</time>
      </trkpt>
      <trkpt lat="44.43233" lon="1.45989">
        <ele>168.5</ele>
        <time>2021-08-16T07:43:32Z</time>
      </trkpt>
      <trkpt lat="44.4323" lon="1.45991">
        <ele>168.8</ele>
        <time>2021-08-16T07:43:34Z</time>
      </trkpt>
      <trkpt lat="44.43228" lon="1.45995">
        <ele>169</ele>
        <time>2021-08-16T07:43:35Z</time>
      </trkpt>
      <trkpt lat="44.43227" lon="1.45997">
        <ele>169.1</ele>
        <time>2021-08-16T07:43:36Z</time>
      </trkpt>
      <trkpt lat="44.43224" lon="1.46001">
        <ele>169.4</ele>
        <time>2021-08-16T07:43:38Z</time>
      </trkpt>
      <trkpt lat="44.43221" lon="1.46005">
        <ele>169.7</ele>
        <time>2021-08-16T07:43:40Z</time>
      </trkpt>
      <trkpt lat="44.43218" lon="1.46008">
        <ele>170</ele>
        <time>2021-08-16T07:43:41Z</time>
      </trkpt>
      <trkpt lat="44.43217" lon="1.46009">
        <ele>170</ele>
        <time>2021-08-16T07:43:42Z</time>
      </trkpt>
      <trkpt lat="44.43215" lon="1.46013">
        <ele>170.3</ele>
        <time>2021-08-16T07:43:44Z</time>
      </trkpt>
      <trkpt lat="44.43213" lon="1.46015">
        <ele>170.5</ele>
        <time>2021-08-16T07:43:45Z</time>
      </trkpt>
      <trkpt lat="44.43211" lon="1.46019">
        <ele>170.7</ele>
        <time>2021-08-16T07:43:47Z</time>
      </trkpt>
      <trkpt lat="44.43209" lon="1.46022">
        <ele>170.9</ele>
        <time>2021-08-16T07:43:48Z</time>
      </trkpt>
      <trkpt lat="44.43208" lon="1.46023">
        <ele>171</ele>
        <time>2021-08-16T07:43:49Z</time>
      </trkpt>
      <trkpt lat="44.43206" lon="1.46026">
        <ele>171.2</ele>
        <time>2021-08-16T07:43:50Z</time>
      </trkpt>
      <trkpt lat="44.43205" lon="1.46027">
        <ele>171.3</ele>
        <time>2021-08-16T07:43:51Z</time>
      </trkpt>
      <trkpt lat="44.43202" lon="1.46032">
        <ele>171.6</ele>
        <time>2021-08-16T07:43:53Z</time>
      </trkpt>
      <trkpt lat="44.43201" lon="1.46033">
        <ele>171.7</ele>
        <time>2021-08-16T07:43:54Z</time>
      </trkpt>
      <trkpt lat="44.432" lon="1.46035">
        <ele>171.8</ele>
        <time>2021-08-16T07:43:55Z</time>
      </trkpt>
      <trkpt lat="44.43198" lon="1.46037">
        <ele>172</ele>
        <time>2021-08-16T07:43:56Z</time>
      </trkpt>
      <trkpt lat="44.43196" lon="1.46042">
        <ele>172.2</ele>
        <time>2021-08-16T07:43:58Z</time>
      </trkpt>
      <trkpt lat="44.43194" lon="1.46045">
        <ele>172.5</ele>
        <time>2021-08-16T07:43:59Z</time>
      </trkpt>
      <trkpt lat="44.43191" lon="1.4605">
        <ele>172.7</ele>
        <time>2021-08-16T07:44:01Z</time>
      </trkpt>
      <trkpt lat="44.4319" lon="1.46051">
        <ele>172.8</ele>
        <time>2021-08-16T07:44:02Z</time>
      </trkpt>
      <trkpt lat="44.43189" lon="1.46054">
        <ele>173</ele>
        <time>2021-08-16T07:44:03Z</time>
      </trkpt>
      <trkpt lat="44.43187" lon="1.46058">
        <ele>173.3</ele>
        <time>2021-08-16T07:44:05Z</time>
      </trkpt>
      <trkpt lat="44.43184" lon="1.46062">
        <ele>173.5</ele>
        <time>2021-08-16T07:44:07Z</time>
      </trkpt>
      <trkpt lat="44.43183" lon="1.46065">
        <ele>173.7</ele>
        <time>2021-08-16T07:44:08Z</time>
      </trkpt>
      <trkpt lat="44.4318" lon="1.46069">
        <ele>174</ele>
        <time>2021-08-16T07:44:10Z</time>
      </trkpt>
      <trkpt lat="44.43178" lon="1.46074">
        <ele>174.2</ele>
        <time>2021-08-16T07:44:12Z</time>
      </trkpt>
      <trkpt lat="44.43176" lon="1.46077">
        <ele>174.4</ele>
        <time>2021-08-16T07:44:13Z</time>
      </trkpt>
      <trkpt lat="44.43176" lon="1.46078">
        <ele>174.5</ele>
        <time>2021-08-16T07:44:14Z</time>
      </trkpt>
      <trkpt lat="44.43173" lon="1.46081">
        <ele>174.7</ele>
        <time>2021-08-16T07:44:16Z</time>
      </trkpt>
      <trkpt lat="44.43172" lon="1.46083">
        <ele>174.8</ele>
        <time>2021-08-16T07:44:17Z</time>
      </trkpt>
      <trkpt lat="44.43172" lon="1.46084">
        <ele>174.9</ele>
        <time>2021-08-16T07:44:18Z</time>
      </trkpt>
      <trkpt lat="44.4317" lon="1.46086">
        <ele>175</ele>
        <time>2021-08-16T07:44:20Z</time>
      </trkpt>
      <trkpt lat="44.43169" lon="1.46087">
        <ele>175.1</ele>
        <time>2021-08-16T07:44:21Z</time>
      </trkpt>
      <trkpt lat="44.43168" lon="1.46089">
        <ele>175.2</ele>
        <time>2021-08-16T07:44:23Z</time>
      </trkpt>
      <trkpt lat="44.43167" lon="1.4609">
        <ele>175.3</ele>
        <time>2021-08-16T07:44:24Z</time>
      </trkpt>
      <trkpt lat="44.43165" lon="1.46093">
        <ele>175.5</ele>
        <time>2021-08-16T07:44:26Z</time>
      </trkpt>
      <trkpt lat="44.43165" lon="1.46095">
        <ele>175.6</ele>
        <time>2021-08-16T07:44:27Z</time>
      </trkpt>
      <trkpt lat="44.43164" lon="1.46095">
        <ele>175.7</ele>
        <time>2021-08-16T07:44:29Z</time>
      </trkpt>
      <trkpt lat="44.43164" lon="1.46096">
        <ele>175.7</ele>
        <time>2021-08-16T07:44:30Z</time>
      </trkpt>
      <trkpt lat="44.43163" lon="1.46096">
        <ele>175.7</ele>
        <time>2021-08-16T07:44:32Z</time>
      </trkpt>
      <trkpt lat="44.43163" lon="1.46096">
        <ele>175.7</ele>
        <time>2021-08-16T07:44:33Z</time>
      </trkpt>
      <trkpt lat="44.43162" lon="1.46099">
        <ele>175.9</ele>
        <time>2021-08-16T07:44:35Z</time>
      </trkpt>
      <trkpt lat="44.43161" lon="1.461">
        <ele>176</ele>
        <time>2021-08-16T07:44:36Z</time>
      </trkpt>
      <trkpt lat="44.4316" lon="1.46101">
        <ele>176</ele>
        <time>2021-08-16T07:44:38Z</time>
      </trkpt>
      <trkpt lat="44.4316" lon="1.46102">
        <ele>176.1</ele>
        <time>2021-08-16T07:44:40Z</time>
      </trkpt>
      <trkpt lat="44.4316" lon="1.46103">
        <ele>176.1</ele>
        <time>2021-08-16T07:44:41Z</time>
      </trkpt>
      <trkpt lat="44.4316" lon="1.46103">
        <ele>176.1</ele>
        <time>2021-08-16T07:44:42Z</time>
      </trkpt>
      <trkpt lat="44.43157" lon="1.4611">
        <ele>176.5</ele>
        <time>2021-08-16T07:44:44Z</time>
      </trkpt>
      <trkpt lat="44.43158" lon="1.46108">
        <ele>176.7</ele>
        <time>2021-08-16T07:44:46Z</time>
      </trkpt>
      <trkpt lat="44.43155" lon="1.46114">
        <ele>177</ele>
        <time>2021-08-16T07:44:48Z</time>
      </trkpt>
      <trkpt lat="44.43152" lon="1.4612">
        <ele>177.4</ele>
        <time>2021-08-16T07:44:50Z</time>
      </trkpt>
      <trkpt lat="44.4315" lon="1.46125">
        <ele>177.7</ele>
        <time>2021-08-16T07:44:52Z</time>
      </trkpt>
      <trkpt lat="44.43148" lon="1.46127">
        <ele>177.8</ele>
        <time>2021-08-16T07:44:53Z</time>
      </trkpt>
      <trkpt lat="44.43146" lon="1.46131">
        <ele>178.1</ele>
        <time>2021-08-16T07:44:55Z</time>
      </trkpt>
      <trkpt lat="44.43145" lon="1.46133">
        <ele>178.2</ele>
        <time>2021-08-16T07:44:56Z</time>
      </trkpt>
      <trkpt lat="44.43143" lon="1.46135">
        <ele>178.4</ele>
        <time>2021-08-16T07:44:58Z</time>
      </trkpt>
      <trkpt lat="44.43142" lon="1.46139">
        <ele>178.6</ele>
        <time>2021-08-16T07:44:59Z</time>
      </trkpt>
      <trkpt lat="44.43141" lon="1.46141">
        <ele>178.7</ele>
        <time>2021-08-16T07:45:00Z</time>
      </trkpt>
      <trkpt lat="44.43139" lon="1.46144">
        <ele>178.9</ele>
        <time>2021-08-16T07:45:02Z</time>
      </trkpt>
      <trkpt lat="44.43137" lon="1.46148">
        <ele>179.1</ele>
        <time>2021-08-16T07:45:04Z</time>
      </trkpt>
      <trkpt lat="44.43136" lon="1.4615">
        <ele>179.2</ele>
        <time>2021-08-16T07:45:05Z</time>
      </trkpt>
      <trkpt lat="44.43134" lon="1.46154">
        <ele>179.5</ele>
        <time>2021-08-16T07:45:07Z</time>
      </trkpt>
      <trkpt lat="44.43133" lon="1.46156">
        <ele>179.6</ele>
        <time>2021-08-16T07:45:08Z</time>
      </trkpt>
      <trkpt lat="44.43131" lon="1.46159">
        <ele>179.8</ele>
        <time>2021-08-16T07:45:10Z</time>
      </trkpt>
      <trkpt lat="44.43129" lon="1.46163">
        <ele>180.1</ele>
        <time>2021-08-16T07:45:12Z</time>
      </trkpt>
      <trkpt lat="44.43128" lon="1.46165">
        <ele>180.2</ele>
        <time>2021-08-16T07:45:13Z</time>
      </trkpt>
      <trkpt lat="44.43126" lon="1.46169">
        <ele>180.5</ele>
        <time>2021-08-16T07:45:15Z</time>
      </trkpt>
      <trkpt lat="44.43124" lon="1.46173">
        <ele>180.8</ele>
        <time>2021-08-16T07:45:17Z</time>
      </trkpt>
      <trkpt lat="44.43123" lon="1.46175">
        <ele>180.9</ele>
        <time>2021-08-16T07:45:18Z</time>
      </trkpt>
      <trkpt lat="44.43121" lon="1.46178">
        <ele>181.1</ele>
        <time>2021-08-16T07:45:20Z</time>
      </trkpt>
      <trkpt lat="44.43119" lon="1.46181">
        <ele>181.3</ele>
        <time>2021-08-16T07:45:21Z</time>
      </trkpt>
      <trkpt lat="44.43117" lon="1.46185">
        <ele>181.6</ele>
        <time>2021-08-16T07:45:23Z</time>
      </trkpt>
      <trkpt lat="44.43116" lon="1.46188">
        <ele>181.8</ele>
        <time>2021-08-16T07:45:24Z</time>
      </trkpt>
      <trkpt lat="44.43113" lon="1.46192">
        <ele>182</ele>
        <time>2021-08-16T07:45:26Z</time>
      </trkpt>
      <trkpt lat="44.43112" lon="1.46194">
        <ele>182.2</ele>
        <time>2021-08-16T07:45:27Z</time>
      </trkpt>
      <trkpt lat="44.4311" lon="1.46199">
        <ele>182.5</ele>
        <time>2021-08-16T07:45:29Z</time>
      </trkpt>
      <trkpt lat="44.43108" lon="1.46202">
        <ele>182.7</ele>
        <time>2021-08-16T07:45:30Z</time>
      </trkpt>
      <trkpt lat="44.43107" lon="1.46204">
        <ele>182.8</ele>
        <time>2021-08-16T07:45:31Z</time>
      </trkpt>
      <trkpt lat="44.43106" lon="1.46206">
        <ele>182.9</ele>
        <time>2021-08-16T07:45:32Z</time>
      </trkpt>
      <trkpt lat="44.43106" lon="1.46209">
        <ele>183.1</ele>
        <time>2021-08-16T07:45:34Z</time>
      </trkpt>
      <trkpt lat="44.43104" lon="1.46214">
        <ele>183.3</ele>
        <time>2021-08-16T07:45:35Z</time>
      </trkpt>
      <trkpt lat="44.43104" lon="1.46215">
        <ele>183.4</ele>
        <time>2021-08-16T07:45:36Z</time>
      </trkpt>
      <trkpt lat="44.43102" lon="1.46219">
        <ele>183.6</ele>
        <time>2021-08-16T07:45:38Z</time>
      </trkpt>
      <trkpt lat="44.431" lon="1.46223">
        <ele>183.8</ele>
        <time>2021-08-16T07:45:40Z</time>
      </trkpt>
      <trkpt lat="44.43099" lon="1.46225">
        <ele>184</ele>
        <time>2021-08-16T07:45:41Z</time>
      </trkpt>
      <trkpt lat="44.43098" lon="1.46227">
        <ele>184.1</ele>
        <time>2021-08-16T07:45:42Z</time>
      </trkpt>
      <trkpt lat="44.43098" lon="1.46229">
        <ele>184.2</ele>
        <time>2021-08-16T07:45:43Z</time>
      </trkpt>
      <trkpt lat="44.43097" lon="1.46234">
        <ele>184.5</ele>
        <time>2021-08-16T07:45:45Z</time>
      </trkpt>
      <trkpt lat="44.43097" lon="1.46236">
        <ele>184.6</ele>
        <time>2021-08-16T07:45:46Z</time>
      </trkpt>
      <trkpt lat="44.43096" lon="1.46239">
        <ele>184.7</ele>
        <time>2021-08-16T07:45:48Z</time>
      </trkpt>
      <trkpt lat="44.43095" lon="1.46241">
        <ele>184.9</ele>
        <time>2021-08-16T07:45:49Z</time>
      </trkpt>
      <trkpt lat="44.43095" lon="1.46244">
        <ele>185</ele>
        <time>2021-08-16T07:45:50Z</time>
      </trkpt>
      <trkpt lat="44.43093" lon="1.46248">
        <ele>185.2</ele>
        <time>2021-08-16T07:45:52Z</time>
      </trkpt>
      <trkpt lat="44.43092" lon="1.46253">
        <ele>185.5</ele>
        <time>2021-08-16T07:45:54Z</time>
      </trkpt>
      <trkpt lat="44.43091" lon="1.46255">
        <ele>185.6</ele>
        <time>2021-08-16T07:45:55Z</time>
      </trkpt>
      <trkpt lat="44.43091" lon="1.46257">
        <ele>185.7</ele>
        <time>2021-08-16T07:45:56Z</time>
      </trkpt>
      <trkpt lat="44.4309" lon="1.46262">
        <ele>186</ele>
        <time>2021-08-16T07:45:58Z</time>
      </trkpt>
      <trkpt lat="44.4309" lon="1.46265">
        <ele>186.1</ele>
        <time>2021-08-16T07:45:59Z</time>
      </trkpt>
      <trkpt lat="44.43089" lon="1.46269">
        <ele>186.4</ele>
        <time>2021-08-16T07:46:01Z</time>
      </trkpt>
      <trkpt lat="44.43088" lon="1.46272">
        <ele>186.5</ele>
        <time>2021-08-16T07:46:02Z</time>
      </trkpt>
      <trkpt lat="44.43087" lon="1.46276">
        <ele>186.7</ele>
        <time>2021-08-16T07:46:04Z</time>
      </trkpt>
      <trkpt lat="44.43087" lon="1.46279">
        <ele>186.9</ele>
        <time>2021-08-16T07:46:05Z</time>
      </trkpt>
      <trkpt lat="44.43086" lon="1.46283">
        <ele>187.1</ele>
        <time>2021-08-16T07:46:07Z</time>
      </trkpt>
      <trkpt lat="44.43086" lon="1.46286">
        <ele>187.3</ele>
        <time>2021-08-16T07:46:08Z</time>
      </trkpt>
      <trkpt lat="44.43086" lon="1.46291">
        <ele>187.5</ele>
        <time>2021-08-16T07:46:10Z</time>
      </trkpt>
      <trkpt lat="44.43085" lon="1.46295">
        <ele>187.7</ele>
        <time>2021-08-16T07:46:12Z</time>
      </trkpt>
      <trkpt lat="44.43085" lon="1.46297">
        <ele>187.9</ele>
        <time>2021-08-16T07:46:13Z</time>
      </trkpt>
      <trkpt lat="44.43084" lon="1.463">
        <ele>188</ele>
        <time>2021-08-16T07:46:14Z</time>
      </trkpt>
      <trkpt lat="44.43083" lon="1.46304">
        <ele>188.2</ele>
        <time>2021-08-16T07:46:16Z</time>
      </trkpt>
      <trkpt lat="44.43083" lon="1.46307">
        <ele>188.4</ele>
        <time>2021-08-16T07:46:17Z</time>
      </trkpt>
      <trkpt lat="44.43083" lon="1.4631">
        <ele>188.5</ele>
        <time>2021-08-16T07:46:19Z</time>
      </trkpt>
      <trkpt lat="44.43083" lon="1.46314">
        <ele>188.7</ele>
        <time>2021-08-16T07:46:20Z</time>
      </trkpt>
      <trkpt lat="44.43082" lon="1.46316">
        <ele>188.8</ele>
        <time>2021-08-16T07:46:21Z</time>
      </trkpt>
      <trkpt lat="44.43082" lon="1.46319">
        <ele>189</ele>
        <time>2021-08-16T07:46:22Z</time>
      </trkpt>
      <trkpt lat="44.43082" lon="1.46321">
        <ele>189.1</ele>
        <time>2021-08-16T07:46:23Z</time>
      </trkpt>
      <trkpt lat="44.43082" lon="1.46326">
        <ele>189.3</ele>
        <time>2021-08-16T07:46:25Z</time>
      </trkpt>
      <trkpt lat="44.43082" lon="1.46327">
        <ele>189.4</ele>
        <time>2021-08-16T07:46:26Z</time>
      </trkpt>
      <trkpt lat="44.43082" lon="1.4633">
        <ele>189.6</ele>
        <time>2021-08-16T07:46:27Z</time>
      </trkpt>
      <trkpt lat="44.43081" lon="1.46335">
        <ele>189.8</ele>
        <time>2021-08-16T07:46:29Z</time>
      </trkpt>
      <trkpt lat="44.43081" lon="1.46339">
        <ele>190</ele>
        <time>2021-08-16T07:46:31Z</time>
      </trkpt>
      <trkpt lat="44.43081" lon="1.46342">
        <ele>190.2</ele>
        <time>2021-08-16T07:46:32Z</time>
      </trkpt>
      <trkpt lat="44.4308" lon="1.46346">
        <ele>190.4</ele>
        <time>2021-08-16T07:46:34Z</time>
      </trkpt>
      <trkpt lat="44.4308" lon="1.46351">
        <ele>190.7</ele>
        <time>2021-08-16T07:46:35Z</time>
      </trkpt>
      <trkpt lat="44.4308" lon="1.46353">
        <ele>190.8</ele>
        <time>2021-08-16T07:46:36Z</time>
      </trkpt>
      <trkpt lat="44.43081" lon="1.46358">
        <ele>191</ele>
        <time>2021-08-16T07:46:38Z</time>
      </trkpt>
      <trkpt lat="44.43081" lon="1.4636">
        <ele>191.1</ele>
        <time>2021-08-16T07:46:39Z</time>
      </trkpt>
      <trkpt lat="44.43081" lon="1.46363">
        <ele>191.3</ele>
        <time>2021-08-16T07:46:40Z</time>
      </trkpt>
      <trkpt lat="44.43081" lon="1.46369">
        <ele>191.6</ele>
        <time>2021-08-16T07:46:42Z</time>
      </trkpt>
      <trkpt lat="44.43082" lon="1.46373">
        <ele>191.8</ele>
        <time>2021-08-16T07:46:43Z</time>
      </trkpt>
      <trkpt lat="44.43082" lon="1.46376">
        <ele>191.9</ele>
        <time>2021-08-16T07:46:45Z</time>
      </trkpt>
      <trkpt lat="44.43084" lon="1.4638">
        <ele>192.2</ele>
        <time>2021-08-16T07:46:46Z</time>
      </trkpt>
      <trkpt lat="44.43084" lon="1.46382">
        <ele>192.3</ele>
        <time>2021-08-16T07:46:47Z</time>
      </trkpt>
      <trkpt lat="44.43085" lon="1.46385">
        <ele>192.4</ele>
        <time>2021-08-16T07:46:48Z</time>
      </trkpt>
      <trkpt lat="44.43087" lon="1.46388">
        <ele>192.6</ele>
        <time>2021-08-16T07:46:50Z</time>
      </trkpt>
      <trkpt lat="44.43087" lon="1.46391">
        <ele>192.8</ele>
        <time>2021-08-16T07:46:51Z</time>
      </trkpt>
      <trkpt lat="44.43088" lon="1.46392">
        <ele>192.9</ele>
        <time>2021-08-16T07:46:52Z</time>
      </trkpt>
      <trkpt lat="44.43089" lon="1.46394">
        <ele>193</ele>
        <time>2021-08-16T07:46:53Z</time>
      </trkpt>
      <trkpt lat="44.43091" lon="1.46397">
        <ele>193.2</ele>
        <time>2021-08-16T07:46:55Z</time>
      </trkpt>
      <trkpt lat="44.43092" lon="1.46399">
        <ele>193.3</ele>
        <time>2021-08-16T07:46:56Z</time>
      </trkpt>
      <trkpt lat="44.43094" lon="1.46403">
        <ele>193.5</ele>
        <time>2021-08-16T07:46:58Z</time>
      </trkpt>
      <trkpt lat="44.43097" lon="1.46406">
        <ele>193.8</ele>
        <time>2021-08-16T07:47:00Z</time>
      </trkpt>
      <trkpt lat="44.43098" lon="1.46411">
        <ele>194</ele>
        <time>2021-08-16T07:47:02Z</time>
      </trkpt>
      <trkpt lat="44.431" lon="1.46415">
        <ele>194.2</ele>
        <time>2021-08-16T07:47:04Z</time>
      </trkpt>
      <trkpt lat="44.43101" lon="1.46417">
        <ele>194.3</ele>
        <time>2021-08-16T07:47:05Z</time>
      </trkpt>
      <trkpt lat="44.43103" lon="1.46421">
        <ele>194.6</ele>
        <time>2021-08-16T07:47:07Z</time>
      </trkpt>
      <trkpt lat="44.43105" lon="1.46424">
        <ele>194.8</ele>
        <time>2021-08-16T07:47:08Z</time>
      </trkpt>
      <trkpt lat="44.43106" lon="1.46426">
        <ele>194.9</ele>
        <time>2021-08-16T07:47:09Z</time>
      </trkpt>
      <trkpt lat="44.43108" lon="1.4643">
        <ele>195.1</ele>
        <time>2021-08-16T07:47:11Z</time>
      </trkpt>
      <trkpt lat="44.43109" lon="1.46432">
        <ele>195.2</ele>
        <time>2021-08-16T07:47:12Z</time>
      </trkpt>
      <trkpt lat="44.4311" lon="1.46436">
        <ele>195.4</ele>
        <time>2021-08-16T07:47:13Z</time>
      </trkpt>
      <trkpt lat="44.43111" lon="1.46437">
        <ele>195.5</ele>
        <time>2021-08-16T07:47:14Z</time>
      </trkpt>
      <trkpt lat="44.43112" lon="1.46442">
        <ele>195.8</ele>
        <time>2021-08-16T07:47:16Z</time>
      </trkpt>
      <trkpt lat="44.43114" lon="1.46448">
        <ele>196.1</ele>
        <time>2021-08-16T07:47:18Z</time>
      </trkpt>
      <trkpt lat="44.43114" lon="1.46455">
        <ele>196.5</ele>
        <time>2021-08-16T07:47:20Z</time>
      </trkpt>
      <trkpt lat="44.43114" lon="1.46457">
        <ele>196.6</ele>
        <time>2021-08-16T07:47:21Z</time>
      </trkpt>
      <trkpt lat="44.43114" lon="1.46459">
        <ele>196.7</ele>
        <time>2021-08-16T07:47:22Z</time>
      </trkpt>
      <trkpt lat="44.43114" lon="1.46463">
        <ele>196.9</ele>
        <time>2021-08-16T07:47:23Z</time>
      </trkpt>
      <trkpt lat="44.43113" lon="1.46468">
        <ele>197.2</ele>
        <time>2021-08-16T07:47:25Z</time>
      </trkpt>
      <trkpt lat="44.43113" lon="1.4647">
        <ele>197.3</ele>
        <time>2021-08-16T07:47:26Z</time>
      </trkpt>
      <trkpt lat="44.43111" lon="1.46476">
        <ele>197.6</ele>
        <time>2021-08-16T07:47:28Z</time>
      </trkpt>
      <trkpt lat="44.43111" lon="1.46478">
        <ele>197.8</ele>
        <time>2021-08-16T07:47:29Z</time>
      </trkpt>
      <trkpt lat="44.4311" lon="1.46481">
        <ele>197.9</ele>
        <time>2021-08-16T07:47:30Z</time>
      </trkpt>
      <trkpt lat="44.43109" lon="1.46484">
        <ele>198.1</ele>
        <time>2021-08-16T07:47:31Z</time>
      </trkpt>
      <trkpt lat="44.43109" lon="1.46486">
        <ele>198.1</ele>
        <time>2021-08-16T07:47:32Z</time>
      </trkpt>
      <trkpt lat="44.43108" lon="1.46492">
        <ele>198.5</ele>
        <time>2021-08-16T07:47:34Z</time>
      </trkpt>
      <trkpt lat="44.43107" lon="1.46494">
        <ele>198.6</ele>
        <time>2021-08-16T07:47:35Z</time>
      </trkpt>
      <trkpt lat="44.43107" lon="1.46496">
        <ele>198.7</ele>
        <time>2021-08-16T07:47:36Z</time>
      </trkpt>
      <trkpt lat="44.43106" lon="1.46498">
        <ele>198.8</ele>
        <time>2021-08-16T07:47:37Z</time>
      </trkpt>
      <trkpt lat="44.43106" lon="1.465">
        <ele>198.9</ele>
        <time>2021-08-16T07:47:38Z</time>
      </trkpt>
      <trkpt lat="44.43104" lon="1.46506">
        <ele>199.3</ele>
        <time>2021-08-16T07:47:40Z</time>
      </trkpt>
      <trkpt lat="44.43103" lon="1.46508">
        <ele>199.4</ele>
        <time>2021-08-16T07:47:42Z</time>
      </trkpt>
      <trkpt lat="44.43103" lon="1.4651">
        <ele>199.5</ele>
        <time>2021-08-16T07:47:43Z</time>
      </trkpt>
      <trkpt lat="44.43102" lon="1.46513">
        <ele>199.6</ele>
        <time>2021-08-16T07:47:44Z</time>
      </trkpt>
      <trkpt lat="44.431" lon="1.46518">
        <ele>199.9</ele>
        <time>2021-08-16T07:47:46Z</time>
      </trkpt>
      <trkpt lat="44.43099" lon="1.46521">
        <ele>200.1</ele>
        <time>2021-08-16T07:47:47Z</time>
      </trkpt>
      <trkpt lat="44.43098" lon="1.46525">
        <ele>200.3</ele>
        <time>2021-08-16T07:47:49Z</time>
      </trkpt>
      <trkpt lat="44.43097" lon="1.46528">
        <ele>200.5</ele>
        <time>2021-08-16T07:47:50Z</time>
      </trkpt>
      <trkpt lat="44.43096" lon="1.46532">
        <ele>200.7</ele>
        <time>2021-08-16T07:47:52Z</time>
      </trkpt>
      <trkpt lat="44.43094" lon="1.46536">
        <ele>200.9</ele>
        <time>2021-08-16T07:47:53Z</time>
      </trkpt>
      <trkpt lat="44.43094" lon="1.46537">
        <ele>201</ele>
        <time>2021-08-16T07:47:54Z</time>
      </trkpt>
      <trkpt lat="44.43092" lon="1.46542">
        <ele>201.3</ele>
        <time>2021-08-16T07:47:56Z</time>
      </trkpt>
      <trkpt lat="44.43092" lon="1.46545">
        <ele>201.4</ele>
        <time>2021-08-16T07:47:57Z</time>
      </trkpt>
      <trkpt lat="44.4309" lon="1.46549">
        <ele>201.6</ele>
        <time>2021-08-16T07:47:59Z</time>
      </trkpt>
      <trkpt lat="44.43089" lon="1.46552">
        <ele>201.9</ele>
        <time>2021-08-16T07:48:00Z</time>
      </trkpt>
      <trkpt lat="44.43088" lon="1.46553">
        <ele>201.9</ele>
        <time>2021-08-16T07:48:01Z</time>
      </trkpt>
      <trkpt lat="44.43087" lon="1.46556">
        <ele>202.1</ele>
        <time>2021-08-16T07:48:03Z</time>
      </trkpt>
      <trkpt lat="44.43086" lon="1.4656">
        <ele>202.3</ele>
        <time>2021-08-16T07:48:04Z</time>
      </trkpt>
      <trkpt lat="44.43085" lon="1.46562">
        <ele>202.5</ele>
        <time>2021-08-16T07:48:05Z</time>
      </trkpt>
      <trkpt lat="44.43084" lon="1.46566">
        <ele>202.7</ele>
        <time>2021-08-16T07:48:07Z</time>
      </trkpt>
      <trkpt lat="44.43082" lon="1.4657">
        <ele>202.9</ele>
        <time>2021-08-16T07:48:08Z</time>
      </trkpt>
      <trkpt lat="44.43082" lon="1.46571">
        <ele>203</ele>
        <time>2021-08-16T07:48:09Z</time>
      </trkpt>
      <trkpt lat="44.4308" lon="1.46575">
        <ele>203.2</ele>
        <time>2021-08-16T07:48:10Z</time>
      </trkpt>
      <trkpt lat="44.4308" lon="1.46577">
        <ele>203.3</ele>
        <time>2021-08-16T07:48:11Z</time>
      </trkpt>
      <trkpt lat="44.43079" lon="1.46579">
        <ele>203.4</ele>
        <time>2021-08-16T07:48:12Z</time>
      </trkpt>
      <trkpt lat="44.43078" lon="1.46581">
        <ele>203.6</ele>
        <time>2021-08-16T07:48:13Z</time>
      </trkpt>
      <trkpt lat="44.43076" lon="1.46585">
        <ele>203.8</ele>
        <time>2021-08-16T07:48:15Z</time>
      </trkpt>
      <trkpt lat="44.43075" lon="1.46587">
        <ele>203.9</ele>
        <time>2021-08-16T07:48:16Z</time>
      </trkpt>
      <trkpt lat="44.43073" lon="1.46593">
        <ele>204.3</ele>
        <time>2021-08-16T07:48:18Z</time>
      </trkpt>
      <trkpt lat="44.43072" lon="1.46596">
        <ele>204.4</ele>
        <time>2021-08-16T07:48:19Z</time>
      </trkpt>
      <trkpt lat="44.43071" lon="1.46597">
        <ele>204.5</ele>
        <time>2021-08-16T07:48:20Z</time>
      </trkpt>
      <trkpt lat="44.43069" lon="1.46602">
        <ele>204.9</ele>
        <time>2021-08-16T07:48:22Z</time>
      </trkpt>
      <trkpt lat="44.43068" lon="1.46604">
        <ele>205</ele>
        <time>2021-08-16T07:48:23Z</time>
      </trkpt>
      <trkpt lat="44.43067" lon="1.46606">
        <ele>205.1</ele>
        <time>2021-08-16T07:48:24Z</time>
      </trkpt>
      <trkpt lat="44.43066" lon="1.46608">
        <ele>205.2</ele>
        <time>2021-08-16T07:48:25Z</time>
      </trkpt>
      <trkpt lat="44.43064" lon="1.46611">
        <ele>205.5</ele>
        <time>2021-08-16T07:48:27Z</time>
      </trkpt>
      <trkpt lat="44.4306" lon="1.46615">
        <ele>205.8</ele>
        <time>2021-08-16T07:48:29Z</time>
      </trkpt>
      <trkpt lat="44.43059" lon="1.46616">
        <ele>205.9</ele>
        <time>2021-08-16T07:48:30Z</time>
      </trkpt>
      <trkpt lat="44.43058" lon="1.46617">
        <ele>206</ele>
        <time>2021-08-16T07:48:31Z</time>
      </trkpt>
      <trkpt lat="44.43055" lon="1.4662">
        <ele>206.2</ele>
        <time>2021-08-16T07:48:33Z</time>
      </trkpt>
      <trkpt lat="44.43053" lon="1.46622">
        <ele>206.4</ele>
        <time>2021-08-16T07:48:35Z</time>
      </trkpt>
      <trkpt lat="44.43051" lon="1.46623">
        <ele>206.6</ele>
        <time>2021-08-16T07:48:36Z</time>
      </trkpt>
      <trkpt lat="44.43049" lon="1.46625">
        <ele>206.8</ele>
        <time>2021-08-16T07:48:38Z</time>
      </trkpt>
      <trkpt lat="44.43047" lon="1.46626">
        <ele>207</ele>
        <time>2021-08-16T07:48:39Z</time>
      </trkpt>
      <trkpt lat="44.43044" lon="1.46628">
        <ele>207.2</ele>
        <time>2021-08-16T07:48:41Z</time>
      </trkpt>
      <trkpt lat="44.43042" lon="1.46629">
        <ele>207.3</ele>
        <time>2021-08-16T07:48:42Z</time>
      </trkpt>
      <trkpt lat="44.4304" lon="1.4663">
        <ele>207.5</ele>
        <time>2021-08-16T07:48:44Z</time>
      </trkpt>
      <trkpt lat="44.43038" lon="1.46632">
        <ele>207.7</ele>
        <time>2021-08-16T07:48:45Z</time>
      </trkpt>
      <trkpt lat="44.43036" lon="1.46634">
        <ele>207.9</ele>
        <time>2021-08-16T07:48:47Z</time>
      </trkpt>
      <trkpt lat="44.43034" lon="1.46635">
        <ele>208</ele>
        <time>2021-08-16T07:48:48Z</time>
      </trkpt>
      <trkpt lat="44.43033" lon="1.46636">
        <ele>208.1</ele>
        <time>2021-08-16T07:48:49Z</time>
      </trkpt>
      <trkpt lat="44.43032" lon="1.46638">
        <ele>208.3</ele>
        <time>2021-08-16T07:48:50Z</time>
      </trkpt>
      <trkpt lat="44.43031" lon="1.46641">
        <ele>208.5</ele>
        <time>2021-08-16T07:48:52Z</time>
      </trkpt>
      <trkpt lat="44.43029" lon="1.46646">
        <ele>208.7</ele>
        <time>2021-08-16T07:48:54Z</time>
      </trkpt>
      <trkpt lat="44.43028" lon="1.46648">
        <ele>208.8</ele>
        <time>2021-08-16T07:48:55Z</time>
      </trkpt>
      <trkpt lat="44.43027" lon="1.4665">
        <ele>208.9</ele>
        <time>2021-08-16T07:48:56Z</time>
      </trkpt>
      <trkpt lat="44.43027" lon="1.46653">
        <ele>209.1</ele>
        <time>2021-08-16T07:48:58Z</time>
      </trkpt>
      <trkpt lat="44.43028" lon="1.46657">
        <ele>209.3</ele>
        <time>2021-08-16T07:49:00Z</time>
      </trkpt>
      <trkpt lat="44.43028" lon="1.4666">
        <ele>209.4</ele>
        <time>2021-08-16T07:49:01Z</time>
      </trkpt>
      <trkpt lat="44.43029" lon="1.46664">
        <ele>209.7</ele>
        <time>2021-08-16T07:49:03Z</time>
      </trkpt>
      <trkpt lat="44.4303" lon="1.46668">
        <ele>209.9</ele>
        <time>2021-08-16T07:49:04Z</time>
      </trkpt>
      <trkpt lat="44.4303" lon="1.46669">
        <ele>209.9</ele>
        <time>2021-08-16T07:49:05Z</time>
      </trkpt>
      <trkpt lat="44.43032" lon="1.46672">
        <ele>210.1</ele>
        <time>2021-08-16T07:49:07Z</time>
      </trkpt>
      <trkpt lat="44.43033" lon="1.46676">
        <ele>210.3</ele>
        <time>2021-08-16T07:49:08Z</time>
      </trkpt>
      <trkpt lat="44.43034" lon="1.46678">
        <ele>210.5</ele>
        <time>2021-08-16T07:49:09Z</time>
      </trkpt>
      <trkpt lat="44.43037" lon="1.46682">
        <ele>210.7</ele>
        <time>2021-08-16T07:49:11Z</time>
      </trkpt>
      <trkpt lat="44.43038" lon="1.46685">
        <ele>210.9</ele>
        <time>2021-08-16T07:49:12Z</time>
      </trkpt>
      <trkpt lat="44.43039" lon="1.4669">
        <ele>211.2</ele>
        <time>2021-08-16T07:49:14Z</time>
      </trkpt>
      <trkpt lat="44.4304" lon="1.46694">
        <ele>211.4</ele>
        <time>2021-08-16T07:49:16Z</time>
      </trkpt>
      <trkpt lat="44.4304" lon="1.46699">
        <ele>211.6</ele>
        <time>2021-08-16T07:49:18Z</time>
      </trkpt>
      <trkpt lat="44.4304" lon="1.46703">
        <ele>211.9</ele>
        <time>2021-08-16T07:49:19Z</time>
      </trkpt>
      <trkpt lat="44.43039" lon="1.46709">
        <ele>212.1</ele>
        <time>2021-08-16T07:49:21Z</time>
      </trkpt>
      <trkpt lat="44.43038" lon="1.46713">
        <ele>212.4</ele>
        <time>2021-08-16T07:49:22Z</time>
      </trkpt>
      <trkpt lat="44.43038" lon="1.46715">
        <ele>212.4</ele>
        <time>2021-08-16T07:49:23Z</time>
      </trkpt>
      <trkpt lat="44.43039" lon="1.46719">
        <ele>212.6</ele>
        <time>2021-08-16T07:49:25Z</time>
      </trkpt>
      <trkpt lat="44.43039" lon="1.4672">
        <ele>212.7</ele>
        <time>2021-08-16T07:49:26Z</time>
      </trkpt>
      <trkpt lat="44.43039" lon="1.46724">
        <ele>212.9</ele>
        <time>2021-08-16T07:49:28Z</time>
      </trkpt>
      <trkpt lat="44.43039" lon="1.46728">
        <ele>213.2</ele>
        <time>2021-08-16T07:49:30Z</time>
      </trkpt>
      <trkpt lat="44.43039" lon="1.46729">
        <ele>213.2</ele>
        <time>2021-08-16T07:49:31Z</time>
      </trkpt>
      <trkpt lat="44.43038" lon="1.46733">
        <ele>213.4</ele>
        <time>2021-08-16T07:49:32Z</time>
      </trkpt>
      <trkpt lat="44.43038" lon="1.46734">
        <ele>213.5</ele>
        <time>2021-08-16T07:49:33Z</time>
      </trkpt>
      <trkpt lat="44.43037" lon="1.4674">
        <ele>213.8</ele>
        <time>2021-08-16T07:49:35Z</time>
      </trkpt>
      <trkpt lat="44.43037" lon="1.46742">
        <ele>213.9</ele>
        <time>2021-08-16T07:49:37Z</time>
      </trkpt>
      <trkpt lat="44.43037" lon="1.46744">
        <ele>213.9</ele>
        <time>2021-08-16T07:49:38Z</time>
      </trkpt>
      <trkpt lat="44.43037" lon="1.46748">
        <ele>214.2</ele>
        <time>2021-08-16T07:49:40Z</time>
      </trkpt>
      <trkpt lat="44.43036" lon="1.46751">
        <ele>214.3</ele>
        <time>2021-08-16T07:49:41Z</time>
      </trkpt>
      <trkpt lat="44.43036" lon="1.46755">
        <ele>214.5</ele>
        <time>2021-08-16T07:49:43Z</time>
      </trkpt>
      <trkpt lat="44.43035" lon="1.46758">
        <ele>214.7</ele>
        <time>2021-08-16T07:49:44Z</time>
      </trkpt>
      <trkpt lat="44.43035" lon="1.46762">
        <ele>214.9</ele>
        <time>2021-08-16T07:49:46Z</time>
      </trkpt>
      <trkpt lat="44.43035" lon="1.46763">
        <ele>215</ele>
        <time>2021-08-16T07:49:47Z</time>
      </trkpt>
      <trkpt lat="44.43035" lon="1.46766">
        <ele>215.1</ele>
        <time>2021-08-16T07:49:48Z</time>
      </trkpt>
      <trkpt lat="44.43034" lon="1.46772">
        <ele>215.4</ele>
        <time>2021-08-16T07:49:50Z</time>
      </trkpt>
      <trkpt lat="44.43034" lon="1.46775">
        <ele>215.6</ele>
        <time>2021-08-16T07:49:52Z</time>
      </trkpt>
      <trkpt lat="44.43034" lon="1.46777">
        <ele>215.7</ele>
        <time>2021-08-16T07:49:53Z</time>
      </trkpt>
      <trkpt lat="44.43034" lon="1.46779">
        <ele>215.8</ele>
        <time>2021-08-16T07:49:54Z</time>
      </trkpt>
      <trkpt lat="44.43033" lon="1.46781">
        <ele>215.9</ele>
        <time>2021-08-16T07:49:55Z</time>
      </trkpt>
      <trkpt lat="44.43033" lon="1.46783">
        <ele>216</ele>
        <time>2021-08-16T07:49:56Z</time>
      </trkpt>
      <trkpt lat="44.43032" lon="1.46788">
        <ele>216.3</ele>
        <time>2021-08-16T07:49:58Z</time>
      </trkpt>
      <trkpt lat="44.43032" lon="1.4679">
        <ele>216.4</ele>
        <time>2021-08-16T07:49:59Z</time>
      </trkpt>
      <trkpt lat="44.43032" lon="1.46793">
        <ele>216.5</ele>
        <time>2021-08-16T07:50:00Z</time>
      </trkpt>
      <trkpt lat="44.43032" lon="1.46797">
        <ele>216.7</ele>
        <time>2021-08-16T07:50:01Z</time>
      </trkpt>
      <trkpt lat="44.43032" lon="1.46798">
        <ele>216.8</ele>
        <time>2021-08-16T07:50:02Z</time>
      </trkpt>
      <trkpt lat="44.43032" lon="1.46803">
        <ele>217</ele>
        <time>2021-08-16T07:50:04Z</time>
      </trkpt>
      <trkpt lat="44.43032" lon="1.46805">
        <ele>217.2</ele>
        <time>2021-08-16T07:50:05Z</time>
      </trkpt>
      <trkpt lat="44.43032" lon="1.46807">
        <ele>217.3</ele>
        <time>2021-08-16T07:50:06Z</time>
      </trkpt>
      <trkpt lat="44.43031" lon="1.46809">
        <ele>217.4</ele>
        <time>2021-08-16T07:50:07Z</time>
      </trkpt>
      <trkpt lat="44.43031" lon="1.46812">
        <ele>217.5</ele>
        <time>2021-08-16T07:50:08Z</time>
      </trkpt>
      <trkpt lat="44.43031" lon="1.46814">
        <ele>217.6</ele>
        <time>2021-08-16T07:50:09Z</time>
      </trkpt>
      <trkpt lat="44.4303" lon="1.46818">
        <ele>217.9</ele>
        <time>2021-08-16T07:50:11Z</time>
      </trkpt>
      <trkpt lat="44.4303" lon="1.46824">
        <ele>218.2</ele>
        <time>2021-08-16T07:50:13Z</time>
      </trkpt>
      <trkpt lat="44.4303" lon="1.46827">
        <ele>218.3</ele>
        <time>2021-08-16T07:50:14Z</time>
      </trkpt>
      <trkpt lat="44.4303" lon="1.46829">
        <ele>218.4</ele>
        <time>2021-08-16T07:50:15Z</time>
      </trkpt>
      <trkpt lat="44.43029" lon="1.46832">
        <ele>218.6</ele>
        <time>2021-08-16T07:50:17Z</time>
      </trkpt>
      <trkpt lat="44.43029" lon="1.46836">
        <ele>218.8</ele>
        <time>2021-08-16T07:50:19Z</time>
      </trkpt>
      <trkpt lat="44.43029" lon="1.46839">
        <ele>219</ele>
        <time>2021-08-16T07:50:20Z</time>
      </trkpt>
      <trkpt lat="44.43029" lon="1.46844">
        <ele>219.2</ele>
        <time>2021-08-16T07:50:22Z</time>
      </trkpt>
      <trkpt lat="44.43029" lon="1.46848">
        <ele>219.4</ele>
        <time>2021-08-16T07:50:23Z</time>
      </trkpt>
      <trkpt lat="44.43029" lon="1.46854">
        <ele>219.8</ele>
        <time>2021-08-16T07:50:25Z</time>
      </trkpt>
      <trkpt lat="44.43029" lon="1.46858">
        <ele>220</ele>
        <time>2021-08-16T07:50:26Z</time>
      </trkpt>
      <trkpt lat="44.43028" lon="1.46862">
        <ele>220.2</ele>
        <time>2021-08-16T07:50:27Z</time>
      </trkpt>
      <trkpt lat="44.43027" lon="1.46868">
        <ele>220.4</ele>
        <time>2021-08-16T07:50:29Z</time>
      </trkpt>
      <trkpt lat="44.43027" lon="1.46873">
        <ele>220.7</ele>
        <time>2021-08-16T07:50:30Z</time>
      </trkpt>
      <trkpt lat="44.43026" lon="1.46879">
        <ele>221</ele>
        <time>2021-08-16T07:50:31Z</time>
      </trkpt>
      <trkpt lat="44.43026" lon="1.46881">
        <ele>221.1</ele>
        <time>2021-08-16T07:50:32Z</time>
      </trkpt>
      <trkpt lat="44.43026" lon="1.46888">
        <ele>221.5</ele>
        <time>2021-08-16T07:50:34Z</time>
      </trkpt>
      <trkpt lat="44.43025" lon="1.46893">
        <ele>221.7</ele>
        <time>2021-08-16T07:50:35Z</time>
      </trkpt>
      <trkpt lat="44.43025" lon="1.46895">
        <ele>221.8</ele>
        <time>2021-08-16T07:50:36Z</time>
      </trkpt>
      <trkpt lat="44.43024" lon="1.46899">
        <ele>222</ele>
        <time>2021-08-16T07:50:37Z</time>
      </trkpt>
      <trkpt lat="44.43024" lon="1.46904">
        <ele>222.3</ele>
        <time>2021-08-16T07:50:39Z</time>
      </trkpt>
      <trkpt lat="44.43024" lon="1.46905">
        <ele>222.4</ele>
        <time>2021-08-16T07:50:40Z</time>
      </trkpt>
      <trkpt lat="44.43024" lon="1.46909">
        <ele>222.6</ele>
        <time>2021-08-16T07:50:41Z</time>
      </trkpt>
      <trkpt lat="44.43024" lon="1.46913">
        <ele>222.7</ele>
        <time>2021-08-16T07:50:42Z</time>
      </trkpt>
      <trkpt lat="44.43024" lon="1.46919">
        <ele>223</ele>
        <time>2021-08-16T07:50:44Z</time>
      </trkpt>
      <trkpt lat="44.43023" lon="1.46922">
        <ele>223.2</ele>
        <time>2021-08-16T07:50:45Z</time>
      </trkpt>
      <trkpt lat="44.43023" lon="1.46927">
        <ele>223.4</ele>
        <time>2021-08-16T07:50:47Z</time>
      </trkpt>
      <trkpt lat="44.43023" lon="1.46929">
        <ele>223.5</ele>
        <time>2021-08-16T07:50:48Z</time>
      </trkpt>
      <trkpt lat="44.43022" lon="1.46935">
        <ele>223.8</ele>
        <time>2021-08-16T07:50:50Z</time>
      </trkpt>
      <trkpt lat="44.43022" lon="1.46939">
        <ele>224</ele>
        <time>2021-08-16T07:50:51Z</time>
      </trkpt>
      <trkpt lat="44.43022" lon="1.4694">
        <ele>224.1</ele>
        <time>2021-08-16T07:50:52Z</time>
      </trkpt>
      <trkpt lat="44.43021" lon="1.46945">
        <ele>224.3</ele>
        <time>2021-08-16T07:50:53Z</time>
      </trkpt>
      <trkpt lat="44.43021" lon="1.46946">
        <ele>224.4</ele>
        <time>2021-08-16T07:50:54Z</time>
      </trkpt>
      <trkpt lat="44.4302" lon="1.46952">
        <ele>224.7</ele>
        <time>2021-08-16T07:50:56Z</time>
      </trkpt>
      <trkpt lat="44.4302" lon="1.46955">
        <ele>224.8</ele>
        <time>2021-08-16T07:50:57Z</time>
      </trkpt>
      <trkpt lat="44.4302" lon="1.46957">
        <ele>225</ele>
        <time>2021-08-16T07:50:58Z</time>
      </trkpt>
      <trkpt lat="44.4302" lon="1.46961">
        <ele>225.2</ele>
        <time>2021-08-16T07:50:59Z</time>
      </trkpt>
      <trkpt lat="44.4302" lon="1.46963">
        <ele>225.3</ele>
        <time>2021-08-16T07:51:00Z</time>
      </trkpt>
      <trkpt lat="44.4302" lon="1.46968">
        <ele>225.5</ele>
        <time>2021-08-16T07:51:02Z</time>
      </trkpt>
      <trkpt lat="44.43021" lon="1.46975">
        <ele>225.9</ele>
        <time>2021-08-16T07:51:04Z</time>
      </trkpt>
      <trkpt lat="44.43021" lon="1.4698">
        <ele>226.1</ele>
        <time>2021-08-16T07:51:05Z</time>
      </trkpt>
      <trkpt lat="44.43021" lon="1.46981">
        <ele>226.2</ele>
        <time>2021-08-16T07:51:06Z</time>
      </trkpt>
      <trkpt lat="44.43021" lon="1.46986">
        <ele>226.5</ele>
        <time>2021-08-16T07:51:08Z</time>
      </trkpt>
      <trkpt lat="44.43022" lon="1.4699">
        <ele>226.6</ele>
        <time>2021-08-16T07:51:09Z</time>
      </trkpt>
      <trkpt lat="44.43021" lon="1.46995">
        <ele>226.9</ele>
        <time>2021-08-16T07:51:11Z</time>
      </trkpt>
      <trkpt lat="44.43021" lon="1.46999">
        <ele>227.1</ele>
        <time>2021-08-16T07:51:12Z</time>
      </trkpt>
      <trkpt lat="44.43021" lon="1.47002">
        <ele>227.2</ele>
        <time>2021-08-16T07:51:13Z</time>
      </trkpt>
      <trkpt lat="44.43021" lon="1.47007">
        <ele>227.5</ele>
        <time>2021-08-16T07:51:15Z</time>
      </trkpt>
      <trkpt lat="44.43021" lon="1.47012">
        <ele>227.7</ele>
        <time>2021-08-16T07:51:16Z</time>
      </trkpt>
      <trkpt lat="44.43021" lon="1.47014">
        <ele>227.8</ele>
        <time>2021-08-16T07:51:17Z</time>
      </trkpt>
      <trkpt lat="44.43021" lon="1.4702">
        <ele>228.1</ele>
        <time>2021-08-16T07:51:19Z</time>
      </trkpt>
      <trkpt lat="44.43021" lon="1.47024">
        <ele>228.2</ele>
        <time>2021-08-16T07:51:20Z</time>
      </trkpt>
      <trkpt lat="44.43021" lon="1.47029">
        <ele>228.4</ele>
        <time>2021-08-16T07:51:22Z</time>
      </trkpt>
      <trkpt lat="44.4302" lon="1.47033">
        <ele>228.7</ele>
        <time>2021-08-16T07:51:23Z</time>
      </trkpt>
      <trkpt lat="44.43019" lon="1.47038">
        <ele>228.9</ele>
        <time>2021-08-16T07:51:25Z</time>
      </trkpt>
      <trkpt lat="44.4302" lon="1.47041">
        <ele>229</ele>
        <time>2021-08-16T07:51:26Z</time>
      </trkpt>
      <trkpt lat="44.43019" lon="1.47043">
        <ele>229.2</ele>
        <time>2021-08-16T07:51:27Z</time>
      </trkpt>
      <trkpt lat="44.43018" lon="1.47046">
        <ele>229.4</ele>
        <time>2021-08-16T07:51:29Z</time>
      </trkpt>
      <trkpt lat="44.43017" lon="1.47051">
        <ele>229.6</ele>
        <time>2021-08-16T07:51:31Z</time>
      </trkpt>
      <trkpt lat="44.43016" lon="1.47053">
        <ele>229.8</ele>
        <time>2021-08-16T07:51:32Z</time>
      </trkpt>
      <trkpt lat="44.43014" lon="1.47056">
        <ele>230</ele>
        <time>2021-08-16T07:51:34Z</time>
      </trkpt>
      <trkpt lat="44.43013" lon="1.47059">
        <ele>230.1</ele>
        <time>2021-08-16T07:51:35Z</time>
      </trkpt>
      <trkpt lat="44.43013" lon="1.47061">
        <ele>230.3</ele>
        <time>2021-08-16T07:51:36Z</time>
      </trkpt>
      <trkpt lat="44.43011" lon="1.47066">
        <ele>230.6</ele>
        <time>2021-08-16T07:51:38Z</time>
      </trkpt>
      <trkpt lat="44.4301" lon="1.47068">
        <ele>230.7</ele>
        <time>2021-08-16T07:51:40Z</time>
      </trkpt>
      <trkpt lat="44.43009" lon="1.47069">
        <ele>230.8</ele>
        <time>2021-08-16T07:51:41Z</time>
      </trkpt>
      <trkpt lat="44.43007" lon="1.47072">
        <ele>231</ele>
        <time>2021-08-16T07:51:43Z</time>
      </trkpt>
      <trkpt lat="44.43006" lon="1.47074">
        <ele>231.2</ele>
        <time>2021-08-16T07:51:44Z</time>
      </trkpt>
      <trkpt lat="44.43004" lon="1.47077">
        <ele>231.4</ele>
        <time>2021-08-16T07:51:46Z</time>
      </trkpt>
      <trkpt lat="44.43002" lon="1.4708">
        <ele>231.6</ele>
        <time>2021-08-16T07:51:48Z</time>
      </trkpt>
      <trkpt lat="44.43002" lon="1.47081">
        <ele>231.7</ele>
        <time>2021-08-16T07:51:49Z</time>
      </trkpt>
      <trkpt lat="44.43001" lon="1.47083">
        <ele>231.8</ele>
        <time>2021-08-16T07:51:50Z</time>
      </trkpt>
      <trkpt lat="44.42999" lon="1.47087">
        <ele>232.1</ele>
        <time>2021-08-16T07:51:52Z</time>
      </trkpt>
      <trkpt lat="44.42997" lon="1.4709">
        <ele>232.3</ele>
        <time>2021-08-16T07:51:54Z</time>
      </trkpt>
      <trkpt lat="44.42996" lon="1.47091">
        <ele>232.4</ele>
        <time>2021-08-16T07:51:55Z</time>
      </trkpt>
      <trkpt lat="44.42996" lon="1.47093">
        <ele>232.5</ele>
        <time>2021-08-16T07:51:56Z</time>
      </trkpt>
      <trkpt lat="44.42994" lon="1.47096">
        <ele>232.7</ele>
        <time>2021-08-16T07:51:58Z</time>
      </trkpt>
      <trkpt lat="44.42993" lon="1.47098">
        <ele>232.9</ele>
        <time>2021-08-16T07:51:59Z</time>
      </trkpt>
      <trkpt lat="44.42993" lon="1.47101">
        <ele>233</ele>
        <time>2021-08-16T07:52:00Z</time>
      </trkpt>
      <trkpt lat="44.42991" lon="1.47103">
        <ele>233.2</ele>
        <time>2021-08-16T07:52:02Z</time>
      </trkpt>
      <trkpt lat="44.4299" lon="1.47106">
        <ele>233.4</ele>
        <time>2021-08-16T07:52:04Z</time>
      </trkpt>
      <trkpt lat="44.42988" lon="1.47111">
        <ele>233.7</ele>
        <time>2021-08-16T07:52:06Z</time>
      </trkpt>
      <trkpt lat="44.42987" lon="1.47112">
        <ele>233.8</ele>
        <time>2021-08-16T07:52:07Z</time>
      </trkpt>
      <trkpt lat="44.42987" lon="1.47114">
        <ele>233.9</ele>
        <time>2021-08-16T07:52:08Z</time>
      </trkpt>
      <trkpt lat="44.42985" lon="1.47116">
        <ele>234.1</ele>
        <time>2021-08-16T07:52:10Z</time>
      </trkpt>
      <trkpt lat="44.42984" lon="1.47118">
        <ele>234.2</ele>
        <time>2021-08-16T07:52:11Z</time>
      </trkpt>
      <trkpt lat="44.42983" lon="1.4712">
        <ele>234.3</ele>
        <time>2021-08-16T07:52:12Z</time>
      </trkpt>
      <trkpt lat="44.42981" lon="1.47123">
        <ele>234.6</ele>
        <time>2021-08-16T07:52:14Z</time>
      </trkpt>
      <trkpt lat="44.42981" lon="1.47124">
        <ele>234.6</ele>
        <time>2021-08-16T07:52:15Z</time>
      </trkpt>
      <trkpt lat="44.42979" lon="1.47126">
        <ele>234.8</ele>
        <time>2021-08-16T07:52:16Z</time>
      </trkpt>
      <trkpt lat="44.42978" lon="1.4713">
        <ele>235</ele>
        <time>2021-08-16T07:52:18Z</time>
      </trkpt>
      <trkpt lat="44.42976" lon="1.47134">
        <ele>235.3</ele>
        <time>2021-08-16T07:52:19Z</time>
      </trkpt>
      <trkpt lat="44.42976" lon="1.47135">
        <ele>235.3</ele>
        <time>2021-08-16T07:52:20Z</time>
      </trkpt>
      <trkpt lat="44.42974" lon="1.47138">
        <ele>235.5</ele>
        <time>2021-08-16T07:52:21Z</time>
      </trkpt>
      <trkpt lat="44.42974" lon="1.47141">
        <ele>235.7</ele>
        <time>2021-08-16T07:52:23Z</time>
      </trkpt>
      <trkpt lat="44.42972" lon="1.47146">
        <ele>236</ele>
        <time>2021-08-16T07:52:25Z</time>
      </trkpt>
      <trkpt lat="44.4297" lon="1.47149">
        <ele>236.2</ele>
        <time>2021-08-16T07:52:26Z</time>
      </trkpt>
      <trkpt lat="44.4297" lon="1.47151">
        <ele>236.3</ele>
        <time>2021-08-16T07:52:27Z</time>
      </trkpt>
      <trkpt lat="44.42968" lon="1.47155">
        <ele>236.5</ele>
        <time>2021-08-16T07:52:29Z</time>
      </trkpt>
      <trkpt lat="44.42967" lon="1.47157">
        <ele>236.7</ele>
        <time>2021-08-16T07:52:30Z</time>
      </trkpt>
      <trkpt lat="44.42965" lon="1.47161">
        <ele>236.9</ele>
        <time>2021-08-16T07:52:32Z</time>
      </trkpt>
      <trkpt lat="44.42964" lon="1.47164">
        <ele>237.2</ele>
        <time>2021-08-16T07:52:34Z</time>
      </trkpt>
      <trkpt lat="44.42962" lon="1.47166">
        <ele>237.3</ele>
        <time>2021-08-16T07:52:35Z</time>
      </trkpt>
      <trkpt lat="44.42962" lon="1.47167">
        <ele>237.4</ele>
        <time>2021-08-16T07:52:36Z</time>
      </trkpt>
      <trkpt lat="44.42962" lon="1.47169">
        <ele>237.5</ele>
        <time>2021-08-16T07:52:37Z</time>
      </trkpt>
      <trkpt lat="44.4296" lon="1.47168">
        <ele>237.6</ele>
        <time>2021-08-16T07:52:38Z</time>
      </trkpt>
      <trkpt lat="44.4296" lon="1.47168">
        <ele>237.7</ele>
        <time>2021-08-16T07:52:40Z</time>
      </trkpt>
      <trkpt lat="44.42957" lon="1.4717">
        <ele>237.9</ele>
        <time>2021-08-16T07:52:42Z</time>
      </trkpt>
      <trkpt lat="44.42956" lon="1.47176">
        <ele>238.2</ele>
        <time>2021-08-16T07:52:44Z</time>
      </trkpt>
      <trkpt lat="44.42954" lon="1.4718">
        <ele>238.5</ele>
        <time>2021-08-16T07:52:45Z</time>
      </trkpt>
      <trkpt lat="44.42953" lon="1.47184">
        <ele>238.7</ele>
        <time>2021-08-16T07:52:46Z</time>
      </trkpt>
      <trkpt lat="44.42951" lon="1.47187">
        <ele>238.9</ele>
        <time>2021-08-16T07:52:47Z</time>
      </trkpt>
      <trkpt lat="44.42949" lon="1.47192">
        <ele>239.3</ele>
        <time>2021-08-16T07:52:49Z</time>
      </trkpt>
      <trkpt lat="44.42948" lon="1.47197">
        <ele>239.6</ele>
        <time>2021-08-16T07:52:51Z</time>
      </trkpt>
      <trkpt lat="44.42947" lon="1.472">
        <ele>239.8</ele>
        <time>2021-08-16T07:52:52Z</time>
      </trkpt>
      <trkpt lat="44.42946" lon="1.47203">
        <ele>239.9</ele>
        <time>2021-08-16T07:52:53Z</time>
      </trkpt>
      <trkpt lat="44.42945" lon="1.47207">
        <ele>240.2</ele>
        <time>2021-08-16T07:52:55Z</time>
      </trkpt>
      <trkpt lat="44.42944" lon="1.47211">
        <ele>240.4</ele>
        <time>2021-08-16T07:52:56Z</time>
      </trkpt>
      <trkpt lat="44.42942" lon="1.47213">
        <ele>240.5</ele>
        <time>2021-08-16T07:52:58Z</time>
      </trkpt>
      <trkpt lat="44.42941" lon="1.47217">
        <ele>240.8</ele>
        <time>2021-08-16T07:52:59Z</time>
      </trkpt>
      <trkpt lat="44.42941" lon="1.47218">
        <ele>240.9</ele>
        <time>2021-08-16T07:53:00Z</time>
      </trkpt>
      <trkpt lat="44.42939" lon="1.47222">
        <ele>241.1</ele>
        <time>2021-08-16T07:53:01Z</time>
      </trkpt>
      <trkpt lat="44.42939" lon="1.47224">
        <ele>241.2</ele>
        <time>2021-08-16T07:53:02Z</time>
      </trkpt>
      <trkpt lat="44.42937" lon="1.47228">
        <ele>241.5</ele>
        <time>2021-08-16T07:53:04Z</time>
      </trkpt>
      <trkpt lat="44.42936" lon="1.47233">
        <ele>241.7</ele>
        <time>2021-08-16T07:53:05Z</time>
      </trkpt>
      <trkpt lat="44.42935" lon="1.47234">
        <ele>241.8</ele>
        <time>2021-08-16T07:53:06Z</time>
      </trkpt>
      <trkpt lat="44.42934" lon="1.4724">
        <ele>242.1</ele>
        <time>2021-08-16T07:53:08Z</time>
      </trkpt>
      <trkpt lat="44.42934" lon="1.47245">
        <ele>242.4</ele>
        <time>2021-08-16T07:53:09Z</time>
      </trkpt>
      <trkpt lat="44.42933" lon="1.47246">
        <ele>242.4</ele>
        <time>2021-08-16T07:53:10Z</time>
      </trkpt>
      <trkpt lat="44.42933" lon="1.47249">
        <ele>242.6</ele>
        <time>2021-08-16T07:53:11Z</time>
      </trkpt>
      <trkpt lat="44.42934" lon="1.47254">
        <ele>242.9</ele>
        <time>2021-08-16T07:53:13Z</time>
      </trkpt>
      <trkpt lat="44.42935" lon="1.47258">
        <ele>243.1</ele>
        <time>2021-08-16T07:53:14Z</time>
      </trkpt>
      <trkpt lat="44.42935" lon="1.4726">
        <ele>243.2</ele>
        <time>2021-08-16T07:53:15Z</time>
      </trkpt>
      <trkpt lat="44.42936" lon="1.47263">
        <ele>243.4</ele>
        <time>2021-08-16T07:53:17Z</time>
      </trkpt>
      <trkpt lat="44.42939" lon="1.47266">
        <ele>243.6</ele>
        <time>2021-08-16T07:53:19Z</time>
      </trkpt>
      <trkpt lat="44.4294" lon="1.47267">
        <ele>243.7</ele>
        <time>2021-08-16T07:53:20Z</time>
      </trkpt>
      <trkpt lat="44.42943" lon="1.47269">
        <ele>243.9</ele>
        <time>2021-08-16T07:53:22Z</time>
      </trkpt>
      <trkpt lat="44.42946" lon="1.4727">
        <ele>244.2</ele>
        <time>2021-08-16T07:53:24Z</time>
      </trkpt>
      <trkpt lat="44.4295" lon="1.4727">
        <ele>244.4</ele>
        <time>2021-08-16T07:53:26Z</time>
      </trkpt>
      <trkpt lat="44.42952" lon="1.47269">
        <ele>244.5</ele>
        <time>2021-08-16T07:53:27Z</time>
      </trkpt>
      <trkpt lat="44.42954" lon="1.47268">
        <ele>244.7</ele>
        <time>2021-08-16T07:53:29Z</time>
      </trkpt>
      <trkpt lat="44.42957" lon="1.47266">
        <ele>244.9</ele>
        <time>2021-08-16T07:53:30Z</time>
      </trkpt>
      <trkpt lat="44.42958" lon="1.47265">
        <ele>245</ele>
        <time>2021-08-16T07:53:31Z</time>
      </trkpt>
      <trkpt lat="44.4296" lon="1.47264">
        <ele>245.1</ele>
        <time>2021-08-16T07:53:32Z</time>
      </trkpt>
      <trkpt lat="44.42963" lon="1.47263">
        <ele>245.3</ele>
        <time>2021-08-16T07:53:34Z</time>
      </trkpt>
      <trkpt lat="44.42964" lon="1.47261">
        <ele>245.4</ele>
        <time>2021-08-16T07:53:35Z</time>
      </trkpt>
      <trkpt lat="44.42966" lon="1.47261">
        <ele>245.5</ele>
        <time>2021-08-16T07:53:36Z</time>
      </trkpt>
      <trkpt lat="44.42969" lon="1.47258">
        <ele>245.7</ele>
        <time>2021-08-16T07:53:38Z</time>
      </trkpt>
      <trkpt lat="44.42972" lon="1.47256">
        <ele>246</ele>
        <time>2021-08-16T07:53:40Z</time>
      </trkpt>
      <trkpt lat="44.42972" lon="1.47255">
        <ele>246</ele>
        <time>2021-08-16T07:53:41Z</time>
      </trkpt>
      <trkpt lat="44.42974" lon="1.47254">
        <ele>246.1</ele>
        <time>2021-08-16T07:53:42Z</time>
      </trkpt>
      <trkpt lat="44.42975" lon="1.47252">
        <ele>246.2</ele>
        <time>2021-08-16T07:53:43Z</time>
      </trkpt>
      <trkpt lat="44.42976" lon="1.47251">
        <ele>246.3</ele>
        <time>2021-08-16T07:53:44Z</time>
      </trkpt>
      <trkpt lat="44.42979" lon="1.47249">
        <ele>246.5</ele>
        <time>2021-08-16T07:53:46Z</time>
      </trkpt>
      <trkpt lat="44.4298" lon="1.47249">
        <ele>246.6</ele>
        <time>2021-08-16T07:53:47Z</time>
      </trkpt>
      <trkpt lat="44.42982" lon="1.47247">
        <ele>246.8</ele>
        <time>2021-08-16T07:53:49Z</time>
      </trkpt>
      <trkpt lat="44.42984" lon="1.47246">
        <ele>246.9</ele>
        <time>2021-08-16T07:53:50Z</time>
      </trkpt>
      <trkpt lat="44.42985" lon="1.47246">
        <ele>247</ele>
        <time>2021-08-16T07:53:51Z</time>
      </trkpt>
      <trkpt lat="44.42987" lon="1.47245">
        <ele>247.1</ele>
        <time>2021-08-16T07:53:53Z</time>
      </trkpt>
      <trkpt lat="44.42988" lon="1.47244">
        <ele>247.2</ele>
        <time>2021-08-16T07:53:54Z</time>
      </trkpt>
      <trkpt lat="44.4299" lon="1.47243">
        <ele>247.3</ele>
        <time>2021-08-16T07:53:56Z</time>
      </trkpt>
      <trkpt lat="44.42992" lon="1.47241">
        <ele>247.5</ele>
        <time>2021-08-16T07:53:58Z</time>
      </trkpt>
      <trkpt lat="44.42993" lon="1.4724">
        <ele>247.6</ele>
        <time>2021-08-16T07:53:59Z</time>
      </trkpt>
      <trkpt lat="44.42994" lon="1.4724">
        <ele>247.7</ele>
        <time>2021-08-16T07:54:00Z</time>
      </trkpt>
      <trkpt lat="44.42997" lon="1.47239">
        <ele>247.9</ele>
        <time>2021-08-16T07:54:02Z</time>
      </trkpt>
      <trkpt lat="44.43" lon="1.47237">
        <ele>248.1</ele>
        <time>2021-08-16T07:54:04Z</time>
      </trkpt>
      <trkpt lat="44.43003" lon="1.47235">
        <ele>248.3</ele>
        <time>2021-08-16T07:54:06Z</time>
      </trkpt>
      <trkpt lat="44.43005" lon="1.47233">
        <ele>248.5</ele>
        <time>2021-08-16T07:54:08Z</time>
      </trkpt>
      <trkpt lat="44.43008" lon="1.47233">
        <ele>248.8</ele>
        <time>2021-08-16T07:54:10Z</time>
      </trkpt>
      <trkpt lat="44.4301" lon="1.47232">
        <ele>248.9</ele>
        <time>2021-08-16T07:54:11Z</time>
      </trkpt>
      <trkpt lat="44.43013" lon="1.47231">
        <ele>249.1</ele>
        <time>2021-08-16T07:54:13Z</time>
      </trkpt>
      <trkpt lat="44.43014" lon="1.4723">
        <ele>249.2</ele>
        <time>2021-08-16T07:54:14Z</time>
      </trkpt>
      <trkpt lat="44.43017" lon="1.47228">
        <ele>249.4</ele>
        <time>2021-08-16T07:54:16Z</time>
      </trkpt>
      <trkpt lat="44.43021" lon="1.47225">
        <ele>249.7</ele>
        <time>2021-08-16T07:54:18Z</time>
      </trkpt>
      <trkpt lat="44.43022" lon="1.47225">
        <ele>249.8</ele>
        <time>2021-08-16T07:54:20Z</time>
      </trkpt>
      <trkpt lat="44.43023" lon="1.47224">
        <ele>249.9</ele>
        <time>2021-08-16T07:54:21Z</time>
      </trkpt>
      <trkpt lat="44.43025" lon="1.47223">
        <ele>250</ele>
        <time>2021-08-16T07:54:22Z</time>
      </trkpt>
      <trkpt lat="44.43026" lon="1.47223">
        <ele>250.1</ele>
        <time>2021-08-16T07:54:23Z</time>
      </trkpt>
      <trkpt lat="44.43028" lon="1.47222">
        <ele>250.3</ele>
        <time>2021-08-16T07:54:25Z</time>
      </trkpt>
      <trkpt lat="44.4303" lon="1.47221">
        <ele>250.4</ele>
        <time>2021-08-16T07:54:26Z</time>
      </trkpt>
      <trkpt lat="44.4303" lon="1.47221">
        <ele>250.4</ele>
        <time>2021-08-16T07:54:28Z</time>
      </trkpt>
      <trkpt lat="44.43029" lon="1.47221">
        <ele>250.5</ele>
        <time>2021-08-16T07:54:30Z</time>
      </trkpt>
      <trkpt lat="44.43029" lon="1.4722">
        <ele>250.5</ele>
        <time>2021-08-16T07:54:32Z</time>
      </trkpt>
      <trkpt lat="44.43029" lon="1.4722">
        <ele>250.5</ele>
        <time>2021-08-16T07:54:34Z</time>
      </trkpt>
      <trkpt lat="44.43029" lon="1.4722">
        <ele>250.5</ele>
        <time>2021-08-16T07:54:35Z</time>
      </trkpt>
      <trkpt lat="44.43029" lon="1.4722">
        <ele>250.5</ele>
        <time>2021-08-16T07:54:37Z</time>
      </trkpt>
      <trkpt lat="44.43033" lon="1.47219">
        <ele>250.8</ele>
        <time>2021-08-16T07:54:50Z</time>
      </trkpt>
      <trkpt lat="44.43037" lon="1.47218">
        <ele>251</ele>
        <time>2021-08-16T07:54:51Z</time>
      </trkpt>
      <trkpt lat="44.43041" lon="1.47216">
        <ele>251.3</ele>
        <time>2021-08-16T07:54:53Z</time>
      </trkpt>
      <trkpt lat="44.43043" lon="1.47215">
        <ele>251.5</ele>
        <time>2021-08-16T07:54:54Z</time>
      </trkpt>
      <trkpt lat="44.43047" lon="1.47214">
        <ele>251.8</ele>
        <time>2021-08-16T07:54:55Z</time>
      </trkpt>
      <trkpt lat="44.43048" lon="1.47213">
        <ele>251.9</ele>
        <time>2021-08-16T07:54:56Z</time>
      </trkpt>
      <trkpt lat="44.43051" lon="1.4721">
        <ele>252.1</ele>
        <time>2021-08-16T07:54:58Z</time>
      </trkpt>
      <trkpt lat="44.43054" lon="1.47209">
        <ele>252.4</ele>
        <time>2021-08-16T07:55:00Z</time>
      </trkpt>
      <trkpt lat="44.43057" lon="1.47208">
        <ele>252.6</ele>
        <time>2021-08-16T07:55:02Z</time>
      </trkpt>
      <trkpt lat="44.43059" lon="1.47207">
        <ele>252.7</ele>
        <time>2021-08-16T07:55:03Z</time>
      </trkpt>
      <trkpt lat="44.43062" lon="1.47206">
        <ele>252.9</ele>
        <time>2021-08-16T07:55:05Z</time>
      </trkpt>
      <trkpt lat="44.43064" lon="1.47206">
        <ele>253.1</ele>
        <time>2021-08-16T07:55:06Z</time>
      </trkpt>
      <trkpt lat="44.43067" lon="1.47205">
        <ele>253.3</ele>
        <time>2021-08-16T07:55:08Z</time>
      </trkpt>
      <trkpt lat="44.4307" lon="1.47205">
        <ele>253.5</ele>
        <time>2021-08-16T07:55:09Z</time>
      </trkpt>
      <trkpt lat="44.43071" lon="1.47205">
        <ele>253.5</ele>
        <time>2021-08-16T07:55:10Z</time>
      </trkpt>
      <trkpt lat="44.43074" lon="1.47205">
        <ele>253.7</ele>
        <time>2021-08-16T07:55:12Z</time>
      </trkpt>
      <trkpt lat="44.43077" lon="1.47204">
        <ele>253.9</ele>
        <time>2021-08-16T07:55:13Z</time>
      </trkpt>
      <trkpt lat="44.4308" lon="1.47205">
        <ele>254.1</ele>
        <time>2021-08-16T07:55:14Z</time>
      </trkpt>
      <trkpt lat="44.43084" lon="1.47206">
        <ele>254.4</ele>
        <time>2021-08-16T07:55:16Z</time>
      </trkpt>
      <trkpt lat="44.43087" lon="1.47208">
        <ele>254.6</ele>
        <time>2021-08-16T07:55:17Z</time>
      </trkpt>
      <trkpt lat="44.43087" lon="1.47209">
        <ele>254.6</ele>
        <time>2021-08-16T07:55:18Z</time>
      </trkpt>
      <trkpt lat="44.4309" lon="1.47213">
        <ele>254.8</ele>
        <time>2021-08-16T07:55:20Z</time>
      </trkpt>
      <trkpt lat="44.43091" lon="1.47216">
        <ele>255</ele>
        <time>2021-08-16T07:55:21Z</time>
      </trkpt>
      <trkpt lat="44.43093" lon="1.4722">
        <ele>255.2</ele>
        <time>2021-08-16T07:55:22Z</time>
      </trkpt>
      <trkpt lat="44.43093" lon="1.47221">
        <ele>255.3</ele>
        <time>2021-08-16T07:55:23Z</time>
      </trkpt>
      <trkpt lat="44.43094" lon="1.47226">
        <ele>255.5</ele>
        <time>2021-08-16T07:55:25Z</time>
      </trkpt>
      <trkpt lat="44.43095" lon="1.47229">
        <ele>255.6</ele>
        <time>2021-08-16T07:55:26Z</time>
      </trkpt>
      <trkpt lat="44.43095" lon="1.47233">
        <ele>255.8</ele>
        <time>2021-08-16T07:55:28Z</time>
      </trkpt>
      <trkpt lat="44.43095" lon="1.47238">
        <ele>256.1</ele>
        <time>2021-08-16T07:55:29Z</time>
      </trkpt>
      <trkpt lat="44.43095" lon="1.4724">
        <ele>256.2</ele>
        <time>2021-08-16T07:55:30Z</time>
      </trkpt>
      <trkpt lat="44.43095" lon="1.47243">
        <ele>256.3</ele>
        <time>2021-08-16T07:55:31Z</time>
      </trkpt>
      <trkpt lat="44.43094" lon="1.47247">
        <ele>256.5</ele>
        <time>2021-08-16T07:55:33Z</time>
      </trkpt>
      <trkpt lat="44.43094" lon="1.47252">
        <ele>256.7</ele>
        <time>2021-08-16T07:55:34Z</time>
      </trkpt>
      <trkpt lat="44.43094" lon="1.47253">
        <ele>256.8</ele>
        <time>2021-08-16T07:55:35Z</time>
      </trkpt>
      <trkpt lat="44.43093" lon="1.47257">
        <ele>257</ele>
        <time>2021-08-16T07:55:36Z</time>
      </trkpt>
      <trkpt lat="44.43093" lon="1.47258">
        <ele>257.1</ele>
        <time>2021-08-16T07:55:37Z</time>
      </trkpt>
      <trkpt lat="44.43092" lon="1.47263">
        <ele>257.3</ele>
        <time>2021-08-16T07:55:38Z</time>
      </trkpt>
      <trkpt lat="44.43092" lon="1.47264">
        <ele>257.4</ele>
        <time>2021-08-16T07:55:39Z</time>
      </trkpt>
      <trkpt lat="44.43092" lon="1.47267">
        <ele>257.6</ele>
        <time>2021-08-16T07:55:41Z</time>
      </trkpt>
      <trkpt lat="44.43091" lon="1.4727">
        <ele>257.7</ele>
        <time>2021-08-16T07:55:42Z</time>
      </trkpt>
      <trkpt lat="44.4309" lon="1.47274">
        <ele>258</ele>
        <time>2021-08-16T07:55:44Z</time>
      </trkpt>
      <trkpt lat="44.43089" lon="1.47279">
        <ele>258.2</ele>
        <time>2021-08-16T07:55:46Z</time>
      </trkpt>
      <trkpt lat="44.43089" lon="1.4728">
        <ele>258.3</ele>
        <time>2021-08-16T07:55:47Z</time>
      </trkpt>
      <trkpt lat="44.43088" lon="1.47283">
        <ele>258.4</ele>
        <time>2021-08-16T07:55:48Z</time>
      </trkpt>
      <trkpt lat="44.43088" lon="1.47285">
        <ele>258.6</ele>
        <time>2021-08-16T07:55:49Z</time>
      </trkpt>
      <trkpt lat="44.43087" lon="1.47287">
        <ele>258.7</ele>
        <time>2021-08-16T07:55:50Z</time>
      </trkpt>
      <trkpt lat="44.43086" lon="1.4729">
        <ele>258.8</ele>
        <time>2021-08-16T07:55:52Z</time>
      </trkpt>
      <trkpt lat="44.43085" lon="1.47293">
        <ele>259.1</ele>
        <time>2021-08-16T07:55:53Z</time>
      </trkpt>
      <trkpt lat="44.43084" lon="1.47295">
        <ele>259.1</ele>
        <time>2021-08-16T07:55:54Z</time>
      </trkpt>
      <trkpt lat="44.43083" lon="1.47299">
        <ele>259.4</ele>
        <time>2021-08-16T07:55:55Z</time>
      </trkpt>
      <trkpt lat="44.43082" lon="1.47301">
        <ele>259.5</ele>
        <time>2021-08-16T07:55:56Z</time>
      </trkpt>
      <trkpt lat="44.43081" lon="1.47305">
        <ele>259.7</ele>
        <time>2021-08-16T07:55:58Z</time>
      </trkpt>
      <trkpt lat="44.4308" lon="1.47306">
        <ele>259.8</ele>
        <time>2021-08-16T07:55:59Z</time>
      </trkpt>
      <trkpt lat="44.43078" lon="1.4731">
        <ele>260</ele>
        <time>2021-08-16T07:56:01Z</time>
      </trkpt>
      <trkpt lat="44.43077" lon="1.47314">
        <ele>260.3</ele>
        <time>2021-08-16T07:56:03Z</time>
      </trkpt>
      <trkpt lat="44.43075" lon="1.47318">
        <ele>260.5</ele>
        <time>2021-08-16T07:56:05Z</time>
      </trkpt>
      <trkpt lat="44.43074" lon="1.47322">
        <ele>260.7</ele>
        <time>2021-08-16T07:56:06Z</time>
      </trkpt>
      <trkpt lat="44.43072" lon="1.47326">
        <ele>261</ele>
        <time>2021-08-16T07:56:07Z</time>
      </trkpt>
      <trkpt lat="44.43072" lon="1.47327">
        <ele>261</ele>
        <time>2021-08-16T07:56:08Z</time>
      </trkpt>
      <trkpt lat="44.43071" lon="1.47329">
        <ele>261.2</ele>
        <time>2021-08-16T07:56:09Z</time>
      </trkpt>
      <trkpt lat="44.4307" lon="1.47333">
        <ele>261.4</ele>
        <time>2021-08-16T07:56:11Z</time>
      </trkpt>
      <trkpt lat="44.43068" lon="1.47337">
        <ele>261.6</ele>
        <time>2021-08-16T07:56:12Z</time>
      </trkpt>
      <trkpt lat="44.43068" lon="1.47339">
        <ele>261.7</ele>
        <time>2021-08-16T07:56:13Z</time>
      </trkpt>
      <trkpt lat="44.43067" lon="1.47341">
        <ele>261.9</ele>
        <time>2021-08-16T07:56:14Z</time>
      </trkpt>
      <trkpt lat="44.43066" lon="1.47344">
        <ele>262</ele>
        <time>2021-08-16T07:56:16Z</time>
      </trkpt>
      <trkpt lat="44.43064" lon="1.47348">
        <ele>262.3</ele>
        <time>2021-08-16T07:56:17Z</time>
      </trkpt>
      <trkpt lat="44.43064" lon="1.47349">
        <ele>262.4</ele>
        <time>2021-08-16T07:56:18Z</time>
      </trkpt>
      <trkpt lat="44.43063" lon="1.47354">
        <ele>262.6</ele>
        <time>2021-08-16T07:56:19Z</time>
      </trkpt>
      <trkpt lat="44.43063" lon="1.47355">
        <ele>262.6</ele>
        <time>2021-08-16T07:56:20Z</time>
      </trkpt>
      <trkpt lat="44.43061" lon="1.4736">
        <ele>263</ele>
        <time>2021-08-16T07:56:22Z</time>
      </trkpt>
      <trkpt lat="44.43061" lon="1.47362">
        <ele>263.1</ele>
        <time>2021-08-16T07:56:23Z</time>
      </trkpt>
      <trkpt lat="44.4306" lon="1.47364">
        <ele>263.2</ele>
        <time>2021-08-16T07:56:24Z</time>
      </trkpt>
      <trkpt lat="44.43059" lon="1.47368">
        <ele>263.4</ele>
        <time>2021-08-16T07:56:26Z</time>
      </trkpt>
      <trkpt lat="44.43058" lon="1.47371">
        <ele>263.6</ele>
        <time>2021-08-16T07:56:27Z</time>
      </trkpt>
      <trkpt lat="44.43057" lon="1.47375">
        <ele>263.8</ele>
        <time>2021-08-16T07:56:29Z</time>
      </trkpt>
      <trkpt lat="44.43056" lon="1.4738">
        <ele>264.1</ele>
        <time>2021-08-16T07:56:31Z</time>
      </trkpt>
      <trkpt lat="44.43055" lon="1.47382">
        <ele>264.2</ele>
        <time>2021-08-16T07:56:32Z</time>
      </trkpt>
      <trkpt lat="44.43054" lon="1.47386">
        <ele>264.4</ele>
        <time>2021-08-16T07:56:34Z</time>
      </trkpt>
      <trkpt lat="44.43052" lon="1.47392">
        <ele>264.7</ele>
        <time>2021-08-16T07:56:36Z</time>
      </trkpt>
      <trkpt lat="44.43051" lon="1.47398">
        <ele>265.1</ele>
        <time>2021-08-16T07:56:38Z</time>
      </trkpt>
      <trkpt lat="44.43051" lon="1.474">
        <ele>265.2</ele>
        <time>2021-08-16T07:56:39Z</time>
      </trkpt>
      <trkpt lat="44.4305" lon="1.47402">
        <ele>265.3</ele>
        <time>2021-08-16T07:56:40Z</time>
      </trkpt>
      <trkpt lat="44.43049" lon="1.47408">
        <ele>265.7</ele>
        <time>2021-08-16T07:56:42Z</time>
      </trkpt>
      <trkpt lat="44.43049" lon="1.4741">
        <ele>265.8</ele>
        <time>2021-08-16T07:56:43Z</time>
      </trkpt>
      <trkpt lat="44.43048" lon="1.47411">
        <ele>265.9</ele>
        <time>2021-08-16T07:56:44Z</time>
      </trkpt>
      <trkpt lat="44.43047" lon="1.47416">
        <ele>266.2</ele>
        <time>2021-08-16T07:56:46Z</time>
      </trkpt>
      <trkpt lat="44.43046" lon="1.4742">
        <ele>266.4</ele>
        <time>2021-08-16T07:56:47Z</time>
      </trkpt>
      <trkpt lat="44.43046" lon="1.47422">
        <ele>266.5</ele>
        <time>2021-08-16T07:56:48Z</time>
      </trkpt>
      <trkpt lat="44.43045" lon="1.47426">
        <ele>266.7</ele>
        <time>2021-08-16T07:56:49Z</time>
      </trkpt>
      <trkpt lat="44.43044" lon="1.47427">
        <ele>266.8</ele>
        <time>2021-08-16T07:56:50Z</time>
      </trkpt>
      <trkpt lat="44.43043" lon="1.47432">
        <ele>267.1</ele>
        <time>2021-08-16T07:56:52Z</time>
      </trkpt>
      <trkpt lat="44.43041" lon="1.47437">
        <ele>267.4</ele>
        <time>2021-08-16T07:56:54Z</time>
      </trkpt>
      <trkpt lat="44.4304" lon="1.47439">
        <ele>267.5</ele>
        <time>2021-08-16T07:56:55Z</time>
      </trkpt>
      <trkpt lat="44.4304" lon="1.47441">
        <ele>267.6</ele>
        <time>2021-08-16T07:56:56Z</time>
      </trkpt>
      <trkpt lat="44.43039" lon="1.47445">
        <ele>267.9</ele>
        <time>2021-08-16T07:56:58Z</time>
      </trkpt>
      <trkpt lat="44.43038" lon="1.47449">
        <ele>268.1</ele>
        <time>2021-08-16T07:56:59Z</time>
      </trkpt>
      <trkpt lat="44.43037" lon="1.47451">
        <ele>268.2</ele>
        <time>2021-08-16T07:57:00Z</time>
      </trkpt>
      <trkpt lat="44.43036" lon="1.47454">
        <ele>268.4</ele>
        <time>2021-08-16T07:57:02Z</time>
      </trkpt>
      <trkpt lat="44.43035" lon="1.47459">
        <ele>268.6</ele>
        <time>2021-08-16T07:57:03Z</time>
      </trkpt>
      <trkpt lat="44.43035" lon="1.4746">
        <ele>268.7</ele>
        <time>2021-08-16T07:57:04Z</time>
      </trkpt>
      <trkpt lat="44.43034" lon="1.47463">
        <ele>268.9</ele>
        <time>2021-08-16T07:57:05Z</time>
      </trkpt>
      <trkpt lat="44.43033" lon="1.47467">
        <ele>269.1</ele>
        <time>2021-08-16T07:57:07Z</time>
      </trkpt>
      <trkpt lat="44.43032" lon="1.4747">
        <ele>269.3</ele>
        <time>2021-08-16T07:57:08Z</time>
      </trkpt>
      <trkpt lat="44.43031" lon="1.47475">
        <ele>269.6</ele>
        <time>2021-08-16T07:57:10Z</time>
      </trkpt>
      <trkpt lat="44.43029" lon="1.47479">
        <ele>269.8</ele>
        <time>2021-08-16T07:57:12Z</time>
      </trkpt>
      <trkpt lat="44.43029" lon="1.47481">
        <ele>270</ele>
        <time>2021-08-16T07:57:13Z</time>
      </trkpt>
      <trkpt lat="44.43028" lon="1.47484">
        <ele>270.1</ele>
        <time>2021-08-16T07:57:14Z</time>
      </trkpt>
      <trkpt lat="44.43027" lon="1.47488">
        <ele>270.4</ele>
        <time>2021-08-16T07:57:16Z</time>
      </trkpt>
      <trkpt lat="44.43026" lon="1.4749">
        <ele>270.5</ele>
        <time>2021-08-16T07:57:17Z</time>
      </trkpt>
      <trkpt lat="44.43025" lon="1.47495">
        <ele>270.8</ele>
        <time>2021-08-16T07:57:19Z</time>
      </trkpt>
      <trkpt lat="44.43024" lon="1.47498">
        <ele>271</ele>
        <time>2021-08-16T07:57:20Z</time>
      </trkpt>
      <trkpt lat="44.43022" lon="1.47502">
        <ele>271.3</ele>
        <time>2021-08-16T07:57:22Z</time>
      </trkpt>
      <trkpt lat="44.43021" lon="1.47506">
        <ele>271.6</ele>
        <time>2021-08-16T07:57:23Z</time>
      </trkpt>
      <trkpt lat="44.4302" lon="1.47508">
        <ele>271.7</ele>
        <time>2021-08-16T07:57:24Z</time>
      </trkpt>
      <trkpt lat="44.43019" lon="1.47511">
        <ele>271.9</ele>
        <time>2021-08-16T07:57:25Z</time>
      </trkpt>
      <trkpt lat="44.43019" lon="1.47513">
        <ele>272</ele>
        <time>2021-08-16T07:57:26Z</time>
      </trkpt>
      <trkpt lat="44.43017" lon="1.47516">
        <ele>272.2</ele>
        <time>2021-08-16T07:57:28Z</time>
      </trkpt>
      <trkpt lat="44.43016" lon="1.47519">
        <ele>272.4</ele>
        <time>2021-08-16T07:57:29Z</time>
      </trkpt>
      <trkpt lat="44.43015" lon="1.47523">
        <ele>272.6</ele>
        <time>2021-08-16T07:57:31Z</time>
      </trkpt>
      <trkpt lat="44.43014" lon="1.47526">
        <ele>272.9</ele>
        <time>2021-08-16T07:57:32Z</time>
      </trkpt>
      <trkpt lat="44.43013" lon="1.47531">
        <ele>273.2</ele>
        <time>2021-08-16T07:57:34Z</time>
      </trkpt>
      <trkpt lat="44.43012" lon="1.47533">
        <ele>273.3</ele>
        <time>2021-08-16T07:57:35Z</time>
      </trkpt>
      <trkpt lat="44.43011" lon="1.47535">
        <ele>273.4</ele>
        <time>2021-08-16T07:57:36Z</time>
      </trkpt>
      <trkpt lat="44.4301" lon="1.4754">
        <ele>273.7</ele>
        <time>2021-08-16T07:57:38Z</time>
      </trkpt>
      <trkpt lat="44.43009" lon="1.47544">
        <ele>274</ele>
        <time>2021-08-16T07:57:40Z</time>
      </trkpt>
      <trkpt lat="44.43008" lon="1.47546">
        <ele>274.1</ele>
        <time>2021-08-16T07:57:41Z</time>
      </trkpt>
      <trkpt lat="44.43007" lon="1.47548">
        <ele>274.3</ele>
        <time>2021-08-16T07:57:42Z</time>
      </trkpt>
      <trkpt lat="44.43005" lon="1.47554">
        <ele>274.6</ele>
        <time>2021-08-16T07:57:44Z</time>
      </trkpt>
      <trkpt lat="44.43005" lon="1.47556">
        <ele>274.7</ele>
        <time>2021-08-16T07:57:45Z</time>
      </trkpt>
      <trkpt lat="44.43004" lon="1.47558">
        <ele>274.9</ele>
        <time>2021-08-16T07:57:46Z</time>
      </trkpt>
      <trkpt lat="44.43003" lon="1.4756">
        <ele>275</ele>
        <time>2021-08-16T07:57:47Z</time>
      </trkpt>
      <trkpt lat="44.43002" lon="1.47565">
        <ele>275.3</ele>
        <time>2021-08-16T07:57:49Z</time>
      </trkpt>
      <trkpt lat="44.43002" lon="1.47568">
        <ele>275.5</ele>
        <time>2021-08-16T07:57:50Z</time>
      </trkpt>
      <trkpt lat="44.43001" lon="1.47573">
        <ele>275.7</ele>
        <time>2021-08-16T07:57:52Z</time>
      </trkpt>
      <trkpt lat="44.43001" lon="1.47576">
        <ele>275.7</ele>
        <time>2021-08-16T07:57:53Z</time>
      </trkpt>
      <trkpt lat="44.43002" lon="1.47579">
        <ele>275.8</ele>
        <time>2021-08-16T07:57:55Z</time>
      </trkpt>
      <trkpt lat="44.43002" lon="1.47582">
        <ele>275.8</ele>
        <time>2021-08-16T07:57:56Z</time>
      </trkpt>
      <trkpt lat="44.43004" lon="1.47586">
        <ele>275.9</ele>
        <time>2021-08-16T07:57:58Z</time>
      </trkpt>
      <trkpt lat="44.43004" lon="1.47587">
        <ele>276</ele>
        <time>2021-08-16T07:57:59Z</time>
      </trkpt>
      <trkpt lat="44.43006" lon="1.47591">
        <ele>276</ele>
        <time>2021-08-16T07:58:01Z</time>
      </trkpt>
      <trkpt lat="44.43007" lon="1.47594">
        <ele>276.1</ele>
        <time>2021-08-16T07:58:02Z</time>
      </trkpt>
      <trkpt lat="44.43009" lon="1.47598">
        <ele>276.2</ele>
        <time>2021-08-16T07:58:04Z</time>
      </trkpt>
      <trkpt lat="44.4301" lon="1.47601">
        <ele>276.2</ele>
        <time>2021-08-16T07:58:05Z</time>
      </trkpt>
      <trkpt lat="44.4301" lon="1.47605">
        <ele>276.3</ele>
        <time>2021-08-16T07:58:07Z</time>
      </trkpt>
      <trkpt lat="44.4301" lon="1.47607">
        <ele>276.3</ele>
        <time>2021-08-16T07:58:08Z</time>
      </trkpt>
      <trkpt lat="44.43011" lon="1.4761">
        <ele>276.2</ele>
        <time>2021-08-16T07:58:10Z</time>
      </trkpt>
      <trkpt lat="44.43012" lon="1.47612">
        <ele>276.1</ele>
        <time>2021-08-16T07:58:11Z</time>
      </trkpt>
      <trkpt lat="44.43012" lon="1.47613">
        <ele>276.1</ele>
        <time>2021-08-16T07:58:12Z</time>
      </trkpt>
      <trkpt lat="44.43013" lon="1.47615">
        <ele>276</ele>
        <time>2021-08-16T07:58:14Z</time>
      </trkpt>
      <trkpt lat="44.43013" lon="1.47615">
        <ele>276</ele>
        <time>2021-08-16T07:58:15Z</time>
      </trkpt>
      <trkpt lat="44.43013" lon="1.47616">
        <ele>275.9</ele>
        <time>2021-08-16T07:58:17Z</time>
      </trkpt>
      <trkpt lat="44.43013" lon="1.47616">
        <ele>275.9</ele>
        <time>2021-08-16T07:58:18Z</time>
      </trkpt>
      <trkpt lat="44.43014" lon="1.47616">
        <ele>275.8</ele>
        <time>2021-08-16T07:58:20Z</time>
      </trkpt>
      <trkpt lat="44.43014" lon="1.47616">
        <ele>275.7</ele>
        <time>2021-08-16T07:58:22Z</time>
      </trkpt>
      <trkpt lat="44.43019" lon="1.47626">
        <ele>275.7</ele>
        <time>2021-08-16T07:59:53Z</time>
      </trkpt>
      <trkpt lat="44.43021" lon="1.47631">
        <ele>275.6</ele>
        <time>2021-08-16T07:59:55Z</time>
      </trkpt>
      <trkpt lat="44.43023" lon="1.47633">
        <ele>275.6</ele>
        <time>2021-08-16T07:59:56Z</time>
      </trkpt>
      <trkpt lat="44.43024" lon="1.47636">
        <ele>275.5</ele>
        <time>2021-08-16T07:59:58Z</time>
      </trkpt>
      <trkpt lat="44.43025" lon="1.47638">
        <ele>275.4</ele>
        <time>2021-08-16T07:59:59Z</time>
      </trkpt>
      <trkpt lat="44.43026" lon="1.47639">
        <ele>275.4</ele>
        <time>2021-08-16T08:00:00Z</time>
      </trkpt>
      <trkpt lat="44.43029" lon="1.47642">
        <ele>275.3</ele>
        <time>2021-08-16T08:00:02Z</time>
      </trkpt>
      <trkpt lat="44.43031" lon="1.47644">
        <ele>275.3</ele>
        <time>2021-08-16T08:00:04Z</time>
      </trkpt>
      <trkpt lat="44.43035" lon="1.47645">
        <ele>275.3</ele>
        <time>2021-08-16T08:00:06Z</time>
      </trkpt>
      <trkpt lat="44.43038" lon="1.47647">
        <ele>275.3</ele>
        <time>2021-08-16T08:00:07Z</time>
      </trkpt>
      <trkpt lat="44.43039" lon="1.47647">
        <ele>275.2</ele>
        <time>2021-08-16T08:00:08Z</time>
      </trkpt>
      <trkpt lat="44.43043" lon="1.47649">
        <ele>275.2</ele>
        <time>2021-08-16T08:00:10Z</time>
      </trkpt>
      <trkpt lat="44.43048" lon="1.47652">
        <ele>275.2</ele>
        <time>2021-08-16T08:00:12Z</time>
      </trkpt>
      <trkpt lat="44.4305" lon="1.47653">
        <ele>275.1</ele>
        <time>2021-08-16T08:00:13Z</time>
      </trkpt>
      <trkpt lat="44.43054" lon="1.47656">
        <ele>275.1</ele>
        <time>2021-08-16T08:00:15Z</time>
      </trkpt>
      <trkpt lat="44.43057" lon="1.47659">
        <ele>274.8</ele>
        <time>2021-08-16T08:00:16Z</time>
      </trkpt>
      <trkpt lat="44.43058" lon="1.4766">
        <ele>274.8</ele>
        <time>2021-08-16T08:00:17Z</time>
      </trkpt>
      <trkpt lat="44.43061" lon="1.47664">
        <ele>274.5</ele>
        <time>2021-08-16T08:00:19Z</time>
      </trkpt>
      <trkpt lat="44.43064" lon="1.47666">
        <ele>274.4</ele>
        <time>2021-08-16T08:00:20Z</time>
      </trkpt>
      <trkpt lat="44.43067" lon="1.47671">
        <ele>274</ele>
        <time>2021-08-16T08:00:22Z</time>
      </trkpt>
      <trkpt lat="44.4307" lon="1.47677">
        <ele>273.3</ele>
        <time>2021-08-16T08:00:24Z</time>
      </trkpt>
      <trkpt lat="44.43072" lon="1.47682">
        <ele>272.9</ele>
        <time>2021-08-16T08:00:25Z</time>
      </trkpt>
      <trkpt lat="44.43072" lon="1.47683">
        <ele>272.8</ele>
        <time>2021-08-16T08:00:26Z</time>
      </trkpt>
      <trkpt lat="44.43077" lon="1.4769">
        <ele>272.1</ele>
        <time>2021-08-16T08:00:28Z</time>
      </trkpt>
      <trkpt lat="44.4308" lon="1.47693">
        <ele>271.6</ele>
        <time>2021-08-16T08:00:29Z</time>
      </trkpt>
      <trkpt lat="44.43081" lon="1.47695">
        <ele>271.5</ele>
        <time>2021-08-16T08:00:30Z</time>
      </trkpt>
      <trkpt lat="44.43085" lon="1.47696">
        <ele>271.4</ele>
        <time>2021-08-16T08:00:31Z</time>
      </trkpt>
      <trkpt lat="44.43086" lon="1.47696">
        <ele>271.4</ele>
        <time>2021-08-16T08:00:32Z</time>
      </trkpt>
      <trkpt lat="44.43092" lon="1.47693">
        <ele>271.2</ele>
        <time>2021-08-16T08:00:34Z</time>
      </trkpt>
      <trkpt lat="44.43097" lon="1.47691">
        <ele>271.4</ele>
        <time>2021-08-16T08:00:36Z</time>
      </trkpt>
      <trkpt lat="44.43101" lon="1.47691">
        <ele>271.2</ele>
        <time>2021-08-16T08:00:37Z</time>
      </trkpt>
      <trkpt lat="44.43102" lon="1.47691">
        <ele>271.1</ele>
        <time>2021-08-16T08:00:38Z</time>
      </trkpt>
      <trkpt lat="44.43109" lon="1.47691">
        <ele>270.8</ele>
        <time>2021-08-16T08:00:40Z</time>
      </trkpt>
      <trkpt lat="44.43117" lon="1.4769">
        <ele>270.5</ele>
        <time>2021-08-16T08:00:42Z</time>
      </trkpt>
      <trkpt lat="44.43125" lon="1.47692">
        <ele>270.1</ele>
        <time>2021-08-16T08:00:44Z</time>
      </trkpt>
      <trkpt lat="44.4313" lon="1.477">
        <ele>269.5</ele>
        <time>2021-08-16T08:00:46Z</time>
      </trkpt>
      <trkpt lat="44.4313" lon="1.47711">
        <ele>269</ele>
        <time>2021-08-16T08:00:48Z</time>
      </trkpt>
      <trkpt lat="44.43131" lon="1.47716">
        <ele>268.9</ele>
        <time>2021-08-16T08:00:49Z</time>
      </trkpt>
      <trkpt lat="44.43136" lon="1.47722">
        <ele>268.5</ele>
        <time>2021-08-16T08:00:51Z</time>
      </trkpt>
      <trkpt lat="44.43137" lon="1.47725">
        <ele>268.2</ele>
        <time>2021-08-16T08:00:52Z</time>
      </trkpt>
      <trkpt lat="44.43139" lon="1.47728">
        <ele>268</ele>
        <time>2021-08-16T08:00:54Z</time>
      </trkpt>
      <trkpt lat="44.43142" lon="1.47733">
        <ele>267.6</ele>
        <time>2021-08-16T08:00:56Z</time>
      </trkpt>
      <trkpt lat="44.43145" lon="1.47738">
        <ele>267.2</ele>
        <time>2021-08-16T08:00:57Z</time>
      </trkpt>
      <trkpt lat="44.43147" lon="1.47742">
        <ele>266.7</ele>
        <time>2021-08-16T08:00:58Z</time>
      </trkpt>
      <trkpt lat="44.43153" lon="1.47747">
        <ele>266</ele>
        <time>2021-08-16T08:01:00Z</time>
      </trkpt>
      <trkpt lat="44.43159" lon="1.47748">
        <ele>265.6</ele>
        <time>2021-08-16T08:01:01Z</time>
      </trkpt>
      <trkpt lat="44.43165" lon="1.47749">
        <ele>265.4</ele>
        <time>2021-08-16T08:01:03Z</time>
      </trkpt>
      <trkpt lat="44.4317" lon="1.47748">
        <ele>265.3</ele>
        <time>2021-08-16T08:01:04Z</time>
      </trkpt>
      <trkpt lat="44.43174" lon="1.47749">
        <ele>265.2</ele>
        <time>2021-08-16T08:01:05Z</time>
      </trkpt>
      <trkpt lat="44.43179" lon="1.47748">
        <ele>265.3</ele>
        <time>2021-08-16T08:01:06Z</time>
      </trkpt>
      <trkpt lat="44.43183" lon="1.47751">
        <ele>264.7</ele>
        <time>2021-08-16T08:01:08Z</time>
      </trkpt>
      <trkpt lat="44.43186" lon="1.47752">
        <ele>264.9</ele>
        <time>2021-08-16T08:01:09Z</time>
      </trkpt>
      <trkpt lat="44.43189" lon="1.47756">
        <ele>264.3</ele>
        <time>2021-08-16T08:01:11Z</time>
      </trkpt>
      <trkpt lat="44.4319" lon="1.47759">
        <ele>263.6</ele>
        <time>2021-08-16T08:01:12Z</time>
      </trkpt>
      <trkpt lat="44.43193" lon="1.47762">
        <ele>263.2</ele>
        <time>2021-08-16T08:01:13Z</time>
      </trkpt>
      <trkpt lat="44.43194" lon="1.47763">
        <ele>263.1</ele>
        <time>2021-08-16T08:01:14Z</time>
      </trkpt>
      <trkpt lat="44.43198" lon="1.47765">
        <ele>263.6</ele>
        <time>2021-08-16T08:01:16Z</time>
      </trkpt>
      <trkpt lat="44.43202" lon="1.47766">
        <ele>263.2</ele>
        <time>2021-08-16T08:01:17Z</time>
      </trkpt>
      <trkpt lat="44.43205" lon="1.47769">
        <ele>263.4</ele>
        <time>2021-08-16T08:01:18Z</time>
      </trkpt>
      <trkpt lat="44.43206" lon="1.47775">
        <ele>262</ele>
        <time>2021-08-16T08:01:19Z</time>
      </trkpt>
      <trkpt lat="44.43207" lon="1.47782">
        <ele>261.4</ele>
        <time>2021-08-16T08:01:21Z</time>
      </trkpt>
      <trkpt lat="44.43211" lon="1.47786">
        <ele>260.9</ele>
        <time>2021-08-16T08:01:22Z</time>
      </trkpt>
      <trkpt lat="44.43214" lon="1.47788">
        <ele>260.3</ele>
        <time>2021-08-16T08:01:23Z</time>
      </trkpt>
      <trkpt lat="44.43219" lon="1.47792">
        <ele>260.1</ele>
        <time>2021-08-16T08:01:25Z</time>
      </trkpt>
      <trkpt lat="44.43221" lon="1.47799">
        <ele>259.3</ele>
        <time>2021-08-16T08:01:26Z</time>
      </trkpt>
      <trkpt lat="44.43226" lon="1.47803">
        <ele>259.4</ele>
        <time>2021-08-16T08:01:28Z</time>
      </trkpt>
      <trkpt lat="44.4323" lon="1.47806">
        <ele>259.1</ele>
        <time>2021-08-16T08:01:29Z</time>
      </trkpt>
      <trkpt lat="44.43233" lon="1.4781">
        <ele>259</ele>
        <time>2021-08-16T08:01:30Z</time>
      </trkpt>
      <trkpt lat="44.43238" lon="1.47816">
        <ele>259.3</ele>
        <time>2021-08-16T08:01:32Z</time>
      </trkpt>
      <trkpt lat="44.43242" lon="1.47818">
        <ele>259.2</ele>
        <time>2021-08-16T08:01:33Z</time>
      </trkpt>
      <trkpt lat="44.43246" lon="1.47822">
        <ele>259.1</ele>
        <time>2021-08-16T08:01:35Z</time>
      </trkpt>
      <trkpt lat="44.43251" lon="1.47827">
        <ele>259.5</ele>
        <time>2021-08-16T08:01:37Z</time>
      </trkpt>
      <trkpt lat="44.43256" lon="1.47831">
        <ele>259.9</ele>
        <time>2021-08-16T08:01:38Z</time>
      </trkpt>
      <trkpt lat="44.43259" lon="1.47834">
        <ele>260.4</ele>
        <time>2021-08-16T08:01:39Z</time>
      </trkpt>
      <trkpt lat="44.43263" lon="1.47836">
        <ele>260.3</ele>
        <time>2021-08-16T08:01:40Z</time>
      </trkpt>
      <trkpt lat="44.43267" lon="1.47839">
        <ele>260.3</ele>
        <time>2021-08-16T08:01:42Z</time>
      </trkpt>
      <trkpt lat="44.43271" lon="1.47843">
        <ele>261.2</ele>
        <time>2021-08-16T08:01:43Z</time>
      </trkpt>
      <trkpt lat="44.43274" lon="1.47847">
        <ele>261.1</ele>
        <time>2021-08-16T08:01:44Z</time>
      </trkpt>
      <trkpt lat="44.43277" lon="1.47852">
        <ele>260.6</ele>
        <time>2021-08-16T08:01:45Z</time>
      </trkpt>
      <trkpt lat="44.43281" lon="1.47859">
        <ele>260.5</ele>
        <time>2021-08-16T08:01:47Z</time>
      </trkpt>
      <trkpt lat="44.43286" lon="1.47863">
        <ele>260.8</ele>
        <time>2021-08-16T08:01:48Z</time>
      </trkpt>
      <trkpt lat="44.43291" lon="1.47864">
        <ele>261.1</ele>
        <time>2021-08-16T08:01:49Z</time>
      </trkpt>
      <trkpt lat="44.43295" lon="1.47866">
        <ele>260.9</ele>
        <time>2021-08-16T08:01:50Z</time>
      </trkpt>
      <trkpt lat="44.433" lon="1.47867">
        <ele>261.4</ele>
        <time>2021-08-16T08:01:52Z</time>
      </trkpt>
      <trkpt lat="44.433" lon="1.47866">
        <ele>261.4</ele>
        <time>2021-08-16T08:01:54Z</time>
      </trkpt>
      <trkpt lat="44.433" lon="1.47866">
        <ele>261.3</ele>
        <time>2021-08-16T08:01:55Z</time>
      </trkpt>
      <trkpt lat="44.433" lon="1.47866">
        <ele>261.2</ele>
        <time>2021-08-16T08:01:57Z</time>
      </trkpt>
      <trkpt lat="44.433" lon="1.47866">
        <ele>261.2</ele>
        <time>2021-08-16T08:01:59Z</time>
      </trkpt>
      <trkpt lat="44.433" lon="1.47866">
        <ele>261.1</ele>
        <time>2021-08-16T08:02:00Z</time>
      </trkpt>
      <trkpt lat="44.433" lon="1.47866">
        <ele>261.1</ele>
        <time>2021-08-16T08:02:01Z</time>
      </trkpt>
      <trkpt lat="44.43299" lon="1.47866">
        <ele>261</ele>
        <time>2021-08-16T08:02:03Z</time>
      </trkpt>
      <trkpt lat="44.43305" lon="1.47869">
        <ele>260.9</ele>
        <time>2021-08-16T08:02:28Z</time>
      </trkpt>
      <trkpt lat="44.43307" lon="1.47872">
        <ele>260.9</ele>
        <time>2021-08-16T08:02:29Z</time>
      </trkpt>
      <trkpt lat="44.4331" lon="1.47875">
        <ele>260.6</ele>
        <time>2021-08-16T08:02:31Z</time>
      </trkpt>
      <trkpt lat="44.43314" lon="1.47878">
        <ele>260.4</ele>
        <time>2021-08-16T08:02:32Z</time>
      </trkpt>
      <trkpt lat="44.43318" lon="1.47881">
        <ele>260.4</ele>
        <time>2021-08-16T08:02:33Z</time>
      </trkpt>
      <trkpt lat="44.43324" lon="1.47883">
        <ele>260.1</ele>
        <time>2021-08-16T08:02:35Z</time>
      </trkpt>
      <trkpt lat="44.43327" lon="1.47885">
        <ele>260</ele>
        <time>2021-08-16T08:02:36Z</time>
      </trkpt>
      <trkpt lat="44.43329" lon="1.47887">
        <ele>259.7</ele>
        <time>2021-08-16T08:02:38Z</time>
      </trkpt>
      <trkpt lat="44.43329" lon="1.47888">
        <ele>259.6</ele>
        <time>2021-08-16T08:02:39Z</time>
      </trkpt>
      <trkpt lat="44.43329" lon="1.47889">
        <ele>259.6</ele>
        <time>2021-08-16T08:02:41Z</time>
      </trkpt>
      <trkpt lat="44.43329" lon="1.4789">
        <ele>259.5</ele>
        <time>2021-08-16T08:02:43Z</time>
      </trkpt>
      <trkpt lat="44.43329" lon="1.47891">
        <ele>259.2</ele>
        <time>2021-08-16T08:02:44Z</time>
      </trkpt>
      <trkpt lat="44.43329" lon="1.47892">
        <ele>259.1</ele>
        <time>2021-08-16T08:02:45Z</time>
      </trkpt>
      <trkpt lat="44.43333" lon="1.47899">
        <ele>258.6</ele>
        <time>2021-08-16T08:02:47Z</time>
      </trkpt>
      <trkpt lat="44.43339" lon="1.47906">
        <ele>257.6</ele>
        <time>2021-08-16T08:02:48Z</time>
      </trkpt>
      <trkpt lat="44.43346" lon="1.47916">
        <ele>256.3</ele>
        <time>2021-08-16T08:02:49Z</time>
      </trkpt>
      <trkpt lat="44.43349" lon="1.4792">
        <ele>255.6</ele>
        <time>2021-08-16T08:02:50Z</time>
      </trkpt>
      <trkpt lat="44.43353" lon="1.47922">
        <ele>254.8</ele>
        <time>2021-08-16T08:02:52Z</time>
      </trkpt>
      <trkpt lat="44.43354" lon="1.47923">
        <ele>254.4</ele>
        <time>2021-08-16T08:02:53Z</time>
      </trkpt>
      <trkpt lat="44.43354" lon="1.47923">
        <ele>254.3</ele>
        <time>2021-08-16T08:02:54Z</time>
      </trkpt>
      <trkpt lat="44.43355" lon="1.47924">
        <ele>254.3</ele>
        <time>2021-08-16T08:02:55Z</time>
      </trkpt>
      <trkpt lat="44.43356" lon="1.47925">
        <ele>254.2</ele>
        <time>2021-08-16T08:02:56Z</time>
      </trkpt>
      <trkpt lat="44.43356" lon="1.47925">
        <ele>253.7</ele>
        <time>2021-08-16T08:02:57Z</time>
      </trkpt>
      <trkpt lat="44.43357" lon="1.47926">
        <ele>253.3</ele>
        <time>2021-08-16T08:02:59Z</time>
      </trkpt>
      <trkpt lat="44.43358" lon="1.47926">
        <ele>253.2</ele>
        <time>2021-08-16T08:03:00Z</time>
      </trkpt>
      <trkpt lat="44.43358" lon="1.47927">
        <ele>253.2</ele>
        <time>2021-08-16T08:09:01Z</time>
      </trkpt>
      <trkpt lat="44.43359" lon="1.47928">
        <ele>253.1</ele>
        <time>2021-08-16T08:09:02Z</time>
      </trkpt>
      <trkpt lat="44.43364" lon="1.47936">
        <ele>251.2</ele>
        <time>2021-08-16T08:09:04Z</time>
      </trkpt>
      <trkpt lat="44.43367" lon="1.47942">
        <ele>249.7</ele>
        <time>2021-08-16T08:09:06Z</time>
      </trkpt>
      <trkpt lat="44.43369" lon="1.47948">
        <ele>248.7</ele>
        <time>2021-08-16T08:09:07Z</time>
      </trkpt>
      <trkpt lat="44.43371" lon="1.47953">
        <ele>248.1</ele>
        <time>2021-08-16T08:09:08Z</time>
      </trkpt>
      <trkpt lat="44.43373" lon="1.47959">
        <ele>247</ele>
        <time>2021-08-16T08:09:09Z</time>
      </trkpt>
      <trkpt lat="44.43375" lon="1.47967">
        <ele>245.3</ele>
        <time>2021-08-16T08:09:11Z</time>
      </trkpt>
      <trkpt lat="44.43378" lon="1.47976">
        <ele>243.3</ele>
        <time>2021-08-16T08:09:12Z</time>
      </trkpt>
      <trkpt lat="44.43382" lon="1.47986">
        <ele>240.8</ele>
        <time>2021-08-16T08:09:14Z</time>
      </trkpt>
      <trkpt lat="44.43386" lon="1.47992">
        <ele>239.6</ele>
        <time>2021-08-16T08:09:15Z</time>
      </trkpt>
      <trkpt lat="44.43389" lon="1.47994">
        <ele>238.5</ele>
        <time>2021-08-16T08:09:16Z</time>
      </trkpt>
      <trkpt lat="44.43391" lon="1.47995">
        <ele>237.9</ele>
        <time>2021-08-16T08:09:18Z</time>
      </trkpt>
      <trkpt lat="44.4339" lon="1.47994">
        <ele>238.4</ele>
        <time>2021-08-16T08:09:19Z</time>
      </trkpt>
      <trkpt lat="44.43389" lon="1.47995">
        <ele>238.3</ele>
        <time>2021-08-16T08:09:20Z</time>
      </trkpt>
      <trkpt lat="44.43389" lon="1.47995">
        <ele>238.3</ele>
        <time>2021-08-16T08:09:22Z</time>
      </trkpt>
      <trkpt lat="44.43389" lon="1.47995">
        <ele>238.2</ele>
        <time>2021-08-16T08:09:23Z</time>
      </trkpt>
      <trkpt lat="44.43389" lon="1.47995">
        <ele>238.2</ele>
        <time>2021-08-16T08:09:25Z</time>
      </trkpt>
      <trkpt lat="44.43389" lon="1.47995">
        <ele>238.1</ele>
        <time>2021-08-16T08:09:26Z</time>
      </trkpt>
      <trkpt lat="44.43393" lon="1.47995">
        <ele>237.6</ele>
        <time>2021-08-16T08:09:34Z</time>
      </trkpt>
      <trkpt lat="44.43397" lon="1.47991">
        <ele>237.1</ele>
        <time>2021-08-16T08:09:36Z</time>
      </trkpt>
      <trkpt lat="44.43401" lon="1.47988">
        <ele>237.1</ele>
        <time>2021-08-16T08:09:37Z</time>
      </trkpt>
      <trkpt lat="44.43404" lon="1.47985">
        <ele>236.5</ele>
        <time>2021-08-16T08:09:39Z</time>
      </trkpt>
      <trkpt lat="44.43406" lon="1.47985">
        <ele>237</ele>
        <time>2021-08-16T08:09:40Z</time>
      </trkpt>
      <trkpt lat="44.43408" lon="1.47984">
        <ele>236.4</ele>
        <time>2021-08-16T08:09:41Z</time>
      </trkpt>
      <trkpt lat="44.43412" lon="1.47982">
        <ele>235.1</ele>
        <time>2021-08-16T08:09:42Z</time>
      </trkpt>
      <trkpt lat="44.43416" lon="1.47982">
        <ele>234.4</ele>
        <time>2021-08-16T08:09:43Z</time>
      </trkpt>
      <trkpt lat="44.43422" lon="1.47982">
        <ele>233.1</ele>
        <time>2021-08-16T08:09:44Z</time>
      </trkpt>
      <trkpt lat="44.43426" lon="1.47979">
        <ele>233</ele>
        <time>2021-08-16T08:09:45Z</time>
      </trkpt>
      <trkpt lat="44.43431" lon="1.47974">
        <ele>232.3</ele>
        <time>2021-08-16T08:09:46Z</time>
      </trkpt>
      <trkpt lat="44.43436" lon="1.47969">
        <ele>231.3</ele>
        <time>2021-08-16T08:09:48Z</time>
      </trkpt>
      <trkpt lat="44.43442" lon="1.47965">
        <ele>231</ele>
        <time>2021-08-16T08:09:50Z</time>
      </trkpt>
      <trkpt lat="44.43445" lon="1.47964">
        <ele>230.2</ele>
        <time>2021-08-16T08:09:51Z</time>
      </trkpt>
      <trkpt lat="44.43449" lon="1.47959">
        <ele>229.3</ele>
        <time>2021-08-16T08:09:52Z</time>
      </trkpt>
      <trkpt lat="44.43451" lon="1.47954">
        <ele>229.4</ele>
        <time>2021-08-16T08:09:53Z</time>
      </trkpt>
      <trkpt lat="44.43454" lon="1.47953">
        <ele>228.7</ele>
        <time>2021-08-16T08:09:54Z</time>
      </trkpt>
      <trkpt lat="44.43457" lon="1.47954">
        <ele>227.9</ele>
        <time>2021-08-16T08:09:55Z</time>
      </trkpt>
      <trkpt lat="44.4346" lon="1.47957">
        <ele>227.1</ele>
        <time>2021-08-16T08:09:56Z</time>
      </trkpt>
      <trkpt lat="44.43462" lon="1.47961">
        <ele>226.2</ele>
        <time>2021-08-16T08:09:58Z</time>
      </trkpt>
      <trkpt lat="44.43464" lon="1.47969">
        <ele>225.1</ele>
        <time>2021-08-16T08:09:59Z</time>
      </trkpt>
      <trkpt lat="44.43466" lon="1.47976">
        <ele>224.9</ele>
        <time>2021-08-16T08:10:00Z</time>
      </trkpt>
      <trkpt lat="44.43467" lon="1.47984">
        <ele>223.7</ele>
        <time>2021-08-16T08:10:01Z</time>
      </trkpt>
      <trkpt lat="44.43468" lon="1.47988">
        <ele>223.4</ele>
        <time>2021-08-16T08:10:02Z</time>
      </trkpt>
      <trkpt lat="44.43471" lon="1.4799">
        <ele>222.5</ele>
        <time>2021-08-16T08:10:04Z</time>
      </trkpt>
      <trkpt lat="44.43475" lon="1.47992">
        <ele>221.9</ele>
        <time>2021-08-16T08:10:05Z</time>
      </trkpt>
      <trkpt lat="44.43479" lon="1.47995">
        <ele>220.4</ele>
        <time>2021-08-16T08:10:07Z</time>
      </trkpt>
      <trkpt lat="44.43481" lon="1.48">
        <ele>220.1</ele>
        <time>2021-08-16T08:10:08Z</time>
      </trkpt>
      <trkpt lat="44.43482" lon="1.48002">
        <ele>219.6</ele>
        <time>2021-08-16T08:10:09Z</time>
      </trkpt>
      <trkpt lat="44.43486" lon="1.48004">
        <ele>218.8</ele>
        <time>2021-08-16T08:10:10Z</time>
      </trkpt>
      <trkpt lat="44.4349" lon="1.48005">
        <ele>218.3</ele>
        <time>2021-08-16T08:10:11Z</time>
      </trkpt>
      <trkpt lat="44.43493" lon="1.48007">
        <ele>217.5</ele>
        <time>2021-08-16T08:10:13Z</time>
      </trkpt>
      <trkpt lat="44.43495" lon="1.48011">
        <ele>216.9</ele>
        <time>2021-08-16T08:10:14Z</time>
      </trkpt>
      <trkpt lat="44.43497" lon="1.48016">
        <ele>216.3</ele>
        <time>2021-08-16T08:10:15Z</time>
      </trkpt>
      <trkpt lat="44.43498" lon="1.48022">
        <ele>215.4</ele>
        <time>2021-08-16T08:10:16Z</time>
      </trkpt>
      <trkpt lat="44.43498" lon="1.48033">
        <ele>214.4</ele>
        <time>2021-08-16T08:10:17Z</time>
      </trkpt>
      <trkpt lat="44.43497" lon="1.48041">
        <ele>214.2</ele>
        <time>2021-08-16T08:10:18Z</time>
      </trkpt>
      <trkpt lat="44.43496" lon="1.48052">
        <ele>213.3</ele>
        <time>2021-08-16T08:10:20Z</time>
      </trkpt>
      <trkpt lat="44.43499" lon="1.48059">
        <ele>211.8</ele>
        <time>2021-08-16T08:10:21Z</time>
      </trkpt>
      <trkpt lat="44.43501" lon="1.48063">
        <ele>210.9</ele>
        <time>2021-08-16T08:10:23Z</time>
      </trkpt>
      <trkpt lat="44.43504" lon="1.48068">
        <ele>210</ele>
        <time>2021-08-16T08:10:24Z</time>
      </trkpt>
      <trkpt lat="44.43506" lon="1.48076">
        <ele>209.2</ele>
        <time>2021-08-16T08:10:26Z</time>
      </trkpt>
      <trkpt lat="44.43508" lon="1.4808">
        <ele>208.4</ele>
        <time>2021-08-16T08:10:27Z</time>
      </trkpt>
      <trkpt lat="44.43512" lon="1.48082">
        <ele>208</ele>
        <time>2021-08-16T08:10:28Z</time>
      </trkpt>
      <trkpt lat="44.43516" lon="1.48084">
        <ele>207.2</ele>
        <time>2021-08-16T08:10:30Z</time>
      </trkpt>
      <trkpt lat="44.4352" lon="1.48082">
        <ele>206.7</ele>
        <time>2021-08-16T08:10:31Z</time>
      </trkpt>
      <trkpt lat="44.43525" lon="1.48078">
        <ele>206.4</ele>
        <time>2021-08-16T08:10:32Z</time>
      </trkpt>
      <trkpt lat="44.43528" lon="1.48075">
        <ele>206.1</ele>
        <time>2021-08-16T08:10:33Z</time>
      </trkpt>
      <trkpt lat="44.43531" lon="1.48075">
        <ele>205.5</ele>
        <time>2021-08-16T08:10:35Z</time>
      </trkpt>
      <trkpt lat="44.43534" lon="1.48072">
        <ele>204.9</ele>
        <time>2021-08-16T08:10:36Z</time>
      </trkpt>
      <trkpt lat="44.43536" lon="1.48068">
        <ele>204.6</ele>
        <time>2021-08-16T08:10:37Z</time>
      </trkpt>
      <trkpt lat="44.43539" lon="1.48066">
        <ele>204.5</ele>
        <time>2021-08-16T08:10:38Z</time>
      </trkpt>
      <trkpt lat="44.43543" lon="1.48067">
        <ele>203.6</ele>
        <time>2021-08-16T08:10:39Z</time>
      </trkpt>
      <trkpt lat="44.43545" lon="1.4807">
        <ele>203</ele>
        <time>2021-08-16T08:10:41Z</time>
      </trkpt>
      <trkpt lat="44.43546" lon="1.48075">
        <ele>202.6</ele>
        <time>2021-08-16T08:10:42Z</time>
      </trkpt>
      <trkpt lat="44.43546" lon="1.48079">
        <ele>202.2</ele>
        <time>2021-08-16T08:10:43Z</time>
      </trkpt>
      <trkpt lat="44.43547" lon="1.48084">
        <ele>201.4</ele>
        <time>2021-08-16T08:10:44Z</time>
      </trkpt>
      <trkpt lat="44.43548" lon="1.48087">
        <ele>201</ele>
        <time>2021-08-16T08:10:45Z</time>
      </trkpt>
      <trkpt lat="44.43551" lon="1.48091">
        <ele>200.2</ele>
        <time>2021-08-16T08:10:47Z</time>
      </trkpt>
      <trkpt lat="44.43555" lon="1.48091">
        <ele>199.7</ele>
        <time>2021-08-16T08:10:48Z</time>
      </trkpt>
      <trkpt lat="44.43564" lon="1.4809">
        <ele>198.2</ele>
        <time>2021-08-16T08:10:49Z</time>
      </trkpt>
      <trkpt lat="44.43568" lon="1.48089">
        <ele>197.2</ele>
        <time>2021-08-16T08:10:50Z</time>
      </trkpt>
      <trkpt lat="44.43573" lon="1.48084">
        <ele>197.1</ele>
        <time>2021-08-16T08:10:51Z</time>
      </trkpt>
      <trkpt lat="44.4358" lon="1.48077">
        <ele>197</ele>
        <time>2021-08-16T08:10:53Z</time>
      </trkpt>
      <trkpt lat="44.43583" lon="1.48076">
        <ele>196.5</ele>
        <time>2021-08-16T08:10:54Z</time>
      </trkpt>
      <trkpt lat="44.43587" lon="1.48079">
        <ele>195.5</ele>
        <time>2021-08-16T08:10:55Z</time>
      </trkpt>
      <trkpt lat="44.43587" lon="1.48086">
        <ele>194.6</ele>
        <time>2021-08-16T08:10:57Z</time>
      </trkpt>
      <trkpt lat="44.43587" lon="1.48088">
        <ele>194.6</ele>
        <time>2021-08-16T08:10:58Z</time>
      </trkpt>
      <trkpt lat="44.43587" lon="1.4809">
        <ele>194.1</ele>
        <time>2021-08-16T08:10:59Z</time>
      </trkpt>
      <trkpt lat="44.43588" lon="1.48096">
        <ele>193.7</ele>
        <time>2021-08-16T08:11:00Z</time>
      </trkpt>
      <trkpt lat="44.43588" lon="1.48098">
        <ele>193.3</ele>
        <time>2021-08-16T08:11:01Z</time>
      </trkpt>
      <trkpt lat="44.4359" lon="1.48101">
        <ele>192.5</ele>
        <time>2021-08-16T08:11:03Z</time>
      </trkpt>
      <trkpt lat="44.43594" lon="1.481">
        <ele>192.4</ele>
        <time>2021-08-16T08:11:04Z</time>
      </trkpt>
      <trkpt lat="44.43598" lon="1.48099">
        <ele>192</ele>
        <time>2021-08-16T08:11:05Z</time>
      </trkpt>
      <trkpt lat="44.436" lon="1.48097">
        <ele>191.7</ele>
        <time>2021-08-16T08:11:06Z</time>
      </trkpt>
      <trkpt lat="44.43601" lon="1.48097">
        <ele>191.7</ele>
        <time>2021-08-16T08:11:07Z</time>
      </trkpt>
      <trkpt lat="44.43602" lon="1.48099">
        <ele>191.4</ele>
        <time>2021-08-16T08:11:08Z</time>
      </trkpt>
      <trkpt lat="44.43603" lon="1.481">
        <ele>191.3</ele>
        <time>2021-08-16T08:11:10Z</time>
      </trkpt>
      <trkpt lat="44.43603" lon="1.48099">
        <ele>191.3</ele>
        <time>2021-08-16T08:11:11Z</time>
      </trkpt>
      <trkpt lat="44.43604" lon="1.48099">
        <ele>191.2</ele>
        <time>2021-08-16T08:11:12Z</time>
      </trkpt>
      <trkpt lat="44.43604" lon="1.481">
        <ele>191.2</ele>
        <time>2021-08-16T08:11:14Z</time>
      </trkpt>
      <trkpt lat="44.43604" lon="1.481">
        <ele>191.1</ele>
        <time>2021-08-16T08:11:15Z</time>
      </trkpt>
      <trkpt lat="44.43604" lon="1.481">
        <ele>191.1</ele>
        <time>2021-08-16T08:11:17Z</time>
      </trkpt>
      <trkpt lat="44.43604" lon="1.481">
        <ele>191</ele>
        <time>2021-08-16T08:11:18Z</time>
      </trkpt>
      <trkpt lat="44.43608" lon="1.48109">
        <ele>189.9</ele>
        <time>2021-08-16T08:11:22Z</time>
      </trkpt>
      <trkpt lat="44.43609" lon="1.48116">
        <ele>189.5</ele>
        <time>2021-08-16T08:11:23Z</time>
      </trkpt>
      <trkpt lat="44.4361" lon="1.48121">
        <ele>189.3</ele>
        <time>2021-08-16T08:11:24Z</time>
      </trkpt>
      <trkpt lat="44.43612" lon="1.48125">
        <ele>188.9</ele>
        <time>2021-08-16T08:11:25Z</time>
      </trkpt>
      <trkpt lat="44.43617" lon="1.4813">
        <ele>188.4</ele>
        <time>2021-08-16T08:11:26Z</time>
      </trkpt>
      <trkpt lat="44.43627" lon="1.48138">
        <ele>187.7</ele>
        <time>2021-08-16T08:11:28Z</time>
      </trkpt>
      <trkpt lat="44.43631" lon="1.48137">
        <ele>187.5</ele>
        <time>2021-08-16T08:11:30Z</time>
      </trkpt>
      <trkpt lat="44.43639" lon="1.48138">
        <ele>187.1</ele>
        <time>2021-08-16T08:11:31Z</time>
      </trkpt>
      <trkpt lat="44.43645" lon="1.48137">
        <ele>186.8</ele>
        <time>2021-08-16T08:11:32Z</time>
      </trkpt>
      <trkpt lat="44.43648" lon="1.48136">
        <ele>186.7</ele>
        <time>2021-08-16T08:11:33Z</time>
      </trkpt>
      <trkpt lat="44.4365" lon="1.48135">
        <ele>186.6</ele>
        <time>2021-08-16T08:11:35Z</time>
      </trkpt>
      <trkpt lat="44.43651" lon="1.48134">
        <ele>186.5</ele>
        <time>2021-08-16T08:11:36Z</time>
      </trkpt>
      <trkpt lat="44.43652" lon="1.48134">
        <ele>186.5</ele>
        <time>2021-08-16T08:11:38Z</time>
      </trkpt>
      <trkpt lat="44.43653" lon="1.48134">
        <ele>186.5</ele>
        <time>2021-08-16T08:11:40Z</time>
      </trkpt>
      <trkpt lat="44.43653" lon="1.48133">
        <ele>186.4</ele>
        <time>2021-08-16T08:11:42Z</time>
      </trkpt>
      <trkpt lat="44.43654" lon="1.48133">
        <ele>186.4</ele>
        <time>2021-08-16T08:11:43Z</time>
      </trkpt>
      <trkpt lat="44.43655" lon="1.48133">
        <ele>186.3</ele>
        <time>2021-08-16T08:12:07Z</time>
      </trkpt>
      <trkpt lat="44.43656" lon="1.48133">
        <ele>186.3</ele>
        <time>2021-08-16T08:12:08Z</time>
      </trkpt>
      <trkpt lat="44.4366" lon="1.4813">
        <ele>186.1</ele>
        <time>2021-08-16T08:12:09Z</time>
      </trkpt>
      <trkpt lat="44.43665" lon="1.48126">
        <ele>185.8</ele>
        <time>2021-08-16T08:12:11Z</time>
      </trkpt>
      <trkpt lat="44.43672" lon="1.4812">
        <ele>185.5</ele>
        <time>2021-08-16T08:12:12Z</time>
      </trkpt>
      <trkpt lat="44.43679" lon="1.48115">
        <ele>185.1</ele>
        <time>2021-08-16T08:12:14Z</time>
      </trkpt>
      <trkpt lat="44.43683" lon="1.48113">
        <ele>184.8</ele>
        <time>2021-08-16T08:12:15Z</time>
      </trkpt>
      <trkpt lat="44.43686" lon="1.48109">
        <ele>184.6</ele>
        <time>2021-08-16T08:12:16Z</time>
      </trkpt>
      <trkpt lat="44.43692" lon="1.48104">
        <ele>184.3</ele>
        <time>2021-08-16T08:12:18Z</time>
      </trkpt>
      <trkpt lat="44.43697" lon="1.48101">
        <ele>184</ele>
        <time>2021-08-16T08:12:19Z</time>
      </trkpt>
      <trkpt lat="44.43702" lon="1.48098">
        <ele>183.8</ele>
        <time>2021-08-16T08:12:20Z</time>
      </trkpt>
      <trkpt lat="44.43708" lon="1.48095">
        <ele>183.5</ele>
        <time>2021-08-16T08:12:22Z</time>
      </trkpt>
      <trkpt lat="44.43712" lon="1.48093">
        <ele>183.3</ele>
        <time>2021-08-16T08:12:23Z</time>
      </trkpt>
      <trkpt lat="44.43717" lon="1.48091">
        <ele>183</ele>
        <time>2021-08-16T08:12:24Z</time>
      </trkpt>
      <trkpt lat="44.4372" lon="1.48089">
        <ele>182.9</ele>
        <time>2021-08-16T08:12:25Z</time>
      </trkpt>
      <trkpt lat="44.43722" lon="1.48088">
        <ele>182.8</ele>
        <time>2021-08-16T08:12:26Z</time>
      </trkpt>
      <trkpt lat="44.43726" lon="1.48088">
        <ele>182.6</ele>
        <time>2021-08-16T08:12:28Z</time>
      </trkpt>
      <trkpt lat="44.43727" lon="1.48087">
        <ele>182.6</ele>
        <time>2021-08-16T08:12:29Z</time>
      </trkpt>
      <trkpt lat="44.43728" lon="1.48087">
        <ele>182.5</ele>
        <time>2021-08-16T08:12:30Z</time>
      </trkpt>
      <trkpt lat="44.43729" lon="1.48088">
        <ele>182.5</ele>
        <time>2021-08-16T08:12:32Z</time>
      </trkpt>
      <trkpt lat="44.4373" lon="1.48088">
        <ele>182.5</ele>
        <time>2021-08-16T08:12:33Z</time>
      </trkpt>
      <trkpt lat="44.4373" lon="1.48088">
        <ele>182.4</ele>
        <time>2021-08-16T08:12:35Z</time>
      </trkpt>
      <trkpt lat="44.4373" lon="1.48088">
        <ele>182.4</ele>
        <time>2021-08-16T08:12:36Z</time>
      </trkpt>
      <trkpt lat="44.4373" lon="1.48087">
        <ele>182.4</ele>
        <time>2021-08-16T08:12:38Z</time>
      </trkpt>
      <trkpt lat="44.43729" lon="1.48087">
        <ele>182.4</ele>
        <time>2021-08-16T08:12:40Z</time>
      </trkpt>
      <trkpt lat="44.4373" lon="1.48084">
        <ele>182.4</ele>
        <time>2021-08-16T08:13:31Z</time>
      </trkpt>
      <trkpt lat="44.43729" lon="1.48081">
        <ele>182.5</ele>
        <time>2021-08-16T08:13:32Z</time>
      </trkpt>
      <trkpt lat="44.43729" lon="1.4808">
        <ele>182.6</ele>
        <time>2021-08-16T08:13:33Z</time>
      </trkpt>
      <trkpt lat="44.43726" lon="1.48076">
        <ele>182.8</ele>
        <time>2021-08-16T08:13:35Z</time>
      </trkpt>
      <trkpt lat="44.43726" lon="1.48075">
        <ele>182.9</ele>
        <time>2021-08-16T08:13:36Z</time>
      </trkpt>
      <trkpt lat="44.43725" lon="1.48074">
        <ele>182.9</ele>
        <time>2021-08-16T08:13:37Z</time>
      </trkpt>
      <trkpt lat="44.43723" lon="1.48072">
        <ele>183.1</ele>
        <time>2021-08-16T08:13:39Z</time>
      </trkpt>
      <trkpt lat="44.43722" lon="1.48068">
        <ele>183.3</ele>
        <time>2021-08-16T08:13:40Z</time>
      </trkpt>
      <trkpt lat="44.43721" lon="1.48064">
        <ele>183.5</ele>
        <time>2021-08-16T08:13:41Z</time>
      </trkpt>
      <trkpt lat="44.43719" lon="1.4806">
        <ele>183.6</ele>
        <time>2021-08-16T08:13:42Z</time>
      </trkpt>
      <trkpt lat="44.43717" lon="1.48056">
        <ele>183.8</ele>
        <time>2021-08-16T08:13:43Z</time>
      </trkpt>
      <trkpt lat="44.43717" lon="1.48054">
        <ele>183.9</ele>
        <time>2021-08-16T08:13:44Z</time>
      </trkpt>
      <trkpt lat="44.43715" lon="1.48051">
        <ele>184.1</ele>
        <time>2021-08-16T08:13:46Z</time>
      </trkpt>
      <trkpt lat="44.43714" lon="1.4805">
        <ele>184.2</ele>
        <time>2021-08-16T08:13:47Z</time>
      </trkpt>
      <trkpt lat="44.43712" lon="1.48046">
        <ele>184.4</ele>
        <time>2021-08-16T08:13:48Z</time>
      </trkpt>
      <trkpt lat="44.43711" lon="1.48045">
        <ele>184.5</ele>
        <time>2021-08-16T08:13:49Z</time>
      </trkpt>
      <trkpt lat="44.43709" lon="1.48043">
        <ele>184.8</ele>
        <time>2021-08-16T08:13:50Z</time>
      </trkpt>
      <trkpt lat="44.43706" lon="1.4804">
        <ele>185.1</ele>
        <time>2021-08-16T08:13:52Z</time>
      </trkpt>
      <trkpt lat="44.43705" lon="1.48038">
        <ele>185.2</ele>
        <time>2021-08-16T08:13:53Z</time>
      </trkpt>
      <trkpt lat="44.43702" lon="1.48035">
        <ele>185.6</ele>
        <time>2021-08-16T08:13:55Z</time>
      </trkpt>
      <trkpt lat="44.43701" lon="1.48034">
        <ele>185.7</ele>
        <time>2021-08-16T08:13:56Z</time>
      </trkpt>
      <trkpt lat="44.43699" lon="1.48031">
        <ele>186</ele>
        <time>2021-08-16T08:13:57Z</time>
      </trkpt>
      <trkpt lat="44.43696" lon="1.48028">
        <ele>186.3</ele>
        <time>2021-08-16T08:13:59Z</time>
      </trkpt>
      <trkpt lat="44.43695" lon="1.48027">
        <ele>186.4</ele>
        <time>2021-08-16T08:14:00Z</time>
      </trkpt>
      <trkpt lat="44.43693" lon="1.48023">
        <ele>186.7</ele>
        <time>2021-08-16T08:14:01Z</time>
      </trkpt>
      <trkpt lat="44.43693" lon="1.48023">
        <ele>186.8</ele>
        <time>2021-08-16T08:14:02Z</time>
      </trkpt>
      <trkpt lat="44.43692" lon="1.48021">
        <ele>186.9</ele>
        <time>2021-08-16T08:14:03Z</time>
      </trkpt>
      <trkpt lat="44.4369" lon="1.48018">
        <ele>187.1</ele>
        <time>2021-08-16T08:14:05Z</time>
      </trkpt>
      <trkpt lat="44.43689" lon="1.48015">
        <ele>187.3</ele>
        <time>2021-08-16T08:14:06Z</time>
      </trkpt>
      <trkpt lat="44.43688" lon="1.48013">
        <ele>187.4</ele>
        <time>2021-08-16T08:14:07Z</time>
      </trkpt>
      <trkpt lat="44.43687" lon="1.48011">
        <ele>187.6</ele>
        <time>2021-08-16T08:14:08Z</time>
      </trkpt>
      <trkpt lat="44.43685" lon="1.48007">
        <ele>187.9</ele>
        <time>2021-08-16T08:14:10Z</time>
      </trkpt>
      <trkpt lat="44.43682" lon="1.48003">
        <ele>188.2</ele>
        <time>2021-08-16T08:14:11Z</time>
      </trkpt>
      <trkpt lat="44.43682" lon="1.48002">
        <ele>188.2</ele>
        <time>2021-08-16T08:14:12Z</time>
      </trkpt>
      <trkpt lat="44.4368" lon="1.47998">
        <ele>188.5</ele>
        <time>2021-08-16T08:14:13Z</time>
      </trkpt>
      <trkpt lat="44.43679" lon="1.47997">
        <ele>188.6</ele>
        <time>2021-08-16T08:14:14Z</time>
      </trkpt>
      <trkpt lat="44.43678" lon="1.47993">
        <ele>188.8</ele>
        <time>2021-08-16T08:14:16Z</time>
      </trkpt>
      <trkpt lat="44.43677" lon="1.47992">
        <ele>188.9</ele>
        <time>2021-08-16T08:14:17Z</time>
      </trkpt>
      <trkpt lat="44.43676" lon="1.47991">
        <ele>189</ele>
        <time>2021-08-16T08:14:18Z</time>
      </trkpt>
      <trkpt lat="44.43675" lon="1.4799">
        <ele>189.1</ele>
        <time>2021-08-16T08:14:19Z</time>
      </trkpt>
      <trkpt lat="44.43675" lon="1.47989">
        <ele>189.1</ele>
        <time>2021-08-16T08:14:20Z</time>
      </trkpt>
      <trkpt lat="44.43672" lon="1.47986">
        <ele>189.4</ele>
        <time>2021-08-16T08:14:22Z</time>
      </trkpt>
      <trkpt lat="44.43672" lon="1.47985">
        <ele>189.5</ele>
        <time>2021-08-16T08:14:23Z</time>
      </trkpt>
      <trkpt lat="44.43669" lon="1.47981">
        <ele>189.8</ele>
        <time>2021-08-16T08:14:25Z</time>
      </trkpt>
      <trkpt lat="44.43668" lon="1.47977">
        <ele>190.1</ele>
        <time>2021-08-16T08:14:26Z</time>
      </trkpt>
      <trkpt lat="44.43667" lon="1.47975">
        <ele>190.2</ele>
        <time>2021-08-16T08:14:27Z</time>
      </trkpt>
      <trkpt lat="44.43667" lon="1.47973">
        <ele>190.3</ele>
        <time>2021-08-16T08:14:28Z</time>
      </trkpt>
      <trkpt lat="44.43667" lon="1.47971">
        <ele>190.4</ele>
        <time>2021-08-16T08:14:29Z</time>
      </trkpt>
      <trkpt lat="44.43668" lon="1.47965">
        <ele>190.8</ele>
        <time>2021-08-16T08:14:31Z</time>
      </trkpt>
      <trkpt lat="44.43668" lon="1.47963">
        <ele>190.9</ele>
        <time>2021-08-16T08:14:32Z</time>
      </trkpt>
      <trkpt lat="44.43668" lon="1.47962">
        <ele>191</ele>
        <time>2021-08-16T08:14:33Z</time>
      </trkpt>
      <trkpt lat="44.43669" lon="1.47961">
        <ele>191.1</ele>
        <time>2021-08-16T08:14:35Z</time>
      </trkpt>
      <trkpt lat="44.43669" lon="1.47959">
        <ele>191.2</ele>
        <time>2021-08-16T08:14:36Z</time>
      </trkpt>
      <trkpt lat="44.43669" lon="1.47957">
        <ele>191.3</ele>
        <time>2021-08-16T08:14:37Z</time>
      </trkpt>
      <trkpt lat="44.43669" lon="1.47957">
        <ele>191.3</ele>
        <time>2021-08-16T08:14:38Z</time>
      </trkpt>
      <trkpt lat="44.43669" lon="1.47956">
        <ele>191.4</ele>
        <time>2021-08-16T08:14:39Z</time>
      </trkpt>
      <trkpt lat="44.43668" lon="1.47955">
        <ele>191.4</ele>
        <time>2021-08-16T08:14:41Z</time>
      </trkpt>
      <trkpt lat="44.43668" lon="1.47955">
        <ele>191.5</ele>
        <time>2021-08-16T08:14:42Z</time>
      </trkpt>
      <trkpt lat="44.43668" lon="1.47954">
        <ele>191.5</ele>
        <time>2021-08-16T08:14:44Z</time>
      </trkpt>
      <trkpt lat="44.43668" lon="1.47954">
        <ele>191.5</ele>
        <time>2021-08-16T08:14:45Z</time>
      </trkpt>
      <trkpt lat="44.43665" lon="1.4795">
        <ele>191.9</ele>
        <time>2021-08-16T08:14:46Z</time>
      </trkpt>
      <trkpt lat="44.43661" lon="1.47947">
        <ele>192.3</ele>
        <time>2021-08-16T08:15:18Z</time>
      </trkpt>
      <trkpt lat="44.43658" lon="1.47943">
        <ele>192.7</ele>
        <time>2021-08-16T08:15:20Z</time>
      </trkpt>
      <trkpt lat="44.43655" lon="1.47939">
        <ele>193.1</ele>
        <time>2021-08-16T08:15:21Z</time>
      </trkpt>
      <trkpt lat="44.43652" lon="1.47935">
        <ele>193.5</ele>
        <time>2021-08-16T08:15:22Z</time>
      </trkpt>
      <trkpt lat="44.43651" lon="1.47933">
        <ele>193.8</ele>
        <time>2021-08-16T08:15:23Z</time>
      </trkpt>
      <trkpt lat="44.43647" lon="1.47928">
        <ele>194.4</ele>
        <time>2021-08-16T08:15:25Z</time>
      </trkpt>
      <trkpt lat="44.43647" lon="1.47925">
        <ele>194.7</ele>
        <time>2021-08-16T08:15:26Z</time>
      </trkpt>
      <trkpt lat="44.43647" lon="1.47922">
        <ele>195.1</ele>
        <time>2021-08-16T08:15:28Z</time>
      </trkpt>
      <trkpt lat="44.43647" lon="1.47919">
        <ele>195.3</ele>
        <time>2021-08-16T08:15:29Z</time>
      </trkpt>
      <trkpt lat="44.43646" lon="1.47917">
        <ele>195.6</ele>
        <time>2021-08-16T08:15:30Z</time>
      </trkpt>
      <trkpt lat="44.43646" lon="1.47914">
        <ele>195.9</ele>
        <time>2021-08-16T08:15:31Z</time>
      </trkpt>
      <trkpt lat="44.43645" lon="1.47912">
        <ele>196.2</ele>
        <time>2021-08-16T08:15:33Z</time>
      </trkpt>
      <trkpt lat="44.43644" lon="1.4791">
        <ele>196.4</ele>
        <time>2021-08-16T08:15:34Z</time>
      </trkpt>
      <trkpt lat="44.43644" lon="1.47907">
        <ele>196.7</ele>
        <time>2021-08-16T08:15:35Z</time>
      </trkpt>
      <trkpt lat="44.43643" lon="1.47905">
        <ele>196.9</ele>
        <time>2021-08-16T08:15:36Z</time>
      </trkpt>
      <trkpt lat="44.43642" lon="1.47903">
        <ele>197.1</ele>
        <time>2021-08-16T08:15:37Z</time>
      </trkpt>
      <trkpt lat="44.4364" lon="1.47901">
        <ele>197.4</ele>
        <time>2021-08-16T08:15:39Z</time>
      </trkpt>
      <trkpt lat="44.43638" lon="1.479">
        <ele>197.7</ele>
        <time>2021-08-16T08:15:40Z</time>
      </trkpt>
      <trkpt lat="44.43637" lon="1.47899">
        <ele>197.8</ele>
        <time>2021-08-16T08:15:42Z</time>
      </trkpt>
      <trkpt lat="44.43634" lon="1.47896">
        <ele>198.1</ele>
        <time>2021-08-16T08:15:43Z</time>
      </trkpt>
      <trkpt lat="44.43634" lon="1.47896">
        <ele>198.2</ele>
        <time>2021-08-16T08:15:44Z</time>
      </trkpt>
      <trkpt lat="44.43632" lon="1.47893">
        <ele>198.4</ele>
        <time>2021-08-16T08:15:45Z</time>
      </trkpt>
      <trkpt lat="44.4363" lon="1.47891">
        <ele>198.7</ele>
        <time>2021-08-16T08:15:47Z</time>
      </trkpt>
      <trkpt lat="44.43628" lon="1.47888">
        <ele>199</ele>
        <time>2021-08-16T08:15:48Z</time>
      </trkpt>
      <trkpt lat="44.43627" lon="1.47887">
        <ele>199.1</ele>
        <time>2021-08-16T08:15:49Z</time>
      </trkpt>
      <trkpt lat="44.43624" lon="1.47883">
        <ele>199.5</ele>
        <time>2021-08-16T08:15:51Z</time>
      </trkpt>
      <trkpt lat="44.43623" lon="1.47882">
        <ele>199.6</ele>
        <time>2021-08-16T08:15:52Z</time>
      </trkpt>
      <trkpt lat="44.43622" lon="1.4788">
        <ele>199.8</ele>
        <time>2021-08-16T08:15:53Z</time>
      </trkpt>
      <trkpt lat="44.43621" lon="1.47879">
        <ele>200</ele>
        <time>2021-08-16T08:15:54Z</time>
      </trkpt>
      <trkpt lat="44.43619" lon="1.47874">
        <ele>200.4</ele>
        <time>2021-08-16T08:15:56Z</time>
      </trkpt>
      <trkpt lat="44.43619" lon="1.47873">
        <ele>200.6</ele>
        <time>2021-08-16T08:15:57Z</time>
      </trkpt>
      <trkpt lat="44.43618" lon="1.47869">
        <ele>200.9</ele>
        <time>2021-08-16T08:15:59Z</time>
      </trkpt>
      <trkpt lat="44.43618" lon="1.47867">
        <ele>201</ele>
        <time>2021-08-16T08:16:00Z</time>
      </trkpt>
      <trkpt lat="44.43618" lon="1.47866">
        <ele>201.1</ele>
        <time>2021-08-16T08:16:01Z</time>
      </trkpt>
      <trkpt lat="44.43618" lon="1.47865">
        <ele>201.2</ele>
        <time>2021-08-16T08:16:02Z</time>
      </trkpt>
      <trkpt lat="44.43618" lon="1.47865">
        <ele>201.2</ele>
        <time>2021-08-16T08:16:03Z</time>
      </trkpt>
      <trkpt lat="44.43617" lon="1.47863">
        <ele>201.4</ele>
        <time>2021-08-16T08:16:05Z</time>
      </trkpt>
      <trkpt lat="44.43614" lon="1.47861">
        <ele>201.7</ele>
        <time>2021-08-16T08:16:07Z</time>
      </trkpt>
      <trkpt lat="44.4361" lon="1.47859">
        <ele>202.1</ele>
        <time>2021-08-16T08:16:09Z</time>
      </trkpt>
      <trkpt lat="44.43607" lon="1.47857">
        <ele>202.3</ele>
        <time>2021-08-16T08:16:10Z</time>
      </trkpt>
      <trkpt lat="44.43605" lon="1.47854">
        <ele>202.6</ele>
        <time>2021-08-16T08:16:11Z</time>
      </trkpt>
      <trkpt lat="44.43604" lon="1.47853">
        <ele>202.8</ele>
        <time>2021-08-16T08:16:12Z</time>
      </trkpt>
      <trkpt lat="44.43602" lon="1.47848">
        <ele>203.1</ele>
        <time>2021-08-16T08:16:14Z</time>
      </trkpt>
      <trkpt lat="44.43602" lon="1.47847">
        <ele>203.1</ele>
        <time>2021-08-16T08:16:15Z</time>
      </trkpt>
      <trkpt lat="44.43601" lon="1.47845">
        <ele>203.3</ele>
        <time>2021-08-16T08:16:16Z</time>
      </trkpt>
      <trkpt lat="44.43599" lon="1.47842">
        <ele>203.5</ele>
        <time>2021-08-16T08:16:18Z</time>
      </trkpt>
      <trkpt lat="44.43598" lon="1.47841">
        <ele>203.7</ele>
        <time>2021-08-16T08:16:19Z</time>
      </trkpt>
      <trkpt lat="44.43597" lon="1.47839">
        <ele>203.9</ele>
        <time>2021-08-16T08:16:21Z</time>
      </trkpt>
      <trkpt lat="44.43595" lon="1.47835">
        <ele>204.1</ele>
        <time>2021-08-16T08:16:22Z</time>
      </trkpt>
      <trkpt lat="44.43594" lon="1.47834">
        <ele>204.2</ele>
        <time>2021-08-16T08:16:23Z</time>
      </trkpt>
      <trkpt lat="44.43592" lon="1.47832">
        <ele>204.4</ele>
        <time>2021-08-16T08:16:24Z</time>
      </trkpt>
      <trkpt lat="44.43591" lon="1.47829">
        <ele>204.5</ele>
        <time>2021-08-16T08:16:26Z</time>
      </trkpt>
      <trkpt lat="44.43589" lon="1.47826">
        <ele>204.8</ele>
        <time>2021-08-16T08:16:27Z</time>
      </trkpt>
      <trkpt lat="44.43588" lon="1.47824">
        <ele>204.9</ele>
        <time>2021-08-16T08:16:28Z</time>
      </trkpt>
      <trkpt lat="44.43587" lon="1.47823">
        <ele>205</ele>
        <time>2021-08-16T08:16:29Z</time>
      </trkpt>
      <trkpt lat="44.43586" lon="1.47821">
        <ele>205.2</ele>
        <time>2021-08-16T08:16:30Z</time>
      </trkpt>
      <trkpt lat="44.43585" lon="1.47819">
        <ele>205.3</ele>
        <time>2021-08-16T08:16:32Z</time>
      </trkpt>
      <trkpt lat="44.43582" lon="1.47816">
        <ele>205.6</ele>
        <time>2021-08-16T08:16:33Z</time>
      </trkpt>
      <trkpt lat="44.43582" lon="1.47815">
        <ele>205.7</ele>
        <time>2021-08-16T08:16:34Z</time>
      </trkpt>
      <trkpt lat="44.4358" lon="1.47814">
        <ele>205.8</ele>
        <time>2021-08-16T08:16:35Z</time>
      </trkpt>
      <trkpt lat="44.43578" lon="1.4781">
        <ele>206.2</ele>
        <time>2021-08-16T08:16:37Z</time>
      </trkpt>
      <trkpt lat="44.43577" lon="1.47808">
        <ele>206.3</ele>
        <time>2021-08-16T08:16:38Z</time>
      </trkpt>
      <trkpt lat="44.43576" lon="1.47805">
        <ele>206.5</ele>
        <time>2021-08-16T08:16:39Z</time>
      </trkpt>
      <trkpt lat="44.43576" lon="1.47804">
        <ele>206.6</ele>
        <time>2021-08-16T08:16:40Z</time>
      </trkpt>
      <trkpt lat="44.43575" lon="1.47803">
        <ele>206.7</ele>
        <time>2021-08-16T08:16:41Z</time>
      </trkpt>
      <trkpt lat="44.43572" lon="1.47799">
        <ele>207.2</ele>
        <time>2021-08-16T08:16:43Z</time>
      </trkpt>
      <trkpt lat="44.43571" lon="1.47797">
        <ele>207.3</ele>
        <time>2021-08-16T08:16:44Z</time>
      </trkpt>
      <trkpt lat="44.4357" lon="1.47796">
        <ele>207.4</ele>
        <time>2021-08-16T08:16:45Z</time>
      </trkpt>
      <trkpt lat="44.43568" lon="1.47792">
        <ele>207.8</ele>
        <time>2021-08-16T08:16:47Z</time>
      </trkpt>
      <trkpt lat="44.43567" lon="1.47791">
        <ele>208</ele>
        <time>2021-08-16T08:16:48Z</time>
      </trkpt>
      <trkpt lat="44.43566" lon="1.47788">
        <ele>208.2</ele>
        <time>2021-08-16T08:16:49Z</time>
      </trkpt>
      <trkpt lat="44.43566" lon="1.47785">
        <ele>208.5</ele>
        <time>2021-08-16T08:16:51Z</time>
      </trkpt>
      <trkpt lat="44.43566" lon="1.47782">
        <ele>208.8</ele>
        <time>2021-08-16T08:16:52Z</time>
      </trkpt>
      <trkpt lat="44.43565" lon="1.47778">
        <ele>209.1</ele>
        <time>2021-08-16T08:16:54Z</time>
      </trkpt>
      <trkpt lat="44.43563" lon="1.47775">
        <ele>209.5</ele>
        <time>2021-08-16T08:16:55Z</time>
      </trkpt>
      <trkpt lat="44.43562" lon="1.47774">
        <ele>209.6</ele>
        <time>2021-08-16T08:16:56Z</time>
      </trkpt>
      <trkpt lat="44.4356" lon="1.47772">
        <ele>209.9</ele>
        <time>2021-08-16T08:16:58Z</time>
      </trkpt>
      <trkpt lat="44.4356" lon="1.47771">
        <ele>210</ele>
        <time>2021-08-16T08:16:59Z</time>
      </trkpt>
      <trkpt lat="44.43559" lon="1.4777">
        <ele>210.1</ele>
        <time>2021-08-16T08:17:00Z</time>
      </trkpt>
      <trkpt lat="44.43558" lon="1.4777">
        <ele>210.2</ele>
        <time>2021-08-16T08:17:01Z</time>
      </trkpt>
      <trkpt lat="44.43558" lon="1.47769">
        <ele>210.4</ele>
        <time>2021-08-16T08:17:02Z</time>
      </trkpt>
      <trkpt lat="44.43556" lon="1.47766">
        <ele>210.6</ele>
        <time>2021-08-16T08:17:03Z</time>
      </trkpt>
      <trkpt lat="44.43554" lon="1.47762">
        <ele>211</ele>
        <time>2021-08-16T08:17:05Z</time>
      </trkpt>
      <trkpt lat="44.43552" lon="1.47758">
        <ele>211.3</ele>
        <time>2021-08-16T08:17:06Z</time>
      </trkpt>
      <trkpt lat="44.43551" lon="1.47756">
        <ele>211.5</ele>
        <time>2021-08-16T08:17:07Z</time>
      </trkpt>
      <trkpt lat="44.43549" lon="1.47753">
        <ele>211.8</ele>
        <time>2021-08-16T08:17:08Z</time>
      </trkpt>
      <trkpt lat="44.43547" lon="1.47749">
        <ele>212.2</ele>
        <time>2021-08-16T08:17:10Z</time>
      </trkpt>
      <trkpt lat="44.43547" lon="1.47748">
        <ele>212.3</ele>
        <time>2021-08-16T08:17:11Z</time>
      </trkpt>
      <trkpt lat="44.43546" lon="1.47746">
        <ele>212.5</ele>
        <time>2021-08-16T08:17:12Z</time>
      </trkpt>
      <trkpt lat="44.43545" lon="1.47744">
        <ele>212.8</ele>
        <time>2021-08-16T08:17:13Z</time>
      </trkpt>
      <trkpt lat="44.43544" lon="1.47741">
        <ele>213.1</ele>
        <time>2021-08-16T08:17:15Z</time>
      </trkpt>
      <trkpt lat="44.43544" lon="1.47739">
        <ele>213.3</ele>
        <time>2021-08-16T08:17:16Z</time>
      </trkpt>
      <trkpt lat="44.43543" lon="1.47735">
        <ele>213.9</ele>
        <time>2021-08-16T08:17:18Z</time>
      </trkpt>
      <trkpt lat="44.43543" lon="1.47734">
        <ele>214.1</ele>
        <time>2021-08-16T08:17:19Z</time>
      </trkpt>
      <trkpt lat="44.43543" lon="1.47732">
        <ele>214.4</ele>
        <time>2021-08-16T08:17:20Z</time>
      </trkpt>
      <trkpt lat="44.43542" lon="1.47728">
        <ele>214.9</ele>
        <time>2021-08-16T08:17:22Z</time>
      </trkpt>
      <trkpt lat="44.43542" lon="1.47725">
        <ele>215.3</ele>
        <time>2021-08-16T08:17:23Z</time>
      </trkpt>
      <trkpt lat="44.43542" lon="1.47724">
        <ele>215.6</ele>
        <time>2021-08-16T08:17:24Z</time>
      </trkpt>
      <trkpt lat="44.43542" lon="1.47721">
        <ele>215.9</ele>
        <time>2021-08-16T08:17:25Z</time>
      </trkpt>
      <trkpt lat="44.43541" lon="1.47719">
        <ele>216.2</ele>
        <time>2021-08-16T08:17:26Z</time>
      </trkpt>
      <trkpt lat="44.43541" lon="1.47717">
        <ele>216.6</ele>
        <time>2021-08-16T08:17:27Z</time>
      </trkpt>
      <trkpt lat="44.43541" lon="1.47715">
        <ele>216.9</ele>
        <time>2021-08-16T08:17:28Z</time>
      </trkpt>
      <trkpt lat="44.4354" lon="1.47712">
        <ele>217.3</ele>
        <time>2021-08-16T08:17:30Z</time>
      </trkpt>
      <trkpt lat="44.43539" lon="1.47709">
        <ele>217.9</ele>
        <time>2021-08-16T08:17:32Z</time>
      </trkpt>
      <trkpt lat="44.43538" lon="1.47706">
        <ele>218.3</ele>
        <time>2021-08-16T08:17:33Z</time>
      </trkpt>
      <trkpt lat="44.43536" lon="1.47703">
        <ele>218.6</ele>
        <time>2021-08-16T08:17:35Z</time>
      </trkpt>
      <trkpt lat="44.43535" lon="1.477">
        <ele>219</ele>
        <time>2021-08-16T08:17:36Z</time>
      </trkpt>
      <trkpt lat="44.43534" lon="1.47699">
        <ele>219.2</ele>
        <time>2021-08-16T08:17:37Z</time>
      </trkpt>
      <trkpt lat="44.43534" lon="1.47697">
        <ele>219.4</ele>
        <time>2021-08-16T08:17:38Z</time>
      </trkpt>
      <trkpt lat="44.43532" lon="1.47693">
        <ele>219.8</ele>
        <time>2021-08-16T08:17:40Z</time>
      </trkpt>
      <trkpt lat="44.43532" lon="1.47691">
        <ele>219.9</ele>
        <time>2021-08-16T08:17:41Z</time>
      </trkpt>
      <trkpt lat="44.43531" lon="1.47689">
        <ele>220.1</ele>
        <time>2021-08-16T08:17:42Z</time>
      </trkpt>
      <trkpt lat="44.4353" lon="1.47686">
        <ele>220.4</ele>
        <time>2021-08-16T08:17:44Z</time>
      </trkpt>
      <trkpt lat="44.4353" lon="1.47685">
        <ele>220.5</ele>
        <time>2021-08-16T08:17:45Z</time>
      </trkpt>
      <trkpt lat="44.43529" lon="1.47679">
        <ele>220.8</ele>
        <time>2021-08-16T08:17:47Z</time>
      </trkpt>
      <trkpt lat="44.43529" lon="1.47678">
        <ele>220.9</ele>
        <time>2021-08-16T08:17:48Z</time>
      </trkpt>
      <trkpt lat="44.43528" lon="1.47677">
        <ele>220.9</ele>
        <time>2021-08-16T08:17:49Z</time>
      </trkpt>
      <trkpt lat="44.43528" lon="1.47675">
        <ele>221</ele>
        <time>2021-08-16T08:17:50Z</time>
      </trkpt>
      <trkpt lat="44.43524" lon="1.4767">
        <ele>221.1</ele>
        <time>2021-08-16T08:17:52Z</time>
      </trkpt>
      <trkpt lat="44.43522" lon="1.47667">
        <ele>221</ele>
        <time>2021-08-16T08:17:54Z</time>
      </trkpt>
      <trkpt lat="44.4352" lon="1.47665">
        <ele>221</ele>
        <time>2021-08-16T08:17:55Z</time>
      </trkpt>
      <trkpt lat="44.4351" lon="1.47657">
        <ele>220.4</ele>
        <time>2021-08-16T08:17:57Z</time>
      </trkpt>
      <trkpt lat="44.43506" lon="1.47653">
        <ele>220.2</ele>
        <time>2021-08-16T08:17:58Z</time>
      </trkpt>
      <trkpt lat="44.43502" lon="1.47647">
        <ele>220</ele>
        <time>2021-08-16T08:17:59Z</time>
      </trkpt>
      <trkpt lat="44.43499" lon="1.47642">
        <ele>219.9</ele>
        <time>2021-08-16T08:18:00Z</time>
      </trkpt>
      <trkpt lat="44.43496" lon="1.47638">
        <ele>219.9</ele>
        <time>2021-08-16T08:18:01Z</time>
      </trkpt>
      <trkpt lat="44.43493" lon="1.47633">
        <ele>220</ele>
        <time>2021-08-16T08:18:02Z</time>
      </trkpt>
      <trkpt lat="44.43492" lon="1.4763">
        <ele>220</ele>
        <time>2021-08-16T08:18:04Z</time>
      </trkpt>
      <trkpt lat="44.43489" lon="1.47628">
        <ele>220.1</ele>
        <time>2021-08-16T08:18:05Z</time>
      </trkpt>
      <trkpt lat="44.43487" lon="1.47623">
        <ele>220.3</ele>
        <time>2021-08-16T08:18:06Z</time>
      </trkpt>
      <trkpt lat="44.43483" lon="1.47617">
        <ele>220.5</ele>
        <time>2021-08-16T08:18:08Z</time>
      </trkpt>
      <trkpt lat="44.43481" lon="1.47611">
        <ele>220.8</ele>
        <time>2021-08-16T08:18:10Z</time>
      </trkpt>
      <trkpt lat="44.43479" lon="1.47606">
        <ele>221.1</ele>
        <time>2021-08-16T08:18:11Z</time>
      </trkpt>
      <trkpt lat="44.43478" lon="1.47602">
        <ele>221.4</ele>
        <time>2021-08-16T08:18:12Z</time>
      </trkpt>
      <trkpt lat="44.43476" lon="1.47596">
        <ele>221.8</ele>
        <time>2021-08-16T08:18:14Z</time>
      </trkpt>
      <trkpt lat="44.43474" lon="1.47592">
        <ele>222.1</ele>
        <time>2021-08-16T08:18:15Z</time>
      </trkpt>
      <trkpt lat="44.43473" lon="1.47587">
        <ele>222.6</ele>
        <time>2021-08-16T08:18:17Z</time>
      </trkpt>
      <trkpt lat="44.43472" lon="1.47585">
        <ele>222.7</ele>
        <time>2021-08-16T08:18:18Z</time>
      </trkpt>
      <trkpt lat="44.43471" lon="1.47584">
        <ele>222.8</ele>
        <time>2021-08-16T08:18:19Z</time>
      </trkpt>
      <trkpt lat="44.43469" lon="1.4758">
        <ele>223.2</ele>
        <time>2021-08-16T08:18:20Z</time>
      </trkpt>
      <trkpt lat="44.43468" lon="1.47579">
        <ele>223.3</ele>
        <time>2021-08-16T08:18:21Z</time>
      </trkpt>
      <trkpt lat="44.43466" lon="1.47577">
        <ele>223.5</ele>
        <time>2021-08-16T08:18:22Z</time>
      </trkpt>
      <trkpt lat="44.43465" lon="1.47574">
        <ele>223.8</ele>
        <time>2021-08-16T08:18:24Z</time>
      </trkpt>
      <trkpt lat="44.43464" lon="1.47572">
        <ele>224</ele>
        <time>2021-08-16T08:18:25Z</time>
      </trkpt>
      <trkpt lat="44.43462" lon="1.4757">
        <ele>224.2</ele>
        <time>2021-08-16T08:18:27Z</time>
      </trkpt>
      <trkpt lat="44.4346" lon="1.47565">
        <ele>224.6</ele>
        <time>2021-08-16T08:18:28Z</time>
      </trkpt>
      <trkpt lat="44.43459" lon="1.47564">
        <ele>224.7</ele>
        <time>2021-08-16T08:18:29Z</time>
      </trkpt>
      <trkpt lat="44.43458" lon="1.47562">
        <ele>224.9</ele>
        <time>2021-08-16T08:18:31Z</time>
      </trkpt>
      <trkpt lat="44.43457" lon="1.4756">
        <ele>225.1</ele>
        <time>2021-08-16T08:18:32Z</time>
      </trkpt>
      <trkpt lat="44.43455" lon="1.47556">
        <ele>225.5</ele>
        <time>2021-08-16T08:18:33Z</time>
      </trkpt>
      <trkpt lat="44.43455" lon="1.47555">
        <ele>225.6</ele>
        <time>2021-08-16T08:18:34Z</time>
      </trkpt>
      <trkpt lat="44.43453" lon="1.47553">
        <ele>225.8</ele>
        <time>2021-08-16T08:18:35Z</time>
      </trkpt>
      <trkpt lat="44.43452" lon="1.47551">
        <ele>226</ele>
        <time>2021-08-16T08:18:37Z</time>
      </trkpt>
      <trkpt lat="44.4345" lon="1.47548">
        <ele>226.3</ele>
        <time>2021-08-16T08:18:38Z</time>
      </trkpt>
      <trkpt lat="44.43448" lon="1.47546">
        <ele>226.6</ele>
        <time>2021-08-16T08:18:39Z</time>
      </trkpt>
      <trkpt lat="44.43445" lon="1.47544">
        <ele>226.8</ele>
        <time>2021-08-16T08:18:41Z</time>
      </trkpt>
      <trkpt lat="44.43445" lon="1.47543">
        <ele>226.9</ele>
        <time>2021-08-16T08:18:42Z</time>
      </trkpt>
      <trkpt lat="44.43443" lon="1.4754">
        <ele>227.1</ele>
        <time>2021-08-16T08:18:43Z</time>
      </trkpt>
      <trkpt lat="44.43442" lon="1.47539">
        <ele>227.2</ele>
        <time>2021-08-16T08:18:44Z</time>
      </trkpt>
      <trkpt lat="44.43441" lon="1.47538">
        <ele>227.3</ele>
        <time>2021-08-16T08:18:45Z</time>
      </trkpt>
      <trkpt lat="44.4344" lon="1.47536">
        <ele>227.4</ele>
        <time>2021-08-16T08:18:46Z</time>
      </trkpt>
      <trkpt lat="44.43438" lon="1.47533">
        <ele>227.5</ele>
        <time>2021-08-16T08:18:48Z</time>
      </trkpt>
      <trkpt lat="44.43437" lon="1.47532">
        <ele>227.6</ele>
        <time>2021-08-16T08:18:49Z</time>
      </trkpt>
      <trkpt lat="44.43436" lon="1.4753">
        <ele>227.6</ele>
        <time>2021-08-16T08:18:50Z</time>
      </trkpt>
      <trkpt lat="44.43433" lon="1.47528">
        <ele>227.7</ele>
        <time>2021-08-16T08:18:52Z</time>
      </trkpt>
      <trkpt lat="44.4343" lon="1.47528">
        <ele>227.8</ele>
        <time>2021-08-16T08:18:53Z</time>
      </trkpt>
      <trkpt lat="44.43427" lon="1.47527">
        <ele>227.8</ele>
        <time>2021-08-16T08:18:54Z</time>
      </trkpt>
      <trkpt lat="44.43423" lon="1.47525">
        <ele>227.9</ele>
        <time>2021-08-16T08:18:56Z</time>
      </trkpt>
      <trkpt lat="44.4342" lon="1.47524">
        <ele>228</ele>
        <time>2021-08-16T08:18:57Z</time>
      </trkpt>
      <trkpt lat="44.43417" lon="1.47521">
        <ele>228.1</ele>
        <time>2021-08-16T08:18:58Z</time>
      </trkpt>
      <trkpt lat="44.43417" lon="1.47521">
        <ele>228.1</ele>
        <time>2021-08-16T08:18:59Z</time>
      </trkpt>
      <trkpt lat="44.43416" lon="1.47521">
        <ele>228.1</ele>
        <time>2021-08-16T08:19:01Z</time>
      </trkpt>
      <trkpt lat="44.43416" lon="1.47521">
        <ele>228.2</ele>
        <time>2021-08-16T08:19:02Z</time>
      </trkpt>
      <trkpt lat="44.43416" lon="1.4752">
        <ele>228.2</ele>
        <time>2021-08-16T08:19:04Z</time>
      </trkpt>
      <trkpt lat="44.43416" lon="1.47521">
        <ele>228.2</ele>
        <time>2021-08-16T08:19:05Z</time>
      </trkpt>
      <trkpt lat="44.43416" lon="1.4752">
        <ele>228.2</ele>
        <time>2021-08-16T08:19:07Z</time>
      </trkpt>
      <trkpt lat="44.43416" lon="1.4752">
        <ele>228.2</ele>
        <time>2021-08-16T08:19:08Z</time>
      </trkpt>
      <trkpt lat="44.4341" lon="1.47516">
        <ele>228.5</ele>
        <time>2021-08-16T08:21:03Z</time>
      </trkpt>
      <trkpt lat="44.43406" lon="1.47517">
        <ele>228.7</ele>
        <time>2021-08-16T08:21:05Z</time>
      </trkpt>
      <trkpt lat="44.43402" lon="1.47518">
        <ele>229</ele>
        <time>2021-08-16T08:21:06Z</time>
      </trkpt>
      <trkpt lat="44.434" lon="1.47518">
        <ele>229.1</ele>
        <time>2021-08-16T08:21:07Z</time>
      </trkpt>
      <trkpt lat="44.43397" lon="1.47518">
        <ele>229.2</ele>
        <time>2021-08-16T08:21:08Z</time>
      </trkpt>
      <trkpt lat="44.43393" lon="1.47519">
        <ele>229.5</ele>
        <time>2021-08-16T08:21:10Z</time>
      </trkpt>
      <trkpt lat="44.43391" lon="1.47519">
        <ele>229.6</ele>
        <time>2021-08-16T08:21:11Z</time>
      </trkpt>
      <trkpt lat="44.4339" lon="1.4752">
        <ele>229.7</ele>
        <time>2021-08-16T08:21:12Z</time>
      </trkpt>
      <trkpt lat="44.43387" lon="1.4752">
        <ele>229.9</ele>
        <time>2021-08-16T08:21:13Z</time>
      </trkpt>
      <trkpt lat="44.43386" lon="1.4752">
        <ele>229.9</ele>
        <time>2021-08-16T08:21:14Z</time>
      </trkpt>
      <trkpt lat="44.43382" lon="1.47521">
        <ele>230.2</ele>
        <time>2021-08-16T08:21:16Z</time>
      </trkpt>
      <trkpt lat="44.4338" lon="1.47521">
        <ele>230.3</ele>
        <time>2021-08-16T08:21:17Z</time>
      </trkpt>
      <trkpt lat="44.43379" lon="1.47522">
        <ele>230.5</ele>
        <time>2021-08-16T08:21:18Z</time>
      </trkpt>
      <trkpt lat="44.43376" lon="1.47522">
        <ele>230.7</ele>
        <time>2021-08-16T08:21:19Z</time>
      </trkpt>
      <trkpt lat="44.43375" lon="1.47522">
        <ele>230.8</ele>
        <time>2021-08-16T08:21:20Z</time>
      </trkpt>
      <trkpt lat="44.43372" lon="1.47523">
        <ele>231</ele>
        <time>2021-08-16T08:21:22Z</time>
      </trkpt>
      <trkpt lat="44.43371" lon="1.47523">
        <ele>231.1</ele>
        <time>2021-08-16T08:21:23Z</time>
      </trkpt>
      <trkpt lat="44.43368" lon="1.47523">
        <ele>231.4</ele>
        <time>2021-08-16T08:21:25Z</time>
      </trkpt>
      <trkpt lat="44.43367" lon="1.47523">
        <ele>231.4</ele>
        <time>2021-08-16T08:21:26Z</time>
      </trkpt>
      <trkpt lat="44.43366" lon="1.47523">
        <ele>231.6</ele>
        <time>2021-08-16T08:21:27Z</time>
      </trkpt>
      <trkpt lat="44.43364" lon="1.47523">
        <ele>231.7</ele>
        <time>2021-08-16T08:21:28Z</time>
      </trkpt>
      <trkpt lat="44.43361" lon="1.47522">
        <ele>232</ele>
        <time>2021-08-16T08:21:29Z</time>
      </trkpt>
      <trkpt lat="44.43361" lon="1.47522">
        <ele>232.1</ele>
        <time>2021-08-16T08:21:30Z</time>
      </trkpt>
      <trkpt lat="44.43357" lon="1.4752">
        <ele>232.4</ele>
        <time>2021-08-16T08:21:32Z</time>
      </trkpt>
      <trkpt lat="44.43357" lon="1.4752">
        <ele>232.5</ele>
        <time>2021-08-16T08:21:33Z</time>
      </trkpt>
      <trkpt lat="44.43355" lon="1.47519">
        <ele>232.7</ele>
        <time>2021-08-16T08:21:34Z</time>
      </trkpt>
      <trkpt lat="44.43353" lon="1.47518">
        <ele>232.9</ele>
        <time>2021-08-16T08:21:36Z</time>
      </trkpt>
      <trkpt lat="44.43351" lon="1.47517">
        <ele>233.1</ele>
        <time>2021-08-16T08:21:37Z</time>
      </trkpt>
      <trkpt lat="44.4335" lon="1.47517">
        <ele>233.3</ele>
        <time>2021-08-16T08:21:38Z</time>
      </trkpt>
      <trkpt lat="44.43348" lon="1.47517">
        <ele>233.5</ele>
        <time>2021-08-16T08:21:40Z</time>
      </trkpt>
      <trkpt lat="44.43346" lon="1.47516">
        <ele>233.7</ele>
        <time>2021-08-16T08:21:42Z</time>
      </trkpt>
      <trkpt lat="44.43345" lon="1.47515">
        <ele>233.8</ele>
        <time>2021-08-16T08:21:44Z</time>
      </trkpt>
      <trkpt lat="44.43345" lon="1.47515">
        <ele>233.8</ele>
        <time>2021-08-16T08:21:45Z</time>
      </trkpt>
      <trkpt lat="44.43345" lon="1.47515">
        <ele>233.9</ele>
        <time>2021-08-16T08:21:47Z</time>
      </trkpt>
      <trkpt lat="44.43345" lon="1.47514">
        <ele>233.9</ele>
        <time>2021-08-16T08:21:49Z</time>
      </trkpt>
      <trkpt lat="44.43345" lon="1.47514">
        <ele>233.9</ele>
        <time>2021-08-16T08:21:50Z</time>
      </trkpt>
      <trkpt lat="44.43344" lon="1.47512">
        <ele>234.2</ele>
        <time>2021-08-16T08:21:51Z</time>
      </trkpt>
      <trkpt lat="44.43342" lon="1.47509">
        <ele>234.5</ele>
        <time>2021-08-16T08:21:53Z</time>
      </trkpt>
      <trkpt lat="44.4334" lon="1.47505">
        <ele>234.9</ele>
        <time>2021-08-16T08:21:54Z</time>
      </trkpt>
      <trkpt lat="44.43338" lon="1.47502">
        <ele>235.4</ele>
        <time>2021-08-16T08:21:56Z</time>
      </trkpt>
      <trkpt lat="44.43336" lon="1.475">
        <ele>235.8</ele>
        <time>2021-08-16T08:21:57Z</time>
      </trkpt>
      <trkpt lat="44.43333" lon="1.47497">
        <ele>236.2</ele>
        <time>2021-08-16T08:21:59Z</time>
      </trkpt>
      <trkpt lat="44.43332" lon="1.47496">
        <ele>236.4</ele>
        <time>2021-08-16T08:22:00Z</time>
      </trkpt>
      <trkpt lat="44.43329" lon="1.47495">
        <ele>236.8</ele>
        <time>2021-08-16T08:22:02Z</time>
      </trkpt>
      <trkpt lat="44.43328" lon="1.47494">
        <ele>237.1</ele>
        <time>2021-08-16T08:22:03Z</time>
      </trkpt>
      <trkpt lat="44.43327" lon="1.47493">
        <ele>237.3</ele>
        <time>2021-08-16T08:22:04Z</time>
      </trkpt>
      <trkpt lat="44.43324" lon="1.47492">
        <ele>237.7</ele>
        <time>2021-08-16T08:22:06Z</time>
      </trkpt>
      <trkpt lat="44.43323" lon="1.47492">
        <ele>237.9</ele>
        <time>2021-08-16T08:22:07Z</time>
      </trkpt>
      <trkpt lat="44.43321" lon="1.4749">
        <ele>238.3</ele>
        <time>2021-08-16T08:22:09Z</time>
      </trkpt>
      <trkpt lat="44.4332" lon="1.47489">
        <ele>238.5</ele>
        <time>2021-08-16T08:22:11Z</time>
      </trkpt>
      <trkpt lat="44.4332" lon="1.47489">
        <ele>238.5</ele>
        <time>2021-08-16T08:22:13Z</time>
      </trkpt>
      <trkpt lat="44.43319" lon="1.47489">
        <ele>238.6</ele>
        <time>2021-08-16T08:22:14Z</time>
      </trkpt>
      <trkpt lat="44.43319" lon="1.47489">
        <ele>238.6</ele>
        <time>2021-08-16T08:22:15Z</time>
      </trkpt>
      <trkpt lat="44.43319" lon="1.47489">
        <ele>238.6</ele>
        <time>2021-08-16T08:22:17Z</time>
      </trkpt>
      <trkpt lat="44.43319" lon="1.47489">
        <ele>238.7</ele>
        <time>2021-08-16T08:22:18Z</time>
      </trkpt>
      <trkpt lat="44.43319" lon="1.47489">
        <ele>238.7</ele>
        <time>2021-08-16T08:22:19Z</time>
      </trkpt>
      <trkpt lat="44.43316" lon="1.47488">
        <ele>239</ele>
        <time>2021-08-16T08:22:24Z</time>
      </trkpt>
      <trkpt lat="44.43315" lon="1.47488">
        <ele>239.3</ele>
        <time>2021-08-16T08:22:25Z</time>
      </trkpt>
      <trkpt lat="44.43313" lon="1.47488">
        <ele>239.6</ele>
        <time>2021-08-16T08:22:26Z</time>
      </trkpt>
      <trkpt lat="44.43311" lon="1.47488">
        <ele>240.1</ele>
        <time>2021-08-16T08:22:28Z</time>
      </trkpt>
      <trkpt lat="44.43309" lon="1.47488">
        <ele>240.3</ele>
        <time>2021-08-16T08:22:29Z</time>
      </trkpt>
      <trkpt lat="44.43308" lon="1.47488">
        <ele>240.5</ele>
        <time>2021-08-16T08:22:31Z</time>
      </trkpt>
      <trkpt lat="44.43308" lon="1.47488">
        <ele>240.6</ele>
        <time>2021-08-16T08:22:32Z</time>
      </trkpt>
      <trkpt lat="44.43305" lon="1.47488">
        <ele>241</ele>
        <time>2021-08-16T08:22:34Z</time>
      </trkpt>
      <trkpt lat="44.43304" lon="1.47488">
        <ele>241.2</ele>
        <time>2021-08-16T08:22:36Z</time>
      </trkpt>
      <trkpt lat="44.43302" lon="1.47488">
        <ele>241.5</ele>
        <time>2021-08-16T08:22:37Z</time>
      </trkpt>
      <trkpt lat="44.433" lon="1.47489">
        <ele>242</ele>
        <time>2021-08-16T08:22:38Z</time>
      </trkpt>
      <trkpt lat="44.43299" lon="1.4749">
        <ele>242.2</ele>
        <time>2021-08-16T08:22:39Z</time>
      </trkpt>
      <trkpt lat="44.43298" lon="1.47489">
        <ele>242.4</ele>
        <time>2021-08-16T08:22:41Z</time>
      </trkpt>
      <trkpt lat="44.43297" lon="1.4749">
        <ele>242.6</ele>
        <time>2021-08-16T08:22:42Z</time>
      </trkpt>
      <trkpt lat="44.43296" lon="1.4749">
        <ele>242.7</ele>
        <time>2021-08-16T08:22:43Z</time>
      </trkpt>
      <trkpt lat="44.43296" lon="1.4749">
        <ele>242.8</ele>
        <time>2021-08-16T08:22:44Z</time>
      </trkpt>
      <trkpt lat="44.43295" lon="1.47489">
        <ele>242.9</ele>
        <time>2021-08-16T08:22:46Z</time>
      </trkpt>
      <trkpt lat="44.4328" lon="1.47492">
        <ele>245.6</ele>
        <time>2021-08-16T08:23:01Z</time>
      </trkpt>
      <trkpt lat="44.43277" lon="1.47493">
        <ele>246.2</ele>
        <time>2021-08-16T08:23:02Z</time>
      </trkpt>
      <trkpt lat="44.43275" lon="1.47494">
        <ele>246.5</ele>
        <time>2021-08-16T08:23:03Z</time>
      </trkpt>
      <trkpt lat="44.43273" lon="1.47496">
        <ele>246.9</ele>
        <time>2021-08-16T08:23:05Z</time>
      </trkpt>
      <trkpt lat="44.4327" lon="1.47497">
        <ele>247.3</ele>
        <time>2021-08-16T08:23:06Z</time>
      </trkpt>
      <trkpt lat="44.43268" lon="1.47498">
        <ele>247.7</ele>
        <time>2021-08-16T08:23:07Z</time>
      </trkpt>
      <trkpt lat="44.43265" lon="1.47499">
        <ele>248.2</ele>
        <time>2021-08-16T08:23:09Z</time>
      </trkpt>
      <trkpt lat="44.43263" lon="1.47499">
        <ele>248.6</ele>
        <time>2021-08-16T08:23:11Z</time>
      </trkpt>
      <trkpt lat="44.43262" lon="1.475">
        <ele>248.8</ele>
        <time>2021-08-16T08:23:12Z</time>
      </trkpt>
      <trkpt lat="44.43261" lon="1.475">
        <ele>249</ele>
        <time>2021-08-16T08:23:13Z</time>
      </trkpt>
      <trkpt lat="44.43259" lon="1.475">
        <ele>249.2</ele>
        <time>2021-08-16T08:23:14Z</time>
      </trkpt>
      <trkpt lat="44.43257" lon="1.475">
        <ele>249.6</ele>
        <time>2021-08-16T08:23:16Z</time>
      </trkpt>
      <trkpt lat="44.43255" lon="1.47501">
        <ele>250</ele>
        <time>2021-08-16T08:23:17Z</time>
      </trkpt>
      <trkpt lat="44.43252" lon="1.47503">
        <ele>250.6</ele>
        <time>2021-08-16T08:23:19Z</time>
      </trkpt>
      <trkpt lat="44.43249" lon="1.47505">
        <ele>251.1</ele>
        <time>2021-08-16T08:23:21Z</time>
      </trkpt>
      <trkpt lat="44.43248" lon="1.47505">
        <ele>251.3</ele>
        <time>2021-08-16T08:23:22Z</time>
      </trkpt>
      <trkpt lat="44.43245" lon="1.47507">
        <ele>251.7</ele>
        <time>2021-08-16T08:23:23Z</time>
      </trkpt>
      <trkpt lat="44.43244" lon="1.47507">
        <ele>251.9</ele>
        <time>2021-08-16T08:23:24Z</time>
      </trkpt>
      <trkpt lat="44.43242" lon="1.47509">
        <ele>252.3</ele>
        <time>2021-08-16T08:23:26Z</time>
      </trkpt>
      <trkpt lat="44.43241" lon="1.47509">
        <ele>252.5</ele>
        <time>2021-08-16T08:23:27Z</time>
      </trkpt>
      <trkpt lat="44.4324" lon="1.4751">
        <ele>252.7</ele>
        <time>2021-08-16T08:23:28Z</time>
      </trkpt>
      <trkpt lat="44.43238" lon="1.47511">
        <ele>253</ele>
        <time>2021-08-16T08:23:29Z</time>
      </trkpt>
      <trkpt lat="44.43238" lon="1.47511">
        <ele>253</ele>
        <time>2021-08-16T08:23:31Z</time>
      </trkpt>
      <trkpt lat="44.43238" lon="1.47512">
        <ele>253.1</ele>
        <time>2021-08-16T08:23:32Z</time>
      </trkpt>
      <trkpt lat="44.43236" lon="1.47514">
        <ele>253.6</ele>
        <time>2021-08-16T08:23:34Z</time>
      </trkpt>
      <trkpt lat="44.43234" lon="1.47516">
        <ele>253.8</ele>
        <time>2021-08-16T08:23:35Z</time>
      </trkpt>
      <trkpt lat="44.43234" lon="1.47516">
        <ele>254</ele>
        <time>2021-08-16T08:23:37Z</time>
      </trkpt>
      <trkpt lat="44.43233" lon="1.47517">
        <ele>254.1</ele>
        <time>2021-08-16T08:23:38Z</time>
      </trkpt>
      <trkpt lat="44.43233" lon="1.47518">
        <ele>254.3</ele>
        <time>2021-08-16T08:23:39Z</time>
      </trkpt>
      <trkpt lat="44.4323" lon="1.47521">
        <ele>254.8</ele>
        <time>2021-08-16T08:23:41Z</time>
      </trkpt>
      <trkpt lat="44.43229" lon="1.47522">
        <ele>255.1</ele>
        <time>2021-08-16T08:23:42Z</time>
      </trkpt>
      <trkpt lat="44.43228" lon="1.47524">
        <ele>255.4</ele>
        <time>2021-08-16T08:23:44Z</time>
      </trkpt>
      <trkpt lat="44.43226" lon="1.47526">
        <ele>255.7</ele>
        <time>2021-08-16T08:23:45Z</time>
      </trkpt>
      <trkpt lat="44.43225" lon="1.47528">
        <ele>256.1</ele>
        <time>2021-08-16T08:23:47Z</time>
      </trkpt>
      <trkpt lat="44.43223" lon="1.4753">
        <ele>256.5</ele>
        <time>2021-08-16T08:23:48Z</time>
      </trkpt>
      <trkpt lat="44.43222" lon="1.47532">
        <ele>256.7</ele>
        <time>2021-08-16T08:23:49Z</time>
      </trkpt>
      <trkpt lat="44.43221" lon="1.47533">
        <ele>257</ele>
        <time>2021-08-16T08:23:51Z</time>
      </trkpt>
      <trkpt lat="44.43221" lon="1.47535">
        <ele>257.2</ele>
        <time>2021-08-16T08:23:52Z</time>
      </trkpt>
      <trkpt lat="44.43219" lon="1.47536">
        <ele>257.9</ele>
        <time>2021-08-16T08:23:53Z</time>
      </trkpt>
      <trkpt lat="44.43218" lon="1.47538">
        <ele>259</ele>
        <time>2021-08-16T08:23:54Z</time>
      </trkpt>
      <trkpt lat="44.43216" lon="1.47539">
        <ele>259.5</ele>
        <time>2021-08-16T08:23:56Z</time>
      </trkpt>
      <trkpt lat="44.43215" lon="1.47539">
        <ele>260.7</ele>
        <time>2021-08-16T08:23:57Z</time>
      </trkpt>
      <trkpt lat="44.43215" lon="1.47537">
        <ele>261.5</ele>
        <time>2021-08-16T08:23:59Z</time>
      </trkpt>
      <trkpt lat="44.43215" lon="1.47537">
        <ele>262.2</ele>
        <time>2021-08-16T08:24:00Z</time>
      </trkpt>
      <trkpt lat="44.43215" lon="1.47536">
        <ele>262.8</ele>
        <time>2021-08-16T08:24:02Z</time>
      </trkpt>
      <trkpt lat="44.43216" lon="1.47534">
        <ele>263.2</ele>
        <time>2021-08-16T08:24:03Z</time>
      </trkpt>
      <trkpt lat="44.43217" lon="1.47532">
        <ele>263.9</ele>
        <time>2021-08-16T08:24:04Z</time>
      </trkpt>
      <trkpt lat="44.43217" lon="1.4753">
        <ele>264.8</ele>
        <time>2021-08-16T08:24:06Z</time>
      </trkpt>
      <trkpt lat="44.43217" lon="1.47528">
        <ele>265.4</ele>
        <time>2021-08-16T08:24:07Z</time>
      </trkpt>
      <trkpt lat="44.43218" lon="1.47526">
        <ele>266.1</ele>
        <time>2021-08-16T08:24:08Z</time>
      </trkpt>
      <trkpt lat="44.43219" lon="1.47522">
        <ele>266.5</ele>
        <time>2021-08-16T08:24:10Z</time>
      </trkpt>
      <trkpt lat="44.43219" lon="1.47521">
        <ele>267.4</ele>
        <time>2021-08-16T08:24:11Z</time>
      </trkpt>
      <trkpt lat="44.43219" lon="1.47521">
        <ele>268</ele>
        <time>2021-08-16T08:24:12Z</time>
      </trkpt>
      <trkpt lat="44.43219" lon="1.4752">
        <ele>269.1</ele>
        <time>2021-08-16T08:24:15Z</time>
      </trkpt>
      <trkpt lat="44.43219" lon="1.47519">
        <ele>269.8</ele>
        <time>2021-08-16T08:24:16Z</time>
      </trkpt>
      <trkpt lat="44.43219" lon="1.47519">
        <ele>270.5</ele>
        <time>2021-08-16T08:24:18Z</time>
      </trkpt>
      <trkpt lat="44.43218" lon="1.47518">
        <ele>271.1</ele>
        <time>2021-08-16T08:24:20Z</time>
      </trkpt>
      <trkpt lat="44.43221" lon="1.47512">
        <ele>271.8</ele>
        <time>2021-08-16T08:24:25Z</time>
      </trkpt>
      <trkpt lat="44.43223" lon="1.47508">
        <ele>272.2</ele>
        <time>2021-08-16T08:24:26Z</time>
      </trkpt>
      <trkpt lat="44.43225" lon="1.47504">
        <ele>272.3</ele>
        <time>2021-08-16T08:24:28Z</time>
      </trkpt>
      <trkpt lat="44.43226" lon="1.47499">
        <ele>272.3</ele>
        <time>2021-08-16T08:24:30Z</time>
      </trkpt>
      <trkpt lat="44.43227" lon="1.47497">
        <ele>272.3</ele>
        <time>2021-08-16T08:24:31Z</time>
      </trkpt>
      <trkpt lat="44.43227" lon="1.47494">
        <ele>272.3</ele>
        <time>2021-08-16T08:24:33Z</time>
      </trkpt>
      <trkpt lat="44.43227" lon="1.47491">
        <ele>272.3</ele>
        <time>2021-08-16T08:24:34Z</time>
      </trkpt>
      <trkpt lat="44.43228" lon="1.47488">
        <ele>272.3</ele>
        <time>2021-08-16T08:24:36Z</time>
      </trkpt>
      <trkpt lat="44.43229" lon="1.47485">
        <ele>272.3</ele>
        <time>2021-08-16T08:24:38Z</time>
      </trkpt>
      <trkpt lat="44.4323" lon="1.47481">
        <ele>272.4</ele>
        <time>2021-08-16T08:24:40Z</time>
      </trkpt>
      <trkpt lat="44.4323" lon="1.47481">
        <ele>272.4</ele>
        <time>2021-08-16T08:24:41Z</time>
      </trkpt>
      <trkpt lat="44.4323" lon="1.47481">
        <ele>272.4</ele>
        <time>2021-08-16T08:24:42Z</time>
      </trkpt>
      <trkpt lat="44.43231" lon="1.47477">
        <ele>272.4</ele>
        <time>2021-08-16T08:24:44Z</time>
      </trkpt>
      <trkpt lat="44.43231" lon="1.47475">
        <ele>272.4</ele>
        <time>2021-08-16T08:24:45Z</time>
      </trkpt>
      <trkpt lat="44.43232" lon="1.47474">
        <ele>272.4</ele>
        <time>2021-08-16T08:24:46Z</time>
      </trkpt>
      <trkpt lat="44.43232" lon="1.47473">
        <ele>272.5</ele>
        <time>2021-08-16T08:24:48Z</time>
      </trkpt>
      <trkpt lat="44.43234" lon="1.4747">
        <ele>272.5</ele>
        <time>2021-08-16T08:24:49Z</time>
      </trkpt>
      <trkpt lat="44.43234" lon="1.47468">
        <ele>272.5</ele>
        <time>2021-08-16T08:24:50Z</time>
      </trkpt>
      <trkpt lat="44.43235" lon="1.47465">
        <ele>272.6</ele>
        <time>2021-08-16T08:24:52Z</time>
      </trkpt>
      <trkpt lat="44.43236" lon="1.47464">
        <ele>272.6</ele>
        <time>2021-08-16T08:24:53Z</time>
      </trkpt>
      <trkpt lat="44.43236" lon="1.47463">
        <ele>272.6</ele>
        <time>2021-08-16T08:24:54Z</time>
      </trkpt>
      <trkpt lat="44.43237" lon="1.47461">
        <ele>272.7</ele>
        <time>2021-08-16T08:24:55Z</time>
      </trkpt>
      <trkpt lat="44.43237" lon="1.47459">
        <ele>272.7</ele>
        <time>2021-08-16T08:24:56Z</time>
      </trkpt>
      <trkpt lat="44.43239" lon="1.47457">
        <ele>272.8</ele>
        <time>2021-08-16T08:24:58Z</time>
      </trkpt>
      <trkpt lat="44.43239" lon="1.47455">
        <ele>272.8</ele>
        <time>2021-08-16T08:24:59Z</time>
      </trkpt>
      <trkpt lat="44.4324" lon="1.47452">
        <ele>272.9</ele>
        <time>2021-08-16T08:25:00Z</time>
      </trkpt>
      <trkpt lat="44.43241" lon="1.47451">
        <ele>272.9</ele>
        <time>2021-08-16T08:25:01Z</time>
      </trkpt>
      <trkpt lat="44.43241" lon="1.4745">
        <ele>272.9</ele>
        <time>2021-08-16T08:25:02Z</time>
      </trkpt>
      <trkpt lat="44.43242" lon="1.47446">
        <ele>273</ele>
        <time>2021-08-16T08:25:04Z</time>
      </trkpt>
      <trkpt lat="44.43243" lon="1.47445">
        <ele>273</ele>
        <time>2021-08-16T08:25:05Z</time>
      </trkpt>
      <trkpt lat="44.43244" lon="1.47442">
        <ele>273.1</ele>
        <time>2021-08-16T08:25:07Z</time>
      </trkpt>
      <trkpt lat="44.43245" lon="1.47441">
        <ele>273.1</ele>
        <time>2021-08-16T08:25:08Z</time>
      </trkpt>
      <trkpt lat="44.43245" lon="1.47439">
        <ele>273.1</ele>
        <time>2021-08-16T08:25:09Z</time>
      </trkpt>
      <trkpt lat="44.43246" lon="1.47436">
        <ele>273.2</ele>
        <time>2021-08-16T08:25:11Z</time>
      </trkpt>
      <trkpt lat="44.43247" lon="1.47434">
        <ele>273.2</ele>
        <time>2021-08-16T08:25:12Z</time>
      </trkpt>
      <trkpt lat="44.43249" lon="1.47431">
        <ele>273.3</ele>
        <time>2021-08-16T08:25:14Z</time>
      </trkpt>
      <trkpt lat="44.43251" lon="1.47427">
        <ele>273.4</ele>
        <time>2021-08-16T08:25:16Z</time>
      </trkpt>
      <trkpt lat="44.43252" lon="1.47426">
        <ele>273.4</ele>
        <time>2021-08-16T08:25:17Z</time>
      </trkpt>
      <trkpt lat="44.43253" lon="1.47423">
        <ele>273.4</ele>
        <time>2021-08-16T08:25:18Z</time>
      </trkpt>
      <trkpt lat="44.43254" lon="1.47422">
        <ele>273.5</ele>
        <time>2021-08-16T08:25:19Z</time>
      </trkpt>
      <trkpt lat="44.43255" lon="1.47419">
        <ele>273.5</ele>
        <time>2021-08-16T08:25:20Z</time>
      </trkpt>
      <trkpt lat="44.43256" lon="1.47417">
        <ele>273.6</ele>
        <time>2021-08-16T08:25:22Z</time>
      </trkpt>
      <trkpt lat="44.43257" lon="1.47413">
        <ele>273.6</ele>
        <time>2021-08-16T08:25:23Z</time>
      </trkpt>
      <trkpt lat="44.43258" lon="1.4741">
        <ele>273.7</ele>
        <time>2021-08-16T08:25:25Z</time>
      </trkpt>
      <trkpt lat="44.43259" lon="1.47406">
        <ele>273.7</ele>
        <time>2021-08-16T08:25:26Z</time>
      </trkpt>
      <trkpt lat="44.43259" lon="1.47405">
        <ele>273.7</ele>
        <time>2021-08-16T08:25:27Z</time>
      </trkpt>
      <trkpt lat="44.43259" lon="1.47403">
        <ele>273.7</ele>
        <time>2021-08-16T08:25:28Z</time>
      </trkpt>
      <trkpt lat="44.4326" lon="1.47402">
        <ele>273.7</ele>
        <time>2021-08-16T08:25:30Z</time>
      </trkpt>
      <trkpt lat="44.4326" lon="1.47401">
        <ele>273.8</ele>
        <time>2021-08-16T08:25:31Z</time>
      </trkpt>
      <trkpt lat="44.4326" lon="1.47401">
        <ele>273.8</ele>
        <time>2021-08-16T08:25:32Z</time>
      </trkpt>
      <trkpt lat="44.4326" lon="1.474">
        <ele>273.8</ele>
        <time>2021-08-16T08:25:34Z</time>
      </trkpt>
      <trkpt lat="44.43261" lon="1.47399">
        <ele>273.8</ele>
        <time>2021-08-16T08:25:35Z</time>
      </trkpt>
      <trkpt lat="44.43262" lon="1.47399">
        <ele>273.8</ele>
        <time>2021-08-16T08:25:36Z</time>
      </trkpt>
      <trkpt lat="44.43262" lon="1.47398">
        <ele>273.8</ele>
        <time>2021-08-16T08:25:38Z</time>
      </trkpt>
      <trkpt lat="44.43263" lon="1.47397">
        <ele>273.8</ele>
        <time>2021-08-16T08:25:40Z</time>
      </trkpt>
      <trkpt lat="44.43264" lon="1.47397">
        <ele>273.8</ele>
        <time>2021-08-16T08:25:42Z</time>
      </trkpt>
      <trkpt lat="44.43264" lon="1.47396">
        <ele>273.8</ele>
        <time>2021-08-16T08:25:44Z</time>
      </trkpt>
      <trkpt lat="44.43265" lon="1.47396">
        <ele>273.8</ele>
        <time>2021-08-16T08:25:45Z</time>
      </trkpt>
      <trkpt lat="44.43266" lon="1.47395">
        <ele>273.8</ele>
        <time>2021-08-16T08:25:46Z</time>
      </trkpt>
      <trkpt lat="44.43266" lon="1.47394">
        <ele>273.9</ele>
        <time>2021-08-16T08:25:48Z</time>
      </trkpt>
      <trkpt lat="44.43267" lon="1.47394">
        <ele>273.9</ele>
        <time>2021-08-16T08:25:50Z</time>
      </trkpt>
      <trkpt lat="44.43268" lon="1.47393">
        <ele>273.9</ele>
        <time>2021-08-16T08:29:07Z</time>
      </trkpt>
      <trkpt lat="44.43268" lon="1.47393">
        <ele>273.9</ele>
        <time>2021-08-16T08:29:08Z</time>
      </trkpt>
      <trkpt lat="44.43269" lon="1.47392">
        <ele>273.9</ele>
        <time>2021-08-16T08:29:09Z</time>
      </trkpt>
      <trkpt lat="44.43272" lon="1.47388">
        <ele>273.9</ele>
        <time>2021-08-16T08:29:10Z</time>
      </trkpt>
      <trkpt lat="44.43273" lon="1.47387">
        <ele>274</ele>
        <time>2021-08-16T08:29:11Z</time>
      </trkpt>
      <trkpt lat="44.43276" lon="1.47383">
        <ele>274</ele>
        <time>2021-08-16T08:29:12Z</time>
      </trkpt>
      <trkpt lat="44.43276" lon="1.47382">
        <ele>274</ele>
        <time>2021-08-16T08:29:13Z</time>
      </trkpt>
      <trkpt lat="44.4328" lon="1.47377">
        <ele>274.1</ele>
        <time>2021-08-16T08:29:15Z</time>
      </trkpt>
      <trkpt lat="44.43281" lon="1.47376">
        <ele>274.1</ele>
        <time>2021-08-16T08:29:16Z</time>
      </trkpt>
      <trkpt lat="44.43282" lon="1.47375">
        <ele>274.1</ele>
        <time>2021-08-16T08:29:17Z</time>
      </trkpt>
      <trkpt lat="44.43285" lon="1.47373">
        <ele>274.1</ele>
        <time>2021-08-16T08:29:18Z</time>
      </trkpt>
      <trkpt lat="44.43286" lon="1.47372">
        <ele>274.1</ele>
        <time>2021-08-16T08:29:19Z</time>
      </trkpt>
      <trkpt lat="44.43289" lon="1.47369">
        <ele>274.2</ele>
        <time>2021-08-16T08:29:21Z</time>
      </trkpt>
      <trkpt lat="44.43292" lon="1.47367">
        <ele>274.2</ele>
        <time>2021-08-16T08:29:22Z</time>
      </trkpt>
      <trkpt lat="44.43295" lon="1.47364">
        <ele>274.2</ele>
        <time>2021-08-16T08:29:24Z</time>
      </trkpt>
      <trkpt lat="44.43299" lon="1.47361">
        <ele>274.2</ele>
        <time>2021-08-16T08:29:26Z</time>
      </trkpt>
      <trkpt lat="44.43302" lon="1.47358">
        <ele>274.2</ele>
        <time>2021-08-16T08:29:27Z</time>
      </trkpt>
      <trkpt lat="44.43305" lon="1.47355">
        <ele>274.2</ele>
        <time>2021-08-16T08:29:28Z</time>
      </trkpt>
      <trkpt lat="44.43309" lon="1.47352">
        <ele>274.2</ele>
        <time>2021-08-16T08:29:30Z</time>
      </trkpt>
      <trkpt lat="44.43311" lon="1.4735">
        <ele>274.2</ele>
        <time>2021-08-16T08:29:31Z</time>
      </trkpt>
      <trkpt lat="44.43314" lon="1.47347">
        <ele>274.2</ele>
        <time>2021-08-16T08:29:32Z</time>
      </trkpt>
      <trkpt lat="44.43317" lon="1.47345">
        <ele>274.2</ele>
        <time>2021-08-16T08:29:33Z</time>
      </trkpt>
      <trkpt lat="44.4332" lon="1.47343">
        <ele>274.3</ele>
        <time>2021-08-16T08:29:35Z</time>
      </trkpt>
      <trkpt lat="44.43322" lon="1.4734">
        <ele>274.3</ele>
        <time>2021-08-16T08:29:36Z</time>
      </trkpt>
      <trkpt lat="44.43324" lon="1.47337">
        <ele>274.4</ele>
        <time>2021-08-16T08:29:37Z</time>
      </trkpt>
      <trkpt lat="44.43327" lon="1.47334">
        <ele>274.5</ele>
        <time>2021-08-16T08:29:38Z</time>
      </trkpt>
      <trkpt lat="44.43329" lon="1.47332">
        <ele>274.5</ele>
        <time>2021-08-16T08:29:40Z</time>
      </trkpt>
      <trkpt lat="44.43332" lon="1.47328">
        <ele>274.6</ele>
        <time>2021-08-16T08:29:41Z</time>
      </trkpt>
      <trkpt lat="44.43333" lon="1.47326">
        <ele>274.7</ele>
        <time>2021-08-16T08:29:42Z</time>
      </trkpt>
      <trkpt lat="44.43337" lon="1.47324">
        <ele>274.8</ele>
        <time>2021-08-16T08:29:44Z</time>
      </trkpt>
      <trkpt lat="44.4334" lon="1.47321">
        <ele>274.9</ele>
        <time>2021-08-16T08:29:45Z</time>
      </trkpt>
      <trkpt lat="44.43342" lon="1.47318">
        <ele>274.9</ele>
        <time>2021-08-16T08:29:46Z</time>
      </trkpt>
      <trkpt lat="44.43345" lon="1.47316">
        <ele>275</ele>
        <time>2021-08-16T08:29:47Z</time>
      </trkpt>
      <trkpt lat="44.43346" lon="1.47315">
        <ele>275.1</ele>
        <time>2021-08-16T08:29:48Z</time>
      </trkpt>
      <trkpt lat="44.43349" lon="1.47312">
        <ele>275.2</ele>
        <time>2021-08-16T08:29:49Z</time>
      </trkpt>
      <trkpt lat="44.4335" lon="1.4731">
        <ele>275.2</ele>
        <time>2021-08-16T08:29:50Z</time>
      </trkpt>
      <trkpt lat="44.43353" lon="1.47306">
        <ele>275.3</ele>
        <time>2021-08-16T08:29:52Z</time>
      </trkpt>
      <trkpt lat="44.43355" lon="1.47303">
        <ele>275.4</ele>
        <time>2021-08-16T08:29:53Z</time>
      </trkpt>
      <trkpt lat="44.43358" lon="1.47299">
        <ele>275.4</ele>
        <time>2021-08-16T08:29:55Z</time>
      </trkpt>
      <trkpt lat="44.4336" lon="1.47296">
        <ele>275.5</ele>
        <time>2021-08-16T08:29:56Z</time>
      </trkpt>
      <trkpt lat="44.43363" lon="1.47293">
        <ele>275.6</ele>
        <time>2021-08-16T08:29:57Z</time>
      </trkpt>
      <trkpt lat="44.43364" lon="1.47292">
        <ele>275.6</ele>
        <time>2021-08-16T08:29:58Z</time>
      </trkpt>
      <trkpt lat="44.43366" lon="1.47289">
        <ele>275.7</ele>
        <time>2021-08-16T08:30:00Z</time>
      </trkpt>
      <trkpt lat="44.43368" lon="1.47286">
        <ele>275.7</ele>
        <time>2021-08-16T08:30:01Z</time>
      </trkpt>
      <trkpt lat="44.43371" lon="1.47284">
        <ele>275.8</ele>
        <time>2021-08-16T08:30:02Z</time>
      </trkpt>
      <trkpt lat="44.43374" lon="1.47282">
        <ele>275.9</ele>
        <time>2021-08-16T08:30:04Z</time>
      </trkpt>
      <trkpt lat="44.43377" lon="1.47281">
        <ele>276</ele>
        <time>2021-08-16T08:30:05Z</time>
      </trkpt>
      <trkpt lat="44.43379" lon="1.47279">
        <ele>276.1</ele>
        <time>2021-08-16T08:30:06Z</time>
      </trkpt>
      <trkpt lat="44.43383" lon="1.47277">
        <ele>276.2</ele>
        <time>2021-08-16T08:30:08Z</time>
      </trkpt>
      <trkpt lat="44.43386" lon="1.47276">
        <ele>276.3</ele>
        <time>2021-08-16T08:30:09Z</time>
      </trkpt>
      <trkpt lat="44.43389" lon="1.47275">
        <ele>276.5</ele>
        <time>2021-08-16T08:30:10Z</time>
      </trkpt>
      <trkpt lat="44.43391" lon="1.47274">
        <ele>276.5</ele>
        <time>2021-08-16T08:30:11Z</time>
      </trkpt>
      <trkpt lat="44.43393" lon="1.47272">
        <ele>276.6</ele>
        <time>2021-08-16T08:30:12Z</time>
      </trkpt>
      <trkpt lat="44.43396" lon="1.47271">
        <ele>276.7</ele>
        <time>2021-08-16T08:30:14Z</time>
      </trkpt>
      <trkpt lat="44.43399" lon="1.4727">
        <ele>276.8</ele>
        <time>2021-08-16T08:30:15Z</time>
      </trkpt>
      <trkpt lat="44.43402" lon="1.47269">
        <ele>277</ele>
        <time>2021-08-16T08:30:16Z</time>
      </trkpt>
      <trkpt lat="44.43406" lon="1.47267">
        <ele>277.4</ele>
        <time>2021-08-16T08:30:17Z</time>
      </trkpt>
      <trkpt lat="44.43408" lon="1.47267">
        <ele>277.5</ele>
        <time>2021-08-16T08:30:18Z</time>
      </trkpt>
      <trkpt lat="44.43411" lon="1.47268">
        <ele>277.7</ele>
        <time>2021-08-16T08:30:20Z</time>
      </trkpt>
      <trkpt lat="44.43414" lon="1.47269">
        <ele>277.7</ele>
        <time>2021-08-16T08:30:21Z</time>
      </trkpt>
      <trkpt lat="44.43417" lon="1.47271">
        <ele>278</ele>
        <time>2021-08-16T08:30:22Z</time>
      </trkpt>
      <trkpt lat="44.4342" lon="1.47274">
        <ele>278.1</ele>
        <time>2021-08-16T08:30:23Z</time>
      </trkpt>
      <trkpt lat="44.43425" lon="1.47278">
        <ele>278.5</ele>
        <time>2021-08-16T08:30:25Z</time>
      </trkpt>
      <trkpt lat="44.43427" lon="1.4728">
        <ele>278.8</ele>
        <time>2021-08-16T08:30:26Z</time>
      </trkpt>
      <trkpt lat="44.4343" lon="1.47282">
        <ele>278.7</ele>
        <time>2021-08-16T08:30:27Z</time>
      </trkpt>
      <trkpt lat="44.43433" lon="1.47286">
        <ele>279.1</ele>
        <time>2021-08-16T08:30:29Z</time>
      </trkpt>
      <trkpt lat="44.43436" lon="1.47289">
        <ele>279.2</ele>
        <time>2021-08-16T08:30:30Z</time>
      </trkpt>
      <trkpt lat="44.43437" lon="1.4729">
        <ele>279.3</ele>
        <time>2021-08-16T08:30:31Z</time>
      </trkpt>
      <trkpt lat="44.4344" lon="1.47293">
        <ele>279.6</ele>
        <time>2021-08-16T08:30:33Z</time>
      </trkpt>
      <trkpt lat="44.43441" lon="1.47294">
        <ele>279.4</ele>
        <time>2021-08-16T08:30:34Z</time>
      </trkpt>
      <trkpt lat="44.43444" lon="1.47297">
        <ele>279.7</ele>
        <time>2021-08-16T08:30:35Z</time>
      </trkpt>
      <trkpt lat="44.43445" lon="1.47298">
        <ele>279.7</ele>
        <time>2021-08-16T08:30:36Z</time>
      </trkpt>
      <trkpt lat="44.43448" lon="1.47301">
        <ele>279.8</ele>
        <time>2021-08-16T08:30:37Z</time>
      </trkpt>
      <trkpt lat="44.43451" lon="1.47304">
        <ele>279.9</ele>
        <time>2021-08-16T08:30:38Z</time>
      </trkpt>
      <trkpt lat="44.43454" lon="1.47308">
        <ele>279.9</ele>
        <time>2021-08-16T08:30:40Z</time>
      </trkpt>
      <trkpt lat="44.43457" lon="1.47311">
        <ele>280.2</ele>
        <time>2021-08-16T08:30:41Z</time>
      </trkpt>
      <trkpt lat="44.4346" lon="1.47314">
        <ele>280.2</ele>
        <time>2021-08-16T08:30:42Z</time>
      </trkpt>
      <trkpt lat="44.43463" lon="1.47317">
        <ele>280.1</ele>
        <time>2021-08-16T08:30:44Z</time>
      </trkpt>
      <trkpt lat="44.43465" lon="1.47319">
        <ele>280.3</ele>
        <time>2021-08-16T08:30:45Z</time>
      </trkpt>
      <trkpt lat="44.43467" lon="1.47322">
        <ele>280.2</ele>
        <time>2021-08-16T08:30:46Z</time>
      </trkpt>
      <trkpt lat="44.43472" lon="1.47326">
        <ele>280</ele>
        <time>2021-08-16T08:30:48Z</time>
      </trkpt>
      <trkpt lat="44.43474" lon="1.47329">
        <ele>279.8</ele>
        <time>2021-08-16T08:30:49Z</time>
      </trkpt>
      <trkpt lat="44.43477" lon="1.47333">
        <ele>279.6</ele>
        <time>2021-08-16T08:30:51Z</time>
      </trkpt>
      <trkpt lat="44.4348" lon="1.47336">
        <ele>279.8</ele>
        <time>2021-08-16T08:30:52Z</time>
      </trkpt>
      <trkpt lat="44.43483" lon="1.4734">
        <ele>279.6</ele>
        <time>2021-08-16T08:30:54Z</time>
      </trkpt>
      <trkpt lat="44.43486" lon="1.47343">
        <ele>279.5</ele>
        <time>2021-08-16T08:30:55Z</time>
      </trkpt>
      <trkpt lat="44.43489" lon="1.47346">
        <ele>279.4</ele>
        <time>2021-08-16T08:30:56Z</time>
      </trkpt>
      <trkpt lat="44.43491" lon="1.47348">
        <ele>279.4</ele>
        <time>2021-08-16T08:30:57Z</time>
      </trkpt>
      <trkpt lat="44.43495" lon="1.4735">
        <ele>279.5</ele>
        <time>2021-08-16T08:30:59Z</time>
      </trkpt>
      <trkpt lat="44.43498" lon="1.47353">
        <ele>279.7</ele>
        <time>2021-08-16T08:31:00Z</time>
      </trkpt>
      <trkpt lat="44.43503" lon="1.47355">
        <ele>279.6</ele>
        <time>2021-08-16T08:31:01Z</time>
      </trkpt>
      <trkpt lat="44.43506" lon="1.47356">
        <ele>279.7</ele>
        <time>2021-08-16T08:31:03Z</time>
      </trkpt>
      <trkpt lat="44.43509" lon="1.47354">
        <ele>280.1</ele>
        <time>2021-08-16T08:31:04Z</time>
      </trkpt>
      <trkpt lat="44.43512" lon="1.4735">
        <ele>280.2</ele>
        <time>2021-08-16T08:31:06Z</time>
      </trkpt>
      <trkpt lat="44.43515" lon="1.47349">
        <ele>280.4</ele>
        <time>2021-08-16T08:31:07Z</time>
      </trkpt>
      <trkpt lat="44.43517" lon="1.47346">
        <ele>280.4</ele>
        <time>2021-08-16T08:31:08Z</time>
      </trkpt>
      <trkpt lat="44.43517" lon="1.4734">
        <ele>280.9</ele>
        <time>2021-08-16T08:31:10Z</time>
      </trkpt>
      <trkpt lat="44.43517" lon="1.47336">
        <ele>281.1</ele>
        <time>2021-08-16T08:31:11Z</time>
      </trkpt>
      <trkpt lat="44.43518" lon="1.47332">
        <ele>281.3</ele>
        <time>2021-08-16T08:31:12Z</time>
      </trkpt>
      <trkpt lat="44.43517" lon="1.47328">
        <ele>281.5</ele>
        <time>2021-08-16T08:31:14Z</time>
      </trkpt>
      <trkpt lat="44.43518" lon="1.47323">
        <ele>281.7</ele>
        <time>2021-08-16T08:31:15Z</time>
      </trkpt>
      <trkpt lat="44.43518" lon="1.47322">
        <ele>281.7</ele>
        <time>2021-08-16T08:31:16Z</time>
      </trkpt>
      <trkpt lat="44.43519" lon="1.47317">
        <ele>281.8</ele>
        <time>2021-08-16T08:31:18Z</time>
      </trkpt>
      <trkpt lat="44.4352" lon="1.47316">
        <ele>281.8</ele>
        <time>2021-08-16T08:31:19Z</time>
      </trkpt>
      <trkpt lat="44.43521" lon="1.47312">
        <ele>281.9</ele>
        <time>2021-08-16T08:31:20Z</time>
      </trkpt>
      <trkpt lat="44.43522" lon="1.4731">
        <ele>282.1</ele>
        <time>2021-08-16T08:31:21Z</time>
      </trkpt>
      <trkpt lat="44.43524" lon="1.47305">
        <ele>282.2</ele>
        <time>2021-08-16T08:31:23Z</time>
      </trkpt>
      <trkpt lat="44.43524" lon="1.47303">
        <ele>282.2</ele>
        <time>2021-08-16T08:31:24Z</time>
      </trkpt>
      <trkpt lat="44.43525" lon="1.47299">
        <ele>282.2</ele>
        <time>2021-08-16T08:31:25Z</time>
      </trkpt>
      <trkpt lat="44.43525" lon="1.47298">
        <ele>282.4</ele>
        <time>2021-08-16T08:31:26Z</time>
      </trkpt>
      <trkpt lat="44.43527" lon="1.47293">
        <ele>282.6</ele>
        <time>2021-08-16T08:31:27Z</time>
      </trkpt>
      <trkpt lat="44.43527" lon="1.47291">
        <ele>282.6</ele>
        <time>2021-08-16T08:31:28Z</time>
      </trkpt>
      <trkpt lat="44.43528" lon="1.47287">
        <ele>282.7</ele>
        <time>2021-08-16T08:31:30Z</time>
      </trkpt>
      <trkpt lat="44.43528" lon="1.47286">
        <ele>282.7</ele>
        <time>2021-08-16T08:31:31Z</time>
      </trkpt>
      <trkpt lat="44.43529" lon="1.47283">
        <ele>282.7</ele>
        <time>2021-08-16T08:31:32Z</time>
      </trkpt>
      <trkpt lat="44.4353" lon="1.47279">
        <ele>282.8</ele>
        <time>2021-08-16T08:31:34Z</time>
      </trkpt>
      <trkpt lat="44.43531" lon="1.47275">
        <ele>282.9</ele>
        <time>2021-08-16T08:31:35Z</time>
      </trkpt>
      <trkpt lat="44.43531" lon="1.47273">
        <ele>282.9</ele>
        <time>2021-08-16T08:31:36Z</time>
      </trkpt>
      <trkpt lat="44.43532" lon="1.47269">
        <ele>282.9</ele>
        <time>2021-08-16T08:31:38Z</time>
      </trkpt>
      <trkpt lat="44.43533" lon="1.47266">
        <ele>283</ele>
        <time>2021-08-16T08:31:39Z</time>
      </trkpt>
      <trkpt lat="44.43534" lon="1.47265">
        <ele>283</ele>
        <time>2021-08-16T08:31:40Z</time>
      </trkpt>
      <trkpt lat="44.43535" lon="1.47263">
        <ele>283</ele>
        <time>2021-08-16T08:31:41Z</time>
      </trkpt>
      <trkpt lat="44.43535" lon="1.47261">
        <ele>283</ele>
        <time>2021-08-16T08:31:42Z</time>
      </trkpt>
      <trkpt lat="44.43536" lon="1.47257">
        <ele>283.1</ele>
        <time>2021-08-16T08:31:44Z</time>
      </trkpt>
      <trkpt lat="44.43537" lon="1.47254">
        <ele>283.1</ele>
        <time>2021-08-16T08:31:45Z</time>
      </trkpt>
      <trkpt lat="44.43537" lon="1.4725">
        <ele>283.1</ele>
        <time>2021-08-16T08:31:47Z</time>
      </trkpt>
      <trkpt lat="44.43538" lon="1.47248">
        <ele>283.1</ele>
        <time>2021-08-16T08:31:48Z</time>
      </trkpt>
      <trkpt lat="44.43539" lon="1.47244">
        <ele>283.2</ele>
        <time>2021-08-16T08:31:50Z</time>
      </trkpt>
      <trkpt lat="44.43541" lon="1.4724">
        <ele>283.2</ele>
        <time>2021-08-16T08:31:51Z</time>
      </trkpt>
      <trkpt lat="44.43541" lon="1.47239">
        <ele>283.2</ele>
        <time>2021-08-16T08:31:52Z</time>
      </trkpt>
      <trkpt lat="44.43542" lon="1.47235">
        <ele>283.2</ele>
        <time>2021-08-16T08:31:53Z</time>
      </trkpt>
      <trkpt lat="44.43543" lon="1.47234">
        <ele>283.3</ele>
        <time>2021-08-16T08:31:54Z</time>
      </trkpt>
      <trkpt lat="44.43545" lon="1.47227">
        <ele>283.3</ele>
        <time>2021-08-16T08:31:56Z</time>
      </trkpt>
      <trkpt lat="44.43545" lon="1.47224">
        <ele>283.3</ele>
        <time>2021-08-16T08:31:57Z</time>
      </trkpt>
      <trkpt lat="44.43546" lon="1.47222">
        <ele>283.3</ele>
        <time>2021-08-16T08:31:58Z</time>
      </trkpt>
      <trkpt lat="44.43547" lon="1.47217">
        <ele>283.4</ele>
        <time>2021-08-16T08:31:59Z</time>
      </trkpt>
      <trkpt lat="44.43548" lon="1.47215">
        <ele>283.4</ele>
        <time>2021-08-16T08:32:00Z</time>
      </trkpt>
      <trkpt lat="44.43549" lon="1.4721">
        <ele>283.5</ele>
        <time>2021-08-16T08:32:01Z</time>
      </trkpt>
      <trkpt lat="44.43551" lon="1.47205">
        <ele>283.4</ele>
        <time>2021-08-16T08:32:02Z</time>
      </trkpt>
      <trkpt lat="44.43552" lon="1.472">
        <ele>283.5</ele>
        <time>2021-08-16T08:32:04Z</time>
      </trkpt>
      <trkpt lat="44.43553" lon="1.47199">
        <ele>283.4</ele>
        <time>2021-08-16T08:32:05Z</time>
      </trkpt>
      <trkpt lat="44.43555" lon="1.47195">
        <ele>283.4</ele>
        <time>2021-08-16T08:32:06Z</time>
      </trkpt>
      <trkpt lat="44.43557" lon="1.4719">
        <ele>283.4</ele>
        <time>2021-08-16T08:32:08Z</time>
      </trkpt>
      <trkpt lat="44.43557" lon="1.47188">
        <ele>283.4</ele>
        <time>2021-08-16T08:32:09Z</time>
      </trkpt>
      <trkpt lat="44.43558" lon="1.47184">
        <ele>283.4</ele>
        <time>2021-08-16T08:32:10Z</time>
      </trkpt>
      <trkpt lat="44.43561" lon="1.47179">
        <ele>283.3</ele>
        <time>2021-08-16T08:32:12Z</time>
      </trkpt>
      <trkpt lat="44.43564" lon="1.47176">
        <ele>283.1</ele>
        <time>2021-08-16T08:32:13Z</time>
      </trkpt>
      <trkpt lat="44.43566" lon="1.47175">
        <ele>283.1</ele>
        <time>2021-08-16T08:32:14Z</time>
      </trkpt>
      <trkpt lat="44.4357" lon="1.47173">
        <ele>283</ele>
        <time>2021-08-16T08:32:16Z</time>
      </trkpt>
      <trkpt lat="44.43574" lon="1.47172">
        <ele>282.9</ele>
        <time>2021-08-16T08:32:17Z</time>
      </trkpt>
      <trkpt lat="44.43575" lon="1.47171">
        <ele>282.9</ele>
        <time>2021-08-16T08:32:18Z</time>
      </trkpt>
      <trkpt lat="44.43578" lon="1.47169">
        <ele>282.7</ele>
        <time>2021-08-16T08:32:19Z</time>
      </trkpt>
      <trkpt lat="44.43581" lon="1.47167">
        <ele>282.6</ele>
        <time>2021-08-16T08:32:20Z</time>
      </trkpt>
      <trkpt lat="44.43584" lon="1.47165">
        <ele>282.5</ele>
        <time>2021-08-16T08:32:22Z</time>
      </trkpt>
      <trkpt lat="44.43587" lon="1.47161">
        <ele>282.4</ele>
        <time>2021-08-16T08:32:23Z</time>
      </trkpt>
      <trkpt lat="44.4359" lon="1.47159">
        <ele>282.3</ele>
        <time>2021-08-16T08:32:24Z</time>
      </trkpt>
      <trkpt lat="44.43594" lon="1.47156">
        <ele>282.2</ele>
        <time>2021-08-16T08:32:26Z</time>
      </trkpt>
      <trkpt lat="44.43598" lon="1.47154">
        <ele>282.1</ele>
        <time>2021-08-16T08:32:27Z</time>
      </trkpt>
      <trkpt lat="44.43599" lon="1.47154">
        <ele>282.1</ele>
        <time>2021-08-16T08:32:28Z</time>
      </trkpt>
      <trkpt lat="44.43603" lon="1.47153">
        <ele>281.9</ele>
        <time>2021-08-16T08:32:29Z</time>
      </trkpt>
      <trkpt lat="44.43604" lon="1.47153">
        <ele>281.9</ele>
        <time>2021-08-16T08:32:30Z</time>
      </trkpt>
      <trkpt lat="44.43607" lon="1.47153">
        <ele>281.8</ele>
        <time>2021-08-16T08:32:31Z</time>
      </trkpt>
      <trkpt lat="44.43611" lon="1.47153">
        <ele>281.6</ele>
        <time>2021-08-16T08:32:32Z</time>
      </trkpt>
      <trkpt lat="44.43615" lon="1.47153">
        <ele>281.4</ele>
        <time>2021-08-16T08:32:34Z</time>
      </trkpt>
      <trkpt lat="44.43621" lon="1.47151">
        <ele>281.2</ele>
        <time>2021-08-16T08:32:35Z</time>
      </trkpt>
      <trkpt lat="44.43627" lon="1.47148">
        <ele>280.9</ele>
        <time>2021-08-16T08:32:36Z</time>
      </trkpt>
      <trkpt lat="44.43632" lon="1.47144">
        <ele>280.8</ele>
        <time>2021-08-16T08:32:37Z</time>
      </trkpt>
      <trkpt lat="44.43638" lon="1.47138">
        <ele>281.1</ele>
        <time>2021-08-16T08:32:38Z</time>
      </trkpt>
      <trkpt lat="44.43648" lon="1.47122">
        <ele>281.4</ele>
        <time>2021-08-16T08:32:40Z</time>
      </trkpt>
      <trkpt lat="44.43656" lon="1.47105">
        <ele>281.4</ele>
        <time>2021-08-16T08:32:42Z</time>
      </trkpt>
      <trkpt lat="44.43662" lon="1.47092">
        <ele>281.3</ele>
        <time>2021-08-16T08:32:44Z</time>
      </trkpt>
      <trkpt lat="44.43666" lon="1.4708">
        <ele>281.1</ele>
        <time>2021-08-16T08:32:46Z</time>
      </trkpt>
      <trkpt lat="44.43669" lon="1.47074">
        <ele>281</ele>
        <time>2021-08-16T08:32:47Z</time>
      </trkpt>
      <trkpt lat="44.43671" lon="1.47068">
        <ele>280.9</ele>
        <time>2021-08-16T08:32:48Z</time>
      </trkpt>
      <trkpt lat="44.43677" lon="1.47055">
        <ele>280.5</ele>
        <time>2021-08-16T08:32:50Z</time>
      </trkpt>
      <trkpt lat="44.43682" lon="1.47042">
        <ele>279.8</ele>
        <time>2021-08-16T08:32:52Z</time>
      </trkpt>
      <trkpt lat="44.43686" lon="1.47036">
        <ele>279.4</ele>
        <time>2021-08-16T08:32:53Z</time>
      </trkpt>
      <trkpt lat="44.4369" lon="1.47031">
        <ele>278.9</ele>
        <time>2021-08-16T08:32:54Z</time>
      </trkpt>
      <trkpt lat="44.437" lon="1.47023">
        <ele>278</ele>
        <time>2021-08-16T08:32:56Z</time>
      </trkpt>
      <trkpt lat="44.43703" lon="1.47019">
        <ele>277.6</ele>
        <time>2021-08-16T08:32:58Z</time>
      </trkpt>
      <trkpt lat="44.43704" lon="1.47019">
        <ele>277.5</ele>
        <time>2021-08-16T08:32:59Z</time>
      </trkpt>
      <trkpt lat="44.43705" lon="1.47018">
        <ele>277.5</ele>
        <time>2021-08-16T08:33:00Z</time>
      </trkpt>
      <trkpt lat="44.43706" lon="1.47017">
        <ele>277.4</ele>
        <time>2021-08-16T08:33:01Z</time>
      </trkpt>
      <trkpt lat="44.43707" lon="1.47017">
        <ele>277.3</ele>
        <time>2021-08-16T08:33:04Z</time>
      </trkpt>
      <trkpt lat="44.43708" lon="1.47016">
        <ele>277.2</ele>
        <time>2021-08-16T08:33:05Z</time>
      </trkpt>
      <trkpt lat="44.43709" lon="1.47015">
        <ele>277.2</ele>
        <time>2021-08-16T08:33:07Z</time>
      </trkpt>
      <trkpt lat="44.4371" lon="1.47014">
        <ele>277.1</ele>
        <time>2021-08-16T08:33:08Z</time>
      </trkpt>
      <trkpt lat="44.43711" lon="1.47014">
        <ele>277</ele>
        <time>2021-08-16T08:33:23Z</time>
      </trkpt>
      <trkpt lat="44.43712" lon="1.47013">
        <ele>277</ele>
        <time>2021-08-16T08:33:24Z</time>
      </trkpt>
      <trkpt lat="44.43717" lon="1.47006">
        <ele>276.6</ele>
        <time>2021-08-16T08:33:25Z</time>
      </trkpt>
      <trkpt lat="44.43721" lon="1.47">
        <ele>276.3</ele>
        <time>2021-08-16T08:33:26Z</time>
      </trkpt>
      <trkpt lat="44.43726" lon="1.46991">
        <ele>275.9</ele>
        <time>2021-08-16T08:33:28Z</time>
      </trkpt>
      <trkpt lat="44.43728" lon="1.46986">
        <ele>275.7</ele>
        <time>2021-08-16T08:33:29Z</time>
      </trkpt>
      <trkpt lat="44.43728" lon="1.46982">
        <ele>275.5</ele>
        <time>2021-08-16T08:33:30Z</time>
      </trkpt>
      <trkpt lat="44.43729" lon="1.46981">
        <ele>275.5</ele>
        <time>2021-08-16T08:33:31Z</time>
      </trkpt>
      <trkpt lat="44.43729" lon="1.46981">
        <ele>275.5</ele>
        <time>2021-08-16T08:33:32Z</time>
      </trkpt>
      <trkpt lat="44.43727" lon="1.4698">
        <ele>275.4</ele>
        <time>2021-08-16T08:33:34Z</time>
      </trkpt>
      <trkpt lat="44.43727" lon="1.4698">
        <ele>275.3</ele>
        <time>2021-08-16T08:33:36Z</time>
      </trkpt>
      <trkpt lat="44.43727" lon="1.4698">
        <ele>275.3</ele>
        <time>2021-08-16T08:33:38Z</time>
      </trkpt>
      <trkpt lat="44.43727" lon="1.4698">
        <ele>275.3</ele>
        <time>2021-08-16T08:33:39Z</time>
      </trkpt>
      <trkpt lat="44.43728" lon="1.4698">
        <ele>275.3</ele>
        <time>2021-08-16T08:33:41Z</time>
      </trkpt>
      <trkpt lat="44.43732" lon="1.46978">
        <ele>275</ele>
        <time>2021-08-16T08:33:46Z</time>
      </trkpt>
      <trkpt lat="44.43735" lon="1.46975">
        <ele>274.7</ele>
        <time>2021-08-16T08:33:47Z</time>
      </trkpt>
      <trkpt lat="44.43738" lon="1.46974">
        <ele>274.4</ele>
        <time>2021-08-16T08:33:48Z</time>
      </trkpt>
      <trkpt lat="44.43742" lon="1.46973">
        <ele>274</ele>
        <time>2021-08-16T08:33:50Z</time>
      </trkpt>
      <trkpt lat="44.43746" lon="1.46974">
        <ele>273.6</ele>
        <time>2021-08-16T08:33:51Z</time>
      </trkpt>
      <trkpt lat="44.43754" lon="1.46973">
        <ele>272.6</ele>
        <time>2021-08-16T08:33:52Z</time>
      </trkpt>
      <trkpt lat="44.4376" lon="1.4697">
        <ele>272</ele>
        <time>2021-08-16T08:33:53Z</time>
      </trkpt>
      <trkpt lat="44.43767" lon="1.46966">
        <ele>271.2</ele>
        <time>2021-08-16T08:33:54Z</time>
      </trkpt>
      <trkpt lat="44.43773" lon="1.46963">
        <ele>270.5</ele>
        <time>2021-08-16T08:33:55Z</time>
      </trkpt>
      <trkpt lat="44.43779" lon="1.46959">
        <ele>269.8</ele>
        <time>2021-08-16T08:33:56Z</time>
      </trkpt>
      <trkpt lat="44.43794" lon="1.46951">
        <ele>268.2</ele>
        <time>2021-08-16T08:33:58Z</time>
      </trkpt>
      <trkpt lat="44.43801" lon="1.46948">
        <ele>267.4</ele>
        <time>2021-08-16T08:33:59Z</time>
      </trkpt>
      <trkpt lat="44.43815" lon="1.46941">
        <ele>266.4</ele>
        <time>2021-08-16T08:34:01Z</time>
      </trkpt>
      <trkpt lat="44.43821" lon="1.46938">
        <ele>266.2</ele>
        <time>2021-08-16T08:34:02Z</time>
      </trkpt>
      <trkpt lat="44.43833" lon="1.46935">
        <ele>265.9</ele>
        <time>2021-08-16T08:34:04Z</time>
      </trkpt>
      <trkpt lat="44.43844" lon="1.46934">
        <ele>265.9</ele>
        <time>2021-08-16T08:34:06Z</time>
      </trkpt>
      <trkpt lat="44.43851" lon="1.46933">
        <ele>266</ele>
        <time>2021-08-16T08:34:08Z</time>
      </trkpt>
      <trkpt lat="44.43857" lon="1.46931">
        <ele>266.1</ele>
        <time>2021-08-16T08:34:10Z</time>
      </trkpt>
      <trkpt lat="44.4386" lon="1.46929">
        <ele>267.7</ele>
        <time>2021-08-16T08:34:11Z</time>
      </trkpt>
      <trkpt lat="44.43863" lon="1.46927">
        <ele>268.8</ele>
        <time>2021-08-16T08:34:12Z</time>
      </trkpt>
      <trkpt lat="44.43862" lon="1.46929">
        <ele>269.1</ele>
        <time>2021-08-16T08:34:14Z</time>
      </trkpt>
      <trkpt lat="44.43866" lon="1.46927">
        <ele>270.8</ele>
        <time>2021-08-16T08:34:15Z</time>
      </trkpt>
      <trkpt lat="44.43871" lon="1.46927">
        <ele>271.8</ele>
        <time>2021-08-16T08:34:16Z</time>
      </trkpt>
      <trkpt lat="44.43877" lon="1.46926">
        <ele>272.9</ele>
        <time>2021-08-16T08:34:18Z</time>
      </trkpt>
      <trkpt lat="44.4388" lon="1.46926">
        <ele>272.9</ele>
        <time>2021-08-16T08:34:19Z</time>
      </trkpt>
      <trkpt lat="44.43883" lon="1.46926">
        <ele>272.9</ele>
        <time>2021-08-16T08:34:20Z</time>
      </trkpt>
      <trkpt lat="44.43886" lon="1.46925">
        <ele>272.9</ele>
        <time>2021-08-16T08:34:21Z</time>
      </trkpt>
      <trkpt lat="44.43891" lon="1.46925">
        <ele>272.8</ele>
        <time>2021-08-16T08:34:23Z</time>
      </trkpt>
      <trkpt lat="44.43895" lon="1.46924">
        <ele>272.8</ele>
        <time>2021-08-16T08:34:25Z</time>
      </trkpt>
      <trkpt lat="44.43898" lon="1.46924">
        <ele>272.7</ele>
        <time>2021-08-16T08:34:26Z</time>
      </trkpt>
      <trkpt lat="44.439" lon="1.46924">
        <ele>272.7</ele>
        <time>2021-08-16T08:34:27Z</time>
      </trkpt>
      <trkpt lat="44.43904" lon="1.46924">
        <ele>272.6</ele>
        <time>2021-08-16T08:34:28Z</time>
      </trkpt>
      <trkpt lat="44.43907" lon="1.46923">
        <ele>272.5</ele>
        <time>2021-08-16T08:34:30Z</time>
      </trkpt>
      <trkpt lat="44.43911" lon="1.46923">
        <ele>272.4</ele>
        <time>2021-08-16T08:34:31Z</time>
      </trkpt>
      <trkpt lat="44.43913" lon="1.46923">
        <ele>272.4</ele>
        <time>2021-08-16T08:34:32Z</time>
      </trkpt>
      <trkpt lat="44.43917" lon="1.46922">
        <ele>272.3</ele>
        <time>2021-08-16T08:34:34Z</time>
      </trkpt>
      <trkpt lat="44.43919" lon="1.46922">
        <ele>272.2</ele>
        <time>2021-08-16T08:34:35Z</time>
      </trkpt>
      <trkpt lat="44.43923" lon="1.46921">
        <ele>272.1</ele>
        <time>2021-08-16T08:34:36Z</time>
      </trkpt>
      <trkpt lat="44.43926" lon="1.4692">
        <ele>272</ele>
        <time>2021-08-16T08:34:37Z</time>
      </trkpt>
      <trkpt lat="44.43928" lon="1.46918">
        <ele>271.9</ele>
        <time>2021-08-16T08:34:38Z</time>
      </trkpt>
      <trkpt lat="44.43932" lon="1.46917">
        <ele>271.8</ele>
        <time>2021-08-16T08:34:40Z</time>
      </trkpt>
      <trkpt lat="44.43935" lon="1.46916">
        <ele>271.6</ele>
        <time>2021-08-16T08:34:41Z</time>
      </trkpt>
      <trkpt lat="44.43937" lon="1.46915">
        <ele>271.6</ele>
        <time>2021-08-16T08:34:42Z</time>
      </trkpt>
      <trkpt lat="44.43942" lon="1.46913">
        <ele>271.4</ele>
        <time>2021-08-16T08:34:44Z</time>
      </trkpt>
      <trkpt lat="44.43947" lon="1.4691">
        <ele>271.2</ele>
        <time>2021-08-16T08:34:45Z</time>
      </trkpt>
      <trkpt lat="44.43951" lon="1.46908">
        <ele>271.1</ele>
        <time>2021-08-16T08:34:46Z</time>
      </trkpt>
      <trkpt lat="44.43956" lon="1.46908">
        <ele>271</ele>
        <time>2021-08-16T08:34:47Z</time>
      </trkpt>
      <trkpt lat="44.43962" lon="1.46909">
        <ele>270.9</ele>
        <time>2021-08-16T08:34:49Z</time>
      </trkpt>
      <trkpt lat="44.43967" lon="1.46908">
        <ele>270.8</ele>
        <time>2021-08-16T08:34:50Z</time>
      </trkpt>
      <trkpt lat="44.43974" lon="1.46907">
        <ele>270.7</ele>
        <time>2021-08-16T08:34:52Z</time>
      </trkpt>
      <trkpt lat="44.43979" lon="1.46907">
        <ele>270.7</ele>
        <time>2021-08-16T08:34:53Z</time>
      </trkpt>
      <trkpt lat="44.43983" lon="1.46908">
        <ele>270.6</ele>
        <time>2021-08-16T08:34:54Z</time>
      </trkpt>
      <trkpt lat="44.43986" lon="1.46907">
        <ele>270.6</ele>
        <time>2021-08-16T08:34:55Z</time>
      </trkpt>
      <trkpt lat="44.4399" lon="1.46907">
        <ele>270.6</ele>
        <time>2021-08-16T08:34:56Z</time>
      </trkpt>
      <trkpt lat="44.43996" lon="1.46906">
        <ele>270.6</ele>
        <time>2021-08-16T08:34:58Z</time>
      </trkpt>
      <trkpt lat="44.44" lon="1.46905">
        <ele>270.6</ele>
        <time>2021-08-16T08:34:59Z</time>
      </trkpt>
      <trkpt lat="44.44006" lon="1.46899">
        <ele>270.7</ele>
        <time>2021-08-16T08:35:01Z</time>
      </trkpt>
      <trkpt lat="44.44009" lon="1.46895">
        <ele>270.7</ele>
        <time>2021-08-16T08:35:02Z</time>
      </trkpt>
      <trkpt lat="44.44014" lon="1.46889">
        <ele>270.6</ele>
        <time>2021-08-16T08:35:04Z</time>
      </trkpt>
      <trkpt lat="44.44018" lon="1.46884">
        <ele>270.5</ele>
        <time>2021-08-16T08:35:06Z</time>
      </trkpt>
      <trkpt lat="44.4402" lon="1.46882">
        <ele>270.4</ele>
        <time>2021-08-16T08:35:07Z</time>
      </trkpt>
      <trkpt lat="44.44023" lon="1.46879">
        <ele>270.3</ele>
        <time>2021-08-16T08:35:09Z</time>
      </trkpt>
      <trkpt lat="44.44025" lon="1.46878">
        <ele>270.3</ele>
        <time>2021-08-16T08:35:10Z</time>
      </trkpt>
      <trkpt lat="44.44029" lon="1.46877">
        <ele>270.2</ele>
        <time>2021-08-16T08:35:12Z</time>
      </trkpt>
      <trkpt lat="44.44032" lon="1.46876">
        <ele>270.1</ele>
        <time>2021-08-16T08:35:13Z</time>
      </trkpt>
      <trkpt lat="44.44035" lon="1.46876">
        <ele>270.1</ele>
        <time>2021-08-16T08:35:14Z</time>
      </trkpt>
      <trkpt lat="44.4404" lon="1.46876">
        <ele>269.9</ele>
        <time>2021-08-16T08:35:16Z</time>
      </trkpt>
      <trkpt lat="44.44044" lon="1.46876">
        <ele>269.9</ele>
        <time>2021-08-16T08:35:17Z</time>
      </trkpt>
      <trkpt lat="44.4405" lon="1.46876">
        <ele>269.7</ele>
        <time>2021-08-16T08:35:18Z</time>
      </trkpt>
      <trkpt lat="44.44056" lon="1.46876">
        <ele>269.6</ele>
        <time>2021-08-16T08:35:20Z</time>
      </trkpt>
      <trkpt lat="44.44061" lon="1.46876">
        <ele>269.5</ele>
        <time>2021-08-16T08:35:21Z</time>
      </trkpt>
      <trkpt lat="44.44067" lon="1.46875">
        <ele>269.5</ele>
        <time>2021-08-16T08:35:23Z</time>
      </trkpt>
      <trkpt lat="44.44071" lon="1.46874">
        <ele>269.4</ele>
        <time>2021-08-16T08:35:24Z</time>
      </trkpt>
      <trkpt lat="44.44072" lon="1.46874">
        <ele>269.4</ele>
        <time>2021-08-16T08:35:25Z</time>
      </trkpt>
      <trkpt lat="44.44075" lon="1.46874">
        <ele>269.4</ele>
        <time>2021-08-16T08:35:26Z</time>
      </trkpt>
      <trkpt lat="44.4408" lon="1.46874">
        <ele>269.3</ele>
        <time>2021-08-16T08:35:28Z</time>
      </trkpt>
      <trkpt lat="44.44087" lon="1.46874">
        <ele>269.2</ele>
        <time>2021-08-16T08:35:30Z</time>
      </trkpt>
      <trkpt lat="44.44094" lon="1.46872">
        <ele>269.1</ele>
        <time>2021-08-16T08:35:32Z</time>
      </trkpt>
      <trkpt lat="44.44098" lon="1.46872">
        <ele>269.1</ele>
        <time>2021-08-16T08:35:33Z</time>
      </trkpt>
      <trkpt lat="44.44102" lon="1.46872">
        <ele>269</ele>
        <time>2021-08-16T08:35:34Z</time>
      </trkpt>
      <trkpt lat="44.44105" lon="1.46873">
        <ele>269</ele>
        <time>2021-08-16T08:35:35Z</time>
      </trkpt>
      <trkpt lat="44.44111" lon="1.46876">
        <ele>268.9</ele>
        <time>2021-08-16T08:35:37Z</time>
      </trkpt>
      <trkpt lat="44.44115" lon="1.46875">
        <ele>268.8</ele>
        <time>2021-08-16T08:35:38Z</time>
      </trkpt>
      <trkpt lat="44.4412" lon="1.46875">
        <ele>268.8</ele>
        <time>2021-08-16T08:35:39Z</time>
      </trkpt>
      <trkpt lat="44.44126" lon="1.46872">
        <ele>268.7</ele>
        <time>2021-08-16T08:35:41Z</time>
      </trkpt>
      <trkpt lat="44.4413" lon="1.46868">
        <ele>268.6</ele>
        <time>2021-08-16T08:35:42Z</time>
      </trkpt>
      <trkpt lat="44.44132" lon="1.46865">
        <ele>268.6</ele>
        <time>2021-08-16T08:35:43Z</time>
      </trkpt>
      <trkpt lat="44.44134" lon="1.46862">
        <ele>268.5</ele>
        <time>2021-08-16T08:35:44Z</time>
      </trkpt>
      <trkpt lat="44.44136" lon="1.46858">
        <ele>268.4</ele>
        <time>2021-08-16T08:35:46Z</time>
      </trkpt>
      <trkpt lat="44.44139" lon="1.46854">
        <ele>268.3</ele>
        <time>2021-08-16T08:35:47Z</time>
      </trkpt>
      <trkpt lat="44.4414" lon="1.46851">
        <ele>268.3</ele>
        <time>2021-08-16T08:35:48Z</time>
      </trkpt>
      <trkpt lat="44.44143" lon="1.46847">
        <ele>268.2</ele>
        <time>2021-08-16T08:35:49Z</time>
      </trkpt>
      <trkpt lat="44.44144" lon="1.46846">
        <ele>268.1</ele>
        <time>2021-08-16T08:35:50Z</time>
      </trkpt>
      <trkpt lat="44.44147" lon="1.46842">
        <ele>268</ele>
        <time>2021-08-16T08:35:51Z</time>
      </trkpt>
      <trkpt lat="44.44149" lon="1.46839">
        <ele>267.9</ele>
        <time>2021-08-16T08:35:52Z</time>
      </trkpt>
      <trkpt lat="44.44152" lon="1.46835">
        <ele>267.7</ele>
        <time>2021-08-16T08:35:54Z</time>
      </trkpt>
      <trkpt lat="44.44156" lon="1.46831">
        <ele>267.6</ele>
        <time>2021-08-16T08:35:55Z</time>
      </trkpt>
      <trkpt lat="44.44159" lon="1.46827">
        <ele>267.4</ele>
        <time>2021-08-16T08:35:56Z</time>
      </trkpt>
      <trkpt lat="44.44161" lon="1.46821">
        <ele>267.1</ele>
        <time>2021-08-16T08:35:58Z</time>
      </trkpt>
      <trkpt lat="44.44162" lon="1.46814">
        <ele>266.9</ele>
        <time>2021-08-16T08:35:59Z</time>
      </trkpt>
      <trkpt lat="44.44162" lon="1.46805">
        <ele>266.6</ele>
        <time>2021-08-16T08:36:00Z</time>
      </trkpt>
      <trkpt lat="44.44162" lon="1.46797">
        <ele>266.3</ele>
        <time>2021-08-16T08:36:01Z</time>
      </trkpt>
      <trkpt lat="44.44163" lon="1.46787">
        <ele>265.9</ele>
        <time>2021-08-16T08:36:02Z</time>
      </trkpt>
      <trkpt lat="44.44164" lon="1.46771">
        <ele>265.4</ele>
        <time>2021-08-16T08:36:04Z</time>
      </trkpt>
      <trkpt lat="44.44164" lon="1.46753">
        <ele>265</ele>
        <time>2021-08-16T08:36:06Z</time>
      </trkpt>
      <trkpt lat="44.44162" lon="1.46745">
        <ele>264.9</ele>
        <time>2021-08-16T08:36:07Z</time>
      </trkpt>
      <trkpt lat="44.4416" lon="1.46737">
        <ele>264.9</ele>
        <time>2021-08-16T08:36:08Z</time>
      </trkpt>
      <trkpt lat="44.4416" lon="1.46723">
        <ele>264.8</ele>
        <time>2021-08-16T08:36:10Z</time>
      </trkpt>
      <trkpt lat="44.44162" lon="1.46717">
        <ele>264.7</ele>
        <time>2021-08-16T08:36:11Z</time>
      </trkpt>
      <trkpt lat="44.44169" lon="1.46706">
        <ele>264.5</ele>
        <time>2021-08-16T08:36:13Z</time>
      </trkpt>
      <trkpt lat="44.44174" lon="1.467">
        <ele>264.3</ele>
        <time>2021-08-16T08:36:14Z</time>
      </trkpt>
      <trkpt lat="44.44182" lon="1.46691">
        <ele>264</ele>
        <time>2021-08-16T08:36:16Z</time>
      </trkpt>
      <trkpt lat="44.44186" lon="1.46685">
        <ele>263.9</ele>
        <time>2021-08-16T08:36:17Z</time>
      </trkpt>
      <trkpt lat="44.4419" lon="1.4667">
        <ele>263.9</ele>
        <time>2021-08-16T08:36:19Z</time>
      </trkpt>
      <trkpt lat="44.44192" lon="1.46661">
        <ele>264.1</ele>
        <time>2021-08-16T08:36:20Z</time>
      </trkpt>
      <trkpt lat="44.44193" lon="1.46646">
        <ele>264.4</ele>
        <time>2021-08-16T08:36:22Z</time>
      </trkpt>
      <trkpt lat="44.44195" lon="1.46636">
        <ele>264.6</ele>
        <time>2021-08-16T08:36:24Z</time>
      </trkpt>
      <trkpt lat="44.44196" lon="1.46632">
        <ele>264.7</ele>
        <time>2021-08-16T08:36:25Z</time>
      </trkpt>
      <trkpt lat="44.44197" lon="1.46628">
        <ele>264.8</ele>
        <time>2021-08-16T08:36:26Z</time>
      </trkpt>
      <trkpt lat="44.44198" lon="1.46621">
        <ele>265.1</ele>
        <time>2021-08-16T08:36:28Z</time>
      </trkpt>
      <trkpt lat="44.44199" lon="1.46614">
        <ele>265.4</ele>
        <time>2021-08-16T08:36:30Z</time>
      </trkpt>
      <trkpt lat="44.44201" lon="1.46611">
        <ele>265.5</ele>
        <time>2021-08-16T08:36:31Z</time>
      </trkpt>
      <trkpt lat="44.44201" lon="1.46601">
        <ele>265.9</ele>
        <time>2021-08-16T08:36:33Z</time>
      </trkpt>
      <trkpt lat="44.442" lon="1.46593">
        <ele>266.1</ele>
        <time>2021-08-16T08:36:34Z</time>
      </trkpt>
      <trkpt lat="44.442" lon="1.46589">
        <ele>266.2</ele>
        <time>2021-08-16T08:36:35Z</time>
      </trkpt>
      <trkpt lat="44.442" lon="1.46585">
        <ele>266.3</ele>
        <time>2021-08-16T08:36:37Z</time>
      </trkpt>
      <trkpt lat="44.442" lon="1.46584">
        <ele>266.3</ele>
        <time>2021-08-16T08:36:38Z</time>
      </trkpt>
      <trkpt lat="44.442" lon="1.46584">
        <ele>266.3</ele>
        <time>2021-08-16T08:36:40Z</time>
      </trkpt>
      <trkpt lat="44.44201" lon="1.46585">
        <ele>266.3</ele>
        <time>2021-08-16T08:36:41Z</time>
      </trkpt>
      <trkpt lat="44.44203" lon="1.46583">
        <ele>266.4</ele>
        <time>2021-08-16T08:36:42Z</time>
      </trkpt>
      <trkpt lat="44.44205" lon="1.4658">
        <ele>266.4</ele>
        <time>2021-08-16T08:36:43Z</time>
      </trkpt>
      <trkpt lat="44.44206" lon="1.46577">
        <ele>266.5</ele>
        <time>2021-08-16T08:36:44Z</time>
      </trkpt>
      <trkpt lat="44.44207" lon="1.46577">
        <ele>266.5</ele>
        <time>2021-08-16T08:36:46Z</time>
      </trkpt>
      <trkpt lat="44.44207" lon="1.46577">
        <ele>266.5</ele>
        <time>2021-08-16T08:36:47Z</time>
      </trkpt>
      <trkpt lat="44.44208" lon="1.46575">
        <ele>266.5</ele>
        <time>2021-08-16T08:36:48Z</time>
      </trkpt>
      <trkpt lat="44.44209" lon="1.46573">
        <ele>266.6</ele>
        <time>2021-08-16T08:36:50Z</time>
      </trkpt>
      <trkpt lat="44.4421" lon="1.46572">
        <ele>266.6</ele>
        <time>2021-08-16T08:36:52Z</time>
      </trkpt>
      <trkpt lat="44.44211" lon="1.4657">
        <ele>266.6</ele>
        <time>2021-08-16T08:36:53Z</time>
      </trkpt>
      <trkpt lat="44.44212" lon="1.46568">
        <ele>266.6</ele>
        <time>2021-08-16T08:37:02Z</time>
      </trkpt>
      <trkpt lat="44.44213" lon="1.46567">
        <ele>266.6</ele>
        <time>2021-08-16T08:37:03Z</time>
      </trkpt>
      <trkpt lat="44.44216" lon="1.46562">
        <ele>266.7</ele>
        <time>2021-08-16T08:37:04Z</time>
      </trkpt>
      <trkpt lat="44.4422" lon="1.46555">
        <ele>266.8</ele>
        <time>2021-08-16T08:37:06Z</time>
      </trkpt>
      <trkpt lat="44.44222" lon="1.4655">
        <ele>266.8</ele>
        <time>2021-08-16T08:37:07Z</time>
      </trkpt>
      <trkpt lat="44.44226" lon="1.46541">
        <ele>266.9</ele>
        <time>2021-08-16T08:37:09Z</time>
      </trkpt>
      <trkpt lat="44.44229" lon="1.46536">
        <ele>267</ele>
        <time>2021-08-16T08:37:10Z</time>
      </trkpt>
      <trkpt lat="44.44231" lon="1.4653">
        <ele>267.1</ele>
        <time>2021-08-16T08:37:12Z</time>
      </trkpt>
      <trkpt lat="44.44233" lon="1.46526">
        <ele>267.2</ele>
        <time>2021-08-16T08:37:13Z</time>
      </trkpt>
      <trkpt lat="44.44234" lon="1.46522">
        <ele>267.3</ele>
        <time>2021-08-16T08:37:14Z</time>
      </trkpt>
      <trkpt lat="44.44236" lon="1.46516">
        <ele>267.4</ele>
        <time>2021-08-16T08:37:16Z</time>
      </trkpt>
      <trkpt lat="44.44238" lon="1.46513">
        <ele>267.5</ele>
        <time>2021-08-16T08:37:17Z</time>
      </trkpt>
      <trkpt lat="44.44239" lon="1.4651">
        <ele>267.5</ele>
        <time>2021-08-16T08:37:18Z</time>
      </trkpt>
      <trkpt lat="44.44241" lon="1.46505">
        <ele>267.6</ele>
        <time>2021-08-16T08:37:20Z</time>
      </trkpt>
      <trkpt lat="44.44242" lon="1.46503">
        <ele>267.7</ele>
        <time>2021-08-16T08:37:21Z</time>
      </trkpt>
      <trkpt lat="44.44246" lon="1.465">
        <ele>267.8</ele>
        <time>2021-08-16T08:37:23Z</time>
      </trkpt>
      <trkpt lat="44.44247" lon="1.46497">
        <ele>267.9</ele>
        <time>2021-08-16T08:37:24Z</time>
      </trkpt>
      <trkpt lat="44.4425" lon="1.46495">
        <ele>267.9</ele>
        <time>2021-08-16T08:37:26Z</time>
      </trkpt>
      <trkpt lat="44.44251" lon="1.46493">
        <ele>267.9</ele>
        <time>2021-08-16T08:37:27Z</time>
      </trkpt>
      <trkpt lat="44.44255" lon="1.46487">
        <ele>267.8</ele>
        <time>2021-08-16T08:37:29Z</time>
      </trkpt>
      <trkpt lat="44.44257" lon="1.4648">
        <ele>267.7</ele>
        <time>2021-08-16T08:37:30Z</time>
      </trkpt>
      <trkpt lat="44.44258" lon="1.46476">
        <ele>267.9</ele>
        <time>2021-08-16T08:37:31Z</time>
      </trkpt>
      <trkpt lat="44.44259" lon="1.4647">
        <ele>268.1</ele>
        <time>2021-08-16T08:37:33Z</time>
      </trkpt>
      <trkpt lat="44.4426" lon="1.46465">
        <ele>268.7</ele>
        <time>2021-08-16T08:37:34Z</time>
      </trkpt>
      <trkpt lat="44.44262" lon="1.46462">
        <ele>268.6</ele>
        <time>2021-08-16T08:37:35Z</time>
      </trkpt>
      <trkpt lat="44.44263" lon="1.46457">
        <ele>269.1</ele>
        <time>2021-08-16T08:37:36Z</time>
      </trkpt>
      <trkpt lat="44.44264" lon="1.46452">
        <ele>269.2</ele>
        <time>2021-08-16T08:37:38Z</time>
      </trkpt>
      <trkpt lat="44.44265" lon="1.46447">
        <ele>269.5</ele>
        <time>2021-08-16T08:37:39Z</time>
      </trkpt>
      <trkpt lat="44.44266" lon="1.46444">
        <ele>269.6</ele>
        <time>2021-08-16T08:37:40Z</time>
      </trkpt>
      <trkpt lat="44.44268" lon="1.46439">
        <ele>269.8</ele>
        <time>2021-08-16T08:37:42Z</time>
      </trkpt>
      <trkpt lat="44.44268" lon="1.46436">
        <ele>269.8</ele>
        <time>2021-08-16T08:37:43Z</time>
      </trkpt>
      <trkpt lat="44.4427" lon="1.46431">
        <ele>270</ele>
        <time>2021-08-16T08:37:45Z</time>
      </trkpt>
      <trkpt lat="44.44272" lon="1.46427">
        <ele>270</ele>
        <time>2021-08-16T08:37:46Z</time>
      </trkpt>
      <trkpt lat="44.44274" lon="1.46425">
        <ele>270.1</ele>
        <time>2021-08-16T08:37:47Z</time>
      </trkpt>
      <trkpt lat="44.44278" lon="1.4642">
        <ele>270.1</ele>
        <time>2021-08-16T08:37:49Z</time>
      </trkpt>
      <trkpt lat="44.4428" lon="1.46417">
        <ele>270.1</ele>
        <time>2021-08-16T08:37:50Z</time>
      </trkpt>
      <trkpt lat="44.44282" lon="1.46414">
        <ele>270.1</ele>
        <time>2021-08-16T08:37:51Z</time>
      </trkpt>
      <trkpt lat="44.44284" lon="1.46411">
        <ele>270</ele>
        <time>2021-08-16T08:37:53Z</time>
      </trkpt>
      <trkpt lat="44.44288" lon="1.46408">
        <ele>270</ele>
        <time>2021-08-16T08:37:54Z</time>
      </trkpt>
      <trkpt lat="44.4429" lon="1.46406">
        <ele>269.8</ele>
        <time>2021-08-16T08:37:55Z</time>
      </trkpt>
      <trkpt lat="44.44293" lon="1.46403">
        <ele>269.8</ele>
        <time>2021-08-16T08:37:56Z</time>
      </trkpt>
      <trkpt lat="44.44296" lon="1.464">
        <ele>269.7</ele>
        <time>2021-08-16T08:37:57Z</time>
      </trkpt>
      <trkpt lat="44.44301" lon="1.46396">
        <ele>269.6</ele>
        <time>2021-08-16T08:37:59Z</time>
      </trkpt>
      <trkpt lat="44.44305" lon="1.46392">
        <ele>269.6</ele>
        <time>2021-08-16T08:38:00Z</time>
      </trkpt>
      <trkpt lat="44.4431" lon="1.46387">
        <ele>269.5</ele>
        <time>2021-08-16T08:38:02Z</time>
      </trkpt>
      <trkpt lat="44.44314" lon="1.46383">
        <ele>269.5</ele>
        <time>2021-08-16T08:38:03Z</time>
      </trkpt>
      <trkpt lat="44.44317" lon="1.46379">
        <ele>269.4</ele>
        <time>2021-08-16T08:38:04Z</time>
      </trkpt>
      <trkpt lat="44.44322" lon="1.46373">
        <ele>269.2</ele>
        <time>2021-08-16T08:38:06Z</time>
      </trkpt>
      <trkpt lat="44.44325" lon="1.46368">
        <ele>269</ele>
        <time>2021-08-16T08:38:07Z</time>
      </trkpt>
      <trkpt lat="44.44328" lon="1.46364">
        <ele>269</ele>
        <time>2021-08-16T08:38:08Z</time>
      </trkpt>
      <trkpt lat="44.4433" lon="1.4636">
        <ele>268.7</ele>
        <time>2021-08-16T08:38:09Z</time>
      </trkpt>
      <trkpt lat="44.44333" lon="1.46356">
        <ele>268.4</ele>
        <time>2021-08-16T08:38:11Z</time>
      </trkpt>
      <trkpt lat="44.44335" lon="1.46352">
        <ele>268</ele>
        <time>2021-08-16T08:38:12Z</time>
      </trkpt>
      <trkpt lat="44.44337" lon="1.46348">
        <ele>267.6</ele>
        <time>2021-08-16T08:38:13Z</time>
      </trkpt>
      <trkpt lat="44.44339" lon="1.46343">
        <ele>267.4</ele>
        <time>2021-08-16T08:38:14Z</time>
      </trkpt>
      <trkpt lat="44.4434" lon="1.46337">
        <ele>267.2</ele>
        <time>2021-08-16T08:38:15Z</time>
      </trkpt>
      <trkpt lat="44.44341" lon="1.46332">
        <ele>266.5</ele>
        <time>2021-08-16T08:38:17Z</time>
      </trkpt>
      <trkpt lat="44.44342" lon="1.46328">
        <ele>266.2</ele>
        <time>2021-08-16T08:38:18Z</time>
      </trkpt>
      <trkpt lat="44.44338" lon="1.46325">
        <ele>266.5</ele>
        <time>2021-08-16T08:38:20Z</time>
      </trkpt>
      <trkpt lat="44.44336" lon="1.46325">
        <ele>266.8</ele>
        <time>2021-08-16T08:38:21Z</time>
      </trkpt>
      <trkpt lat="44.44334" lon="1.46324">
        <ele>266.6</ele>
        <time>2021-08-16T08:38:23Z</time>
      </trkpt>
      <trkpt lat="44.44333" lon="1.46325">
        <ele>267.1</ele>
        <time>2021-08-16T08:38:25Z</time>
      </trkpt>
      <trkpt lat="44.44332" lon="1.46325">
        <ele>267</ele>
        <time>2021-08-16T08:38:26Z</time>
      </trkpt>
      <trkpt lat="44.4433" lon="1.46327">
        <ele>267.3</ele>
        <time>2021-08-16T08:38:28Z</time>
      </trkpt>
      <trkpt lat="44.44325" lon="1.46329">
        <ele>267.7</ele>
        <time>2021-08-16T08:38:30Z</time>
      </trkpt>
      <trkpt lat="44.44321" lon="1.46333">
        <ele>268.2</ele>
        <time>2021-08-16T08:38:31Z</time>
      </trkpt>
      <trkpt lat="44.44317" lon="1.46334">
        <ele>268.3</ele>
        <time>2021-08-16T08:38:33Z</time>
      </trkpt>
      <trkpt lat="44.44314" lon="1.46337">
        <ele>268.4</ele>
        <time>2021-08-16T08:38:34Z</time>
      </trkpt>
      <trkpt lat="44.44313" lon="1.46337">
        <ele>268.5</ele>
        <time>2021-08-16T08:38:35Z</time>
      </trkpt>
      <trkpt lat="44.44311" lon="1.46338">
        <ele>268.6</ele>
        <time>2021-08-16T08:38:37Z</time>
      </trkpt>
      <trkpt lat="44.44311" lon="1.46339">
        <ele>268.6</ele>
        <time>2021-08-16T08:38:38Z</time>
      </trkpt>
      <trkpt lat="44.44311" lon="1.46339">
        <ele>268.6</ele>
        <time>2021-08-16T08:38:40Z</time>
      </trkpt>
      <trkpt lat="44.44311" lon="1.46338">
        <ele>268.5</ele>
        <time>2021-08-16T08:38:41Z</time>
      </trkpt>
      <trkpt lat="44.4431" lon="1.46338">
        <ele>268.5</ele>
        <time>2021-08-16T08:38:43Z</time>
      </trkpt>
      <trkpt lat="44.4431" lon="1.46338">
        <ele>268.5</ele>
        <time>2021-08-16T08:38:44Z</time>
      </trkpt>
      <trkpt lat="44.4431" lon="1.46338">
        <ele>268.5</ele>
        <time>2021-08-16T08:38:46Z</time>
      </trkpt>
      <trkpt lat="44.44311" lon="1.46335">
        <ele>268.3</ele>
        <time>2021-08-16T08:38:48Z</time>
      </trkpt>
      <trkpt lat="44.44309" lon="1.4633">
        <ele>268.3</ele>
        <time>2021-08-16T08:38:50Z</time>
      </trkpt>
      <trkpt lat="44.44308" lon="1.46324">
        <ele>268</ele>
        <time>2021-08-16T08:38:51Z</time>
      </trkpt>
      <trkpt lat="44.44306" lon="1.46315">
        <ele>267.7</ele>
        <time>2021-08-16T08:38:53Z</time>
      </trkpt>
      <trkpt lat="44.44304" lon="1.4631">
        <ele>267.5</ele>
        <time>2021-08-16T08:38:54Z</time>
      </trkpt>
      <trkpt lat="44.44303" lon="1.46303">
        <ele>267.3</ele>
        <time>2021-08-16T08:38:56Z</time>
      </trkpt>
      <trkpt lat="44.443" lon="1.46297">
        <ele>266.9</ele>
        <time>2021-08-16T08:38:57Z</time>
      </trkpt>
      <trkpt lat="44.44298" lon="1.46293">
        <ele>266.6</ele>
        <time>2021-08-16T08:38:58Z</time>
      </trkpt>
      <trkpt lat="44.44291" lon="1.46282">
        <ele>266.3</ele>
        <time>2021-08-16T08:39:00Z</time>
      </trkpt>
      <trkpt lat="44.44287" lon="1.46277">
        <ele>266</ele>
        <time>2021-08-16T08:39:01Z</time>
      </trkpt>
      <trkpt lat="44.44282" lon="1.46272">
        <ele>265.5</ele>
        <time>2021-08-16T08:39:02Z</time>
      </trkpt>
      <trkpt lat="44.44276" lon="1.46267">
        <ele>265.2</ele>
        <time>2021-08-16T08:39:03Z</time>
      </trkpt>
      <trkpt lat="44.4427" lon="1.46252">
        <ele>264.4</ele>
        <time>2021-08-16T08:39:05Z</time>
      </trkpt>
      <trkpt lat="44.44266" lon="1.46236">
        <ele>263.6</ele>
        <time>2021-08-16T08:39:07Z</time>
      </trkpt>
      <trkpt lat="44.44262" lon="1.46228">
        <ele>263.3</ele>
        <time>2021-08-16T08:39:08Z</time>
      </trkpt>
      <trkpt lat="44.44256" lon="1.46211">
        <ele>262.7</ele>
        <time>2021-08-16T08:39:10Z</time>
      </trkpt>
      <trkpt lat="44.44252" lon="1.46203">
        <ele>262.4</ele>
        <time>2021-08-16T08:39:11Z</time>
      </trkpt>
      <trkpt lat="44.4425" lon="1.46195">
        <ele>262.2</ele>
        <time>2021-08-16T08:39:12Z</time>
      </trkpt>
      <trkpt lat="44.44246" lon="1.46181">
        <ele>262</ele>
        <time>2021-08-16T08:39:14Z</time>
      </trkpt>
      <trkpt lat="44.44241" lon="1.46167">
        <ele>261.7</ele>
        <time>2021-08-16T08:39:16Z</time>
      </trkpt>
      <trkpt lat="44.44233" lon="1.46152">
        <ele>261.4</ele>
        <time>2021-08-16T08:39:18Z</time>
      </trkpt>
      <trkpt lat="44.4423" lon="1.46143">
        <ele>261.2</ele>
        <time>2021-08-16T08:39:19Z</time>
      </trkpt>
      <trkpt lat="44.44227" lon="1.46135">
        <ele>261.1</ele>
        <time>2021-08-16T08:39:20Z</time>
      </trkpt>
      <trkpt lat="44.44226" lon="1.46124">
        <ele>260.8</ele>
        <time>2021-08-16T08:39:22Z</time>
      </trkpt>
      <trkpt lat="44.44225" lon="1.46122">
        <ele>260.8</ele>
        <time>2021-08-16T08:39:23Z</time>
      </trkpt>
      <trkpt lat="44.44225" lon="1.46123">
        <ele>260.7</ele>
        <time>2021-08-16T08:39:24Z</time>
      </trkpt>
      <trkpt lat="44.44225" lon="1.46123">
        <ele>260.7</ele>
        <time>2021-08-16T08:39:26Z</time>
      </trkpt>
      <trkpt lat="44.44226" lon="1.46123">
        <ele>260.7</ele>
        <time>2021-08-16T08:39:28Z</time>
      </trkpt>
      <trkpt lat="44.44226" lon="1.46123">
        <ele>260.7</ele>
        <time>2021-08-16T08:39:29Z</time>
      </trkpt>
      <trkpt lat="44.44225" lon="1.46123">
        <ele>260.7</ele>
        <time>2021-08-16T08:39:31Z</time>
      </trkpt>
      <trkpt lat="44.44225" lon="1.46123">
        <ele>260.7</ele>
        <time>2021-08-16T08:39:32Z</time>
      </trkpt>
      <trkpt lat="44.44226" lon="1.46123">
        <ele>260.7</ele>
        <time>2021-08-16T08:39:33Z</time>
      </trkpt>
      <trkpt lat="44.44228" lon="1.4612">
        <ele>260.6</ele>
        <time>2021-08-16T08:39:43Z</time>
      </trkpt>
      <trkpt lat="44.44228" lon="1.46116">
        <ele>260.4</ele>
        <time>2021-08-16T08:39:44Z</time>
      </trkpt>
      <trkpt lat="44.44228" lon="1.46111">
        <ele>260.3</ele>
        <time>2021-08-16T08:39:45Z</time>
      </trkpt>
      <trkpt lat="44.44227" lon="1.46105">
        <ele>260.1</ele>
        <time>2021-08-16T08:39:47Z</time>
      </trkpt>
      <trkpt lat="44.44227" lon="1.46099">
        <ele>259.9</ele>
        <time>2021-08-16T08:39:48Z</time>
      </trkpt>
      <trkpt lat="44.44228" lon="1.46091">
        <ele>259.7</ele>
        <time>2021-08-16T08:39:50Z</time>
      </trkpt>
      <trkpt lat="44.44229" lon="1.46085">
        <ele>259.5</ele>
        <time>2021-08-16T08:39:51Z</time>
      </trkpt>
      <trkpt lat="44.4423" lon="1.46077">
        <ele>259.2</ele>
        <time>2021-08-16T08:39:52Z</time>
      </trkpt>
      <trkpt lat="44.4423" lon="1.46071">
        <ele>259.1</ele>
        <time>2021-08-16T08:39:53Z</time>
      </trkpt>
      <trkpt lat="44.44229" lon="1.46064">
        <ele>258.9</ele>
        <time>2021-08-16T08:39:55Z</time>
      </trkpt>
      <trkpt lat="44.4423" lon="1.46059">
        <ele>258.8</ele>
        <time>2021-08-16T08:39:56Z</time>
      </trkpt>
      <trkpt lat="44.4423" lon="1.46055">
        <ele>258.7</ele>
        <time>2021-08-16T08:39:57Z</time>
      </trkpt>
      <trkpt lat="44.44231" lon="1.46051">
        <ele>258.6</ele>
        <time>2021-08-16T08:39:59Z</time>
      </trkpt>
      <trkpt lat="44.44231" lon="1.46046">
        <ele>258.6</ele>
        <time>2021-08-16T08:40:00Z</time>
      </trkpt>
      <trkpt lat="44.44231" lon="1.46042">
        <ele>258.5</ele>
        <time>2021-08-16T08:40:01Z</time>
      </trkpt>
      <trkpt lat="44.44232" lon="1.46036">
        <ele>258.3</ele>
        <time>2021-08-16T08:40:02Z</time>
      </trkpt>
      <trkpt lat="44.44232" lon="1.46032">
        <ele>258.3</ele>
        <time>2021-08-16T08:40:04Z</time>
      </trkpt>
      <trkpt lat="44.44233" lon="1.46027">
        <ele>258.2</ele>
        <time>2021-08-16T08:40:05Z</time>
      </trkpt>
      <trkpt lat="44.44233" lon="1.46023">
        <ele>258.1</ele>
        <time>2021-08-16T08:40:06Z</time>
      </trkpt>
      <trkpt lat="44.44233" lon="1.46022">
        <ele>258.1</ele>
        <time>2021-08-16T08:40:07Z</time>
      </trkpt>
      <trkpt lat="44.44234" lon="1.46021">
        <ele>258</ele>
        <time>2021-08-16T08:40:08Z</time>
      </trkpt>
      <trkpt lat="44.44234" lon="1.46021">
        <ele>258</ele>
        <time>2021-08-16T08:40:10Z</time>
      </trkpt>
      <trkpt lat="44.44234" lon="1.4602">
        <ele>258</ele>
        <time>2021-08-16T08:40:12Z</time>
      </trkpt>
      <trkpt lat="44.44234" lon="1.46019">
        <ele>258</ele>
        <time>2021-08-16T08:40:14Z</time>
      </trkpt>
      <trkpt lat="44.44234" lon="1.46018">
        <ele>258</ele>
        <time>2021-08-16T08:40:16Z</time>
      </trkpt>
      <trkpt lat="44.44234" lon="1.46017">
        <ele>258</ele>
        <time>2021-08-16T08:41:18Z</time>
      </trkpt>
      <trkpt lat="44.44234" lon="1.46016">
        <ele>257.9</ele>
        <time>2021-08-16T08:41:19Z</time>
      </trkpt>
      <trkpt lat="44.44234" lon="1.46015">
        <ele>257.9</ele>
        <time>2021-08-16T08:41:20Z</time>
      </trkpt>
      <trkpt lat="44.44234" lon="1.46008">
        <ele>257.8</ele>
        <time>2021-08-16T08:41:22Z</time>
      </trkpt>
      <trkpt lat="44.44235" lon="1.46003">
        <ele>257.7</ele>
        <time>2021-08-16T08:41:23Z</time>
      </trkpt>
      <trkpt lat="44.44235" lon="1.46001">
        <ele>257.6</ele>
        <time>2021-08-16T08:41:24Z</time>
      </trkpt>
      <trkpt lat="44.44236" lon="1.45999">
        <ele>257.6</ele>
        <time>2021-08-16T08:41:25Z</time>
      </trkpt>
      <trkpt lat="44.44236" lon="1.45996">
        <ele>257.5</ele>
        <time>2021-08-16T08:41:26Z</time>
      </trkpt>
      <trkpt lat="44.44237" lon="1.45991">
        <ele>257.4</ele>
        <time>2021-08-16T08:41:28Z</time>
      </trkpt>
      <trkpt lat="44.44238" lon="1.45986">
        <ele>257.3</ele>
        <time>2021-08-16T08:41:29Z</time>
      </trkpt>
      <trkpt lat="44.44238" lon="1.45984">
        <ele>257.3</ele>
        <time>2021-08-16T08:41:30Z</time>
      </trkpt>
      <trkpt lat="44.44239" lon="1.45979">
        <ele>257.2</ele>
        <time>2021-08-16T08:41:31Z</time>
      </trkpt>
      <trkpt lat="44.44239" lon="1.45975">
        <ele>257.2</ele>
        <time>2021-08-16T08:41:32Z</time>
      </trkpt>
      <trkpt lat="44.44239" lon="1.45966">
        <ele>257.2</ele>
        <time>2021-08-16T08:41:34Z</time>
      </trkpt>
      <trkpt lat="44.44239" lon="1.45961">
        <ele>257.2</ele>
        <time>2021-08-16T08:41:35Z</time>
      </trkpt>
      <trkpt lat="44.44239" lon="1.45953">
        <ele>257.2</ele>
        <time>2021-08-16T08:41:37Z</time>
      </trkpt>
      <trkpt lat="44.4424" lon="1.45948">
        <ele>257.2</ele>
        <time>2021-08-16T08:41:38Z</time>
      </trkpt>
      <trkpt lat="44.4424" lon="1.45939">
        <ele>257.3</ele>
        <time>2021-08-16T08:41:40Z</time>
      </trkpt>
      <trkpt lat="44.44239" lon="1.45931">
        <ele>257.4</ele>
        <time>2021-08-16T08:41:41Z</time>
      </trkpt>
      <trkpt lat="44.44239" lon="1.45924">
        <ele>257.5</ele>
        <time>2021-08-16T08:41:42Z</time>
      </trkpt>
      <trkpt lat="44.44239" lon="1.45918">
        <ele>257.5</ele>
        <time>2021-08-16T08:41:43Z</time>
      </trkpt>
      <trkpt lat="44.4424" lon="1.45911">
        <ele>257.6</ele>
        <time>2021-08-16T08:41:45Z</time>
      </trkpt>
      <trkpt lat="44.4424" lon="1.45905">
        <ele>257.6</ele>
        <time>2021-08-16T08:41:46Z</time>
      </trkpt>
      <trkpt lat="44.44241" lon="1.45899">
        <ele>257.6</ele>
        <time>2021-08-16T08:41:47Z</time>
      </trkpt>
      <trkpt lat="44.44241" lon="1.45894">
        <ele>257.6</ele>
        <time>2021-08-16T08:41:48Z</time>
      </trkpt>
      <trkpt lat="44.44242" lon="1.45885">
        <ele>257.6</ele>
        <time>2021-08-16T08:41:50Z</time>
      </trkpt>
      <trkpt lat="44.44243" lon="1.45878">
        <ele>257.6</ele>
        <time>2021-08-16T08:41:51Z</time>
      </trkpt>
      <trkpt lat="44.44243" lon="1.45871">
        <ele>257.6</ele>
        <time>2021-08-16T08:41:52Z</time>
      </trkpt>
      <trkpt lat="44.44243" lon="1.4586">
        <ele>257.6</ele>
        <time>2021-08-16T08:41:54Z</time>
      </trkpt>
      <trkpt lat="44.44244" lon="1.4585">
        <ele>257.7</ele>
        <time>2021-08-16T08:41:55Z</time>
      </trkpt>
      <trkpt lat="44.44244" lon="1.45843">
        <ele>257.7</ele>
        <time>2021-08-16T08:41:56Z</time>
      </trkpt>
      <trkpt lat="44.44243" lon="1.45835">
        <ele>257.8</ele>
        <time>2021-08-16T08:41:58Z</time>
      </trkpt>
      <trkpt lat="44.44243" lon="1.45828">
        <ele>257.9</ele>
        <time>2021-08-16T08:41:59Z</time>
      </trkpt>
      <trkpt lat="44.44244" lon="1.45817">
        <ele>258</ele>
        <time>2021-08-16T08:42:00Z</time>
      </trkpt>
      <trkpt lat="44.44244" lon="1.45809">
        <ele>258.1</ele>
        <time>2021-08-16T08:42:01Z</time>
      </trkpt>
      <trkpt lat="44.44244" lon="1.45802">
        <ele>258.2</ele>
        <time>2021-08-16T08:42:02Z</time>
      </trkpt>
      <trkpt lat="44.44244" lon="1.45799">
        <ele>258.2</ele>
        <time>2021-08-16T08:42:03Z</time>
      </trkpt>
      <trkpt lat="44.44246" lon="1.45783">
        <ele>258.4</ele>
        <time>2021-08-16T08:42:05Z</time>
      </trkpt>
      <trkpt lat="44.44247" lon="1.45777">
        <ele>258.5</ele>
        <time>2021-08-16T08:42:06Z</time>
      </trkpt>
      <trkpt lat="44.44248" lon="1.4577">
        <ele>258.5</ele>
        <time>2021-08-16T08:42:07Z</time>
      </trkpt>
      <trkpt lat="44.44249" lon="1.45764">
        <ele>258.6</ele>
        <time>2021-08-16T08:42:08Z</time>
      </trkpt>
      <trkpt lat="44.44251" lon="1.45754">
        <ele>258.8</ele>
        <time>2021-08-16T08:42:10Z</time>
      </trkpt>
      <trkpt lat="44.44253" lon="1.45747">
        <ele>258.9</ele>
        <time>2021-08-16T08:42:11Z</time>
      </trkpt>
      <trkpt lat="44.44257" lon="1.45732">
        <ele>259.3</ele>
        <time>2021-08-16T08:42:13Z</time>
      </trkpt>
      <trkpt lat="44.44258" lon="1.45726">
        <ele>259.4</ele>
        <time>2021-08-16T08:42:14Z</time>
      </trkpt>
      <trkpt lat="44.44262" lon="1.45714">
        <ele>259.7</ele>
        <time>2021-08-16T08:42:16Z</time>
      </trkpt>
      <trkpt lat="44.44264" lon="1.45709">
        <ele>259.8</ele>
        <time>2021-08-16T08:42:17Z</time>
      </trkpt>
      <trkpt lat="44.44266" lon="1.45701">
        <ele>260</ele>
        <time>2021-08-16T08:42:18Z</time>
      </trkpt>
      <trkpt lat="44.44267" lon="1.45695">
        <ele>260.1</ele>
        <time>2021-08-16T08:42:20Z</time>
      </trkpt>
      <trkpt lat="44.44268" lon="1.45688">
        <ele>260.3</ele>
        <time>2021-08-16T08:42:21Z</time>
      </trkpt>
      <trkpt lat="44.4427" lon="1.45681">
        <ele>260.5</ele>
        <time>2021-08-16T08:42:23Z</time>
      </trkpt>
      <trkpt lat="44.4427" lon="1.45677">
        <ele>260.6</ele>
        <time>2021-08-16T08:42:24Z</time>
      </trkpt>
      <trkpt lat="44.44271" lon="1.45672">
        <ele>260.7</ele>
        <time>2021-08-16T08:42:25Z</time>
      </trkpt>
      <trkpt lat="44.44271" lon="1.4567">
        <ele>260.7</ele>
        <time>2021-08-16T08:42:26Z</time>
      </trkpt>
      <trkpt lat="44.44272" lon="1.45665">
        <ele>260.8</ele>
        <time>2021-08-16T08:42:27Z</time>
      </trkpt>
      <trkpt lat="44.44274" lon="1.4566">
        <ele>261</ele>
        <time>2021-08-16T08:42:29Z</time>
      </trkpt>
      <trkpt lat="44.44275" lon="1.45654">
        <ele>261.1</ele>
        <time>2021-08-16T08:42:30Z</time>
      </trkpt>
      <trkpt lat="44.44276" lon="1.45649">
        <ele>261.2</ele>
        <time>2021-08-16T08:42:31Z</time>
      </trkpt>
      <trkpt lat="44.44278" lon="1.45643">
        <ele>261.4</ele>
        <time>2021-08-16T08:42:33Z</time>
      </trkpt>
      <trkpt lat="44.44279" lon="1.45636">
        <ele>261.6</ele>
        <time>2021-08-16T08:42:34Z</time>
      </trkpt>
      <trkpt lat="44.4428" lon="1.45631">
        <ele>261.8</ele>
        <time>2021-08-16T08:42:35Z</time>
      </trkpt>
      <trkpt lat="44.44281" lon="1.45626">
        <ele>262</ele>
        <time>2021-08-16T08:42:36Z</time>
      </trkpt>
      <trkpt lat="44.44281" lon="1.45621">
        <ele>262.2</ele>
        <time>2021-08-16T08:42:37Z</time>
      </trkpt>
      <trkpt lat="44.44281" lon="1.4561">
        <ele>262.6</ele>
        <time>2021-08-16T08:42:39Z</time>
      </trkpt>
      <trkpt lat="44.44282" lon="1.45605">
        <ele>262.8</ele>
        <time>2021-08-16T08:42:40Z</time>
      </trkpt>
      <trkpt lat="44.44281" lon="1.45595">
        <ele>263.2</ele>
        <time>2021-08-16T08:42:42Z</time>
      </trkpt>
      <trkpt lat="44.4428" lon="1.4559">
        <ele>263.4</ele>
        <time>2021-08-16T08:42:43Z</time>
      </trkpt>
      <trkpt lat="44.44279" lon="1.45585">
        <ele>263.6</ele>
        <time>2021-08-16T08:42:44Z</time>
      </trkpt>
      <trkpt lat="44.44278" lon="1.45578">
        <ele>263.9</ele>
        <time>2021-08-16T08:42:46Z</time>
      </trkpt>
      <trkpt lat="44.44276" lon="1.4557">
        <ele>264.2</ele>
        <time>2021-08-16T08:42:47Z</time>
      </trkpt>
      <trkpt lat="44.44274" lon="1.45565">
        <ele>264.3</ele>
        <time>2021-08-16T08:42:48Z</time>
      </trkpt>
      <trkpt lat="44.44273" lon="1.4556">
        <ele>264.5</ele>
        <time>2021-08-16T08:42:49Z</time>
      </trkpt>
      <trkpt lat="44.44271" lon="1.45553">
        <ele>264.6</ele>
        <time>2021-08-16T08:42:50Z</time>
      </trkpt>
      <trkpt lat="44.4427" lon="1.45547">
        <ele>264.7</ele>
        <time>2021-08-16T08:42:52Z</time>
      </trkpt>
      <trkpt lat="44.44269" lon="1.45541">
        <ele>264.7</ele>
        <time>2021-08-16T08:42:53Z</time>
      </trkpt>
      <trkpt lat="44.44269" lon="1.45534">
        <ele>264.8</ele>
        <time>2021-08-16T08:42:54Z</time>
      </trkpt>
      <trkpt lat="44.4427" lon="1.45529">
        <ele>264.8</ele>
        <time>2021-08-16T08:42:55Z</time>
      </trkpt>
      <trkpt lat="44.4427" lon="1.45524">
        <ele>264.8</ele>
        <time>2021-08-16T08:42:56Z</time>
      </trkpt>
      <trkpt lat="44.44273" lon="1.45517">
        <ele>264.7</ele>
        <time>2021-08-16T08:42:58Z</time>
      </trkpt>
      <trkpt lat="44.44274" lon="1.45511">
        <ele>264.7</ele>
        <time>2021-08-16T08:42:59Z</time>
      </trkpt>
      <trkpt lat="44.44276" lon="1.45506">
        <ele>264.6</ele>
        <time>2021-08-16T08:43:00Z</time>
      </trkpt>
      <trkpt lat="44.44278" lon="1.45496">
        <ele>264.4</ele>
        <time>2021-08-16T08:43:02Z</time>
      </trkpt>
      <trkpt lat="44.44278" lon="1.4549">
        <ele>264.2</ele>
        <time>2021-08-16T08:43:03Z</time>
      </trkpt>
      <trkpt lat="44.44278" lon="1.45483">
        <ele>264</ele>
        <time>2021-08-16T08:43:04Z</time>
      </trkpt>
      <trkpt lat="44.44279" lon="1.45475">
        <ele>263.8</ele>
        <time>2021-08-16T08:43:06Z</time>
      </trkpt>
      <trkpt lat="44.44281" lon="1.45465">
        <ele>263.4</ele>
        <time>2021-08-16T08:43:07Z</time>
      </trkpt>
      <trkpt lat="44.44282" lon="1.45458">
        <ele>263.2</ele>
        <time>2021-08-16T08:43:08Z</time>
      </trkpt>
      <trkpt lat="44.44283" lon="1.45445">
        <ele>262.8</ele>
        <time>2021-08-16T08:43:10Z</time>
      </trkpt>
      <trkpt lat="44.44283" lon="1.45438">
        <ele>262.6</ele>
        <time>2021-08-16T08:43:11Z</time>
      </trkpt>
      <trkpt lat="44.44284" lon="1.45431">
        <ele>262.4</ele>
        <time>2021-08-16T08:43:12Z</time>
      </trkpt>
      <trkpt lat="44.44284" lon="1.45416">
        <ele>262</ele>
        <time>2021-08-16T08:43:14Z</time>
      </trkpt>
      <trkpt lat="44.44284" lon="1.45401">
        <ele>261.5</ele>
        <time>2021-08-16T08:43:16Z</time>
      </trkpt>
      <trkpt lat="44.44284" lon="1.45393">
        <ele>261.3</ele>
        <time>2021-08-16T08:43:17Z</time>
      </trkpt>
      <trkpt lat="44.44286" lon="1.45375">
        <ele>260.8</ele>
        <time>2021-08-16T08:43:19Z</time>
      </trkpt>
      <trkpt lat="44.44288" lon="1.45366">
        <ele>260.7</ele>
        <time>2021-08-16T08:43:20Z</time>
      </trkpt>
      <trkpt lat="44.44291" lon="1.45347">
        <ele>260.2</ele>
        <time>2021-08-16T08:43:22Z</time>
      </trkpt>
      <trkpt lat="44.44291" lon="1.45338">
        <ele>260</ele>
        <time>2021-08-16T08:43:23Z</time>
      </trkpt>
      <trkpt lat="44.44292" lon="1.45321">
        <ele>259.7</ele>
        <time>2021-08-16T08:43:25Z</time>
      </trkpt>
      <trkpt lat="44.44292" lon="1.45312">
        <ele>259.6</ele>
        <time>2021-08-16T08:43:26Z</time>
      </trkpt>
      <trkpt lat="44.44294" lon="1.45296">
        <ele>259.2</ele>
        <time>2021-08-16T08:43:28Z</time>
      </trkpt>
      <trkpt lat="44.443" lon="1.4528">
        <ele>258.9</ele>
        <time>2021-08-16T08:43:30Z</time>
      </trkpt>
      <trkpt lat="44.44304" lon="1.45272">
        <ele>258.8</ele>
        <time>2021-08-16T08:43:31Z</time>
      </trkpt>
      <trkpt lat="44.44306" lon="1.45264">
        <ele>259</ele>
        <time>2021-08-16T08:43:32Z</time>
      </trkpt>
      <trkpt lat="44.44306" lon="1.45248">
        <ele>259.3</ele>
        <time>2021-08-16T08:43:34Z</time>
      </trkpt>
      <trkpt lat="44.44302" lon="1.45238">
        <ele>259.4</ele>
        <time>2021-08-16T08:43:36Z</time>
      </trkpt>
      <trkpt lat="44.44302" lon="1.45225">
        <ele>259.3</ele>
        <time>2021-08-16T08:43:38Z</time>
      </trkpt>
      <trkpt lat="44.44305" lon="1.45211">
        <ele>259.2</ele>
        <time>2021-08-16T08:43:40Z</time>
      </trkpt>
      <trkpt lat="44.44309" lon="1.452">
        <ele>259.1</ele>
        <time>2021-08-16T08:43:42Z</time>
      </trkpt>
      <trkpt lat="44.44312" lon="1.45189">
        <ele>258.9</ele>
        <time>2021-08-16T08:43:44Z</time>
      </trkpt>
      <trkpt lat="44.44314" lon="1.4518">
        <ele>258.9</ele>
        <time>2021-08-16T08:43:46Z</time>
      </trkpt>
      <trkpt lat="44.44315" lon="1.45173">
        <ele>258.8</ele>
        <time>2021-08-16T08:43:47Z</time>
      </trkpt>
      <trkpt lat="44.44316" lon="1.45167">
        <ele>258.8</ele>
        <time>2021-08-16T08:43:48Z</time>
      </trkpt>
      <trkpt lat="44.44317" lon="1.45158">
        <ele>258.8</ele>
        <time>2021-08-16T08:43:50Z</time>
      </trkpt>
      <trkpt lat="44.44319" lon="1.45152">
        <ele>258.8</ele>
        <time>2021-08-16T08:43:52Z</time>
      </trkpt>
      <trkpt lat="44.44321" lon="1.45154">
        <ele>258.9</ele>
        <time>2021-08-16T08:43:53Z</time>
      </trkpt>
      <trkpt lat="44.44322" lon="1.45155">
        <ele>258.9</ele>
        <time>2021-08-16T08:43:54Z</time>
      </trkpt>
      <trkpt lat="44.44321" lon="1.45158">
        <ele>258.9</ele>
        <time>2021-08-16T08:43:55Z</time>
      </trkpt>
      <trkpt lat="44.44321" lon="1.45159">
        <ele>258.9</ele>
        <time>2021-08-16T08:43:56Z</time>
      </trkpt>
      <trkpt lat="44.44318" lon="1.4516">
        <ele>259</ele>
        <time>2021-08-16T08:43:58Z</time>
      </trkpt>
      <trkpt lat="44.44317" lon="1.45159">
        <ele>259</ele>
        <time>2021-08-16T08:43:59Z</time>
      </trkpt>
      <trkpt lat="44.44317" lon="1.45157">
        <ele>259</ele>
        <time>2021-08-16T08:44:00Z</time>
      </trkpt>
      <trkpt lat="44.44318" lon="1.45155">
        <ele>259</ele>
        <time>2021-08-16T08:44:02Z</time>
      </trkpt>
      <trkpt lat="44.44319" lon="1.45155">
        <ele>259</ele>
        <time>2021-08-16T08:44:04Z</time>
      </trkpt>
      <trkpt lat="44.4432" lon="1.45155">
        <ele>259.1</ele>
        <time>2021-08-16T08:44:05Z</time>
      </trkpt>
      <trkpt lat="44.4432" lon="1.45155">
        <ele>259.1</ele>
        <time>2021-08-16T08:44:06Z</time>
      </trkpt>
      <trkpt lat="44.4432" lon="1.45156">
        <ele>259.1</ele>
        <time>2021-08-16T08:44:08Z</time>
      </trkpt>
      <trkpt lat="44.44321" lon="1.45156">
        <ele>259.1</ele>
        <time>2021-08-16T08:44:09Z</time>
      </trkpt>
      <trkpt lat="44.44321" lon="1.45156">
        <ele>259.1</ele>
        <time>2021-08-16T08:44:11Z</time>
      </trkpt>
      <trkpt lat="44.44318" lon="1.45137">
        <ele>259.4</ele>
        <time>2021-08-16T08:44:34Z</time>
      </trkpt>
      <trkpt lat="44.44321" lon="1.45132">
        <ele>259.5</ele>
        <time>2021-08-16T08:44:36Z</time>
      </trkpt>
      <trkpt lat="44.44324" lon="1.45129">
        <ele>259.5</ele>
        <time>2021-08-16T08:44:37Z</time>
      </trkpt>
      <trkpt lat="44.44326" lon="1.45125">
        <ele>259.6</ele>
        <time>2021-08-16T08:44:38Z</time>
      </trkpt>
      <trkpt lat="44.44328" lon="1.45121">
        <ele>259.7</ele>
        <time>2021-08-16T08:44:40Z</time>
      </trkpt>
      <trkpt lat="44.44331" lon="1.45117">
        <ele>259.7</ele>
        <time>2021-08-16T08:44:41Z</time>
      </trkpt>
      <trkpt lat="44.44332" lon="1.45116">
        <ele>259.8</ele>
        <time>2021-08-16T08:44:42Z</time>
      </trkpt>
      <trkpt lat="44.44334" lon="1.45112">
        <ele>259.9</ele>
        <time>2021-08-16T08:44:44Z</time>
      </trkpt>
      <trkpt lat="44.44335" lon="1.45111">
        <ele>259.9</ele>
        <time>2021-08-16T08:44:45Z</time>
      </trkpt>
      <trkpt lat="44.44337" lon="1.45107">
        <ele>259.9</ele>
        <time>2021-08-16T08:44:47Z</time>
      </trkpt>
      <trkpt lat="44.44338" lon="1.45106">
        <ele>259.9</ele>
        <time>2021-08-16T08:44:48Z</time>
      </trkpt>
      <trkpt lat="44.44339" lon="1.45105">
        <ele>259.9</ele>
        <time>2021-08-16T08:44:49Z</time>
      </trkpt>
      <trkpt lat="44.4434" lon="1.45102">
        <ele>259.8</ele>
        <time>2021-08-16T08:44:51Z</time>
      </trkpt>
      <trkpt lat="44.4434" lon="1.45101">
        <ele>259.8</ele>
        <time>2021-08-16T08:44:52Z</time>
      </trkpt>
      <trkpt lat="44.4434" lon="1.45101">
        <ele>259.8</ele>
        <time>2021-08-16T08:44:54Z</time>
      </trkpt>
      <trkpt lat="44.4434" lon="1.451">
        <ele>259.8</ele>
        <time>2021-08-16T08:44:55Z</time>
      </trkpt>
      <trkpt lat="44.4434" lon="1.451">
        <ele>259.8</ele>
        <time>2021-08-16T08:44:56Z</time>
      </trkpt>
      <trkpt lat="44.44341" lon="1.451">
        <ele>259.8</ele>
        <time>2021-08-16T08:44:58Z</time>
      </trkpt>
      <trkpt lat="44.44341" lon="1.451">
        <ele>259.8</ele>
        <time>2021-08-16T08:44:59Z</time>
      </trkpt>
      <trkpt lat="44.44341" lon="1.45099">
        <ele>259.8</ele>
        <time>2021-08-16T08:45:01Z</time>
      </trkpt>
      <trkpt lat="44.44338" lon="1.45106">
        <ele>259.8</ele>
        <time>2021-08-16T08:50:34Z</time>
      </trkpt>
      <trkpt lat="44.44337" lon="1.45109">
        <ele>259.8</ele>
        <time>2021-08-16T08:50:35Z</time>
      </trkpt>
      <trkpt lat="44.44335" lon="1.45113">
        <ele>259.8</ele>
        <time>2021-08-16T08:50:36Z</time>
      </trkpt>
      <trkpt lat="44.44333" lon="1.45117">
        <ele>259.7</ele>
        <time>2021-08-16T08:50:38Z</time>
      </trkpt>
      <trkpt lat="44.4433" lon="1.45122">
        <ele>259.7</ele>
        <time>2021-08-16T08:50:39Z</time>
      </trkpt>
      <trkpt lat="44.4433" lon="1.45123">
        <ele>259.6</ele>
        <time>2021-08-16T08:50:40Z</time>
      </trkpt>
      <trkpt lat="44.44328" lon="1.45126">
        <ele>259.6</ele>
        <time>2021-08-16T08:50:41Z</time>
      </trkpt>
      <trkpt lat="44.44325" lon="1.45131">
        <ele>259.5</ele>
        <time>2021-08-16T08:50:43Z</time>
      </trkpt>
      <trkpt lat="44.44323" lon="1.45135">
        <ele>259.4</ele>
        <time>2021-08-16T08:50:44Z</time>
      </trkpt>
      <trkpt lat="44.4432" lon="1.45142">
        <ele>259.2</ele>
        <time>2021-08-16T08:50:46Z</time>
      </trkpt>
      <trkpt lat="44.44318" lon="1.45146">
        <ele>259.1</ele>
        <time>2021-08-16T08:50:47Z</time>
      </trkpt>
      <trkpt lat="44.44319" lon="1.45152">
        <ele>259</ele>
        <time>2021-08-16T08:50:48Z</time>
      </trkpt>
      <trkpt lat="44.44318" lon="1.45161">
        <ele>258.9</ele>
        <time>2021-08-16T08:50:50Z</time>
      </trkpt>
      <trkpt lat="44.44318" lon="1.45166">
        <ele>258.8</ele>
        <time>2021-08-16T08:50:51Z</time>
      </trkpt>
      <trkpt lat="44.44318" lon="1.45173">
        <ele>258.8</ele>
        <time>2021-08-16T08:50:52Z</time>
      </trkpt>
      <trkpt lat="44.44315" lon="1.45179">
        <ele>258.8</ele>
        <time>2021-08-16T08:50:54Z</time>
      </trkpt>
      <trkpt lat="44.44316" lon="1.45185">
        <ele>258.8</ele>
        <time>2021-08-16T08:50:55Z</time>
      </trkpt>
      <trkpt lat="44.44315" lon="1.45188">
        <ele>258.9</ele>
        <time>2021-08-16T08:50:56Z</time>
      </trkpt>
      <trkpt lat="44.44313" lon="1.45192">
        <ele>258.9</ele>
        <time>2021-08-16T08:50:58Z</time>
      </trkpt>
      <trkpt lat="44.44311" lon="1.45195">
        <ele>259</ele>
        <time>2021-08-16T08:50:59Z</time>
      </trkpt>
      <trkpt lat="44.4431" lon="1.45199">
        <ele>259</ele>
        <time>2021-08-16T08:51:01Z</time>
      </trkpt>
      <trkpt lat="44.44309" lon="1.45201">
        <ele>259.1</ele>
        <time>2021-08-16T08:51:02Z</time>
      </trkpt>
      <trkpt lat="44.44308" lon="1.45205">
        <ele>259.1</ele>
        <time>2021-08-16T08:51:04Z</time>
      </trkpt>
      <trkpt lat="44.44305" lon="1.4521">
        <ele>259.2</ele>
        <time>2021-08-16T08:51:06Z</time>
      </trkpt>
      <trkpt lat="44.44304" lon="1.45212">
        <ele>259.3</ele>
        <time>2021-08-16T08:51:07Z</time>
      </trkpt>
      <trkpt lat="44.44304" lon="1.45215">
        <ele>259.3</ele>
        <time>2021-08-16T08:51:08Z</time>
      </trkpt>
      <trkpt lat="44.44303" lon="1.45218">
        <ele>259.4</ele>
        <time>2021-08-16T08:51:09Z</time>
      </trkpt>
      <trkpt lat="44.44301" lon="1.45222">
        <ele>259.4</ele>
        <time>2021-08-16T08:51:11Z</time>
      </trkpt>
      <trkpt lat="44.443" lon="1.45225">
        <ele>259.5</ele>
        <time>2021-08-16T08:51:12Z</time>
      </trkpt>
      <trkpt lat="44.44298" lon="1.45229">
        <ele>259.6</ele>
        <time>2021-08-16T08:51:13Z</time>
      </trkpt>
      <trkpt lat="44.44297" lon="1.4523">
        <ele>259.6</ele>
        <time>2021-08-16T08:51:14Z</time>
      </trkpt>
      <trkpt lat="44.44295" lon="1.45236">
        <ele>259.7</ele>
        <time>2021-08-16T08:51:16Z</time>
      </trkpt>
      <trkpt lat="44.44294" lon="1.45238">
        <ele>259.7</ele>
        <time>2021-08-16T08:51:17Z</time>
      </trkpt>
      <trkpt lat="44.44294" lon="1.45239">
        <ele>259.8</ele>
        <time>2021-08-16T08:51:18Z</time>
      </trkpt>
      <trkpt lat="44.44293" lon="1.45244">
        <ele>259.8</ele>
        <time>2021-08-16T08:51:19Z</time>
      </trkpt>
      <trkpt lat="44.44292" lon="1.45246">
        <ele>259.9</ele>
        <time>2021-08-16T08:51:20Z</time>
      </trkpt>
      <trkpt lat="44.44291" lon="1.45251">
        <ele>259.9</ele>
        <time>2021-08-16T08:51:21Z</time>
      </trkpt>
      <trkpt lat="44.44291" lon="1.45255">
        <ele>260</ele>
        <time>2021-08-16T08:51:23Z</time>
      </trkpt>
      <trkpt lat="44.4429" lon="1.4526">
        <ele>260.1</ele>
        <time>2021-08-16T08:51:25Z</time>
      </trkpt>
      <trkpt lat="44.44288" lon="1.45264">
        <ele>260.2</ele>
        <time>2021-08-16T08:51:26Z</time>
      </trkpt>
      <trkpt lat="44.44288" lon="1.4527">
        <ele>260.4</ele>
        <time>2021-08-16T08:51:28Z</time>
      </trkpt>
      <trkpt lat="44.44287" lon="1.45274">
        <ele>260.5</ele>
        <time>2021-08-16T08:51:29Z</time>
      </trkpt>
      <trkpt lat="44.44287" lon="1.45276">
        <ele>260.5</ele>
        <time>2021-08-16T08:51:30Z</time>
      </trkpt>
      <trkpt lat="44.44286" lon="1.4528">
        <ele>260.6</ele>
        <time>2021-08-16T08:51:31Z</time>
      </trkpt>
      <trkpt lat="44.44286" lon="1.45282">
        <ele>260.7</ele>
        <time>2021-08-16T08:51:32Z</time>
      </trkpt>
      <trkpt lat="44.44285" lon="1.45287">
        <ele>260.8</ele>
        <time>2021-08-16T08:51:34Z</time>
      </trkpt>
      <trkpt lat="44.44284" lon="1.45292">
        <ele>260.9</ele>
        <time>2021-08-16T08:51:35Z</time>
      </trkpt>
      <trkpt lat="44.44283" lon="1.45294">
        <ele>261</ele>
        <time>2021-08-16T08:51:36Z</time>
      </trkpt>
      <trkpt lat="44.44283" lon="1.45302">
        <ele>261.2</ele>
        <time>2021-08-16T08:51:38Z</time>
      </trkpt>
      <trkpt lat="44.44284" lon="1.45306">
        <ele>261.3</ele>
        <time>2021-08-16T08:51:39Z</time>
      </trkpt>
      <trkpt lat="44.44283" lon="1.45311">
        <ele>261.4</ele>
        <time>2021-08-16T08:51:40Z</time>
      </trkpt>
      <trkpt lat="44.44283" lon="1.45313">
        <ele>261.5</ele>
        <time>2021-08-16T08:51:41Z</time>
      </trkpt>
      <trkpt lat="44.44282" lon="1.45317">
        <ele>261.6</ele>
        <time>2021-08-16T08:51:43Z</time>
      </trkpt>
      <trkpt lat="44.44282" lon="1.45321">
        <ele>261.7</ele>
        <time>2021-08-16T08:51:44Z</time>
      </trkpt>
      <trkpt lat="44.44281" lon="1.45327">
        <ele>261.9</ele>
        <time>2021-08-16T08:51:46Z</time>
      </trkpt>
      <trkpt lat="44.44281" lon="1.45331">
        <ele>262</ele>
        <time>2021-08-16T08:51:47Z</time>
      </trkpt>
      <trkpt lat="44.4428" lon="1.45335">
        <ele>262.2</ele>
        <time>2021-08-16T08:51:49Z</time>
      </trkpt>
      <trkpt lat="44.4428" lon="1.45339">
        <ele>262.3</ele>
        <time>2021-08-16T08:51:50Z</time>
      </trkpt>
      <trkpt lat="44.44279" lon="1.45343">
        <ele>262.5</ele>
        <time>2021-08-16T08:51:51Z</time>
      </trkpt>
      <trkpt lat="44.44279" lon="1.45347">
        <ele>262.6</ele>
        <time>2021-08-16T08:51:52Z</time>
      </trkpt>
      <trkpt lat="44.44278" lon="1.4535">
        <ele>262.4</ele>
        <time>2021-08-16T08:51:53Z</time>
      </trkpt>
      <trkpt lat="44.44278" lon="1.45355">
        <ele>262.2</ele>
        <time>2021-08-16T08:51:55Z</time>
      </trkpt>
      <trkpt lat="44.44279" lon="1.4536">
        <ele>261.7</ele>
        <time>2021-08-16T08:51:56Z</time>
      </trkpt>
      <trkpt lat="44.44281" lon="1.45366">
        <ele>261.5</ele>
        <time>2021-08-16T08:51:58Z</time>
      </trkpt>
      <trkpt lat="44.44282" lon="1.45369">
        <ele>261.2</ele>
        <time>2021-08-16T08:51:59Z</time>
      </trkpt>
      <trkpt lat="44.44283" lon="1.45374">
        <ele>260.8</ele>
        <time>2021-08-16T08:52:01Z</time>
      </trkpt>
      <trkpt lat="44.44284" lon="1.45379">
        <ele>260.9</ele>
        <time>2021-08-16T08:52:02Z</time>
      </trkpt>
      <trkpt lat="44.44284" lon="1.4538">
        <ele>260.9</ele>
        <time>2021-08-16T08:52:03Z</time>
      </trkpt>
      <trkpt lat="44.44284" lon="1.45383">
        <ele>261</ele>
        <time>2021-08-16T08:52:04Z</time>
      </trkpt>
      <trkpt lat="44.44285" lon="1.45385">
        <ele>261.1</ele>
        <time>2021-08-16T08:52:05Z</time>
      </trkpt>
      <trkpt lat="44.44284" lon="1.45388">
        <ele>261.2</ele>
        <time>2021-08-16T08:52:06Z</time>
      </trkpt>
      <trkpt lat="44.44284" lon="1.45391">
        <ele>261.2</ele>
        <time>2021-08-16T08:52:08Z</time>
      </trkpt>
      <trkpt lat="44.44284" lon="1.45396">
        <ele>261.4</ele>
        <time>2021-08-16T08:52:09Z</time>
      </trkpt>
      <trkpt lat="44.44285" lon="1.45397">
        <ele>261.4</ele>
        <time>2021-08-16T08:52:10Z</time>
      </trkpt>
      <trkpt lat="44.44284" lon="1.45402">
        <ele>261.5</ele>
        <time>2021-08-16T08:52:12Z</time>
      </trkpt>
      <trkpt lat="44.44284" lon="1.45404">
        <ele>261.6</ele>
        <time>2021-08-16T08:52:13Z</time>
      </trkpt>
      <trkpt lat="44.44285" lon="1.45408">
        <ele>261.7</ele>
        <time>2021-08-16T08:52:14Z</time>
      </trkpt>
      <trkpt lat="44.44285" lon="1.4541">
        <ele>261.8</ele>
        <time>2021-08-16T08:52:15Z</time>
      </trkpt>
      <trkpt lat="44.44285" lon="1.45414">
        <ele>261.9</ele>
        <time>2021-08-16T08:52:17Z</time>
      </trkpt>
      <trkpt lat="44.44285" lon="1.45416">
        <ele>261.9</ele>
        <time>2021-08-16T08:52:18Z</time>
      </trkpt>
      <trkpt lat="44.44285" lon="1.4542">
        <ele>262.1</ele>
        <time>2021-08-16T08:52:19Z</time>
      </trkpt>
      <trkpt lat="44.44285" lon="1.45422">
        <ele>262.1</ele>
        <time>2021-08-16T08:52:20Z</time>
      </trkpt>
      <trkpt lat="44.44285" lon="1.45428">
        <ele>262.3</ele>
        <time>2021-08-16T08:52:22Z</time>
      </trkpt>
      <trkpt lat="44.44284" lon="1.4543">
        <ele>262.4</ele>
        <time>2021-08-16T08:52:23Z</time>
      </trkpt>
      <trkpt lat="44.44285" lon="1.45433">
        <ele>262.4</ele>
        <time>2021-08-16T08:52:24Z</time>
      </trkpt>
      <trkpt lat="44.44285" lon="1.45438">
        <ele>262.6</ele>
        <time>2021-08-16T08:52:26Z</time>
      </trkpt>
      <trkpt lat="44.44284" lon="1.45442">
        <ele>262.7</ele>
        <time>2021-08-16T08:52:27Z</time>
      </trkpt>
      <trkpt lat="44.44284" lon="1.45444">
        <ele>262.7</ele>
        <time>2021-08-16T08:52:28Z</time>
      </trkpt>
      <trkpt lat="44.44283" lon="1.45448">
        <ele>262.8</ele>
        <time>2021-08-16T08:52:29Z</time>
      </trkpt>
      <trkpt lat="44.44283" lon="1.45454">
        <ele>263.1</ele>
        <time>2021-08-16T08:52:31Z</time>
      </trkpt>
      <trkpt lat="44.44283" lon="1.45459">
        <ele>263.2</ele>
        <time>2021-08-16T08:52:32Z</time>
      </trkpt>
      <trkpt lat="44.44283" lon="1.45462">
        <ele>263.3</ele>
        <time>2021-08-16T08:52:33Z</time>
      </trkpt>
      <trkpt lat="44.44282" lon="1.45467">
        <ele>263.5</ele>
        <time>2021-08-16T08:52:35Z</time>
      </trkpt>
      <trkpt lat="44.44281" lon="1.45473">
        <ele>263.7</ele>
        <time>2021-08-16T08:52:36Z</time>
      </trkpt>
      <trkpt lat="44.44281" lon="1.45475">
        <ele>263.7</ele>
        <time>2021-08-16T08:52:37Z</time>
      </trkpt>
      <trkpt lat="44.4428" lon="1.4548">
        <ele>263.9</ele>
        <time>2021-08-16T08:52:38Z</time>
      </trkpt>
      <trkpt lat="44.4428" lon="1.45481">
        <ele>263.9</ele>
        <time>2021-08-16T08:52:39Z</time>
      </trkpt>
      <trkpt lat="44.4428" lon="1.45486">
        <ele>264.1</ele>
        <time>2021-08-16T08:52:41Z</time>
      </trkpt>
      <trkpt lat="44.44279" lon="1.45491">
        <ele>264.2</ele>
        <time>2021-08-16T08:52:42Z</time>
      </trkpt>
      <trkpt lat="44.44279" lon="1.45492">
        <ele>264.3</ele>
        <time>2021-08-16T08:52:43Z</time>
      </trkpt>
      <trkpt lat="44.44279" lon="1.45495">
        <ele>264.3</ele>
        <time>2021-08-16T08:52:44Z</time>
      </trkpt>
      <trkpt lat="44.44279" lon="1.455">
        <ele>264.4</ele>
        <time>2021-08-16T08:52:46Z</time>
      </trkpt>
      <trkpt lat="44.44279" lon="1.45505">
        <ele>264.5</ele>
        <time>2021-08-16T08:52:47Z</time>
      </trkpt>
      <trkpt lat="44.44279" lon="1.45506">
        <ele>264.6</ele>
        <time>2021-08-16T08:52:48Z</time>
      </trkpt>
      <trkpt lat="44.44278" lon="1.4551">
        <ele>264.6</ele>
        <time>2021-08-16T08:52:49Z</time>
      </trkpt>
      <trkpt lat="44.44278" lon="1.45511">
        <ele>264.6</ele>
        <time>2021-08-16T08:52:50Z</time>
      </trkpt>
      <trkpt lat="44.44277" lon="1.45516">
        <ele>264.7</ele>
        <time>2021-08-16T08:52:51Z</time>
      </trkpt>
      <trkpt lat="44.44277" lon="1.45517">
        <ele>264.7</ele>
        <time>2021-08-16T08:52:52Z</time>
      </trkpt>
      <trkpt lat="44.44275" lon="1.45521">
        <ele>264.7</ele>
        <time>2021-08-16T08:52:54Z</time>
      </trkpt>
      <trkpt lat="44.44274" lon="1.45525">
        <ele>264.8</ele>
        <time>2021-08-16T08:52:55Z</time>
      </trkpt>
      <trkpt lat="44.44273" lon="1.45527">
        <ele>264.8</ele>
        <time>2021-08-16T08:52:56Z</time>
      </trkpt>
      <trkpt lat="44.44272" lon="1.45533">
        <ele>264.8</ele>
        <time>2021-08-16T08:52:58Z</time>
      </trkpt>
      <trkpt lat="44.44271" lon="1.45538">
        <ele>264.8</ele>
        <time>2021-08-16T08:53:00Z</time>
      </trkpt>
      <trkpt lat="44.44271" lon="1.45542">
        <ele>264.7</ele>
        <time>2021-08-16T08:53:01Z</time>
      </trkpt>
      <trkpt lat="44.44271" lon="1.45546">
        <ele>264.7</ele>
        <time>2021-08-16T08:53:02Z</time>
      </trkpt>
      <trkpt lat="44.44272" lon="1.45554">
        <ele>264.6</ele>
        <time>2021-08-16T08:53:04Z</time>
      </trkpt>
      <trkpt lat="44.44274" lon="1.4556">
        <ele>264.5</ele>
        <time>2021-08-16T08:53:06Z</time>
      </trkpt>
      <trkpt lat="44.44276" lon="1.45566">
        <ele>264.3</ele>
        <time>2021-08-16T08:53:07Z</time>
      </trkpt>
      <trkpt lat="44.44277" lon="1.45572">
        <ele>264.1</ele>
        <time>2021-08-16T08:53:08Z</time>
      </trkpt>
      <trkpt lat="44.44279" lon="1.45579">
        <ele>263.9</ele>
        <time>2021-08-16T08:53:10Z</time>
      </trkpt>
      <trkpt lat="44.4428" lon="1.45585">
        <ele>263.7</ele>
        <time>2021-08-16T08:53:11Z</time>
      </trkpt>
      <trkpt lat="44.44281" lon="1.45591">
        <ele>263.4</ele>
        <time>2021-08-16T08:53:12Z</time>
      </trkpt>
      <trkpt lat="44.44282" lon="1.45599">
        <ele>263.1</ele>
        <time>2021-08-16T08:53:13Z</time>
      </trkpt>
      <trkpt lat="44.44283" lon="1.45606">
        <ele>262.8</ele>
        <time>2021-08-16T08:53:14Z</time>
      </trkpt>
      <trkpt lat="44.44283" lon="1.45622">
        <ele>262.2</ele>
        <time>2021-08-16T08:53:16Z</time>
      </trkpt>
      <trkpt lat="44.44281" lon="1.45638">
        <ele>261.6</ele>
        <time>2021-08-16T08:53:18Z</time>
      </trkpt>
      <trkpt lat="44.44278" lon="1.45653">
        <ele>261.2</ele>
        <time>2021-08-16T08:53:20Z</time>
      </trkpt>
      <trkpt lat="44.44274" lon="1.4567">
        <ele>260.8</ele>
        <time>2021-08-16T08:53:22Z</time>
      </trkpt>
      <trkpt lat="44.44272" lon="1.45678">
        <ele>260.6</ele>
        <time>2021-08-16T08:53:23Z</time>
      </trkpt>
      <trkpt lat="44.4427" lon="1.45687">
        <ele>260.4</ele>
        <time>2021-08-16T08:53:24Z</time>
      </trkpt>
      <trkpt lat="44.44267" lon="1.45705">
        <ele>259.9</ele>
        <time>2021-08-16T08:53:26Z</time>
      </trkpt>
      <trkpt lat="44.44264" lon="1.45714">
        <ele>259.7</ele>
        <time>2021-08-16T08:53:27Z</time>
      </trkpt>
      <trkpt lat="44.44259" lon="1.45732">
        <ele>259.3</ele>
        <time>2021-08-16T08:53:29Z</time>
      </trkpt>
      <trkpt lat="44.44256" lon="1.4574">
        <ele>259.1</ele>
        <time>2021-08-16T08:53:30Z</time>
      </trkpt>
      <trkpt lat="44.44254" lon="1.45749">
        <ele>258.9</ele>
        <time>2021-08-16T08:53:31Z</time>
      </trkpt>
      <trkpt lat="44.44252" lon="1.45757">
        <ele>258.8</ele>
        <time>2021-08-16T08:53:32Z</time>
      </trkpt>
      <trkpt lat="44.44248" lon="1.45774">
        <ele>258.5</ele>
        <time>2021-08-16T08:53:34Z</time>
      </trkpt>
      <trkpt lat="44.44247" lon="1.45783">
        <ele>258.4</ele>
        <time>2021-08-16T08:53:35Z</time>
      </trkpt>
      <trkpt lat="44.44243" lon="1.45802">
        <ele>258.2</ele>
        <time>2021-08-16T08:53:37Z</time>
      </trkpt>
      <trkpt lat="44.44243" lon="1.45812">
        <ele>258.1</ele>
        <time>2021-08-16T08:53:38Z</time>
      </trkpt>
      <trkpt lat="44.44244" lon="1.45832">
        <ele>257.8</ele>
        <time>2021-08-16T08:53:40Z</time>
      </trkpt>
      <trkpt lat="44.44245" lon="1.4585">
        <ele>257.7</ele>
        <time>2021-08-16T08:53:42Z</time>
      </trkpt>
      <trkpt lat="44.44245" lon="1.45859">
        <ele>257.6</ele>
        <time>2021-08-16T08:53:43Z</time>
      </trkpt>
      <trkpt lat="44.44245" lon="1.45867">
        <ele>257.6</ele>
        <time>2021-08-16T08:53:44Z</time>
      </trkpt>
      <trkpt lat="44.44244" lon="1.45883">
        <ele>257.6</ele>
        <time>2021-08-16T08:53:46Z</time>
      </trkpt>
      <trkpt lat="44.44243" lon="1.4589">
        <ele>257.6</ele>
        <time>2021-08-16T08:53:47Z</time>
      </trkpt>
      <trkpt lat="44.44242" lon="1.45898">
        <ele>257.6</ele>
        <time>2021-08-16T08:53:48Z</time>
      </trkpt>
      <trkpt lat="44.44242" lon="1.45905">
        <ele>257.6</ele>
        <time>2021-08-16T08:53:49Z</time>
      </trkpt>
      <trkpt lat="44.44241" lon="1.45912">
        <ele>257.6</ele>
        <time>2021-08-16T08:53:50Z</time>
      </trkpt>
      <trkpt lat="44.4424" lon="1.45923">
        <ele>257.5</ele>
        <time>2021-08-16T08:53:52Z</time>
      </trkpt>
      <trkpt lat="44.44241" lon="1.45939">
        <ele>257.4</ele>
        <time>2021-08-16T08:53:54Z</time>
      </trkpt>
      <trkpt lat="44.4424" lon="1.4595">
        <ele>257.2</ele>
        <time>2021-08-16T08:53:56Z</time>
      </trkpt>
      <trkpt lat="44.4424" lon="1.45956">
        <ele>257.2</ele>
        <time>2021-08-16T08:53:57Z</time>
      </trkpt>
      <trkpt lat="44.44238" lon="1.45956">
        <ele>257.2</ele>
        <time>2021-08-16T08:53:58Z</time>
      </trkpt>
      <trkpt lat="44.44239" lon="1.45963">
        <ele>257.2</ele>
        <time>2021-08-16T08:54:00Z</time>
      </trkpt>
      <trkpt lat="44.44239" lon="1.45968">
        <ele>257.2</ele>
        <time>2021-08-16T08:54:01Z</time>
      </trkpt>
      <trkpt lat="44.44239" lon="1.45972">
        <ele>257.2</ele>
        <time>2021-08-16T08:54:02Z</time>
      </trkpt>
      <trkpt lat="44.44239" lon="1.45977">
        <ele>257.2</ele>
        <time>2021-08-16T08:54:04Z</time>
      </trkpt>
      <trkpt lat="44.44238" lon="1.45982">
        <ele>257.3</ele>
        <time>2021-08-16T08:54:05Z</time>
      </trkpt>
      <trkpt lat="44.44238" lon="1.45983">
        <ele>257.3</ele>
        <time>2021-08-16T08:54:06Z</time>
      </trkpt>
      <trkpt lat="44.44237" lon="1.4599">
        <ele>257.4</ele>
        <time>2021-08-16T08:54:08Z</time>
      </trkpt>
      <trkpt lat="44.44236" lon="1.45994">
        <ele>257.5</ele>
        <time>2021-08-16T08:54:09Z</time>
      </trkpt>
      <trkpt lat="44.44235" lon="1.45999">
        <ele>257.6</ele>
        <time>2021-08-16T08:54:10Z</time>
      </trkpt>
      <trkpt lat="44.44235" lon="1.46005">
        <ele>257.8</ele>
        <time>2021-08-16T08:54:12Z</time>
      </trkpt>
      <trkpt lat="44.44234" lon="1.46009">
        <ele>257.8</ele>
        <time>2021-08-16T08:54:13Z</time>
      </trkpt>
      <trkpt lat="44.44234" lon="1.46015">
        <ele>257.9</ele>
        <time>2021-08-16T08:54:14Z</time>
      </trkpt>
      <trkpt lat="44.44233" lon="1.46023">
        <ele>258.1</ele>
        <time>2021-08-16T08:54:16Z</time>
      </trkpt>
      <trkpt lat="44.44233" lon="1.46029">
        <ele>258.2</ele>
        <time>2021-08-16T08:54:17Z</time>
      </trkpt>
      <trkpt lat="44.44232" lon="1.46034">
        <ele>258.3</ele>
        <time>2021-08-16T08:54:19Z</time>
      </trkpt>
      <trkpt lat="44.44232" lon="1.46041">
        <ele>258.5</ele>
        <time>2021-08-16T08:54:20Z</time>
      </trkpt>
      <trkpt lat="44.44231" lon="1.46048">
        <ele>258.6</ele>
        <time>2021-08-16T08:54:22Z</time>
      </trkpt>
      <trkpt lat="44.44231" lon="1.46054">
        <ele>258.8</ele>
        <time>2021-08-16T08:54:23Z</time>
      </trkpt>
      <trkpt lat="44.44231" lon="1.46059">
        <ele>258.9</ele>
        <time>2021-08-16T08:54:24Z</time>
      </trkpt>
      <trkpt lat="44.4423" lon="1.46063">
        <ele>259</ele>
        <time>2021-08-16T08:54:25Z</time>
      </trkpt>
      <trkpt lat="44.4423" lon="1.46072">
        <ele>259.1</ele>
        <time>2021-08-16T08:54:27Z</time>
      </trkpt>
      <trkpt lat="44.4423" lon="1.46077">
        <ele>259.3</ele>
        <time>2021-08-16T08:54:28Z</time>
      </trkpt>
      <trkpt lat="44.44229" lon="1.46081">
        <ele>259.4</ele>
        <time>2021-08-16T08:54:29Z</time>
      </trkpt>
      <trkpt lat="44.44228" lon="1.46086">
        <ele>259.5</ele>
        <time>2021-08-16T08:54:30Z</time>
      </trkpt>
      <trkpt lat="44.44227" lon="1.4609">
        <ele>259.7</ele>
        <time>2021-08-16T08:54:31Z</time>
      </trkpt>
      <trkpt lat="44.44226" lon="1.46098">
        <ele>259.9</ele>
        <time>2021-08-16T08:54:33Z</time>
      </trkpt>
      <trkpt lat="44.44226" lon="1.46103">
        <ele>260.1</ele>
        <time>2021-08-16T08:54:34Z</time>
      </trkpt>
      <trkpt lat="44.44226" lon="1.46107">
        <ele>260.2</ele>
        <time>2021-08-16T08:54:35Z</time>
      </trkpt>
      <trkpt lat="44.44225" lon="1.46114">
        <ele>260.4</ele>
        <time>2021-08-16T08:54:37Z</time>
      </trkpt>
      <trkpt lat="44.44225" lon="1.46118">
        <ele>260.6</ele>
        <time>2021-08-16T08:54:38Z</time>
      </trkpt>
      <trkpt lat="44.44225" lon="1.46122">
        <ele>260.7</ele>
        <time>2021-08-16T08:54:39Z</time>
      </trkpt>
      <trkpt lat="44.44225" lon="1.46127">
        <ele>260.8</ele>
        <time>2021-08-16T08:54:40Z</time>
      </trkpt>
      <trkpt lat="44.44225" lon="1.46128">
        <ele>260.9</ele>
        <time>2021-08-16T08:54:41Z</time>
      </trkpt>
      <trkpt lat="44.44226" lon="1.46131">
        <ele>260.9</ele>
        <time>2021-08-16T08:54:42Z</time>
      </trkpt>
      <trkpt lat="44.44227" lon="1.46137">
        <ele>261.1</ele>
        <time>2021-08-16T08:54:44Z</time>
      </trkpt>
      <trkpt lat="44.44228" lon="1.46141">
        <ele>261.2</ele>
        <time>2021-08-16T08:54:45Z</time>
      </trkpt>
      <trkpt lat="44.44229" lon="1.46145">
        <ele>261.2</ele>
        <time>2021-08-16T08:54:46Z</time>
      </trkpt>
      <trkpt lat="44.4423" lon="1.46149">
        <ele>261.3</ele>
        <time>2021-08-16T08:54:47Z</time>
      </trkpt>
      <trkpt lat="44.44232" lon="1.46156">
        <ele>261.5</ele>
        <time>2021-08-16T08:54:49Z</time>
      </trkpt>
      <trkpt lat="44.44235" lon="1.46161">
        <ele>261.6</ele>
        <time>2021-08-16T08:54:50Z</time>
      </trkpt>
      <trkpt lat="44.44236" lon="1.46163">
        <ele>261.6</ele>
        <time>2021-08-16T08:54:51Z</time>
      </trkpt>
      <trkpt lat="44.44238" lon="1.46168">
        <ele>261.7</ele>
        <time>2021-08-16T08:54:53Z</time>
      </trkpt>
      <trkpt lat="44.44241" lon="1.46172">
        <ele>261.8</ele>
        <time>2021-08-16T08:54:54Z</time>
      </trkpt>
      <trkpt lat="44.44243" lon="1.46176">
        <ele>261.9</ele>
        <time>2021-08-16T08:54:55Z</time>
      </trkpt>
      <trkpt lat="44.44248" lon="1.46183">
        <ele>262</ele>
        <time>2021-08-16T08:54:57Z</time>
      </trkpt>
      <trkpt lat="44.44253" lon="1.4619">
        <ele>262.2</ele>
        <time>2021-08-16T08:54:59Z</time>
      </trkpt>
      <trkpt lat="44.44255" lon="1.46194">
        <ele>262.3</ele>
        <time>2021-08-16T08:55:00Z</time>
      </trkpt>
      <trkpt lat="44.44258" lon="1.46197">
        <ele>262.4</ele>
        <time>2021-08-16T08:55:01Z</time>
      </trkpt>
      <trkpt lat="44.4426" lon="1.462">
        <ele>262.5</ele>
        <time>2021-08-16T08:55:02Z</time>
      </trkpt>
      <trkpt lat="44.44264" lon="1.46207">
        <ele>262.8</ele>
        <time>2021-08-16T08:55:04Z</time>
      </trkpt>
      <trkpt lat="44.44268" lon="1.46213">
        <ele>263.1</ele>
        <time>2021-08-16T08:55:06Z</time>
      </trkpt>
      <trkpt lat="44.44272" lon="1.46218">
        <ele>263.3</ele>
        <time>2021-08-16T08:55:07Z</time>
      </trkpt>
      <trkpt lat="44.44274" lon="1.46221">
        <ele>263.5</ele>
        <time>2021-08-16T08:55:08Z</time>
      </trkpt>
      <trkpt lat="44.44277" lon="1.46225">
        <ele>263.7</ele>
        <time>2021-08-16T08:55:09Z</time>
      </trkpt>
      <trkpt lat="44.44281" lon="1.4623">
        <ele>264</ele>
        <time>2021-08-16T08:55:11Z</time>
      </trkpt>
      <trkpt lat="44.44285" lon="1.46235">
        <ele>264.3</ele>
        <time>2021-08-16T08:55:12Z</time>
      </trkpt>
      <trkpt lat="44.44287" lon="1.46239">
        <ele>264.6</ele>
        <time>2021-08-16T08:55:13Z</time>
      </trkpt>
      <trkpt lat="44.44289" lon="1.46242">
        <ele>264.7</ele>
        <time>2021-08-16T08:55:14Z</time>
      </trkpt>
      <trkpt lat="44.44292" lon="1.46245">
        <ele>264.8</ele>
        <time>2021-08-16T08:55:15Z</time>
      </trkpt>
      <trkpt lat="44.44294" lon="1.46247">
        <ele>264.9</ele>
        <time>2021-08-16T08:55:16Z</time>
      </trkpt>
      <trkpt lat="44.44296" lon="1.46248">
        <ele>265</ele>
        <time>2021-08-16T08:55:18Z</time>
      </trkpt>
      <trkpt lat="44.44301" lon="1.46247">
        <ele>265.1</ele>
        <time>2021-08-16T08:55:20Z</time>
      </trkpt>
      <trkpt lat="44.44303" lon="1.46248">
        <ele>265.2</ele>
        <time>2021-08-16T08:55:21Z</time>
      </trkpt>
      <trkpt lat="44.44304" lon="1.46248">
        <ele>265.2</ele>
        <time>2021-08-16T08:55:22Z</time>
      </trkpt>
      <trkpt lat="44.44308" lon="1.46249">
        <ele>265.3</ele>
        <time>2021-08-16T08:55:24Z</time>
      </trkpt>
      <trkpt lat="44.44312" lon="1.46249">
        <ele>265.4</ele>
        <time>2021-08-16T08:55:25Z</time>
      </trkpt>
      <trkpt lat="44.44317" lon="1.4625">
        <ele>265.5</ele>
        <time>2021-08-16T08:55:26Z</time>
      </trkpt>
      <trkpt lat="44.44321" lon="1.46251">
        <ele>265.6</ele>
        <time>2021-08-16T08:55:27Z</time>
      </trkpt>
      <trkpt lat="44.44324" lon="1.46251">
        <ele>265.6</ele>
        <time>2021-08-16T08:55:29Z</time>
      </trkpt>
      <trkpt lat="44.44328" lon="1.46252">
        <ele>265.7</ele>
        <time>2021-08-16T08:55:30Z</time>
      </trkpt>
      <trkpt lat="44.44332" lon="1.46252">
        <ele>265.8</ele>
        <time>2021-08-16T08:55:31Z</time>
      </trkpt>
      <trkpt lat="44.44335" lon="1.46251">
        <ele>265.8</ele>
        <time>2021-08-16T08:55:32Z</time>
      </trkpt>
      <trkpt lat="44.4434" lon="1.46252">
        <ele>265.9</ele>
        <time>2021-08-16T08:55:34Z</time>
      </trkpt>
      <trkpt lat="44.44344" lon="1.46254">
        <ele>266</ele>
        <time>2021-08-16T08:55:36Z</time>
      </trkpt>
      <trkpt lat="44.44349" lon="1.46257">
        <ele>266.2</ele>
        <time>2021-08-16T08:55:38Z</time>
      </trkpt>
      <trkpt lat="44.44352" lon="1.4626">
        <ele>266.3</ele>
        <time>2021-08-16T08:55:39Z</time>
      </trkpt>
      <trkpt lat="44.44354" lon="1.46262">
        <ele>266.4</ele>
        <time>2021-08-16T08:55:40Z</time>
      </trkpt>
      <trkpt lat="44.44355" lon="1.46265">
        <ele>266.5</ele>
        <time>2021-08-16T08:55:41Z</time>
      </trkpt>
      <trkpt lat="44.44357" lon="1.46267">
        <ele>266.6</ele>
        <time>2021-08-16T08:55:43Z</time>
      </trkpt>
      <trkpt lat="44.44358" lon="1.46271">
        <ele>266.7</ele>
        <time>2021-08-16T08:55:44Z</time>
      </trkpt>
      <trkpt lat="44.44359" lon="1.46276">
        <ele>266.8</ele>
        <time>2021-08-16T08:55:45Z</time>
      </trkpt>
      <trkpt lat="44.4436" lon="1.46281">
        <ele>266.9</ele>
        <time>2021-08-16T08:55:47Z</time>
      </trkpt>
      <trkpt lat="44.44361" lon="1.46286">
        <ele>267</ele>
        <time>2021-08-16T08:55:48Z</time>
      </trkpt>
      <trkpt lat="44.44361" lon="1.46287">
        <ele>267.1</ele>
        <time>2021-08-16T08:55:49Z</time>
      </trkpt>
      <trkpt lat="44.44362" lon="1.46289">
        <ele>267.1</ele>
        <time>2021-08-16T08:55:50Z</time>
      </trkpt>
      <trkpt lat="44.44364" lon="1.46293">
        <ele>267.1</ele>
        <time>2021-08-16T08:55:52Z</time>
      </trkpt>
      <trkpt lat="44.44365" lon="1.46294">
        <ele>267.1</ele>
        <time>2021-08-16T08:55:53Z</time>
      </trkpt>
      <trkpt lat="44.44366" lon="1.46296">
        <ele>267.1</ele>
        <time>2021-08-16T08:55:55Z</time>
      </trkpt>
      <trkpt lat="44.44367" lon="1.46298">
        <ele>267.1</ele>
        <time>2021-08-16T08:55:56Z</time>
      </trkpt>
      <trkpt lat="44.44368" lon="1.46299">
        <ele>267.1</ele>
        <time>2021-08-16T08:55:57Z</time>
      </trkpt>
      <trkpt lat="44.44369" lon="1.46301">
        <ele>267.1</ele>
        <time>2021-08-16T08:55:58Z</time>
      </trkpt>
      <trkpt lat="44.4437" lon="1.46302">
        <ele>267.1</ele>
        <time>2021-08-16T08:55:59Z</time>
      </trkpt>
      <trkpt lat="44.44371" lon="1.46303">
        <ele>267.1</ele>
        <time>2021-08-16T08:56:01Z</time>
      </trkpt>
      <trkpt lat="44.44372" lon="1.46304">
        <ele>267.1</ele>
        <time>2021-08-16T08:56:02Z</time>
      </trkpt>
      <trkpt lat="44.44373" lon="1.46305">
        <ele>267.1</ele>
        <time>2021-08-16T08:56:04Z</time>
      </trkpt>
      <trkpt lat="44.44374" lon="1.46306">
        <ele>267</ele>
        <time>2021-08-16T08:56:05Z</time>
      </trkpt>
      <trkpt lat="44.44375" lon="1.46307">
        <ele>267</ele>
        <time>2021-08-16T08:56:07Z</time>
      </trkpt>
      <trkpt lat="44.44376" lon="1.46308">
        <ele>267</ele>
        <time>2021-08-16T08:56:20Z</time>
      </trkpt>
      <trkpt lat="44.44377" lon="1.46309">
        <ele>267</ele>
        <time>2021-08-16T08:56:21Z</time>
      </trkpt>
      <trkpt lat="44.4438" lon="1.46312">
        <ele>266.9</ele>
        <time>2021-08-16T08:56:22Z</time>
      </trkpt>
      <trkpt lat="44.44385" lon="1.46318">
        <ele>266.7</ele>
        <time>2021-08-16T08:56:24Z</time>
      </trkpt>
      <trkpt lat="44.44388" lon="1.46322">
        <ele>266.5</ele>
        <time>2021-08-16T08:56:25Z</time>
      </trkpt>
      <trkpt lat="44.44391" lon="1.46325">
        <ele>266.4</ele>
        <time>2021-08-16T08:56:26Z</time>
      </trkpt>
      <trkpt lat="44.44395" lon="1.4633">
        <ele>266.1</ele>
        <time>2021-08-16T08:56:28Z</time>
      </trkpt>
      <trkpt lat="44.444" lon="1.46335">
        <ele>265.8</ele>
        <time>2021-08-16T08:56:29Z</time>
      </trkpt>
      <trkpt lat="44.44404" lon="1.4634">
        <ele>265.5</ele>
        <time>2021-08-16T08:56:30Z</time>
      </trkpt>
      <trkpt lat="44.44414" lon="1.46347">
        <ele>265.1</ele>
        <time>2021-08-16T08:56:32Z</time>
      </trkpt>
      <trkpt lat="44.44422" lon="1.46355">
        <ele>264.9</ele>
        <time>2021-08-16T08:56:34Z</time>
      </trkpt>
      <trkpt lat="44.44425" lon="1.46359">
        <ele>264.9</ele>
        <time>2021-08-16T08:56:35Z</time>
      </trkpt>
      <trkpt lat="44.44429" lon="1.46363">
        <ele>264.9</ele>
        <time>2021-08-16T08:56:36Z</time>
      </trkpt>
      <trkpt lat="44.44432" lon="1.46363">
        <ele>264.9</ele>
        <time>2021-08-16T08:56:37Z</time>
      </trkpt>
      <trkpt lat="44.44436" lon="1.46367">
        <ele>264.9</ele>
        <time>2021-08-16T08:56:39Z</time>
      </trkpt>
      <trkpt lat="44.4444" lon="1.46371">
        <ele>265</ele>
        <time>2021-08-16T08:56:40Z</time>
      </trkpt>
      <trkpt lat="44.44445" lon="1.46374">
        <ele>265</ele>
        <time>2021-08-16T08:56:41Z</time>
      </trkpt>
      <trkpt lat="44.44449" lon="1.46375">
        <ele>265.1</ele>
        <time>2021-08-16T08:56:42Z</time>
      </trkpt>
      <trkpt lat="44.44455" lon="1.46374">
        <ele>265.2</ele>
        <time>2021-08-16T08:56:44Z</time>
      </trkpt>
      <trkpt lat="44.4446" lon="1.46374">
        <ele>265.3</ele>
        <time>2021-08-16T08:56:45Z</time>
      </trkpt>
      <trkpt lat="44.44464" lon="1.46374">
        <ele>265.4</ele>
        <time>2021-08-16T08:56:46Z</time>
      </trkpt>
      <trkpt lat="44.4447" lon="1.46374">
        <ele>265.6</ele>
        <time>2021-08-16T08:56:48Z</time>
      </trkpt>
      <trkpt lat="44.44476" lon="1.46374">
        <ele>265.9</ele>
        <time>2021-08-16T08:56:49Z</time>
      </trkpt>
      <trkpt lat="44.44481" lon="1.46375">
        <ele>266.2</ele>
        <time>2021-08-16T08:56:50Z</time>
      </trkpt>
      <trkpt lat="44.44486" lon="1.46375">
        <ele>266.5</ele>
        <time>2021-08-16T08:56:52Z</time>
      </trkpt>
      <trkpt lat="44.4449" lon="1.46376">
        <ele>266.8</ele>
        <time>2021-08-16T08:56:53Z</time>
      </trkpt>
      <trkpt lat="44.44493" lon="1.46377">
        <ele>267</ele>
        <time>2021-08-16T08:56:54Z</time>
      </trkpt>
      <trkpt lat="44.44496" lon="1.46377">
        <ele>267.2</ele>
        <time>2021-08-16T08:56:55Z</time>
      </trkpt>
      <trkpt lat="44.44497" lon="1.46377">
        <ele>267.3</ele>
        <time>2021-08-16T08:56:56Z</time>
      </trkpt>
      <trkpt lat="44.445" lon="1.46377">
        <ele>267.5</ele>
        <time>2021-08-16T08:56:58Z</time>
      </trkpt>
      <trkpt lat="44.44503" lon="1.46378">
        <ele>267.7</ele>
        <time>2021-08-16T08:56:59Z</time>
      </trkpt>
      <trkpt lat="44.44506" lon="1.46378">
        <ele>267.9</ele>
        <time>2021-08-16T08:57:00Z</time>
      </trkpt>
      <trkpt lat="44.44509" lon="1.46377">
        <ele>268.1</ele>
        <time>2021-08-16T08:57:01Z</time>
      </trkpt>
      <trkpt lat="44.44512" lon="1.46377">
        <ele>268.3</ele>
        <time>2021-08-16T08:57:02Z</time>
      </trkpt>
      <trkpt lat="44.44517" lon="1.46376">
        <ele>268.6</ele>
        <time>2021-08-16T08:57:04Z</time>
      </trkpt>
      <trkpt lat="44.44521" lon="1.46375">
        <ele>268.8</ele>
        <time>2021-08-16T08:57:05Z</time>
      </trkpt>
      <trkpt lat="44.44524" lon="1.46374">
        <ele>268.9</ele>
        <time>2021-08-16T08:57:06Z</time>
      </trkpt>
      <trkpt lat="44.44526" lon="1.46373">
        <ele>269.1</ele>
        <time>2021-08-16T08:57:07Z</time>
      </trkpt>
      <trkpt lat="44.44529" lon="1.46373">
        <ele>269.2</ele>
        <time>2021-08-16T08:57:08Z</time>
      </trkpt>
      <trkpt lat="44.44532" lon="1.46372">
        <ele>269.4</ele>
        <time>2021-08-16T08:57:09Z</time>
      </trkpt>
      <trkpt lat="44.44537" lon="1.46369">
        <ele>269.6</ele>
        <time>2021-08-16T08:57:11Z</time>
      </trkpt>
      <trkpt lat="44.4454" lon="1.46367">
        <ele>269.8</ele>
        <time>2021-08-16T08:57:12Z</time>
      </trkpt>
      <trkpt lat="44.44543" lon="1.46366">
        <ele>269.9</ele>
        <time>2021-08-16T08:57:13Z</time>
      </trkpt>
      <trkpt lat="44.44546" lon="1.46365">
        <ele>270.1</ele>
        <time>2021-08-16T08:57:14Z</time>
      </trkpt>
      <trkpt lat="44.4455" lon="1.46363">
        <ele>270.3</ele>
        <time>2021-08-16T08:57:16Z</time>
      </trkpt>
      <trkpt lat="44.44553" lon="1.46362">
        <ele>270.4</ele>
        <time>2021-08-16T08:57:17Z</time>
      </trkpt>
      <trkpt lat="44.44557" lon="1.46361">
        <ele>270.5</ele>
        <time>2021-08-16T08:57:18Z</time>
      </trkpt>
      <trkpt lat="44.44558" lon="1.4636">
        <ele>270.5</ele>
        <time>2021-08-16T08:57:19Z</time>
      </trkpt>
      <trkpt lat="44.4456" lon="1.46359">
        <ele>270.5</ele>
        <time>2021-08-16T08:57:20Z</time>
      </trkpt>
      <trkpt lat="44.44564" lon="1.46356">
        <ele>270.6</ele>
        <time>2021-08-16T08:57:22Z</time>
      </trkpt>
      <trkpt lat="44.44567" lon="1.46355">
        <ele>270.6</ele>
        <time>2021-08-16T08:57:23Z</time>
      </trkpt>
      <trkpt lat="44.4457" lon="1.46354">
        <ele>270.6</ele>
        <time>2021-08-16T08:57:25Z</time>
      </trkpt>
      <trkpt lat="44.44574" lon="1.46354">
        <ele>270.6</ele>
        <time>2021-08-16T08:57:26Z</time>
      </trkpt>
      <trkpt lat="44.44577" lon="1.46354">
        <ele>270.6</ele>
        <time>2021-08-16T08:57:28Z</time>
      </trkpt>
      <trkpt lat="44.4458" lon="1.46355">
        <ele>270.6</ele>
        <time>2021-08-16T08:57:29Z</time>
      </trkpt>
      <trkpt lat="44.44584" lon="1.46356">
        <ele>270.6</ele>
        <time>2021-08-16T08:57:31Z</time>
      </trkpt>
      <trkpt lat="44.44586" lon="1.46356">
        <ele>270.6</ele>
        <time>2021-08-16T08:57:32Z</time>
      </trkpt>
      <trkpt lat="44.4459" lon="1.46357">
        <ele>270.5</ele>
        <time>2021-08-16T08:57:34Z</time>
      </trkpt>
      <trkpt lat="44.44591" lon="1.46357">
        <ele>270.5</ele>
        <time>2021-08-16T08:57:35Z</time>
      </trkpt>
      <trkpt lat="44.44593" lon="1.46357">
        <ele>270.5</ele>
        <time>2021-08-16T08:57:37Z</time>
      </trkpt>
      <trkpt lat="44.44596" lon="1.46358">
        <ele>270.4</ele>
        <time>2021-08-16T08:57:38Z</time>
      </trkpt>
      <trkpt lat="44.446" lon="1.46357">
        <ele>270.3</ele>
        <time>2021-08-16T08:57:40Z</time>
      </trkpt>
      <trkpt lat="44.44604" lon="1.46357">
        <ele>270.2</ele>
        <time>2021-08-16T08:57:41Z</time>
      </trkpt>
      <trkpt lat="44.44607" lon="1.46357">
        <ele>270.1</ele>
        <time>2021-08-16T08:57:42Z</time>
      </trkpt>
      <trkpt lat="44.44612" lon="1.46356">
        <ele>270</ele>
        <time>2021-08-16T08:57:44Z</time>
      </trkpt>
      <trkpt lat="44.44615" lon="1.46355">
        <ele>269.9</ele>
        <time>2021-08-16T08:57:45Z</time>
      </trkpt>
      <trkpt lat="44.44618" lon="1.46353">
        <ele>269.8</ele>
        <time>2021-08-16T08:57:46Z</time>
      </trkpt>
      <trkpt lat="44.44621" lon="1.46352">
        <ele>269.7</ele>
        <time>2021-08-16T08:57:47Z</time>
      </trkpt>
      <trkpt lat="44.44624" lon="1.46351">
        <ele>269.5</ele>
        <time>2021-08-16T08:57:48Z</time>
      </trkpt>
      <trkpt lat="44.44628" lon="1.46349">
        <ele>269.3</ele>
        <time>2021-08-16T08:57:50Z</time>
      </trkpt>
      <trkpt lat="44.4463" lon="1.46348">
        <ele>269.2</ele>
        <time>2021-08-16T08:57:51Z</time>
      </trkpt>
      <trkpt lat="44.44632" lon="1.46347">
        <ele>269.1</ele>
        <time>2021-08-16T08:57:52Z</time>
      </trkpt>
      <trkpt lat="44.44631" lon="1.46347">
        <ele>269.1</ele>
        <time>2021-08-16T08:57:54Z</time>
      </trkpt>
      <trkpt lat="44.44632" lon="1.46346">
        <ele>269.1</ele>
        <time>2021-08-16T08:57:55Z</time>
      </trkpt>
      <trkpt lat="44.44632" lon="1.46346">
        <ele>269.1</ele>
        <time>2021-08-16T08:57:57Z</time>
      </trkpt>
      <trkpt lat="44.44632" lon="1.46345">
        <ele>269</ele>
        <time>2021-08-16T08:57:59Z</time>
      </trkpt>
      <trkpt lat="44.44632" lon="1.46345">
        <ele>269</ele>
        <time>2021-08-16T08:58:00Z</time>
      </trkpt>
      <trkpt lat="44.44633" lon="1.46345">
        <ele>269</ele>
        <time>2021-08-16T08:58:01Z</time>
      </trkpt>
      <trkpt lat="44.44636" lon="1.46344">
        <ele>268.8</ele>
        <time>2021-08-16T08:58:03Z</time>
      </trkpt>
      <trkpt lat="44.44638" lon="1.46343">
        <ele>268.7</ele>
        <time>2021-08-16T08:58:04Z</time>
      </trkpt>
      <trkpt lat="44.44642" lon="1.4634">
        <ele>268.4</ele>
        <time>2021-08-16T08:58:05Z</time>
      </trkpt>
      <trkpt lat="44.44646" lon="1.46337">
        <ele>268.1</ele>
        <time>2021-08-16T08:58:06Z</time>
      </trkpt>
      <trkpt lat="44.44651" lon="1.46335">
        <ele>267.8</ele>
        <time>2021-08-16T08:58:07Z</time>
      </trkpt>
      <trkpt lat="44.44657" lon="1.46332">
        <ele>267.4</ele>
        <time>2021-08-16T08:58:09Z</time>
      </trkpt>
      <trkpt lat="44.44662" lon="1.4633">
        <ele>267.1</ele>
        <time>2021-08-16T08:58:10Z</time>
      </trkpt>
      <trkpt lat="44.44667" lon="1.46329">
        <ele>266.7</ele>
        <time>2021-08-16T08:58:11Z</time>
      </trkpt>
      <trkpt lat="44.44672" lon="1.46328">
        <ele>266.3</ele>
        <time>2021-08-16T08:58:12Z</time>
      </trkpt>
      <trkpt lat="44.44684" lon="1.46326">
        <ele>265.4</ele>
        <time>2021-08-16T08:58:14Z</time>
      </trkpt>
      <trkpt lat="44.4469" lon="1.46324">
        <ele>265</ele>
        <time>2021-08-16T08:58:15Z</time>
      </trkpt>
      <trkpt lat="44.44702" lon="1.46318">
        <ele>264.1</ele>
        <time>2021-08-16T08:58:17Z</time>
      </trkpt>
      <trkpt lat="44.44709" lon="1.46314">
        <ele>263.8</ele>
        <time>2021-08-16T08:58:18Z</time>
      </trkpt>
      <trkpt lat="44.44715" lon="1.46312">
        <ele>263.6</ele>
        <time>2021-08-16T08:58:19Z</time>
      </trkpt>
      <trkpt lat="44.4472" lon="1.46311">
        <ele>263.5</ele>
        <time>2021-08-16T08:58:20Z</time>
      </trkpt>
      <trkpt lat="44.44725" lon="1.4631">
        <ele>263.5</ele>
        <time>2021-08-16T08:58:21Z</time>
      </trkpt>
      <trkpt lat="44.44728" lon="1.46308">
        <ele>263.5</ele>
        <time>2021-08-16T08:58:23Z</time>
      </trkpt>
      <trkpt lat="44.4473" lon="1.46307">
        <ele>263.5</ele>
        <time>2021-08-16T08:58:24Z</time>
      </trkpt>
      <trkpt lat="44.44733" lon="1.46305">
        <ele>263.5</ele>
        <time>2021-08-16T08:58:26Z</time>
      </trkpt>
      <trkpt lat="44.44736" lon="1.46304">
        <ele>263.5</ele>
        <time>2021-08-16T08:58:27Z</time>
      </trkpt>
      <trkpt lat="44.44737" lon="1.46302">
        <ele>263.6</ele>
        <time>2021-08-16T08:58:28Z</time>
      </trkpt>
      <trkpt lat="44.44741" lon="1.46299">
        <ele>263.7</ele>
        <time>2021-08-16T08:58:30Z</time>
      </trkpt>
      <trkpt lat="44.44745" lon="1.46297">
        <ele>263.8</ele>
        <time>2021-08-16T08:58:31Z</time>
      </trkpt>
      <trkpt lat="44.44749" lon="1.46295">
        <ele>263.9</ele>
        <time>2021-08-16T08:58:32Z</time>
      </trkpt>
      <trkpt lat="44.44755" lon="1.46292">
        <ele>264.2</ele>
        <time>2021-08-16T08:58:34Z</time>
      </trkpt>
      <trkpt lat="44.44758" lon="1.4629">
        <ele>264.4</ele>
        <time>2021-08-16T08:58:35Z</time>
      </trkpt>
      <trkpt lat="44.44762" lon="1.46288">
        <ele>264.6</ele>
        <time>2021-08-16T08:58:36Z</time>
      </trkpt>
      <trkpt lat="44.44766" lon="1.46286">
        <ele>264.9</ele>
        <time>2021-08-16T08:58:38Z</time>
      </trkpt>
      <trkpt lat="44.44769" lon="1.46283">
        <ele>265.1</ele>
        <time>2021-08-16T08:58:39Z</time>
      </trkpt>
      <trkpt lat="44.44773" lon="1.46282">
        <ele>265.4</ele>
        <time>2021-08-16T08:58:41Z</time>
      </trkpt>
      <trkpt lat="44.44778" lon="1.46279">
        <ele>265.8</ele>
        <time>2021-08-16T08:58:43Z</time>
      </trkpt>
      <trkpt lat="44.44781" lon="1.46278">
        <ele>266</ele>
        <time>2021-08-16T08:58:44Z</time>
      </trkpt>
      <trkpt lat="44.44784" lon="1.46276">
        <ele>266.3</ele>
        <time>2021-08-16T08:58:45Z</time>
      </trkpt>
      <trkpt lat="44.44786" lon="1.46275">
        <ele>266.4</ele>
        <time>2021-08-16T08:58:46Z</time>
      </trkpt>
      <trkpt lat="44.44788" lon="1.46275">
        <ele>266.6</ele>
        <time>2021-08-16T08:58:47Z</time>
      </trkpt>
      <trkpt lat="44.44791" lon="1.46273">
        <ele>266.9</ele>
        <time>2021-08-16T08:58:49Z</time>
      </trkpt>
      <trkpt lat="44.44794" lon="1.46271">
        <ele>267.1</ele>
        <time>2021-08-16T08:58:50Z</time>
      </trkpt>
      <trkpt lat="44.44797" lon="1.4627">
        <ele>267.4</ele>
        <time>2021-08-16T08:58:51Z</time>
      </trkpt>
      <trkpt lat="44.44798" lon="1.46269">
        <ele>267.5</ele>
        <time>2021-08-16T08:58:52Z</time>
      </trkpt>
      <trkpt lat="44.44803" lon="1.46267">
        <ele>267.9</ele>
        <time>2021-08-16T08:58:54Z</time>
      </trkpt>
      <trkpt lat="44.44806" lon="1.46265">
        <ele>268.2</ele>
        <time>2021-08-16T08:58:55Z</time>
      </trkpt>
      <trkpt lat="44.44807" lon="1.46264">
        <ele>268.2</ele>
        <time>2021-08-16T08:58:56Z</time>
      </trkpt>
      <trkpt lat="44.44809" lon="1.46263">
        <ele>268.4</ele>
        <time>2021-08-16T08:58:57Z</time>
      </trkpt>
      <trkpt lat="44.44811" lon="1.46262">
        <ele>268.6</ele>
        <time>2021-08-16T08:58:59Z</time>
      </trkpt>
      <trkpt lat="44.44814" lon="1.46261">
        <ele>268.9</ele>
        <time>2021-08-16T08:59:00Z</time>
      </trkpt>
      <trkpt lat="44.44815" lon="1.4626">
        <ele>268.9</ele>
        <time>2021-08-16T08:59:01Z</time>
      </trkpt>
      <trkpt lat="44.44818" lon="1.46259">
        <ele>269.2</ele>
        <time>2021-08-16T08:59:02Z</time>
      </trkpt>
      <trkpt lat="44.44819" lon="1.46258">
        <ele>269.3</ele>
        <time>2021-08-16T08:59:03Z</time>
      </trkpt>
      <trkpt lat="44.44821" lon="1.46256">
        <ele>269.6</ele>
        <time>2021-08-16T08:59:04Z</time>
      </trkpt>
      <trkpt lat="44.44822" lon="1.46255">
        <ele>269.6</ele>
        <time>2021-08-16T08:59:05Z</time>
      </trkpt>
      <trkpt lat="44.44825" lon="1.46252">
        <ele>269.9</ele>
        <time>2021-08-16T08:59:07Z</time>
      </trkpt>
      <trkpt lat="44.44826" lon="1.46251">
        <ele>270.1</ele>
        <time>2021-08-16T08:59:08Z</time>
      </trkpt>
      <trkpt lat="44.44828" lon="1.4625">
        <ele>270.2</ele>
        <time>2021-08-16T08:59:09Z</time>
      </trkpt>
      <trkpt lat="44.44831" lon="1.46246">
        <ele>270.5</ele>
        <time>2021-08-16T08:59:11Z</time>
      </trkpt>
      <trkpt lat="44.44832" lon="1.46245">
        <ele>270.6</ele>
        <time>2021-08-16T08:59:12Z</time>
      </trkpt>
      <trkpt lat="44.44833" lon="1.46244">
        <ele>270.7</ele>
        <time>2021-08-16T08:59:13Z</time>
      </trkpt>
      <trkpt lat="44.44835" lon="1.46242">
        <ele>270.9</ele>
        <time>2021-08-16T08:59:14Z</time>
      </trkpt>
      <trkpt lat="44.44836" lon="1.4624">
        <ele>271</ele>
        <time>2021-08-16T08:59:16Z</time>
      </trkpt>
      <trkpt lat="44.44838" lon="1.46238">
        <ele>271.2</ele>
        <time>2021-08-16T08:59:17Z</time>
      </trkpt>
      <trkpt lat="44.44839" lon="1.46237">
        <ele>271.3</ele>
        <time>2021-08-16T08:59:18Z</time>
      </trkpt>
      <trkpt lat="44.4484" lon="1.46234">
        <ele>271.5</ele>
        <time>2021-08-16T08:59:19Z</time>
      </trkpt>
      <trkpt lat="44.44841" lon="1.46233">
        <ele>271.6</ele>
        <time>2021-08-16T08:59:20Z</time>
      </trkpt>
      <trkpt lat="44.44843" lon="1.46231">
        <ele>271.8</ele>
        <time>2021-08-16T08:59:21Z</time>
      </trkpt>
      <trkpt lat="44.44845" lon="1.46228">
        <ele>272</ele>
        <time>2021-08-16T08:59:23Z</time>
      </trkpt>
      <trkpt lat="44.44847" lon="1.46225">
        <ele>272.2</ele>
        <time>2021-08-16T08:59:24Z</time>
      </trkpt>
      <trkpt lat="44.4485" lon="1.46223">
        <ele>272.4</ele>
        <time>2021-08-16T08:59:25Z</time>
      </trkpt>
      <trkpt lat="44.44851" lon="1.46222">
        <ele>272.5</ele>
        <time>2021-08-16T08:59:26Z</time>
      </trkpt>
      <trkpt lat="44.44853" lon="1.46219">
        <ele>272.7</ele>
        <time>2021-08-16T08:59:27Z</time>
      </trkpt>
      <trkpt lat="44.44854" lon="1.46218">
        <ele>272.7</ele>
        <time>2021-08-16T08:59:28Z</time>
      </trkpt>
      <trkpt lat="44.44857" lon="1.46215">
        <ele>273</ele>
        <time>2021-08-16T08:59:30Z</time>
      </trkpt>
      <trkpt lat="44.44858" lon="1.46214">
        <ele>273.1</ele>
        <time>2021-08-16T08:59:31Z</time>
      </trkpt>
      <trkpt lat="44.44859" lon="1.46212">
        <ele>273.2</ele>
        <time>2021-08-16T08:59:32Z</time>
      </trkpt>
      <trkpt lat="44.44861" lon="1.4621">
        <ele>273.3</ele>
        <time>2021-08-16T08:59:34Z</time>
      </trkpt>
      <trkpt lat="44.44862" lon="1.46208">
        <ele>273.4</ele>
        <time>2021-08-16T08:59:35Z</time>
      </trkpt>
      <trkpt lat="44.44864" lon="1.46207">
        <ele>273.5</ele>
        <time>2021-08-16T08:59:36Z</time>
      </trkpt>
      <trkpt lat="44.44866" lon="1.46206">
        <ele>273.7</ele>
        <time>2021-08-16T08:59:37Z</time>
      </trkpt>
      <trkpt lat="44.44868" lon="1.46203">
        <ele>273.8</ele>
        <time>2021-08-16T08:59:39Z</time>
      </trkpt>
      <trkpt lat="44.44872" lon="1.46201">
        <ele>274</ele>
        <time>2021-08-16T08:59:40Z</time>
      </trkpt>
      <trkpt lat="44.44873" lon="1.462">
        <ele>274</ele>
        <time>2021-08-16T08:59:41Z</time>
      </trkpt>
      <trkpt lat="44.44876" lon="1.46198">
        <ele>274.1</ele>
        <time>2021-08-16T08:59:43Z</time>
      </trkpt>
      <trkpt lat="44.44877" lon="1.46197">
        <ele>274.2</ele>
        <time>2021-08-16T08:59:44Z</time>
      </trkpt>
      <trkpt lat="44.4488" lon="1.46196">
        <ele>274.3</ele>
        <time>2021-08-16T08:59:45Z</time>
      </trkpt>
      <trkpt lat="44.44884" lon="1.46194">
        <ele>274.4</ele>
        <time>2021-08-16T08:59:47Z</time>
      </trkpt>
      <trkpt lat="44.44886" lon="1.46191">
        <ele>274.5</ele>
        <time>2021-08-16T08:59:48Z</time>
      </trkpt>
      <trkpt lat="44.44888" lon="1.46188">
        <ele>274.5</ele>
        <time>2021-08-16T08:59:49Z</time>
      </trkpt>
      <trkpt lat="44.4489" lon="1.46185">
        <ele>274.6</ele>
        <time>2021-08-16T08:59:50Z</time>
      </trkpt>
      <trkpt lat="44.44893" lon="1.46179">
        <ele>274.6</ele>
        <time>2021-08-16T08:59:52Z</time>
      </trkpt>
      <trkpt lat="44.44895" lon="1.46176">
        <ele>274.7</ele>
        <time>2021-08-16T08:59:53Z</time>
      </trkpt>
      <trkpt lat="44.44897" lon="1.46173">
        <ele>274.7</ele>
        <time>2021-08-16T08:59:54Z</time>
      </trkpt>
      <trkpt lat="44.44899" lon="1.46169">
        <ele>274.7</ele>
        <time>2021-08-16T08:59:55Z</time>
      </trkpt>
      <trkpt lat="44.44901" lon="1.46166">
        <ele>274.8</ele>
        <time>2021-08-16T08:59:56Z</time>
      </trkpt>
      <trkpt lat="44.44904" lon="1.46162">
        <ele>274.8</ele>
        <time>2021-08-16T08:59:58Z</time>
      </trkpt>
      <trkpt lat="44.44906" lon="1.46158">
        <ele>274.8</ele>
        <time>2021-08-16T08:59:59Z</time>
      </trkpt>
      <trkpt lat="44.44909" lon="1.46154">
        <ele>274.8</ele>
        <time>2021-08-16T09:00:00Z</time>
      </trkpt>
      <trkpt lat="44.44906" lon="1.4615">
        <ele>274.8</ele>
        <time>2021-08-16T09:00:02Z</time>
      </trkpt>
      <trkpt lat="44.44905" lon="1.46149">
        <ele>274.8</ele>
        <time>2021-08-16T09:00:03Z</time>
      </trkpt>
      <trkpt lat="44.44902" lon="1.46147">
        <ele>274.9</ele>
        <time>2021-08-16T09:00:04Z</time>
      </trkpt>
      <trkpt lat="44.44897" lon="1.46145">
        <ele>274.8</ele>
        <time>2021-08-16T09:00:06Z</time>
      </trkpt>
      <trkpt lat="44.44896" lon="1.46142">
        <ele>274.8</ele>
        <time>2021-08-16T09:00:07Z</time>
      </trkpt>
      <trkpt lat="44.44896" lon="1.4614">
        <ele>274.8</ele>
        <time>2021-08-16T09:00:08Z</time>
      </trkpt>
      <trkpt lat="44.44894" lon="1.46135">
        <ele>274.8</ele>
        <time>2021-08-16T09:00:10Z</time>
      </trkpt>
      <trkpt lat="44.44896" lon="1.46133">
        <ele>274.8</ele>
        <time>2021-08-16T09:00:11Z</time>
      </trkpt>
      <trkpt lat="44.44898" lon="1.46131">
        <ele>274.8</ele>
        <time>2021-08-16T09:00:13Z</time>
      </trkpt>
      <trkpt lat="44.44898" lon="1.46129">
        <ele>274.7</ele>
        <time>2021-08-16T09:00:14Z</time>
      </trkpt>
      <trkpt lat="44.44898" lon="1.46129">
        <ele>274.7</ele>
        <time>2021-08-16T09:00:15Z</time>
      </trkpt>
      <trkpt lat="44.44898" lon="1.46128">
        <ele>274.7</ele>
        <time>2021-08-16T09:00:16Z</time>
      </trkpt>
      <trkpt lat="44.449" lon="1.46127">
        <ele>274.7</ele>
        <time>2021-08-16T09:00:18Z</time>
      </trkpt>
      <trkpt lat="44.44901" lon="1.46126">
        <ele>274.7</ele>
        <time>2021-08-16T09:00:19Z</time>
      </trkpt>
      <trkpt lat="44.44903" lon="1.46124">
        <ele>274.7</ele>
        <time>2021-08-16T09:00:20Z</time>
      </trkpt>
      <trkpt lat="44.44903" lon="1.46122">
        <ele>274.6</ele>
        <time>2021-08-16T09:00:21Z</time>
      </trkpt>
      <trkpt lat="44.44905" lon="1.46118">
        <ele>274.6</ele>
        <time>2021-08-16T09:00:23Z</time>
      </trkpt>
      <trkpt lat="44.44904" lon="1.46116">
        <ele>274.5</ele>
        <time>2021-08-16T09:00:24Z</time>
      </trkpt>
      <trkpt lat="44.44905" lon="1.46116">
        <ele>274.5</ele>
        <time>2021-08-16T09:00:25Z</time>
      </trkpt>
      <trkpt lat="44.44905" lon="1.46115">
        <ele>274.5</ele>
        <time>2021-08-16T09:00:27Z</time>
      </trkpt>
      <trkpt lat="44.44906" lon="1.46114">
        <ele>274.5</ele>
        <time>2021-08-16T09:00:28Z</time>
      </trkpt>
      <trkpt lat="44.44908" lon="1.46109">
        <ele>274.4</ele>
        <time>2021-08-16T09:00:30Z</time>
      </trkpt>
      <trkpt lat="44.44909" lon="1.46108">
        <ele>274.4</ele>
        <time>2021-08-16T09:00:31Z</time>
      </trkpt>
      <trkpt lat="44.44912" lon="1.46104">
        <ele>274.1</ele>
        <time>2021-08-16T09:00:33Z</time>
      </trkpt>
      <trkpt lat="44.44915" lon="1.461">
        <ele>273.9</ele>
        <time>2021-08-16T09:00:34Z</time>
      </trkpt>
      <trkpt lat="44.44917" lon="1.46096">
        <ele>273.8</ele>
        <time>2021-08-16T09:00:35Z</time>
      </trkpt>
      <trkpt lat="44.44922" lon="1.4609">
        <ele>273.5</ele>
        <time>2021-08-16T09:00:37Z</time>
      </trkpt>
      <trkpt lat="44.44926" lon="1.46086">
        <ele>273.4</ele>
        <time>2021-08-16T09:00:38Z</time>
      </trkpt>
      <trkpt lat="44.44927" lon="1.46086">
        <ele>273.3</ele>
        <time>2021-08-16T09:00:39Z</time>
      </trkpt>
      <trkpt lat="44.44927" lon="1.46087">
        <ele>273.2</ele>
        <time>2021-08-16T09:00:40Z</time>
      </trkpt>
      <trkpt lat="44.44928" lon="1.46089">
        <ele>273.2</ele>
        <time>2021-08-16T09:00:41Z</time>
      </trkpt>
      <trkpt lat="44.4493" lon="1.4609">
        <ele>273.1</ele>
        <time>2021-08-16T09:00:43Z</time>
      </trkpt>
      <trkpt lat="44.4493" lon="1.46092">
        <ele>273</ele>
        <time>2021-08-16T09:00:45Z</time>
      </trkpt>
      <trkpt lat="44.44931" lon="1.46093">
        <ele>273</ele>
        <time>2021-08-16T09:00:46Z</time>
      </trkpt>
      <trkpt lat="44.44937" lon="1.46092">
        <ele>272.7</ele>
        <time>2021-08-16T09:00:48Z</time>
      </trkpt>
      <trkpt lat="44.4494" lon="1.46092">
        <ele>272.6</ele>
        <time>2021-08-16T09:00:49Z</time>
      </trkpt>
      <trkpt lat="44.44943" lon="1.46091">
        <ele>272.4</ele>
        <time>2021-08-16T09:00:50Z</time>
      </trkpt>
      <trkpt lat="44.44947" lon="1.4609">
        <ele>272.2</ele>
        <time>2021-08-16T09:00:52Z</time>
      </trkpt>
      <trkpt lat="44.4495" lon="1.4609">
        <ele>272.1</ele>
        <time>2021-08-16T09:00:53Z</time>
      </trkpt>
      <trkpt lat="44.44952" lon="1.46091">
        <ele>272</ele>
        <time>2021-08-16T09:00:55Z</time>
      </trkpt>
      <trkpt lat="44.44953" lon="1.46091">
        <ele>272</ele>
        <time>2021-08-16T09:00:56Z</time>
      </trkpt>
      <trkpt lat="44.44954" lon="1.46092">
        <ele>271.9</ele>
        <time>2021-08-16T09:00:57Z</time>
      </trkpt>
      <trkpt lat="44.44956" lon="1.46092">
        <ele>271.9</ele>
        <time>2021-08-16T09:00:58Z</time>
      </trkpt>
      <trkpt lat="44.44957" lon="1.46093">
        <ele>271.8</ele>
        <time>2021-08-16T09:00:59Z</time>
      </trkpt>
      <trkpt lat="44.44958" lon="1.46093">
        <ele>271.7</ele>
        <time>2021-08-16T09:01:01Z</time>
      </trkpt>
      <trkpt lat="44.4496" lon="1.46094">
        <ele>271.7</ele>
        <time>2021-08-16T09:01:03Z</time>
      </trkpt>
      <trkpt lat="44.44961" lon="1.46094">
        <ele>271.6</ele>
        <time>2021-08-16T09:01:04Z</time>
      </trkpt>
      <trkpt lat="44.44962" lon="1.46095">
        <ele>271.6</ele>
        <time>2021-08-16T09:01:05Z</time>
      </trkpt>
      <trkpt lat="44.44964" lon="1.46095">
        <ele>271.6</ele>
        <time>2021-08-16T09:01:06Z</time>
      </trkpt>
      <trkpt lat="44.44965" lon="1.46096">
        <ele>271.5</ele>
        <time>2021-08-16T09:01:33Z</time>
      </trkpt>
      <trkpt lat="44.44966" lon="1.46096">
        <ele>271.5</ele>
        <time>2021-08-16T09:01:34Z</time>
      </trkpt>
      <trkpt lat="44.44968" lon="1.46097">
        <ele>271.4</ele>
        <time>2021-08-16T09:01:35Z</time>
      </trkpt>
      <trkpt lat="44.44971" lon="1.46096">
        <ele>271.3</ele>
        <time>2021-08-16T09:01:36Z</time>
      </trkpt>
      <trkpt lat="44.44978" lon="1.46094">
        <ele>271.2</ele>
        <time>2021-08-16T09:01:38Z</time>
      </trkpt>
      <trkpt lat="44.44983" lon="1.46093">
        <ele>271.1</ele>
        <time>2021-08-16T09:01:39Z</time>
      </trkpt>
      <trkpt lat="44.44987" lon="1.46092">
        <ele>271.1</ele>
        <time>2021-08-16T09:01:40Z</time>
      </trkpt>
      <trkpt lat="44.44991" lon="1.4609">
        <ele>271</ele>
        <time>2021-08-16T09:01:42Z</time>
      </trkpt>
      <trkpt lat="44.44995" lon="1.46088">
        <ele>271</ele>
        <time>2021-08-16T09:01:43Z</time>
      </trkpt>
      <trkpt lat="44.44999" lon="1.46086">
        <ele>271</ele>
        <time>2021-08-16T09:01:44Z</time>
      </trkpt>
      <trkpt lat="44.45002" lon="1.46083">
        <ele>270.9</ele>
        <time>2021-08-16T09:01:45Z</time>
      </trkpt>
      <trkpt lat="44.45006" lon="1.46079">
        <ele>270.9</ele>
        <time>2021-08-16T09:01:47Z</time>
      </trkpt>
      <trkpt lat="44.45009" lon="1.46076">
        <ele>270.9</ele>
        <time>2021-08-16T09:01:48Z</time>
      </trkpt>
      <trkpt lat="44.45013" lon="1.46072">
        <ele>270.8</ele>
        <time>2021-08-16T09:01:49Z</time>
      </trkpt>
      <trkpt lat="44.45016" lon="1.46068">
        <ele>270.8</ele>
        <time>2021-08-16T09:01:50Z</time>
      </trkpt>
      <trkpt lat="44.45022" lon="1.46061">
        <ele>270.8</ele>
        <time>2021-08-16T09:01:52Z</time>
      </trkpt>
      <trkpt lat="44.45026" lon="1.46057">
        <ele>270.9</ele>
        <time>2021-08-16T09:01:53Z</time>
      </trkpt>
      <trkpt lat="44.45031" lon="1.46052">
        <ele>270.9</ele>
        <time>2021-08-16T09:01:54Z</time>
      </trkpt>
      <trkpt lat="44.45035" lon="1.46047">
        <ele>271</ele>
        <time>2021-08-16T09:01:56Z</time>
      </trkpt>
      <trkpt lat="44.45037" lon="1.46043">
        <ele>271</ele>
        <time>2021-08-16T09:01:57Z</time>
      </trkpt>
      <trkpt lat="44.45038" lon="1.46039">
        <ele>271.1</ele>
        <time>2021-08-16T09:01:58Z</time>
      </trkpt>
      <trkpt lat="44.45039" lon="1.46034">
        <ele>271.2</ele>
        <time>2021-08-16T09:02:00Z</time>
      </trkpt>
      <trkpt lat="44.4504" lon="1.46031">
        <ele>271.3</ele>
        <time>2021-08-16T09:02:01Z</time>
      </trkpt>
      <trkpt lat="44.45042" lon="1.46028">
        <ele>271.4</ele>
        <time>2021-08-16T09:02:02Z</time>
      </trkpt>
      <trkpt lat="44.45043" lon="1.46026">
        <ele>271.4</ele>
        <time>2021-08-16T09:02:03Z</time>
      </trkpt>
      <trkpt lat="44.45044" lon="1.46025">
        <ele>271.5</ele>
        <time>2021-08-16T09:02:04Z</time>
      </trkpt>
      <trkpt lat="44.45046" lon="1.4602">
        <ele>271.6</ele>
        <time>2021-08-16T09:02:06Z</time>
      </trkpt>
      <trkpt lat="44.45049" lon="1.46018">
        <ele>271.8</ele>
        <time>2021-08-16T09:02:07Z</time>
      </trkpt>
      <trkpt lat="44.45053" lon="1.46017">
        <ele>272</ele>
        <time>2021-08-16T09:02:08Z</time>
      </trkpt>
      <trkpt lat="44.45057" lon="1.46017">
        <ele>272.2</ele>
        <time>2021-08-16T09:02:09Z</time>
      </trkpt>
      <trkpt lat="44.45061" lon="1.46011">
        <ele>272.6</ele>
        <time>2021-08-16T09:02:10Z</time>
      </trkpt>
      <trkpt lat="44.45064" lon="1.46005">
        <ele>273.1</ele>
        <time>2021-08-16T09:02:12Z</time>
      </trkpt>
      <trkpt lat="44.45067" lon="1.45999">
        <ele>273.5</ele>
        <time>2021-08-16T09:02:13Z</time>
      </trkpt>
      <trkpt lat="44.45069" lon="1.45995">
        <ele>273.7</ele>
        <time>2021-08-16T09:02:14Z</time>
      </trkpt>
      <trkpt lat="44.4507" lon="1.45992">
        <ele>273.9</ele>
        <time>2021-08-16T09:02:16Z</time>
      </trkpt>
      <trkpt lat="44.45071" lon="1.4599">
        <ele>274</ele>
        <time>2021-08-16T09:02:17Z</time>
      </trkpt>
      <trkpt lat="44.45072" lon="1.45988">
        <ele>274.1</ele>
        <time>2021-08-16T09:02:18Z</time>
      </trkpt>
      <trkpt lat="44.45073" lon="1.45983">
        <ele>274.3</ele>
        <time>2021-08-16T09:02:19Z</time>
      </trkpt>
      <trkpt lat="44.45074" lon="1.45982">
        <ele>274.4</ele>
        <time>2021-08-16T09:02:20Z</time>
      </trkpt>
      <trkpt lat="44.45075" lon="1.45977">
        <ele>274.6</ele>
        <time>2021-08-16T09:02:22Z</time>
      </trkpt>
      <trkpt lat="44.45076" lon="1.45973">
        <ele>274.8</ele>
        <time>2021-08-16T09:02:23Z</time>
      </trkpt>
      <trkpt lat="44.45077" lon="1.45969">
        <ele>275</ele>
        <time>2021-08-16T09:02:24Z</time>
      </trkpt>
      <trkpt lat="44.45078" lon="1.45964">
        <ele>275.2</ele>
        <time>2021-08-16T09:02:26Z</time>
      </trkpt>
      <trkpt lat="44.45079" lon="1.45958">
        <ele>275.4</ele>
        <time>2021-08-16T09:02:27Z</time>
      </trkpt>
      <trkpt lat="44.4508" lon="1.45951">
        <ele>275.5</ele>
        <time>2021-08-16T09:02:29Z</time>
      </trkpt>
      <trkpt lat="44.45082" lon="1.45946">
        <ele>275.6</ele>
        <time>2021-08-16T09:02:30Z</time>
      </trkpt>
      <trkpt lat="44.45082" lon="1.45941">
        <ele>275.6</ele>
        <time>2021-08-16T09:02:31Z</time>
      </trkpt>
      <trkpt lat="44.45084" lon="1.45936">
        <ele>275.7</ele>
        <time>2021-08-16T09:02:32Z</time>
      </trkpt>
      <trkpt lat="44.45086" lon="1.4593">
        <ele>275.7</ele>
        <time>2021-08-16T09:02:34Z</time>
      </trkpt>
      <trkpt lat="44.45088" lon="1.45923">
        <ele>275.7</ele>
        <time>2021-08-16T09:02:36Z</time>
      </trkpt>
      <trkpt lat="44.45089" lon="1.45919">
        <ele>275.7</ele>
        <time>2021-08-16T09:02:37Z</time>
      </trkpt>
      <trkpt lat="44.4509" lon="1.45915">
        <ele>275.6</ele>
        <time>2021-08-16T09:02:38Z</time>
      </trkpt>
      <trkpt lat="44.4509" lon="1.45911">
        <ele>275.6</ele>
        <time>2021-08-16T09:02:40Z</time>
      </trkpt>
      <trkpt lat="44.4509" lon="1.45907">
        <ele>275.5</ele>
        <time>2021-08-16T09:02:41Z</time>
      </trkpt>
      <trkpt lat="44.4509" lon="1.45901">
        <ele>275.5</ele>
        <time>2021-08-16T09:02:42Z</time>
      </trkpt>
      <trkpt lat="44.4509" lon="1.45896">
        <ele>275.4</ele>
        <time>2021-08-16T09:02:43Z</time>
      </trkpt>
      <trkpt lat="44.4509" lon="1.45891">
        <ele>275.4</ele>
        <time>2021-08-16T09:02:44Z</time>
      </trkpt>
      <trkpt lat="44.4509" lon="1.45886">
        <ele>275.3</ele>
        <time>2021-08-16T09:02:45Z</time>
      </trkpt>
      <trkpt lat="44.4509" lon="1.45879">
        <ele>275.2</ele>
        <time>2021-08-16T09:02:47Z</time>
      </trkpt>
      <trkpt lat="44.4509" lon="1.45874">
        <ele>275.1</ele>
        <time>2021-08-16T09:02:48Z</time>
      </trkpt>
      <trkpt lat="44.4509" lon="1.45869">
        <ele>275</ele>
        <time>2021-08-16T09:02:49Z</time>
      </trkpt>
      <trkpt lat="44.45091" lon="1.45864">
        <ele>274.9</ele>
        <time>2021-08-16T09:02:50Z</time>
      </trkpt>
      <trkpt lat="44.45092" lon="1.4586">
        <ele>274.8</ele>
        <time>2021-08-16T09:02:51Z</time>
      </trkpt>
      <trkpt lat="44.45093" lon="1.45856">
        <ele>274.7</ele>
        <time>2021-08-16T09:02:52Z</time>
      </trkpt>
      <trkpt lat="44.45093" lon="1.45851">
        <ele>274.6</ele>
        <time>2021-08-16T09:02:53Z</time>
      </trkpt>
      <trkpt lat="44.45092" lon="1.45845">
        <ele>274.4</ele>
        <time>2021-08-16T09:02:54Z</time>
      </trkpt>
      <trkpt lat="44.45091" lon="1.45839">
        <ele>274.2</ele>
        <time>2021-08-16T09:02:56Z</time>
      </trkpt>
      <trkpt lat="44.4509" lon="1.45829">
        <ele>273.9</ele>
        <time>2021-08-16T09:02:57Z</time>
      </trkpt>
      <trkpt lat="44.45089" lon="1.45814">
        <ele>273.5</ele>
        <time>2021-08-16T09:02:59Z</time>
      </trkpt>
      <trkpt lat="44.45092" lon="1.45802">
        <ele>273.3</ele>
        <time>2021-08-16T09:03:01Z</time>
      </trkpt>
      <trkpt lat="44.45095" lon="1.45799">
        <ele>273.2</ele>
        <time>2021-08-16T09:03:02Z</time>
      </trkpt>
      <trkpt lat="44.45096" lon="1.45792">
        <ele>273.1</ele>
        <time>2021-08-16T09:03:04Z</time>
      </trkpt>
      <trkpt lat="44.45096" lon="1.45791">
        <ele>273</ele>
        <time>2021-08-16T09:03:05Z</time>
      </trkpt>
      <trkpt lat="44.45096" lon="1.45789">
        <ele>273</ele>
        <time>2021-08-16T09:03:06Z</time>
      </trkpt>
      <trkpt lat="44.45096" lon="1.45784">
        <ele>272.9</ele>
        <time>2021-08-16T09:03:07Z</time>
      </trkpt>
      <trkpt lat="44.45097" lon="1.45781">
        <ele>272.9</ele>
        <time>2021-08-16T09:03:08Z</time>
      </trkpt>
      <trkpt lat="44.45096" lon="1.45777">
        <ele>272.8</ele>
        <time>2021-08-16T09:03:10Z</time>
      </trkpt>
      <trkpt lat="44.45096" lon="1.4577">
        <ele>272.6</ele>
        <time>2021-08-16T09:03:11Z</time>
      </trkpt>
      <trkpt lat="44.45096" lon="1.45763">
        <ele>272.5</ele>
        <time>2021-08-16T09:03:12Z</time>
      </trkpt>
      <trkpt lat="44.45097" lon="1.45751">
        <ele>272.2</ele>
        <time>2021-08-16T09:03:14Z</time>
      </trkpt>
      <trkpt lat="44.45099" lon="1.45745">
        <ele>272.1</ele>
        <time>2021-08-16T09:03:15Z</time>
      </trkpt>
      <trkpt lat="44.45101" lon="1.45739">
        <ele>271.9</ele>
        <time>2021-08-16T09:03:16Z</time>
      </trkpt>
      <trkpt lat="44.45101" lon="1.45734">
        <ele>271.8</ele>
        <time>2021-08-16T09:03:18Z</time>
      </trkpt>
      <trkpt lat="44.45101" lon="1.45727">
        <ele>271.7</ele>
        <time>2021-08-16T09:03:19Z</time>
      </trkpt>
      <trkpt lat="44.45102" lon="1.4572">
        <ele>271.6</ele>
        <time>2021-08-16T09:03:20Z</time>
      </trkpt>
      <trkpt lat="44.45105" lon="1.45713">
        <ele>271.4</ele>
        <time>2021-08-16T09:03:22Z</time>
      </trkpt>
      <trkpt lat="44.45107" lon="1.4571">
        <ele>271.3</ele>
        <time>2021-08-16T09:03:23Z</time>
      </trkpt>
      <trkpt lat="44.45107" lon="1.45705">
        <ele>271.2</ele>
        <time>2021-08-16T09:03:25Z</time>
      </trkpt>
      <trkpt lat="44.45105" lon="1.45701">
        <ele>271.1</ele>
        <time>2021-08-16T09:03:26Z</time>
      </trkpt>
      <trkpt lat="44.45104" lon="1.45698">
        <ele>271</ele>
        <time>2021-08-16T09:03:28Z</time>
      </trkpt>
      <trkpt lat="44.45104" lon="1.45698">
        <ele>271</ele>
        <time>2021-08-16T09:03:29Z</time>
      </trkpt>
      <trkpt lat="44.45104" lon="1.45697">
        <ele>271</ele>
        <time>2021-08-16T09:03:31Z</time>
      </trkpt>
      <trkpt lat="44.45104" lon="1.45697">
        <ele>271</ele>
        <time>2021-08-16T09:03:32Z</time>
      </trkpt>
      <trkpt lat="44.45104" lon="1.45697">
        <ele>271</ele>
        <time>2021-08-16T09:03:33Z</time>
      </trkpt>
      <trkpt lat="44.45104" lon="1.45696">
        <ele>271</ele>
        <time>2021-08-16T09:03:35Z</time>
      </trkpt>
      <trkpt lat="44.45104" lon="1.45696">
        <ele>271</ele>
        <time>2021-08-16T09:03:37Z</time>
      </trkpt>
      <trkpt lat="44.45105" lon="1.45696">
        <ele>271</ele>
        <time>2021-08-16T09:03:39Z</time>
      </trkpt>
      <trkpt lat="44.45103" lon="1.4569">
        <ele>270.8</ele>
        <time>2021-08-16T09:04:13Z</time>
      </trkpt>
      <trkpt lat="44.45103" lon="1.45686">
        <ele>270.7</ele>
        <time>2021-08-16T09:04:14Z</time>
      </trkpt>
      <trkpt lat="44.45102" lon="1.45681">
        <ele>270.6</ele>
        <time>2021-08-16T09:04:16Z</time>
      </trkpt>
      <trkpt lat="44.45101" lon="1.45674">
        <ele>270.5</ele>
        <time>2021-08-16T09:04:17Z</time>
      </trkpt>
      <trkpt lat="44.451" lon="1.45664">
        <ele>270.3</ele>
        <time>2021-08-16T09:04:19Z</time>
      </trkpt>
      <trkpt lat="44.45099" lon="1.45657">
        <ele>270.2</ele>
        <time>2021-08-16T09:04:20Z</time>
      </trkpt>
      <trkpt lat="44.45097" lon="1.45651">
        <ele>270.2</ele>
        <time>2021-08-16T09:04:21Z</time>
      </trkpt>
      <trkpt lat="44.45097" lon="1.45645">
        <ele>270.1</ele>
        <time>2021-08-16T09:04:23Z</time>
      </trkpt>
      <trkpt lat="44.45095" lon="1.45639">
        <ele>270.1</ele>
        <time>2021-08-16T09:04:24Z</time>
      </trkpt>
      <trkpt lat="44.45094" lon="1.45632">
        <ele>270.2</ele>
        <time>2021-08-16T09:04:26Z</time>
      </trkpt>
      <trkpt lat="44.45094" lon="1.45626">
        <ele>270.3</ele>
        <time>2021-08-16T09:04:27Z</time>
      </trkpt>
      <trkpt lat="44.45094" lon="1.45622">
        <ele>270.4</ele>
        <time>2021-08-16T09:04:28Z</time>
      </trkpt>
      <trkpt lat="44.45094" lon="1.45618">
        <ele>270.5</ele>
        <time>2021-08-16T09:04:29Z</time>
      </trkpt>
      <trkpt lat="44.45095" lon="1.45612">
        <ele>270.7</ele>
        <time>2021-08-16T09:04:31Z</time>
      </trkpt>
      <trkpt lat="44.45094" lon="1.45607">
        <ele>270.9</ele>
        <time>2021-08-16T09:04:32Z</time>
      </trkpt>
      <trkpt lat="44.45094" lon="1.45605">
        <ele>271</ele>
        <time>2021-08-16T09:04:33Z</time>
      </trkpt>
      <trkpt lat="44.45093" lon="1.456">
        <ele>271.1</ele>
        <time>2021-08-16T09:04:35Z</time>
      </trkpt>
      <trkpt lat="44.45093" lon="1.45596">
        <ele>271.3</ele>
        <time>2021-08-16T09:04:36Z</time>
      </trkpt>
      <trkpt lat="44.45092" lon="1.45591">
        <ele>271.4</ele>
        <time>2021-08-16T09:04:37Z</time>
      </trkpt>
      <trkpt lat="44.45092" lon="1.45588">
        <ele>271.5</ele>
        <time>2021-08-16T09:04:38Z</time>
      </trkpt>
      <trkpt lat="44.4509" lon="1.45581">
        <ele>271.8</ele>
        <time>2021-08-16T09:04:40Z</time>
      </trkpt>
      <trkpt lat="44.45089" lon="1.45576">
        <ele>271.9</ele>
        <time>2021-08-16T09:04:41Z</time>
      </trkpt>
      <trkpt lat="44.45088" lon="1.45568">
        <ele>272.1</ele>
        <time>2021-08-16T09:04:43Z</time>
      </trkpt>
      <trkpt lat="44.45088" lon="1.45564">
        <ele>272.2</ele>
        <time>2021-08-16T09:04:44Z</time>
      </trkpt>
      <trkpt lat="44.45087" lon="1.45555">
        <ele>272.4</ele>
        <time>2021-08-16T09:04:46Z</time>
      </trkpt>
      <trkpt lat="44.45087" lon="1.45549">
        <ele>272.5</ele>
        <time>2021-08-16T09:04:47Z</time>
      </trkpt>
      <trkpt lat="44.45086" lon="1.45543">
        <ele>272.5</ele>
        <time>2021-08-16T09:04:49Z</time>
      </trkpt>
      <trkpt lat="44.45087" lon="1.45538">
        <ele>272.6</ele>
        <time>2021-08-16T09:04:50Z</time>
      </trkpt>
      <trkpt lat="44.45086" lon="1.45531">
        <ele>272.7</ele>
        <time>2021-08-16T09:04:51Z</time>
      </trkpt>
      <trkpt lat="44.45086" lon="1.45524">
        <ele>272.8</ele>
        <time>2021-08-16T09:04:52Z</time>
      </trkpt>
      <trkpt lat="44.45087" lon="1.45519">
        <ele>272.8</ele>
        <time>2021-08-16T09:04:54Z</time>
      </trkpt>
      <trkpt lat="44.45087" lon="1.45512">
        <ele>272.8</ele>
        <time>2021-08-16T09:04:55Z</time>
      </trkpt>
      <trkpt lat="44.45089" lon="1.45504">
        <ele>272.8</ele>
        <time>2021-08-16T09:04:56Z</time>
      </trkpt>
      <trkpt lat="44.45091" lon="1.45494">
        <ele>272.8</ele>
        <time>2021-08-16T09:04:58Z</time>
      </trkpt>
      <trkpt lat="44.45096" lon="1.45486">
        <ele>272.7</ele>
        <time>2021-08-16T09:05:00Z</time>
      </trkpt>
      <trkpt lat="44.45099" lon="1.4548">
        <ele>272.7</ele>
        <time>2021-08-16T09:05:01Z</time>
      </trkpt>
      <trkpt lat="44.45101" lon="1.45476">
        <ele>272.7</ele>
        <time>2021-08-16T09:05:02Z</time>
      </trkpt>
      <trkpt lat="44.45105" lon="1.45469">
        <ele>272.8</ele>
        <time>2021-08-16T09:05:04Z</time>
      </trkpt>
      <trkpt lat="44.45107" lon="1.45464">
        <ele>272.8</ele>
        <time>2021-08-16T09:05:05Z</time>
      </trkpt>
      <trkpt lat="44.45111" lon="1.45454">
        <ele>272.9</ele>
        <time>2021-08-16T09:05:07Z</time>
      </trkpt>
      <trkpt lat="44.45113" lon="1.4545">
        <ele>272.9</ele>
        <time>2021-08-16T09:05:08Z</time>
      </trkpt>
      <trkpt lat="44.45117" lon="1.4544">
        <ele>273</ele>
        <time>2021-08-16T09:05:10Z</time>
      </trkpt>
      <trkpt lat="44.4512" lon="1.4543">
        <ele>273</ele>
        <time>2021-08-16T09:05:12Z</time>
      </trkpt>
      <trkpt lat="44.45122" lon="1.45423">
        <ele>273.1</ele>
        <time>2021-08-16T09:05:14Z</time>
      </trkpt>
      <trkpt lat="44.45124" lon="1.45418">
        <ele>273.1</ele>
        <time>2021-08-16T09:05:15Z</time>
      </trkpt>
      <trkpt lat="44.45126" lon="1.45413">
        <ele>273.2</ele>
        <time>2021-08-16T09:05:16Z</time>
      </trkpt>
      <trkpt lat="44.45128" lon="1.45407">
        <ele>273.3</ele>
        <time>2021-08-16T09:05:17Z</time>
      </trkpt>
      <trkpt lat="44.4513" lon="1.45403">
        <ele>273.4</ele>
        <time>2021-08-16T09:05:18Z</time>
      </trkpt>
      <trkpt lat="44.45133" lon="1.45399">
        <ele>273.6</ele>
        <time>2021-08-16T09:05:20Z</time>
      </trkpt>
      <trkpt lat="44.45136" lon="1.45396">
        <ele>273.8</ele>
        <time>2021-08-16T09:05:21Z</time>
      </trkpt>
      <trkpt lat="44.45139" lon="1.45394">
        <ele>274</ele>
        <time>2021-08-16T09:05:23Z</time>
      </trkpt>
      <trkpt lat="44.4514" lon="1.45393">
        <ele>274</ele>
        <time>2021-08-16T09:05:24Z</time>
      </trkpt>
      <trkpt lat="44.4514" lon="1.45393">
        <ele>274</ele>
        <time>2021-08-16T09:05:25Z</time>
      </trkpt>
      <trkpt lat="44.4514" lon="1.45394">
        <ele>274.1</ele>
        <time>2021-08-16T09:05:27Z</time>
      </trkpt>
      <trkpt lat="44.45141" lon="1.45394">
        <ele>274.1</ele>
        <time>2021-08-16T09:05:28Z</time>
      </trkpt>
      <trkpt lat="44.45141" lon="1.45394">
        <ele>274.1</ele>
        <time>2021-08-16T09:05:29Z</time>
      </trkpt>
      <trkpt lat="44.45141" lon="1.45395">
        <ele>274.1</ele>
        <time>2021-08-16T09:05:30Z</time>
      </trkpt>
      <trkpt lat="44.45142" lon="1.45396">
        <ele>274.2</ele>
        <time>2021-08-16T09:05:32Z</time>
      </trkpt>
      <trkpt lat="44.45143" lon="1.45396">
        <ele>274.3</ele>
        <time>2021-08-16T09:05:33Z</time>
      </trkpt>
      <trkpt lat="44.45144" lon="1.45397">
        <ele>274.4</ele>
        <time>2021-08-16T09:05:34Z</time>
      </trkpt>
      <trkpt lat="44.45148" lon="1.45401">
        <ele>274.8</ele>
        <time>2021-08-16T09:05:36Z</time>
      </trkpt>
      <trkpt lat="44.45152" lon="1.45402">
        <ele>275.1</ele>
        <time>2021-08-16T09:05:37Z</time>
      </trkpt>
      <trkpt lat="44.45153" lon="1.45402">
        <ele>275.1</ele>
        <time>2021-08-16T09:05:38Z</time>
      </trkpt>
      <trkpt lat="44.45154" lon="1.45403">
        <ele>275.3</ele>
        <time>2021-08-16T09:05:39Z</time>
      </trkpt>
      <trkpt lat="44.45157" lon="1.45404">
        <ele>275.5</ele>
        <time>2021-08-16T09:05:41Z</time>
      </trkpt>
      <trkpt lat="44.45158" lon="1.45404">
        <ele>275.6</ele>
        <time>2021-08-16T09:05:42Z</time>
      </trkpt>
      <trkpt lat="44.45161" lon="1.45403">
        <ele>275.8</ele>
        <time>2021-08-16T09:05:44Z</time>
      </trkpt>
      <trkpt lat="44.45163" lon="1.45402">
        <ele>276</ele>
        <time>2021-08-16T09:05:45Z</time>
      </trkpt>
      <trkpt lat="44.45165" lon="1.45401">
        <ele>276.2</ele>
        <time>2021-08-16T09:05:47Z</time>
      </trkpt>
      <trkpt lat="44.45169" lon="1.454">
        <ele>276.5</ele>
        <time>2021-08-16T09:05:48Z</time>
      </trkpt>
      <trkpt lat="44.4517" lon="1.454">
        <ele>276.6</ele>
        <time>2021-08-16T09:05:49Z</time>
      </trkpt>
      <trkpt lat="44.45173" lon="1.45399">
        <ele>276.8</ele>
        <time>2021-08-16T09:05:50Z</time>
      </trkpt>
      <trkpt lat="44.45176" lon="1.45397">
        <ele>277.1</ele>
        <time>2021-08-16T09:05:52Z</time>
      </trkpt>
      <trkpt lat="44.45179" lon="1.45396">
        <ele>277.3</ele>
        <time>2021-08-16T09:05:53Z</time>
      </trkpt>
      <trkpt lat="44.45184" lon="1.45394">
        <ele>277.7</ele>
        <time>2021-08-16T09:05:55Z</time>
      </trkpt>
      <trkpt lat="44.45185" lon="1.45393">
        <ele>277.8</ele>
        <time>2021-08-16T09:05:56Z</time>
      </trkpt>
      <trkpt lat="44.45187" lon="1.45392">
        <ele>277.9</ele>
        <time>2021-08-16T09:05:57Z</time>
      </trkpt>
      <trkpt lat="44.4519" lon="1.45391">
        <ele>278.1</ele>
        <time>2021-08-16T09:05:59Z</time>
      </trkpt>
      <trkpt lat="44.45194" lon="1.4539">
        <ele>278.3</ele>
        <time>2021-08-16T09:06:00Z</time>
      </trkpt>
      <trkpt lat="44.45197" lon="1.4539">
        <ele>278.4</ele>
        <time>2021-08-16T09:06:01Z</time>
      </trkpt>
      <trkpt lat="44.452" lon="1.4539">
        <ele>278.5</ele>
        <time>2021-08-16T09:06:02Z</time>
      </trkpt>
      <trkpt lat="44.45203" lon="1.45391">
        <ele>278.6</ele>
        <time>2021-08-16T09:06:03Z</time>
      </trkpt>
      <trkpt lat="44.45206" lon="1.45392">
        <ele>278.6</ele>
        <time>2021-08-16T09:06:05Z</time>
      </trkpt>
      <trkpt lat="44.45208" lon="1.45392">
        <ele>278.7</ele>
        <time>2021-08-16T09:06:06Z</time>
      </trkpt>
      <trkpt lat="44.45211" lon="1.45387">
        <ele>278.7</ele>
        <time>2021-08-16T09:06:07Z</time>
      </trkpt>
      <trkpt lat="44.45213" lon="1.45383">
        <ele>278.7</ele>
        <time>2021-08-16T09:06:08Z</time>
      </trkpt>
      <trkpt lat="44.45217" lon="1.45378">
        <ele>278.7</ele>
        <time>2021-08-16T09:06:10Z</time>
      </trkpt>
      <trkpt lat="44.45219" lon="1.45378">
        <ele>278.6</ele>
        <time>2021-08-16T09:06:11Z</time>
      </trkpt>
      <trkpt lat="44.45221" lon="1.45377">
        <ele>278.6</ele>
        <time>2021-08-16T09:06:13Z</time>
      </trkpt>
      <trkpt lat="44.45223" lon="1.45376">
        <ele>278.6</ele>
        <time>2021-08-16T09:06:14Z</time>
      </trkpt>
      <trkpt lat="44.45225" lon="1.45376">
        <ele>278.5</ele>
        <time>2021-08-16T09:06:15Z</time>
      </trkpt>
      <trkpt lat="44.45227" lon="1.45374">
        <ele>278.5</ele>
        <time>2021-08-16T09:06:16Z</time>
      </trkpt>
      <trkpt lat="44.45229" lon="1.45375">
        <ele>278.4</ele>
        <time>2021-08-16T09:06:18Z</time>
      </trkpt>
      <trkpt lat="44.4523" lon="1.45377">
        <ele>278.4</ele>
        <time>2021-08-16T09:06:19Z</time>
      </trkpt>
      <trkpt lat="44.4523" lon="1.45379">
        <ele>278.4</ele>
        <time>2021-08-16T09:06:21Z</time>
      </trkpt>
      <trkpt lat="44.45229" lon="1.4538">
        <ele>278.4</ele>
        <time>2021-08-16T09:06:22Z</time>
      </trkpt>
      <trkpt lat="44.45229" lon="1.45382">
        <ele>278.4</ele>
        <time>2021-08-16T09:06:23Z</time>
      </trkpt>
      <trkpt lat="44.45229" lon="1.45385">
        <ele>278.3</ele>
        <time>2021-08-16T09:06:24Z</time>
      </trkpt>
      <trkpt lat="44.45228" lon="1.4539">
        <ele>278.3</ele>
        <time>2021-08-16T09:06:26Z</time>
      </trkpt>
      <trkpt lat="44.45228" lon="1.45395">
        <ele>278.2</ele>
        <time>2021-08-16T09:06:27Z</time>
      </trkpt>
      <trkpt lat="44.45228" lon="1.45397">
        <ele>278.2</ele>
        <time>2021-08-16T09:06:28Z</time>
      </trkpt>
      <trkpt lat="44.45228" lon="1.45398">
        <ele>278.2</ele>
        <time>2021-08-16T09:06:29Z</time>
      </trkpt>
      <trkpt lat="44.45229" lon="1.45401">
        <ele>278.1</ele>
        <time>2021-08-16T09:06:31Z</time>
      </trkpt>
      <trkpt lat="44.4523" lon="1.45403">
        <ele>278.1</ele>
        <time>2021-08-16T09:06:32Z</time>
      </trkpt>
      <trkpt lat="44.45233" lon="1.45406">
        <ele>278</ele>
        <time>2021-08-16T09:06:34Z</time>
      </trkpt>
      <trkpt lat="44.45234" lon="1.4541">
        <ele>277.9</ele>
        <time>2021-08-16T09:06:36Z</time>
      </trkpt>
      <trkpt lat="44.45235" lon="1.45411">
        <ele>277.9</ele>
        <time>2021-08-16T09:06:37Z</time>
      </trkpt>
      <trkpt lat="44.45236" lon="1.45414">
        <ele>277.7</ele>
        <time>2021-08-16T09:06:38Z</time>
      </trkpt>
      <trkpt lat="44.45238" lon="1.45417">
        <ele>277.5</ele>
        <time>2021-08-16T09:06:40Z</time>
      </trkpt>
      <trkpt lat="44.45241" lon="1.45419">
        <ele>277.3</ele>
        <time>2021-08-16T09:06:41Z</time>
      </trkpt>
      <trkpt lat="44.45243" lon="1.45422">
        <ele>277.1</ele>
        <time>2021-08-16T09:06:42Z</time>
      </trkpt>
      <trkpt lat="44.45246" lon="1.45425">
        <ele>276.7</ele>
        <time>2021-08-16T09:06:43Z</time>
      </trkpt>
      <trkpt lat="44.45249" lon="1.45426">
        <ele>276.3</ele>
        <time>2021-08-16T09:06:45Z</time>
      </trkpt>
      <trkpt lat="44.45251" lon="1.45424">
        <ele>276.1</ele>
        <time>2021-08-16T09:06:46Z</time>
      </trkpt>
      <trkpt lat="44.45252" lon="1.45424">
        <ele>275.9</ele>
        <time>2021-08-16T09:06:47Z</time>
      </trkpt>
      <trkpt lat="44.45252" lon="1.45424">
        <ele>275.8</ele>
        <time>2021-08-16T09:06:48Z</time>
      </trkpt>
      <trkpt lat="44.45252" lon="1.45423">
        <ele>275.8</ele>
        <time>2021-08-16T09:06:50Z</time>
      </trkpt>
      <trkpt lat="44.45252" lon="1.45423">
        <ele>275.8</ele>
        <time>2021-08-16T09:06:52Z</time>
      </trkpt>
      <trkpt lat="44.45252" lon="1.45423">
        <ele>275.8</ele>
        <time>2021-08-16T09:06:54Z</time>
      </trkpt>
      <trkpt lat="44.45252" lon="1.45423">
        <ele>275.7</ele>
        <time>2021-08-16T09:06:55Z</time>
      </trkpt>
      <trkpt lat="44.45252" lon="1.45423">
        <ele>275.7</ele>
        <time>2021-08-16T09:06:56Z</time>
      </trkpt>
      <trkpt lat="44.45248" lon="1.45422">
        <ele>275.2</ele>
        <time>2021-08-16T09:09:52Z</time>
      </trkpt>
      <trkpt lat="44.45246" lon="1.45422">
        <ele>275</ele>
        <time>2021-08-16T09:09:53Z</time>
      </trkpt>
      <trkpt lat="44.45246" lon="1.45422">
        <ele>275</ele>
        <time>2021-08-16T09:09:55Z</time>
      </trkpt>
      <trkpt lat="44.45245" lon="1.45422">
        <ele>274.9</ele>
        <time>2021-08-16T09:09:56Z</time>
      </trkpt>
      <trkpt lat="44.45244" lon="1.45422">
        <ele>274.7</ele>
        <time>2021-08-16T09:09:58Z</time>
      </trkpt>
      <trkpt lat="44.45244" lon="1.45422">
        <ele>274.7</ele>
        <time>2021-08-16T09:09:59Z</time>
      </trkpt>
      <trkpt lat="44.45244" lon="1.45422">
        <ele>274.7</ele>
        <time>2021-08-16T09:10:01Z</time>
      </trkpt>
      <trkpt lat="44.45244" lon="1.45422">
        <ele>274.7</ele>
        <time>2021-08-16T09:10:02Z</time>
      </trkpt>
      <trkpt lat="44.45244" lon="1.45422">
        <ele>274.7</ele>
        <time>2021-08-16T09:10:04Z</time>
      </trkpt>
      <trkpt lat="44.45232" lon="1.45407">
        <ele>273</ele>
        <time>2021-08-16T09:10:20Z</time>
      </trkpt>
      <trkpt lat="44.45231" lon="1.45403">
        <ele>272.7</ele>
        <time>2021-08-16T09:10:21Z</time>
      </trkpt>
      <trkpt lat="44.4523" lon="1.45399">
        <ele>272.5</ele>
        <time>2021-08-16T09:10:23Z</time>
      </trkpt>
      <trkpt lat="44.45231" lon="1.45397">
        <ele>272.3</ele>
        <time>2021-08-16T09:10:24Z</time>
      </trkpt>
      <trkpt lat="44.45231" lon="1.45395">
        <ele>272.2</ele>
        <time>2021-08-16T09:10:25Z</time>
      </trkpt>
      <trkpt lat="44.45231" lon="1.45393">
        <ele>272.1</ele>
        <time>2021-08-16T09:10:26Z</time>
      </trkpt>
      <trkpt lat="44.45232" lon="1.45392">
        <ele>272.1</ele>
        <time>2021-08-16T09:10:28Z</time>
      </trkpt>
      <trkpt lat="44.45232" lon="1.45392">
        <ele>272</ele>
        <time>2021-08-16T09:10:29Z</time>
      </trkpt>
      <trkpt lat="44.45233" lon="1.45393">
        <ele>272</ele>
        <time>2021-08-16T09:10:30Z</time>
      </trkpt>
      <trkpt lat="44.45232" lon="1.45393">
        <ele>272</ele>
        <time>2021-08-16T09:10:31Z</time>
      </trkpt>
      <trkpt lat="44.45232" lon="1.45393">
        <ele>272</ele>
        <time>2021-08-16T09:10:32Z</time>
      </trkpt>
      <trkpt lat="44.45232" lon="1.45393">
        <ele>272</ele>
        <time>2021-08-16T09:10:34Z</time>
      </trkpt>
      <trkpt lat="44.45232" lon="1.45393">
        <ele>272</ele>
        <time>2021-08-16T09:10:35Z</time>
      </trkpt>
      <trkpt lat="44.45232" lon="1.45393">
        <ele>272</ele>
        <time>2021-08-16T09:10:37Z</time>
      </trkpt>
      <trkpt lat="44.45234" lon="1.45395">
        <ele>271.9</ele>
        <time>2021-08-16T09:10:51Z</time>
      </trkpt>
      <trkpt lat="44.4524" lon="1.45401">
        <ele>271.6</ele>
        <time>2021-08-16T09:10:53Z</time>
      </trkpt>
      <trkpt lat="44.45244" lon="1.45406">
        <ele>271.5</ele>
        <time>2021-08-16T09:10:54Z</time>
      </trkpt>
      <trkpt lat="44.45247" lon="1.45408">
        <ele>271.4</ele>
        <time>2021-08-16T09:10:55Z</time>
      </trkpt>
      <trkpt lat="44.4525" lon="1.45409">
        <ele>271.3</ele>
        <time>2021-08-16T09:10:56Z</time>
      </trkpt>
      <trkpt lat="44.45251" lon="1.4541">
        <ele>271.3</ele>
        <time>2021-08-16T09:10:58Z</time>
      </trkpt>
      <trkpt lat="44.45251" lon="1.4541">
        <ele>271.3</ele>
        <time>2021-08-16T09:10:59Z</time>
      </trkpt>
      <trkpt lat="44.45251" lon="1.45409">
        <ele>271.2</ele>
        <time>2021-08-16T09:11:01Z</time>
      </trkpt>
      <trkpt lat="44.45251" lon="1.45409">
        <ele>271.2</ele>
        <time>2021-08-16T09:11:02Z</time>
      </trkpt>
      <trkpt lat="44.45251" lon="1.45409">
        <ele>271.2</ele>
        <time>2021-08-16T09:11:04Z</time>
      </trkpt>
      <trkpt lat="44.45251" lon="1.45409">
        <ele>271.2</ele>
        <time>2021-08-16T09:11:05Z</time>
      </trkpt>
      <trkpt lat="44.45251" lon="1.45409">
        <ele>271.2</ele>
        <time>2021-08-16T09:11:06Z</time>
      </trkpt>
      <trkpt lat="44.45259" lon="1.45408">
        <ele>270.9</ele>
        <time>2021-08-16T09:11:25Z</time>
      </trkpt>
      <trkpt lat="44.45262" lon="1.45407">
        <ele>270.7</ele>
        <time>2021-08-16T09:11:26Z</time>
      </trkpt>
      <trkpt lat="44.45269" lon="1.45404">
        <ele>270</ele>
        <time>2021-08-16T09:11:28Z</time>
      </trkpt>
      <trkpt lat="44.45273" lon="1.45401">
        <ele>269.7</ele>
        <time>2021-08-16T09:11:29Z</time>
      </trkpt>
      <trkpt lat="44.45276" lon="1.45399">
        <ele>269.2</ele>
        <time>2021-08-16T09:11:30Z</time>
      </trkpt>
      <trkpt lat="44.4528" lon="1.45396">
        <ele>268.7</ele>
        <time>2021-08-16T09:11:31Z</time>
      </trkpt>
      <trkpt lat="44.45283" lon="1.45391">
        <ele>268</ele>
        <time>2021-08-16T09:11:33Z</time>
      </trkpt>
      <trkpt lat="44.45286" lon="1.45388">
        <ele>267.5</ele>
        <time>2021-08-16T09:11:34Z</time>
      </trkpt>
      <trkpt lat="44.45288" lon="1.45385">
        <ele>267</ele>
        <time>2021-08-16T09:11:35Z</time>
      </trkpt>
      <trkpt lat="44.45289" lon="1.45384">
        <ele>266.9</ele>
        <time>2021-08-16T09:11:36Z</time>
      </trkpt>
      <trkpt lat="44.45291" lon="1.45381">
        <ele>266.5</ele>
        <time>2021-08-16T09:11:37Z</time>
      </trkpt>
      <trkpt lat="44.45292" lon="1.4538">
        <ele>266.2</ele>
        <time>2021-08-16T09:11:39Z</time>
      </trkpt>
      <trkpt lat="44.45293" lon="1.4538">
        <ele>266.1</ele>
        <time>2021-08-16T09:11:40Z</time>
      </trkpt>
      <trkpt lat="44.45294" lon="1.45382">
        <ele>265.8</ele>
        <time>2021-08-16T09:11:41Z</time>
      </trkpt>
      <trkpt lat="44.45298" lon="1.45382">
        <ele>265.3</ele>
        <time>2021-08-16T09:11:42Z</time>
      </trkpt>
      <trkpt lat="44.45299" lon="1.45382">
        <ele>265.1</ele>
        <time>2021-08-16T09:11:43Z</time>
      </trkpt>
      <trkpt lat="44.45302" lon="1.45379">
        <ele>264.6</ele>
        <time>2021-08-16T09:11:45Z</time>
      </trkpt>
      <trkpt lat="44.45303" lon="1.45379">
        <ele>264.4</ele>
        <time>2021-08-16T09:11:46Z</time>
      </trkpt>
      <trkpt lat="44.45306" lon="1.45379">
        <ele>264</ele>
        <time>2021-08-16T09:11:47Z</time>
      </trkpt>
      <trkpt lat="44.4531" lon="1.45381">
        <ele>263.4</ele>
        <time>2021-08-16T09:11:49Z</time>
      </trkpt>
      <trkpt lat="44.45315" lon="1.45382">
        <ele>262.7</ele>
        <time>2021-08-16T09:11:50Z</time>
      </trkpt>
      <trkpt lat="44.45317" lon="1.45383">
        <ele>262.3</ele>
        <time>2021-08-16T09:11:51Z</time>
      </trkpt>
      <trkpt lat="44.45319" lon="1.45384">
        <ele>262</ele>
        <time>2021-08-16T09:11:53Z</time>
      </trkpt>
      <trkpt lat="44.45321" lon="1.45384">
        <ele>261.8</ele>
        <time>2021-08-16T09:11:54Z</time>
      </trkpt>
      <trkpt lat="44.45322" lon="1.45384">
        <ele>261.7</ele>
        <time>2021-08-16T09:11:55Z</time>
      </trkpt>
      <trkpt lat="44.45322" lon="1.45384">
        <ele>261.6</ele>
        <time>2021-08-16T09:11:56Z</time>
      </trkpt>
      <trkpt lat="44.45322" lon="1.45384">
        <ele>261.6</ele>
        <time>2021-08-16T09:11:58Z</time>
      </trkpt>
      <trkpt lat="44.45322" lon="1.45384">
        <ele>261.6</ele>
        <time>2021-08-16T09:12:00Z</time>
      </trkpt>
      <trkpt lat="44.45322" lon="1.45384">
        <ele>261.6</ele>
        <time>2021-08-16T09:12:01Z</time>
      </trkpt>
      <trkpt lat="44.45322" lon="1.45384">
        <ele>261.6</ele>
        <time>2021-08-16T09:12:02Z</time>
      </trkpt>
      <trkpt lat="44.45322" lon="1.45384">
        <ele>261.6</ele>
        <time>2021-08-16T09:12:04Z</time>
      </trkpt>
      <trkpt lat="44.45325" lon="1.45383">
        <ele>261.2</ele>
        <time>2021-08-16T09:12:19Z</time>
      </trkpt>
      <trkpt lat="44.45328" lon="1.45382">
        <ele>260.8</ele>
        <time>2021-08-16T09:12:20Z</time>
      </trkpt>
      <trkpt lat="44.4533" lon="1.45382">
        <ele>260.5</ele>
        <time>2021-08-16T09:12:22Z</time>
      </trkpt>
      <trkpt lat="44.4533" lon="1.45382">
        <ele>260.4</ele>
        <time>2021-08-16T09:12:23Z</time>
      </trkpt>
      <trkpt lat="44.45333" lon="1.45382">
        <ele>260</ele>
        <time>2021-08-16T09:12:25Z</time>
      </trkpt>
      <trkpt lat="44.45334" lon="1.45382">
        <ele>259.8</ele>
        <time>2021-08-16T09:12:26Z</time>
      </trkpt>
      <trkpt lat="44.45335" lon="1.45382">
        <ele>259.7</ele>
        <time>2021-08-16T09:12:28Z</time>
      </trkpt>
      <trkpt lat="44.45336" lon="1.45382">
        <ele>259.5</ele>
        <time>2021-08-16T09:12:30Z</time>
      </trkpt>
      <trkpt lat="44.45338" lon="1.45382">
        <ele>259.3</ele>
        <time>2021-08-16T09:12:34Z</time>
      </trkpt>
      <trkpt lat="44.45339" lon="1.45383">
        <ele>259.1</ele>
        <time>2021-08-16T09:12:35Z</time>
      </trkpt>
      <trkpt lat="44.45344" lon="1.45382">
        <ele>258.4</ele>
        <time>2021-08-16T09:12:37Z</time>
      </trkpt>
      <trkpt lat="44.45349" lon="1.45381">
        <ele>257.6</ele>
        <time>2021-08-16T09:12:38Z</time>
      </trkpt>
      <trkpt lat="44.45354" lon="1.45381">
        <ele>256.8</ele>
        <time>2021-08-16T09:12:39Z</time>
      </trkpt>
      <trkpt lat="44.4536" lon="1.45381">
        <ele>255.9</ele>
        <time>2021-08-16T09:12:40Z</time>
      </trkpt>
      <trkpt lat="44.45367" lon="1.45382">
        <ele>254.9</ele>
        <time>2021-08-16T09:12:41Z</time>
      </trkpt>
      <trkpt lat="44.45373" lon="1.45383">
        <ele>253.7</ele>
        <time>2021-08-16T09:12:43Z</time>
      </trkpt>
      <trkpt lat="44.45379" lon="1.45385">
        <ele>252.6</ele>
        <time>2021-08-16T09:12:44Z</time>
      </trkpt>
      <trkpt lat="44.45384" lon="1.45388">
        <ele>251.5</ele>
        <time>2021-08-16T09:12:45Z</time>
      </trkpt>
      <trkpt lat="44.45389" lon="1.4539">
        <ele>250.6</ele>
        <time>2021-08-16T09:12:46Z</time>
      </trkpt>
      <trkpt lat="44.45394" lon="1.45391">
        <ele>249.7</ele>
        <time>2021-08-16T09:12:47Z</time>
      </trkpt>
      <trkpt lat="44.454" lon="1.45392">
        <ele>248.5</ele>
        <time>2021-08-16T09:12:48Z</time>
      </trkpt>
      <trkpt lat="44.45408" lon="1.45394">
        <ele>246.9</ele>
        <time>2021-08-16T09:12:50Z</time>
      </trkpt>
      <trkpt lat="44.45415" lon="1.45396">
        <ele>245.6</ele>
        <time>2021-08-16T09:12:51Z</time>
      </trkpt>
      <trkpt lat="44.4542" lon="1.45399">
        <ele>244.6</ele>
        <time>2021-08-16T09:12:52Z</time>
      </trkpt>
      <trkpt lat="44.45426" lon="1.45404">
        <ele>243.2</ele>
        <time>2021-08-16T09:12:53Z</time>
      </trkpt>
      <trkpt lat="44.45437" lon="1.45413">
        <ele>240.9</ele>
        <time>2021-08-16T09:12:55Z</time>
      </trkpt>
      <trkpt lat="44.45443" lon="1.45417">
        <ele>239.6</ele>
        <time>2021-08-16T09:12:56Z</time>
      </trkpt>
      <trkpt lat="44.45452" lon="1.45423">
        <ele>237.7</ele>
        <time>2021-08-16T09:12:58Z</time>
      </trkpt>
      <trkpt lat="44.45456" lon="1.45427">
        <ele>236.7</ele>
        <time>2021-08-16T09:12:59Z</time>
      </trkpt>
      <trkpt lat="44.45461" lon="1.45431">
        <ele>235.6</ele>
        <time>2021-08-16T09:13:00Z</time>
      </trkpt>
      <trkpt lat="44.45466" lon="1.45435">
        <ele>234.6</ele>
        <time>2021-08-16T09:13:01Z</time>
      </trkpt>
      <trkpt lat="44.45472" lon="1.45437">
        <ele>233.5</ele>
        <time>2021-08-16T09:13:02Z</time>
      </trkpt>
      <trkpt lat="44.45484" lon="1.45443">
        <ele>231.3</ele>
        <time>2021-08-16T09:13:04Z</time>
      </trkpt>
      <trkpt lat="44.45491" lon="1.45446">
        <ele>230</ele>
        <time>2021-08-16T09:13:05Z</time>
      </trkpt>
      <trkpt lat="44.45505" lon="1.45457">
        <ele>227.4</ele>
        <time>2021-08-16T09:13:07Z</time>
      </trkpt>
      <trkpt lat="44.45511" lon="1.45463">
        <ele>226.3</ele>
        <time>2021-08-16T09:13:08Z</time>
      </trkpt>
      <trkpt lat="44.45526" lon="1.45469">
        <ele>224.6</ele>
        <time>2021-08-16T09:13:10Z</time>
      </trkpt>
      <trkpt lat="44.45532" lon="1.45472">
        <ele>223.9</ele>
        <time>2021-08-16T09:13:11Z</time>
      </trkpt>
      <trkpt lat="44.45539" lon="1.45476">
        <ele>223.2</ele>
        <time>2021-08-16T09:13:12Z</time>
      </trkpt>
      <trkpt lat="44.45546" lon="1.4548">
        <ele>222.6</ele>
        <time>2021-08-16T09:13:13Z</time>
      </trkpt>
      <trkpt lat="44.45552" lon="1.45481">
        <ele>222.1</ele>
        <time>2021-08-16T09:13:14Z</time>
      </trkpt>
      <trkpt lat="44.45565" lon="1.45484">
        <ele>221.1</ele>
        <time>2021-08-16T09:13:16Z</time>
      </trkpt>
      <trkpt lat="44.4557" lon="1.45488">
        <ele>220.6</ele>
        <time>2021-08-16T09:13:17Z</time>
      </trkpt>
      <trkpt lat="44.45578" lon="1.45498">
        <ele>219.8</ele>
        <time>2021-08-16T09:13:19Z</time>
      </trkpt>
      <trkpt lat="44.4558" lon="1.45502">
        <ele>219.5</ele>
        <time>2021-08-16T09:13:20Z</time>
      </trkpt>
      <trkpt lat="44.45588" lon="1.45508">
        <ele>218.6</ele>
        <time>2021-08-16T09:13:22Z</time>
      </trkpt>
      <trkpt lat="44.45592" lon="1.45509">
        <ele>218.2</ele>
        <time>2021-08-16T09:13:23Z</time>
      </trkpt>
      <trkpt lat="44.45596" lon="1.4551">
        <ele>217.7</ele>
        <time>2021-08-16T09:13:24Z</time>
      </trkpt>
      <trkpt lat="44.45604" lon="1.45512">
        <ele>217</ele>
        <time>2021-08-16T09:13:26Z</time>
      </trkpt>
      <trkpt lat="44.45608" lon="1.45515">
        <ele>215.4</ele>
        <time>2021-08-16T09:13:27Z</time>
      </trkpt>
      <trkpt lat="44.4561" lon="1.45517">
        <ele>215.1</ele>
        <time>2021-08-16T09:13:28Z</time>
      </trkpt>
      <trkpt lat="44.45615" lon="1.45519">
        <ele>214.3</ele>
        <time>2021-08-16T09:13:30Z</time>
      </trkpt>
      <trkpt lat="44.45618" lon="1.45519">
        <ele>214</ele>
        <time>2021-08-16T09:13:31Z</time>
      </trkpt>
      <trkpt lat="44.45618" lon="1.45519">
        <ele>213.9</ele>
        <time>2021-08-16T09:13:32Z</time>
      </trkpt>
      <trkpt lat="44.4562" lon="1.45518">
        <ele>213.7</ele>
        <time>2021-08-16T09:13:33Z</time>
      </trkpt>
      <trkpt lat="44.45621" lon="1.45519">
        <ele>213.5</ele>
        <time>2021-08-16T09:13:35Z</time>
      </trkpt>
      <trkpt lat="44.45623" lon="1.45519">
        <ele>213.3</ele>
        <time>2021-08-16T09:13:36Z</time>
      </trkpt>
      <trkpt lat="44.45624" lon="1.45519">
        <ele>213.1</ele>
        <time>2021-08-16T09:13:37Z</time>
      </trkpt>
      <trkpt lat="44.45625" lon="1.45519">
        <ele>212.9</ele>
        <time>2021-08-16T09:13:39Z</time>
      </trkpt>
      <trkpt lat="44.45627" lon="1.45519">
        <ele>212.6</ele>
        <time>2021-08-16T09:13:41Z</time>
      </trkpt>
      <trkpt lat="44.45628" lon="1.45519">
        <ele>212.4</ele>
        <time>2021-08-16T09:13:59Z</time>
      </trkpt>
      <trkpt lat="44.4563" lon="1.45519">
        <ele>212.2</ele>
        <time>2021-08-16T09:14:00Z</time>
      </trkpt>
      <trkpt lat="44.45633" lon="1.45522">
        <ele>211.7</ele>
        <time>2021-08-16T09:14:01Z</time>
      </trkpt>
      <trkpt lat="44.45641" lon="1.45527">
        <ele>210.4</ele>
        <time>2021-08-16T09:14:03Z</time>
      </trkpt>
      <trkpt lat="44.45646" lon="1.45529">
        <ele>209.6</ele>
        <time>2021-08-16T09:14:04Z</time>
      </trkpt>
      <trkpt lat="44.45653" lon="1.45532">
        <ele>208.3</ele>
        <time>2021-08-16T09:14:06Z</time>
      </trkpt>
      <trkpt lat="44.45659" lon="1.45533">
        <ele>207.4</ele>
        <time>2021-08-16T09:14:07Z</time>
      </trkpt>
      <trkpt lat="44.45664" lon="1.45534">
        <ele>206.5</ele>
        <time>2021-08-16T09:14:08Z</time>
      </trkpt>
      <trkpt lat="44.45665" lon="1.45535">
        <ele>206.1</ele>
        <time>2021-08-16T09:14:10Z</time>
      </trkpt>
      <trkpt lat="44.45666" lon="1.45535">
        <ele>206.1</ele>
        <time>2021-08-16T09:14:12Z</time>
      </trkpt>
      <trkpt lat="44.45666" lon="1.45535">
        <ele>206.1</ele>
        <time>2021-08-16T09:14:14Z</time>
      </trkpt>
      <trkpt lat="44.45665" lon="1.45535">
        <ele>206.1</ele>
        <time>2021-08-16T09:14:16Z</time>
      </trkpt>
      <trkpt lat="44.45665" lon="1.45535">
        <ele>206.1</ele>
        <time>2021-08-16T09:14:18Z</time>
      </trkpt>
      <trkpt lat="44.45671" lon="1.45536">
        <ele>205.2</ele>
        <time>2021-08-16T09:14:25Z</time>
      </trkpt>
      <trkpt lat="44.45673" lon="1.45539">
        <ele>204.8</ele>
        <time>2021-08-16T09:14:26Z</time>
      </trkpt>
      <trkpt lat="44.45677" lon="1.45541">
        <ele>204.1</ele>
        <time>2021-08-16T09:14:28Z</time>
      </trkpt>
      <trkpt lat="44.45679" lon="1.45543">
        <ele>203.7</ele>
        <time>2021-08-16T09:14:29Z</time>
      </trkpt>
      <trkpt lat="44.45683" lon="1.45546">
        <ele>203.2</ele>
        <time>2021-08-16T09:14:31Z</time>
      </trkpt>
      <trkpt lat="44.45686" lon="1.45547">
        <ele>202.9</ele>
        <time>2021-08-16T09:14:32Z</time>
      </trkpt>
      <trkpt lat="44.45691" lon="1.45549">
        <ele>202.4</ele>
        <time>2021-08-16T09:14:34Z</time>
      </trkpt>
      <trkpt lat="44.45694" lon="1.45551">
        <ele>202</ele>
        <time>2021-08-16T09:14:36Z</time>
      </trkpt>
      <trkpt lat="44.45698" lon="1.45552">
        <ele>201.2</ele>
        <time>2021-08-16T09:14:37Z</time>
      </trkpt>
      <trkpt lat="44.45701" lon="1.45554">
        <ele>200.9</ele>
        <time>2021-08-16T09:14:38Z</time>
      </trkpt>
      <trkpt lat="44.45704" lon="1.45555">
        <ele>200.6</ele>
        <time>2021-08-16T09:14:39Z</time>
      </trkpt>
      <trkpt lat="44.45707" lon="1.45558">
        <ele>200.2</ele>
        <time>2021-08-16T09:14:41Z</time>
      </trkpt>
      <trkpt lat="44.45707" lon="1.45559">
        <ele>200.2</ele>
        <time>2021-08-16T09:14:42Z</time>
      </trkpt>
      <trkpt lat="44.45708" lon="1.4556">
        <ele>200.2</ele>
        <time>2021-08-16T09:14:43Z</time>
      </trkpt>
      <trkpt lat="44.45708" lon="1.45561">
        <ele>200.2</ele>
        <time>2021-08-16T09:14:44Z</time>
      </trkpt>
      <trkpt lat="44.45709" lon="1.45562">
        <ele>200.2</ele>
        <time>2021-08-16T09:14:46Z</time>
      </trkpt>
      <trkpt lat="44.45709" lon="1.45563">
        <ele>200.2</ele>
        <time>2021-08-16T09:14:48Z</time>
      </trkpt>
      <trkpt lat="44.45709" lon="1.45564">
        <ele>200.2</ele>
        <time>2021-08-16T09:14:50Z</time>
      </trkpt>
      <trkpt lat="44.4571" lon="1.45565">
        <ele>199.9</ele>
        <time>2021-08-16T09:14:52Z</time>
      </trkpt>
      <trkpt lat="44.4571" lon="1.45566">
        <ele>199.9</ele>
        <time>2021-08-16T09:15:03Z</time>
      </trkpt>
      <trkpt lat="44.4571" lon="1.45567">
        <ele>199.9</ele>
        <time>2021-08-16T09:15:04Z</time>
      </trkpt>
      <trkpt lat="44.45713" lon="1.45575">
        <ele>199.7</ele>
        <time>2021-08-16T09:15:05Z</time>
      </trkpt>
      <trkpt lat="44.45716" lon="1.45581">
        <ele>199.4</ele>
        <time>2021-08-16T09:15:06Z</time>
      </trkpt>
      <trkpt lat="44.45719" lon="1.45589">
        <ele>199.4</ele>
        <time>2021-08-16T09:15:07Z</time>
      </trkpt>
      <trkpt lat="44.45721" lon="1.45595">
        <ele>199.1</ele>
        <time>2021-08-16T09:15:09Z</time>
      </trkpt>
      <trkpt lat="44.45724" lon="1.45595">
        <ele>199</ele>
        <time>2021-08-16T09:15:10Z</time>
      </trkpt>
      <trkpt lat="44.45724" lon="1.45596">
        <ele>198.9</ele>
        <time>2021-08-16T09:15:11Z</time>
      </trkpt>
      <trkpt lat="44.45725" lon="1.45596">
        <ele>198.8</ele>
        <time>2021-08-16T09:15:13Z</time>
      </trkpt>
      <trkpt lat="44.45726" lon="1.45596">
        <ele>198.8</ele>
        <time>2021-08-16T09:15:14Z</time>
      </trkpt>
      <trkpt lat="44.45726" lon="1.45597">
        <ele>198.8</ele>
        <time>2021-08-16T09:15:16Z</time>
      </trkpt>
      <trkpt lat="44.45727" lon="1.45597">
        <ele>198.8</ele>
        <time>2021-08-16T09:15:18Z</time>
      </trkpt>
      <trkpt lat="44.45727" lon="1.45598">
        <ele>198.8</ele>
        <time>2021-08-16T09:15:19Z</time>
      </trkpt>
      <trkpt lat="44.45728" lon="1.45598">
        <ele>198.6</ele>
        <time>2021-08-16T09:15:20Z</time>
      </trkpt>
      <trkpt lat="44.45729" lon="1.45598">
        <ele>198.6</ele>
        <time>2021-08-16T09:15:48Z</time>
      </trkpt>
      <trkpt lat="44.45729" lon="1.45599">
        <ele>198.6</ele>
        <time>2021-08-16T09:15:50Z</time>
      </trkpt>
      <trkpt lat="44.4573" lon="1.45599">
        <ele>198.6</ele>
        <time>2021-08-16T09:15:51Z</time>
      </trkpt>
      <trkpt lat="44.45732" lon="1.45604">
        <ele>198.5</ele>
        <time>2021-08-16T09:15:52Z</time>
      </trkpt>
      <trkpt lat="44.45733" lon="1.45608">
        <ele>198.5</ele>
        <time>2021-08-16T09:15:53Z</time>
      </trkpt>
      <trkpt lat="44.45736" lon="1.45612">
        <ele>198.4</ele>
        <time>2021-08-16T09:15:55Z</time>
      </trkpt>
      <trkpt lat="44.45735" lon="1.45613">
        <ele>198.4</ele>
        <time>2021-08-16T09:15:56Z</time>
      </trkpt>
      <trkpt lat="44.45735" lon="1.45614">
        <ele>198.4</ele>
        <time>2021-08-16T09:15:57Z</time>
      </trkpt>
      <trkpt lat="44.45734" lon="1.45614">
        <ele>198.4</ele>
        <time>2021-08-16T09:15:58Z</time>
      </trkpt>
      <trkpt lat="44.45734" lon="1.45614">
        <ele>198.3</ele>
        <time>2021-08-16T09:15:59Z</time>
      </trkpt>
      <trkpt lat="44.4573" lon="1.45613">
        <ele>198.2</ele>
        <time>2021-08-16T09:16:01Z</time>
      </trkpt>
      <trkpt lat="44.45726" lon="1.45613">
        <ele>198.1</ele>
        <time>2021-08-16T09:16:02Z</time>
      </trkpt>
      <trkpt lat="44.45717" lon="1.45614">
        <ele>197.5</ele>
        <time>2021-08-16T09:16:03Z</time>
      </trkpt>
      <trkpt lat="44.45711" lon="1.45614">
        <ele>197.1</ele>
        <time>2021-08-16T09:16:04Z</time>
      </trkpt>
      <trkpt lat="44.457" lon="1.45614">
        <ele>196.5</ele>
        <time>2021-08-16T09:16:06Z</time>
      </trkpt>
      <trkpt lat="44.45693" lon="1.45613">
        <ele>196.4</ele>
        <time>2021-08-16T09:16:07Z</time>
      </trkpt>
      <trkpt lat="44.45688" lon="1.45613">
        <ele>196.4</ele>
        <time>2021-08-16T09:16:08Z</time>
      </trkpt>
      <trkpt lat="44.4568" lon="1.45611">
        <ele>197</ele>
        <time>2021-08-16T09:16:10Z</time>
      </trkpt>
      <trkpt lat="44.45677" lon="1.45612">
        <ele>196.5</ele>
        <time>2021-08-16T09:16:11Z</time>
      </trkpt>
      <trkpt lat="44.45674" lon="1.4562">
        <ele>196.1</ele>
        <time>2021-08-16T09:16:13Z</time>
      </trkpt>
      <trkpt lat="44.45673" lon="1.45624">
        <ele>195.7</ele>
        <time>2021-08-16T09:16:14Z</time>
      </trkpt>
      <trkpt lat="44.45672" lon="1.45628">
        <ele>195.3</ele>
        <time>2021-08-16T09:16:15Z</time>
      </trkpt>
      <trkpt lat="44.45674" lon="1.45636">
        <ele>194.2</ele>
        <time>2021-08-16T09:16:16Z</time>
      </trkpt>
      <trkpt lat="44.45677" lon="1.45646">
        <ele>193.2</ele>
        <time>2021-08-16T09:16:18Z</time>
      </trkpt>
      <trkpt lat="44.45677" lon="1.45651">
        <ele>192.2</ele>
        <time>2021-08-16T09:16:19Z</time>
      </trkpt>
      <trkpt lat="44.45677" lon="1.45655">
        <ele>192.2</ele>
        <time>2021-08-16T09:16:20Z</time>
      </trkpt>
      <trkpt lat="44.45678" lon="1.45656">
        <ele>191.7</ele>
        <time>2021-08-16T09:16:22Z</time>
      </trkpt>
      <trkpt lat="44.45679" lon="1.45657">
        <ele>191.7</ele>
        <time>2021-08-16T09:16:24Z</time>
      </trkpt>
      <trkpt lat="44.45679" lon="1.45657">
        <ele>191.7</ele>
        <time>2021-08-16T09:16:25Z</time>
      </trkpt>
      <trkpt lat="44.45679" lon="1.45657">
        <ele>191.7</ele>
        <time>2021-08-16T09:16:26Z</time>
      </trkpt>
      <trkpt lat="44.45679" lon="1.45657">
        <ele>191.6</ele>
        <time>2021-08-16T09:16:28Z</time>
      </trkpt>
      <trkpt lat="44.45679" lon="1.45657">
        <ele>191.6</ele>
        <time>2021-08-16T09:16:29Z</time>
      </trkpt>
      <trkpt lat="44.45679" lon="1.45656">
        <ele>191.6</ele>
        <time>2021-08-16T09:16:31Z</time>
      </trkpt>
      <trkpt lat="44.45674" lon="1.45651">
        <ele>192.2</ele>
        <time>2021-08-16T09:18:39Z</time>
      </trkpt>
      <trkpt lat="44.45671" lon="1.4565">
        <ele>192.7</ele>
        <time>2021-08-16T09:18:40Z</time>
      </trkpt>
      <trkpt lat="44.45666" lon="1.45649">
        <ele>192.9</ele>
        <time>2021-08-16T09:18:42Z</time>
      </trkpt>
      <trkpt lat="44.45663" lon="1.45649">
        <ele>192.9</ele>
        <time>2021-08-16T09:18:43Z</time>
      </trkpt>
      <trkpt lat="44.45662" lon="1.45649">
        <ele>192.9</ele>
        <time>2021-08-16T09:18:44Z</time>
      </trkpt>
      <trkpt lat="44.45661" lon="1.45648">
        <ele>192.9</ele>
        <time>2021-08-16T09:18:46Z</time>
      </trkpt>
      <trkpt lat="44.4566" lon="1.45648">
        <ele>193</ele>
        <time>2021-08-16T09:18:47Z</time>
      </trkpt>
      <trkpt lat="44.45657" lon="1.45647">
        <ele>193.1</ele>
        <time>2021-08-16T09:18:49Z</time>
      </trkpt>
      <trkpt lat="44.45656" lon="1.45646">
        <ele>193.1</ele>
        <time>2021-08-16T09:18:50Z</time>
      </trkpt>
      <trkpt lat="44.45655" lon="1.45646">
        <ele>193.6</ele>
        <time>2021-08-16T09:18:52Z</time>
      </trkpt>
      <trkpt lat="44.45654" lon="1.45645">
        <ele>193.7</ele>
        <time>2021-08-16T09:18:54Z</time>
      </trkpt>
      <trkpt lat="44.45653" lon="1.45645">
        <ele>193.7</ele>
        <time>2021-08-16T09:18:55Z</time>
      </trkpt>
      <trkpt lat="44.45653" lon="1.45645">
        <ele>193.7</ele>
        <time>2021-08-16T09:18:56Z</time>
      </trkpt>
      <trkpt lat="44.45653" lon="1.45645">
        <ele>193.7</ele>
        <time>2021-08-16T09:18:57Z</time>
      </trkpt>
      <trkpt lat="44.45653" lon="1.45645">
        <ele>193.7</ele>
        <time>2021-08-16T09:18:59Z</time>
      </trkpt>
      <trkpt lat="44.45652" lon="1.45645">
        <ele>193.7</ele>
        <time>2021-08-16T09:19:00Z</time>
      </trkpt>
      <trkpt lat="44.4565" lon="1.45644">
        <ele>193.8</ele>
        <time>2021-08-16T09:19:02Z</time>
      </trkpt>
      <trkpt lat="44.45645" lon="1.45643">
        <ele>194.2</ele>
        <time>2021-08-16T09:19:04Z</time>
      </trkpt>
      <trkpt lat="44.45644" lon="1.45642">
        <ele>194.2</ele>
        <time>2021-08-16T09:19:05Z</time>
      </trkpt>
      <trkpt lat="44.45642" lon="1.45642">
        <ele>194.2</ele>
        <time>2021-08-16T09:19:07Z</time>
      </trkpt>
      <trkpt lat="44.4564" lon="1.45642">
        <ele>194.9</ele>
        <time>2021-08-16T09:19:08Z</time>
      </trkpt>
      <trkpt lat="44.45637" lon="1.45641">
        <ele>195.1</ele>
        <time>2021-08-16T09:19:10Z</time>
      </trkpt>
      <trkpt lat="44.45632" lon="1.45639">
        <ele>195.5</ele>
        <time>2021-08-16T09:19:12Z</time>
      </trkpt>
      <trkpt lat="44.4563" lon="1.45638">
        <ele>195.5</ele>
        <time>2021-08-16T09:19:14Z</time>
      </trkpt>
      <trkpt lat="44.45629" lon="1.45637">
        <ele>196.3</ele>
        <time>2021-08-16T09:19:15Z</time>
      </trkpt>
      <trkpt lat="44.45626" lon="1.45636">
        <ele>196.4</ele>
        <time>2021-08-16T09:19:17Z</time>
      </trkpt>
      <trkpt lat="44.45623" lon="1.45634">
        <ele>196.6</ele>
        <time>2021-08-16T09:19:18Z</time>
      </trkpt>
      <trkpt lat="44.45618" lon="1.45633">
        <ele>197.3</ele>
        <time>2021-08-16T09:19:20Z</time>
      </trkpt>
      <trkpt lat="44.45617" lon="1.45632">
        <ele>197.5</ele>
        <time>2021-08-16T09:19:22Z</time>
      </trkpt>
      <trkpt lat="44.45615" lon="1.45631">
        <ele>197.5</ele>
        <time>2021-08-16T09:19:23Z</time>
      </trkpt>
      <trkpt lat="44.45613" lon="1.45631">
        <ele>197.7</ele>
        <time>2021-08-16T09:19:24Z</time>
      </trkpt>
      <trkpt lat="44.45611" lon="1.45631">
        <ele>197.9</ele>
        <time>2021-08-16T09:19:25Z</time>
      </trkpt>
      <trkpt lat="44.45609" lon="1.4563">
        <ele>197.9</ele>
        <time>2021-08-16T09:19:27Z</time>
      </trkpt>
      <trkpt lat="44.45607" lon="1.45629">
        <ele>198.2</ele>
        <time>2021-08-16T09:19:28Z</time>
      </trkpt>
      <trkpt lat="44.45606" lon="1.45629">
        <ele>198.6</ele>
        <time>2021-08-16T09:19:29Z</time>
      </trkpt>
      <trkpt lat="44.45604" lon="1.45628">
        <ele>198.9</ele>
        <time>2021-08-16T09:19:31Z</time>
      </trkpt>
      <trkpt lat="44.45603" lon="1.45627">
        <ele>198.9</ele>
        <time>2021-08-16T09:19:32Z</time>
      </trkpt>
      <trkpt lat="44.45602" lon="1.45625">
        <ele>199.1</ele>
        <time>2021-08-16T09:19:33Z</time>
      </trkpt>
      <trkpt lat="44.45601" lon="1.45623">
        <ele>199.6</ele>
        <time>2021-08-16T09:19:35Z</time>
      </trkpt>
      <trkpt lat="44.456" lon="1.45622">
        <ele>199.6</ele>
        <time>2021-08-16T09:19:36Z</time>
      </trkpt>
      <trkpt lat="44.45598" lon="1.4562">
        <ele>200.3</ele>
        <time>2021-08-16T09:19:38Z</time>
      </trkpt>
      <trkpt lat="44.45597" lon="1.45619">
        <ele>200.3</ele>
        <time>2021-08-16T09:19:39Z</time>
      </trkpt>
      <trkpt lat="44.45596" lon="1.45617">
        <ele>200.6</ele>
        <time>2021-08-16T09:19:41Z</time>
      </trkpt>
      <trkpt lat="44.45595" lon="1.45616">
        <ele>201.1</ele>
        <time>2021-08-16T09:19:42Z</time>
      </trkpt>
      <trkpt lat="44.45594" lon="1.45615">
        <ele>201.1</ele>
        <time>2021-08-16T09:19:43Z</time>
      </trkpt>
      <trkpt lat="44.45591" lon="1.45614">
        <ele>201.4</ele>
        <time>2021-08-16T09:19:45Z</time>
      </trkpt>
      <trkpt lat="44.45588" lon="1.45612">
        <ele>201.8</ele>
        <time>2021-08-16T09:19:47Z</time>
      </trkpt>
      <trkpt lat="44.45587" lon="1.45611">
        <ele>202.3</ele>
        <time>2021-08-16T09:19:48Z</time>
      </trkpt>
      <trkpt lat="44.45586" lon="1.45611">
        <ele>202.8</ele>
        <time>2021-08-16T09:19:49Z</time>
      </trkpt>
      <trkpt lat="44.45586" lon="1.45611">
        <ele>202.7</ele>
        <time>2021-08-16T09:19:50Z</time>
      </trkpt>
      <trkpt lat="44.45585" lon="1.4561">
        <ele>202.7</ele>
        <time>2021-08-16T09:19:52Z</time>
      </trkpt>
      <trkpt lat="44.45584" lon="1.4561">
        <ele>203.2</ele>
        <time>2021-08-16T09:19:53Z</time>
      </trkpt>
      <trkpt lat="44.45583" lon="1.45609">
        <ele>203.2</ele>
        <time>2021-08-16T09:19:54Z</time>
      </trkpt>
      <trkpt lat="44.45582" lon="1.45609">
        <ele>203.2</ele>
        <time>2021-08-16T09:19:56Z</time>
      </trkpt>
      <trkpt lat="44.45581" lon="1.45609">
        <ele>203.2</ele>
        <time>2021-08-16T09:19:57Z</time>
      </trkpt>
      <trkpt lat="44.4558" lon="1.45608">
        <ele>203.7</ele>
        <time>2021-08-16T09:19:58Z</time>
      </trkpt>
      <trkpt lat="44.45579" lon="1.45608">
        <ele>203.7</ele>
        <time>2021-08-16T09:19:59Z</time>
      </trkpt>
      <trkpt lat="44.45576" lon="1.45606">
        <ele>204.6</ele>
        <time>2021-08-16T09:20:00Z</time>
      </trkpt>
      <trkpt lat="44.45575" lon="1.45606">
        <ele>204.6</ele>
        <time>2021-08-16T09:20:01Z</time>
      </trkpt>
      <trkpt lat="44.45573" lon="1.45606">
        <ele>205.1</ele>
        <time>2021-08-16T09:20:02Z</time>
      </trkpt>
      <trkpt lat="44.45572" lon="1.45606">
        <ele>205</ele>
        <time>2021-08-16T09:20:03Z</time>
      </trkpt>
      <trkpt lat="44.4557" lon="1.45605">
        <ele>205.5</ele>
        <time>2021-08-16T09:20:05Z</time>
      </trkpt>
      <trkpt lat="44.45569" lon="1.45605">
        <ele>205.5</ele>
        <time>2021-08-16T09:20:06Z</time>
      </trkpt>
      <trkpt lat="44.45569" lon="1.45604">
        <ele>205.9</ele>
        <time>2021-08-16T09:20:08Z</time>
      </trkpt>
      <trkpt lat="44.45568" lon="1.45604">
        <ele>205.9</ele>
        <time>2021-08-16T09:20:09Z</time>
      </trkpt>
      <trkpt lat="44.45568" lon="1.45603">
        <ele>205.9</ele>
        <time>2021-08-16T09:20:11Z</time>
      </trkpt>
      <trkpt lat="44.45568" lon="1.45603">
        <ele>205.9</ele>
        <time>2021-08-16T09:20:12Z</time>
      </trkpt>
      <trkpt lat="44.45566" lon="1.45602">
        <ele>206.3</ele>
        <time>2021-08-16T09:20:14Z</time>
      </trkpt>
      <trkpt lat="44.45564" lon="1.45601">
        <ele>206.8</ele>
        <time>2021-08-16T09:20:15Z</time>
      </trkpt>
      <trkpt lat="44.45562" lon="1.456">
        <ele>207.3</ele>
        <time>2021-08-16T09:20:17Z</time>
      </trkpt>
      <trkpt lat="44.4556" lon="1.45599">
        <ele>207.7</ele>
        <time>2021-08-16T09:20:19Z</time>
      </trkpt>
      <trkpt lat="44.45559" lon="1.45598">
        <ele>208.2</ele>
        <time>2021-08-16T09:20:21Z</time>
      </trkpt>
      <trkpt lat="44.45558" lon="1.45597">
        <ele>208.2</ele>
        <time>2021-08-16T09:20:23Z</time>
      </trkpt>
      <trkpt lat="44.45557" lon="1.45596">
        <ele>208.2</ele>
        <time>2021-08-16T09:20:24Z</time>
      </trkpt>
      <trkpt lat="44.45557" lon="1.45596">
        <ele>208.2</ele>
        <time>2021-08-16T09:20:25Z</time>
      </trkpt>
      <trkpt lat="44.45555" lon="1.45594">
        <ele>209.1</ele>
        <time>2021-08-16T09:20:26Z</time>
      </trkpt>
      <trkpt lat="44.45551" lon="1.4559">
        <ele>210.1</ele>
        <time>2021-08-16T09:20:28Z</time>
      </trkpt>
      <trkpt lat="44.45548" lon="1.45586">
        <ele>210.5</ele>
        <time>2021-08-16T09:20:29Z</time>
      </trkpt>
      <trkpt lat="44.45544" lon="1.45584">
        <ele>211.5</ele>
        <time>2021-08-16T09:20:31Z</time>
      </trkpt>
      <trkpt lat="44.45541" lon="1.45582">
        <ele>212.3</ele>
        <time>2021-08-16T09:20:32Z</time>
      </trkpt>
      <trkpt lat="44.45539" lon="1.45582">
        <ele>212.8</ele>
        <time>2021-08-16T09:20:33Z</time>
      </trkpt>
      <trkpt lat="44.45537" lon="1.45581">
        <ele>213.3</ele>
        <time>2021-08-16T09:20:34Z</time>
      </trkpt>
      <trkpt lat="44.45536" lon="1.45581">
        <ele>213.3</ele>
        <time>2021-08-16T09:20:36Z</time>
      </trkpt>
      <trkpt lat="44.45535" lon="1.4558">
        <ele>213.7</ele>
        <time>2021-08-16T09:20:37Z</time>
      </trkpt>
      <trkpt lat="44.45533" lon="1.45579">
        <ele>213.7</ele>
        <time>2021-08-16T09:20:39Z</time>
      </trkpt>
      <trkpt lat="44.45532" lon="1.45579">
        <ele>214.2</ele>
        <time>2021-08-16T09:20:41Z</time>
      </trkpt>
      <trkpt lat="44.45531" lon="1.45579">
        <ele>214.1</ele>
        <time>2021-08-16T09:20:42Z</time>
      </trkpt>
      <trkpt lat="44.45531" lon="1.45578">
        <ele>214.1</ele>
        <time>2021-08-16T09:20:44Z</time>
      </trkpt>
      <trkpt lat="44.4553" lon="1.45578">
        <ele>214.1</ele>
        <time>2021-08-16T09:20:46Z</time>
      </trkpt>
      <trkpt lat="44.45529" lon="1.45577">
        <ele>215.1</ele>
        <time>2021-08-16T09:20:49Z</time>
      </trkpt>
      <trkpt lat="44.45527" lon="1.45576">
        <ele>215</ele>
        <time>2021-08-16T09:20:50Z</time>
      </trkpt>
      <trkpt lat="44.45526" lon="1.45575">
        <ele>215.5</ele>
        <time>2021-08-16T09:20:51Z</time>
      </trkpt>
      <trkpt lat="44.45522" lon="1.45572">
        <ele>216.3</ele>
        <time>2021-08-16T09:20:53Z</time>
      </trkpt>
      <trkpt lat="44.45519" lon="1.45569">
        <ele>216.7</ele>
        <time>2021-08-16T09:20:54Z</time>
      </trkpt>
      <trkpt lat="44.45517" lon="1.45568">
        <ele>217.1</ele>
        <time>2021-08-16T09:20:56Z</time>
      </trkpt>
      <trkpt lat="44.45515" lon="1.45567">
        <ele>217.4</ele>
        <time>2021-08-16T09:20:57Z</time>
      </trkpt>
      <trkpt lat="44.45509" lon="1.45565">
        <ele>218.4</ele>
        <time>2021-08-16T09:20:59Z</time>
      </trkpt>
      <trkpt lat="44.45505" lon="1.45564">
        <ele>218.6</ele>
        <time>2021-08-16T09:21:00Z</time>
      </trkpt>
      <trkpt lat="44.45504" lon="1.45563">
        <ele>218.9</ele>
        <time>2021-08-16T09:21:01Z</time>
      </trkpt>
      <trkpt lat="44.455" lon="1.45562">
        <ele>219.2</ele>
        <time>2021-08-16T09:21:03Z</time>
      </trkpt>
      <trkpt lat="44.45498" lon="1.45562">
        <ele>219.2</ele>
        <time>2021-08-16T09:21:04Z</time>
      </trkpt>
      <trkpt lat="44.45496" lon="1.45561">
        <ele>219.5</ele>
        <time>2021-08-16T09:21:05Z</time>
      </trkpt>
      <trkpt lat="44.45494" lon="1.45561">
        <ele>219.8</ele>
        <time>2021-08-16T09:21:07Z</time>
      </trkpt>
      <trkpt lat="44.45492" lon="1.45561">
        <ele>220.1</ele>
        <time>2021-08-16T09:21:08Z</time>
      </trkpt>
      <trkpt lat="44.45491" lon="1.45561">
        <ele>220</ele>
        <time>2021-08-16T09:21:09Z</time>
      </trkpt>
      <trkpt lat="44.45488" lon="1.45561">
        <ele>220.3</ele>
        <time>2021-08-16T09:21:11Z</time>
      </trkpt>
      <trkpt lat="44.45485" lon="1.4556">
        <ele>220.7</ele>
        <time>2021-08-16T09:21:12Z</time>
      </trkpt>
      <trkpt lat="44.45484" lon="1.45559">
        <ele>220.7</ele>
        <time>2021-08-16T09:21:13Z</time>
      </trkpt>
      <trkpt lat="44.45481" lon="1.45559">
        <ele>221</ele>
        <time>2021-08-16T09:21:14Z</time>
      </trkpt>
      <trkpt lat="44.4548" lon="1.45558">
        <ele>221.3</ele>
        <time>2021-08-16T09:21:15Z</time>
      </trkpt>
      <trkpt lat="44.45477" lon="1.45557">
        <ele>221.3</ele>
        <time>2021-08-16T09:21:17Z</time>
      </trkpt>
      <trkpt lat="44.45476" lon="1.45557">
        <ele>221.6</ele>
        <time>2021-08-16T09:21:18Z</time>
      </trkpt>
      <trkpt lat="44.45472" lon="1.45555">
        <ele>222.2</ele>
        <time>2021-08-16T09:21:20Z</time>
      </trkpt>
      <trkpt lat="44.45471" lon="1.45554">
        <ele>222.6</ele>
        <time>2021-08-16T09:21:21Z</time>
      </trkpt>
      <trkpt lat="44.45469" lon="1.45553">
        <ele>222.6</ele>
        <time>2021-08-16T09:21:22Z</time>
      </trkpt>
      <trkpt lat="44.45466" lon="1.45551">
        <ele>223.2</ele>
        <time>2021-08-16T09:21:24Z</time>
      </trkpt>
      <trkpt lat="44.45465" lon="1.4555">
        <ele>223.2</ele>
        <time>2021-08-16T09:21:25Z</time>
      </trkpt>
      <trkpt lat="44.45464" lon="1.45549">
        <ele>223.6</ele>
        <time>2021-08-16T09:21:26Z</time>
      </trkpt>
      <trkpt lat="44.45461" lon="1.45549">
        <ele>223.9</ele>
        <time>2021-08-16T09:21:28Z</time>
      </trkpt>
      <trkpt lat="44.4546" lon="1.45549">
        <ele>223.9</ele>
        <time>2021-08-16T09:21:29Z</time>
      </trkpt>
      <trkpt lat="44.45459" lon="1.45548">
        <ele>223.9</ele>
        <time>2021-08-16T09:21:30Z</time>
      </trkpt>
      <trkpt lat="44.45458" lon="1.45548">
        <ele>224.3</ele>
        <time>2021-08-16T09:21:31Z</time>
      </trkpt>
      <trkpt lat="44.45456" lon="1.45547">
        <ele>224.6</ele>
        <time>2021-08-16T09:21:32Z</time>
      </trkpt>
      <trkpt lat="44.45453" lon="1.45547">
        <ele>225</ele>
        <time>2021-08-16T09:21:34Z</time>
      </trkpt>
      <trkpt lat="44.45453" lon="1.45546">
        <ele>225</ele>
        <time>2021-08-16T09:21:35Z</time>
      </trkpt>
      <trkpt lat="44.45451" lon="1.45546">
        <ele>225.4</ele>
        <time>2021-08-16T09:21:36Z</time>
      </trkpt>
      <trkpt lat="44.45447" lon="1.45545">
        <ele>225.8</ele>
        <time>2021-08-16T09:21:38Z</time>
      </trkpt>
      <trkpt lat="44.45444" lon="1.45544">
        <ele>226.3</ele>
        <time>2021-08-16T09:21:40Z</time>
      </trkpt>
      <trkpt lat="44.45441" lon="1.45543">
        <ele>226.7</ele>
        <time>2021-08-16T09:21:41Z</time>
      </trkpt>
      <trkpt lat="44.45437" lon="1.45543">
        <ele>227.4</ele>
        <time>2021-08-16T09:21:43Z</time>
      </trkpt>
      <trkpt lat="44.45435" lon="1.45542">
        <ele>227.9</ele>
        <time>2021-08-16T09:21:44Z</time>
      </trkpt>
      <trkpt lat="44.45431" lon="1.45541">
        <ele>228.3</ele>
        <time>2021-08-16T09:21:46Z</time>
      </trkpt>
      <trkpt lat="44.45428" lon="1.4554">
        <ele>228.7</ele>
        <time>2021-08-16T09:21:47Z</time>
      </trkpt>
      <trkpt lat="44.45425" lon="1.4554">
        <ele>229.2</ele>
        <time>2021-08-16T09:21:49Z</time>
      </trkpt>
      <trkpt lat="44.45424" lon="1.4554">
        <ele>229.6</ele>
        <time>2021-08-16T09:21:50Z</time>
      </trkpt>
      <trkpt lat="44.45421" lon="1.4554">
        <ele>230.1</ele>
        <time>2021-08-16T09:21:51Z</time>
      </trkpt>
      <trkpt lat="44.4542" lon="1.4554">
        <ele>230.1</ele>
        <time>2021-08-16T09:21:52Z</time>
      </trkpt>
      <trkpt lat="44.45417" lon="1.4554">
        <ele>230.6</ele>
        <time>2021-08-16T09:21:54Z</time>
      </trkpt>
      <trkpt lat="44.45416" lon="1.4554">
        <ele>230.6</ele>
        <time>2021-08-16T09:21:55Z</time>
      </trkpt>
      <trkpt lat="44.45412" lon="1.45541">
        <ele>231.5</ele>
        <time>2021-08-16T09:21:57Z</time>
      </trkpt>
      <trkpt lat="44.4541" lon="1.45541">
        <ele>231.5</ele>
        <time>2021-08-16T09:21:58Z</time>
      </trkpt>
      <trkpt lat="44.45409" lon="1.45541">
        <ele>232</ele>
        <time>2021-08-16T09:21:59Z</time>
      </trkpt>
      <trkpt lat="44.45407" lon="1.45541">
        <ele>232</ele>
        <time>2021-08-16T09:22:01Z</time>
      </trkpt>
      <trkpt lat="44.45405" lon="1.45541">
        <ele>232.4</ele>
        <time>2021-08-16T09:22:02Z</time>
      </trkpt>
      <trkpt lat="44.45403" lon="1.4554">
        <ele>232.8</ele>
        <time>2021-08-16T09:22:03Z</time>
      </trkpt>
      <trkpt lat="44.45403" lon="1.45541">
        <ele>232.8</ele>
        <time>2021-08-16T09:22:04Z</time>
      </trkpt>
      <trkpt lat="44.45402" lon="1.45541">
        <ele>232.8</ele>
        <time>2021-08-16T09:22:06Z</time>
      </trkpt>
      <trkpt lat="44.45401" lon="1.45541">
        <ele>232.8</ele>
        <time>2021-08-16T09:22:07Z</time>
      </trkpt>
      <trkpt lat="44.45401" lon="1.45541">
        <ele>232.7</ele>
        <time>2021-08-16T09:22:08Z</time>
      </trkpt>
      <trkpt lat="44.45401" lon="1.45541">
        <ele>232.7</ele>
        <time>2021-08-16T09:22:10Z</time>
      </trkpt>
      <trkpt lat="44.454" lon="1.45541">
        <ele>233.1</ele>
        <time>2021-08-16T09:22:11Z</time>
      </trkpt>
      <trkpt lat="44.45398" lon="1.45541">
        <ele>233.1</ele>
        <time>2021-08-16T09:22:12Z</time>
      </trkpt>
      <trkpt lat="44.45395" lon="1.4554">
        <ele>233.5</ele>
        <time>2021-08-16T09:22:14Z</time>
      </trkpt>
      <trkpt lat="44.45393" lon="1.4554">
        <ele>233.9</ele>
        <time>2021-08-16T09:22:15Z</time>
      </trkpt>
      <trkpt lat="44.45391" lon="1.45539">
        <ele>233.8</ele>
        <time>2021-08-16T09:22:16Z</time>
      </trkpt>
      <trkpt lat="44.4539" lon="1.45538">
        <ele>234.4</ele>
        <time>2021-08-16T09:22:17Z</time>
      </trkpt>
      <trkpt lat="44.45389" lon="1.45538">
        <ele>234.4</ele>
        <time>2021-08-16T09:22:19Z</time>
      </trkpt>
      <trkpt lat="44.45388" lon="1.45538">
        <ele>234.8</ele>
        <time>2021-08-16T09:22:20Z</time>
      </trkpt>
      <trkpt lat="44.45386" lon="1.45538">
        <ele>234.8</ele>
        <time>2021-08-16T09:22:21Z</time>
      </trkpt>
      <trkpt lat="44.45382" lon="1.45538">
        <ele>235.3</ele>
        <time>2021-08-16T09:22:23Z</time>
      </trkpt>
      <trkpt lat="44.45379" lon="1.45538">
        <ele>235.7</ele>
        <time>2021-08-16T09:22:24Z</time>
      </trkpt>
      <trkpt lat="44.45379" lon="1.45538">
        <ele>236.1</ele>
        <time>2021-08-16T09:22:25Z</time>
      </trkpt>
      <trkpt lat="44.45375" lon="1.45538">
        <ele>236.5</ele>
        <time>2021-08-16T09:22:26Z</time>
      </trkpt>
      <trkpt lat="44.45374" lon="1.45538">
        <ele>236.5</ele>
        <time>2021-08-16T09:22:28Z</time>
      </trkpt>
      <trkpt lat="44.45373" lon="1.45537">
        <ele>237</ele>
        <time>2021-08-16T09:22:29Z</time>
      </trkpt>
      <trkpt lat="44.45371" lon="1.45537">
        <ele>236.9</ele>
        <time>2021-08-16T09:22:30Z</time>
      </trkpt>
      <trkpt lat="44.45369" lon="1.45537">
        <ele>237.5</ele>
        <time>2021-08-16T09:22:31Z</time>
      </trkpt>
      <trkpt lat="44.45366" lon="1.45537">
        <ele>238.1</ele>
        <time>2021-08-16T09:22:33Z</time>
      </trkpt>
      <trkpt lat="44.45365" lon="1.45537">
        <ele>238</ele>
        <time>2021-08-16T09:22:34Z</time>
      </trkpt>
      <trkpt lat="44.45365" lon="1.45537">
        <ele>238</ele>
        <time>2021-08-16T09:22:35Z</time>
      </trkpt>
      <trkpt lat="44.45365" lon="1.45537">
        <ele>238</ele>
        <time>2021-08-16T09:22:36Z</time>
      </trkpt>
      <trkpt lat="44.45364" lon="1.45537">
        <ele>238</ele>
        <time>2021-08-16T09:22:38Z</time>
      </trkpt>
      <trkpt lat="44.45364" lon="1.45536">
        <ele>238</ele>
        <time>2021-08-16T09:22:39Z</time>
      </trkpt>
      <trkpt lat="44.45363" lon="1.45536">
        <ele>238</ele>
        <time>2021-08-16T09:22:41Z</time>
      </trkpt>
      <trkpt lat="44.45363" lon="1.45536">
        <ele>238.6</ele>
        <time>2021-08-16T09:22:42Z</time>
      </trkpt>
      <trkpt lat="44.45363" lon="1.45536">
        <ele>238.6</ele>
        <time>2021-08-16T09:22:44Z</time>
      </trkpt>
      <trkpt lat="44.45363" lon="1.45536">
        <ele>238.6</ele>
        <time>2021-08-16T09:22:45Z</time>
      </trkpt>
      <trkpt lat="44.45359" lon="1.45535">
        <ele>239.2</ele>
        <time>2021-08-16T09:22:47Z</time>
      </trkpt>
      <trkpt lat="44.45355" lon="1.45535">
        <ele>239.8</ele>
        <time>2021-08-16T09:22:48Z</time>
      </trkpt>
      <trkpt lat="44.45353" lon="1.45535">
        <ele>240.3</ele>
        <time>2021-08-16T09:22:49Z</time>
      </trkpt>
      <trkpt lat="44.4535" lon="1.45535">
        <ele>240.7</ele>
        <time>2021-08-16T09:22:51Z</time>
      </trkpt>
      <trkpt lat="44.45348" lon="1.45533">
        <ele>241.3</ele>
        <time>2021-08-16T09:22:53Z</time>
      </trkpt>
      <trkpt lat="44.45347" lon="1.45533">
        <ele>241.3</ele>
        <time>2021-08-16T09:22:54Z</time>
      </trkpt>
      <trkpt lat="44.45345" lon="1.45533">
        <ele>241.7</ele>
        <time>2021-08-16T09:22:55Z</time>
      </trkpt>
      <trkpt lat="44.45343" lon="1.45532">
        <ele>241.7</ele>
        <time>2021-08-16T09:22:56Z</time>
      </trkpt>
      <trkpt lat="44.4534" lon="1.45532">
        <ele>242.1</ele>
        <time>2021-08-16T09:22:58Z</time>
      </trkpt>
      <trkpt lat="44.45339" lon="1.45532">
        <ele>242.1</ele>
        <time>2021-08-16T09:22:59Z</time>
      </trkpt>
      <trkpt lat="44.45337" lon="1.45532">
        <ele>242.5</ele>
        <time>2021-08-16T09:23:00Z</time>
      </trkpt>
      <trkpt lat="44.45335" lon="1.45533">
        <ele>242.8</ele>
        <time>2021-08-16T09:23:01Z</time>
      </trkpt>
      <trkpt lat="44.45333" lon="1.45533">
        <ele>242.8</ele>
        <time>2021-08-16T09:23:03Z</time>
      </trkpt>
      <trkpt lat="44.45332" lon="1.45533">
        <ele>243.2</ele>
        <time>2021-08-16T09:23:04Z</time>
      </trkpt>
      <trkpt lat="44.45331" lon="1.45533">
        <ele>243.2</ele>
        <time>2021-08-16T09:23:06Z</time>
      </trkpt>
      <trkpt lat="44.45329" lon="1.45534">
        <ele>243.5</ele>
        <time>2021-08-16T09:23:07Z</time>
      </trkpt>
      <trkpt lat="44.45325" lon="1.45535">
        <ele>243.6</ele>
        <time>2021-08-16T09:23:08Z</time>
      </trkpt>
      <trkpt lat="44.45324" lon="1.45535">
        <ele>243.6</ele>
        <time>2021-08-16T09:23:09Z</time>
      </trkpt>
      <trkpt lat="44.45323" lon="1.45535">
        <ele>244</ele>
        <time>2021-08-16T09:23:10Z</time>
      </trkpt>
      <trkpt lat="44.45322" lon="1.45535">
        <ele>244</ele>
        <time>2021-08-16T09:23:12Z</time>
      </trkpt>
      <trkpt lat="44.45321" lon="1.45535">
        <ele>244</ele>
        <time>2021-08-16T09:23:13Z</time>
      </trkpt>
      <trkpt lat="44.45321" lon="1.45536">
        <ele>244</ele>
        <time>2021-08-16T09:23:14Z</time>
      </trkpt>
      <trkpt lat="44.45321" lon="1.45536">
        <ele>243.9</ele>
        <time>2021-08-16T09:23:16Z</time>
      </trkpt>
      <trkpt lat="44.4532" lon="1.45536">
        <ele>244.3</ele>
        <time>2021-08-16T09:23:17Z</time>
      </trkpt>
      <trkpt lat="44.4532" lon="1.45537">
        <ele>244.3</ele>
        <time>2021-08-16T09:23:18Z</time>
      </trkpt>
      <trkpt lat="44.45307" lon="1.45546">
        <ele>245.7</ele>
        <time>2021-08-16T09:23:30Z</time>
      </trkpt>
      <trkpt lat="44.45304" lon="1.45549">
        <ele>246.1</ele>
        <time>2021-08-16T09:23:31Z</time>
      </trkpt>
      <trkpt lat="44.45302" lon="1.45551">
        <ele>246.6</ele>
        <time>2021-08-16T09:23:33Z</time>
      </trkpt>
      <trkpt lat="44.45301" lon="1.45552">
        <ele>246.4</ele>
        <time>2021-08-16T09:23:34Z</time>
      </trkpt>
      <trkpt lat="44.453" lon="1.45553">
        <ele>246.4</ele>
        <time>2021-08-16T09:23:36Z</time>
      </trkpt>
      <trkpt lat="44.45299" lon="1.45554">
        <ele>246.9</ele>
        <time>2021-08-16T09:23:37Z</time>
      </trkpt>
      <trkpt lat="44.45296" lon="1.45556">
        <ele>246.9</ele>
        <time>2021-08-16T09:23:38Z</time>
      </trkpt>
      <trkpt lat="44.45293" lon="1.45557">
        <ele>247.1</ele>
        <time>2021-08-16T09:23:40Z</time>
      </trkpt>
      <trkpt lat="44.45292" lon="1.45557">
        <ele>247.5</ele>
        <time>2021-08-16T09:23:41Z</time>
      </trkpt>
      <trkpt lat="44.45289" lon="1.45558">
        <ele>247.9</ele>
        <time>2021-08-16T09:23:43Z</time>
      </trkpt>
      <trkpt lat="44.45287" lon="1.45559">
        <ele>248.3</ele>
        <time>2021-08-16T09:23:44Z</time>
      </trkpt>
      <trkpt lat="44.45285" lon="1.4556">
        <ele>248.3</ele>
        <time>2021-08-16T09:23:45Z</time>
      </trkpt>
      <trkpt lat="44.45284" lon="1.45562">
        <ele>248.5</ele>
        <time>2021-08-16T09:23:47Z</time>
      </trkpt>
      <trkpt lat="44.45281" lon="1.45565">
        <ele>248.3</ele>
        <time>2021-08-16T09:23:48Z</time>
      </trkpt>
      <trkpt lat="44.45278" lon="1.45568">
        <ele>248.8</ele>
        <time>2021-08-16T09:23:50Z</time>
      </trkpt>
      <trkpt lat="44.45278" lon="1.45568">
        <ele>248.7</ele>
        <time>2021-08-16T09:23:51Z</time>
      </trkpt>
      <trkpt lat="44.45277" lon="1.45569">
        <ele>249.1</ele>
        <time>2021-08-16T09:23:53Z</time>
      </trkpt>
      <trkpt lat="44.45277" lon="1.4557">
        <ele>249.1</ele>
        <time>2021-08-16T09:23:54Z</time>
      </trkpt>
      <trkpt lat="44.45276" lon="1.4557">
        <ele>249.1</ele>
        <time>2021-08-16T09:23:56Z</time>
      </trkpt>
      <trkpt lat="44.45273" lon="1.45573">
        <ele>249.4</ele>
        <time>2021-08-16T09:23:59Z</time>
      </trkpt>
      <trkpt lat="44.45272" lon="1.45576">
        <ele>249.4</ele>
        <time>2021-08-16T09:24:00Z</time>
      </trkpt>
      <trkpt lat="44.45271" lon="1.45578">
        <ele>249.8</ele>
        <time>2021-08-16T09:24:02Z</time>
      </trkpt>
      <trkpt lat="44.4527" lon="1.4558">
        <ele>249.8</ele>
        <time>2021-08-16T09:24:04Z</time>
      </trkpt>
      <trkpt lat="44.45269" lon="1.45581">
        <ele>249.8</ele>
        <time>2021-08-16T09:24:05Z</time>
      </trkpt>
      <trkpt lat="44.45269" lon="1.45582">
        <ele>249.8</ele>
        <time>2021-08-16T09:24:06Z</time>
      </trkpt>
      <trkpt lat="44.45269" lon="1.45583">
        <ele>249.7</ele>
        <time>2021-08-16T09:24:08Z</time>
      </trkpt>
      <trkpt lat="44.45268" lon="1.45583">
        <ele>250.2</ele>
        <time>2021-08-16T09:24:09Z</time>
      </trkpt>
      <trkpt lat="44.45268" lon="1.45584">
        <ele>250.2</ele>
        <time>2021-08-16T09:24:10Z</time>
      </trkpt>
      <trkpt lat="44.45266" lon="1.45587">
        <ele>250.1</ele>
        <time>2021-08-16T09:24:12Z</time>
      </trkpt>
      <trkpt lat="44.45264" lon="1.4559">
        <ele>250.6</ele>
        <time>2021-08-16T09:24:13Z</time>
      </trkpt>
      <trkpt lat="44.45263" lon="1.45592">
        <ele>250.6</ele>
        <time>2021-08-16T09:24:14Z</time>
      </trkpt>
      <trkpt lat="44.45262" lon="1.45594">
        <ele>250.5</ele>
        <time>2021-08-16T09:24:16Z</time>
      </trkpt>
      <trkpt lat="44.4526" lon="1.45598">
        <ele>251</ele>
        <time>2021-08-16T09:24:17Z</time>
      </trkpt>
      <trkpt lat="44.45258" lon="1.45601">
        <ele>251.5</ele>
        <time>2021-08-16T09:24:18Z</time>
      </trkpt>
      <trkpt lat="44.45257" lon="1.45602">
        <ele>251.5</ele>
        <time>2021-08-16T09:24:20Z</time>
      </trkpt>
      <trkpt lat="44.45256" lon="1.45604">
        <ele>252</ele>
        <time>2021-08-16T09:24:21Z</time>
      </trkpt>
      <trkpt lat="44.45254" lon="1.45608">
        <ele>252.1</ele>
        <time>2021-08-16T09:24:23Z</time>
      </trkpt>
      <trkpt lat="44.45253" lon="1.4561">
        <ele>252.6</ele>
        <time>2021-08-16T09:24:24Z</time>
      </trkpt>
      <trkpt lat="44.45252" lon="1.45614">
        <ele>252.7</ele>
        <time>2021-08-16T09:24:26Z</time>
      </trkpt>
      <trkpt lat="44.45252" lon="1.45615">
        <ele>252.7</ele>
        <time>2021-08-16T09:24:27Z</time>
      </trkpt>
      <trkpt lat="44.45252" lon="1.45616">
        <ele>252.7</ele>
        <time>2021-08-16T09:24:28Z</time>
      </trkpt>
      <trkpt lat="44.45251" lon="1.45617">
        <ele>252.8</ele>
        <time>2021-08-16T09:24:29Z</time>
      </trkpt>
      <trkpt lat="44.4525" lon="1.4562">
        <ele>252.8</ele>
        <time>2021-08-16T09:24:31Z</time>
      </trkpt>
      <trkpt lat="44.45249" lon="1.45623">
        <ele>253.6</ele>
        <time>2021-08-16T09:24:32Z</time>
      </trkpt>
      <trkpt lat="44.45248" lon="1.45625">
        <ele>253.7</ele>
        <time>2021-08-16T09:24:34Z</time>
      </trkpt>
      <trkpt lat="44.45247" lon="1.45626">
        <ele>253.7</ele>
        <time>2021-08-16T09:24:35Z</time>
      </trkpt>
      <trkpt lat="44.45247" lon="1.45627">
        <ele>254.3</ele>
        <time>2021-08-16T09:24:36Z</time>
      </trkpt>
      <trkpt lat="44.45246" lon="1.45631">
        <ele>254.6</ele>
        <time>2021-08-16T09:24:38Z</time>
      </trkpt>
      <trkpt lat="44.45244" lon="1.45634">
        <ele>254.9</ele>
        <time>2021-08-16T09:24:39Z</time>
      </trkpt>
      <trkpt lat="44.45242" lon="1.45637">
        <ele>255.4</ele>
        <time>2021-08-16T09:24:41Z</time>
      </trkpt>
      <trkpt lat="44.45241" lon="1.45639">
        <ele>256.2</ele>
        <time>2021-08-16T09:24:42Z</time>
      </trkpt>
      <trkpt lat="44.45239" lon="1.45641">
        <ele>256.2</ele>
        <time>2021-08-16T09:24:44Z</time>
      </trkpt>
      <trkpt lat="44.45238" lon="1.45644">
        <ele>257</ele>
        <time>2021-08-16T09:24:45Z</time>
      </trkpt>
      <trkpt lat="44.45237" lon="1.45647">
        <ele>257.3</ele>
        <time>2021-08-16T09:24:47Z</time>
      </trkpt>
      <trkpt lat="44.45236" lon="1.45649">
        <ele>257.3</ele>
        <time>2021-08-16T09:24:48Z</time>
      </trkpt>
      <trkpt lat="44.45235" lon="1.4565">
        <ele>257.3</ele>
        <time>2021-08-16T09:24:49Z</time>
      </trkpt>
      <trkpt lat="44.45235" lon="1.45653">
        <ele>257.5</ele>
        <time>2021-08-16T09:24:51Z</time>
      </trkpt>
      <trkpt lat="44.45234" lon="1.45657">
        <ele>258.2</ele>
        <time>2021-08-16T09:24:52Z</time>
      </trkpt>
      <trkpt lat="44.45234" lon="1.45658">
        <ele>258.2</ele>
        <time>2021-08-16T09:24:54Z</time>
      </trkpt>
      <trkpt lat="44.45233" lon="1.4566">
        <ele>258.4</ele>
        <time>2021-08-16T09:24:55Z</time>
      </trkpt>
      <trkpt lat="44.45233" lon="1.45662">
        <ele>258.4</ele>
        <time>2021-08-16T09:24:56Z</time>
      </trkpt>
      <trkpt lat="44.45233" lon="1.45665">
        <ele>258.7</ele>
        <time>2021-08-16T09:24:57Z</time>
      </trkpt>
      <trkpt lat="44.45233" lon="1.45667">
        <ele>258.7</ele>
        <time>2021-08-16T09:24:59Z</time>
      </trkpt>
      <trkpt lat="44.45233" lon="1.45668">
        <ele>258.9</ele>
        <time>2021-08-16T09:25:00Z</time>
      </trkpt>
      <trkpt lat="44.45234" lon="1.4567">
        <ele>258.9</ele>
        <time>2021-08-16T09:25:01Z</time>
      </trkpt>
      <trkpt lat="44.45234" lon="1.45671">
        <ele>258.9</ele>
        <time>2021-08-16T09:25:02Z</time>
      </trkpt>
      <trkpt lat="44.45236" lon="1.45673">
        <ele>258.8</ele>
        <time>2021-08-16T09:25:03Z</time>
      </trkpt>
      <trkpt lat="44.45238" lon="1.45675">
        <ele>258.4</ele>
        <time>2021-08-16T09:25:05Z</time>
      </trkpt>
      <trkpt lat="44.45239" lon="1.45675">
        <ele>258.4</ele>
        <time>2021-08-16T09:25:06Z</time>
      </trkpt>
      <trkpt lat="44.45239" lon="1.45676">
        <ele>258.3</ele>
        <time>2021-08-16T09:25:07Z</time>
      </trkpt>
      <trkpt lat="44.4524" lon="1.45677">
        <ele>258.7</ele>
        <time>2021-08-16T09:25:09Z</time>
      </trkpt>
      <trkpt lat="44.45241" lon="1.45678">
        <ele>258.3</ele>
        <time>2021-08-16T09:25:10Z</time>
      </trkpt>
      <trkpt lat="44.45242" lon="1.45679">
        <ele>258.2</ele>
        <time>2021-08-16T09:25:12Z</time>
      </trkpt>
      <trkpt lat="44.45242" lon="1.4568">
        <ele>258.2</ele>
        <time>2021-08-16T09:25:13Z</time>
      </trkpt>
      <trkpt lat="44.45242" lon="1.4568">
        <ele>258.2</ele>
        <time>2021-08-16T09:25:14Z</time>
      </trkpt>
      <trkpt lat="44.45242" lon="1.45682">
        <ele>258.6</ele>
        <time>2021-08-16T09:25:15Z</time>
      </trkpt>
      <trkpt lat="44.45242" lon="1.45683">
        <ele>258.6</ele>
        <time>2021-08-16T09:25:17Z</time>
      </trkpt>
      <trkpt lat="44.45242" lon="1.45684">
        <ele>258.6</ele>
        <time>2021-08-16T09:25:18Z</time>
      </trkpt>
      <trkpt lat="44.45242" lon="1.45685">
        <ele>258.9</ele>
        <time>2021-08-16T09:25:19Z</time>
      </trkpt>
      <trkpt lat="44.45242" lon="1.45686">
        <ele>258.9</ele>
        <time>2021-08-16T09:25:20Z</time>
      </trkpt>
      <trkpt lat="44.45242" lon="1.45687">
        <ele>258.9</ele>
        <time>2021-08-16T09:25:23Z</time>
      </trkpt>
      <trkpt lat="44.45242" lon="1.45688">
        <ele>258.9</ele>
        <time>2021-08-16T09:25:24Z</time>
      </trkpt>
      <trkpt lat="44.45242" lon="1.4569">
        <ele>259.2</ele>
        <time>2021-08-16T09:25:25Z</time>
      </trkpt>
      <trkpt lat="44.45241" lon="1.45695">
        <ele>259.6</ele>
        <time>2021-08-16T09:25:27Z</time>
      </trkpt>
      <trkpt lat="44.45241" lon="1.45702">
        <ele>260</ele>
        <time>2021-08-16T09:25:29Z</time>
      </trkpt>
      <trkpt lat="44.45241" lon="1.45706">
        <ele>260.7</ele>
        <time>2021-08-16T09:25:30Z</time>
      </trkpt>
      <trkpt lat="44.45241" lon="1.45708">
        <ele>260.7</ele>
        <time>2021-08-16T09:25:32Z</time>
      </trkpt>
      <trkpt lat="44.45241" lon="1.4571">
        <ele>260.7</ele>
        <time>2021-08-16T09:25:33Z</time>
      </trkpt>
      <trkpt lat="44.45241" lon="1.45712">
        <ele>261</ele>
        <time>2021-08-16T09:25:34Z</time>
      </trkpt>
      <trkpt lat="44.45241" lon="1.45714">
        <ele>261</ele>
        <time>2021-08-16T09:25:36Z</time>
      </trkpt>
      <trkpt lat="44.4524" lon="1.45716">
        <ele>261.8</ele>
        <time>2021-08-16T09:25:37Z</time>
      </trkpt>
      <trkpt lat="44.4524" lon="1.45719">
        <ele>261.8</ele>
        <time>2021-08-16T09:25:38Z</time>
      </trkpt>
      <trkpt lat="44.45239" lon="1.45721">
        <ele>262.2</ele>
        <time>2021-08-16T09:25:39Z</time>
      </trkpt>
      <trkpt lat="44.45238" lon="1.45724">
        <ele>262.5</ele>
        <time>2021-08-16T09:25:41Z</time>
      </trkpt>
      <trkpt lat="44.45238" lon="1.45726">
        <ele>262.5</ele>
        <time>2021-08-16T09:25:43Z</time>
      </trkpt>
      <trkpt lat="44.45237" lon="1.45729">
        <ele>263.3</ele>
        <time>2021-08-16T09:25:44Z</time>
      </trkpt>
      <trkpt lat="44.45236" lon="1.45732">
        <ele>263.3</ele>
        <time>2021-08-16T09:25:46Z</time>
      </trkpt>
      <trkpt lat="44.45236" lon="1.45734">
        <ele>263.6</ele>
        <time>2021-08-16T09:25:47Z</time>
      </trkpt>
      <trkpt lat="44.45236" lon="1.45736">
        <ele>263.6</ele>
        <time>2021-08-16T09:25:48Z</time>
      </trkpt>
      <trkpt lat="44.45236" lon="1.45737">
        <ele>263.9</ele>
        <time>2021-08-16T09:25:49Z</time>
      </trkpt>
      <trkpt lat="44.45236" lon="1.45738">
        <ele>263.9</ele>
        <time>2021-08-16T09:25:50Z</time>
      </trkpt>
      <trkpt lat="44.45235" lon="1.4574">
        <ele>263.9</ele>
        <time>2021-08-16T09:25:51Z</time>
      </trkpt>
      <trkpt lat="44.45235" lon="1.45742">
        <ele>264.5</ele>
        <time>2021-08-16T09:25:52Z</time>
      </trkpt>
      <trkpt lat="44.45233" lon="1.45747">
        <ele>264.8</ele>
        <time>2021-08-16T09:25:54Z</time>
      </trkpt>
      <trkpt lat="44.45233" lon="1.45748">
        <ele>264.8</ele>
        <time>2021-08-16T09:25:55Z</time>
      </trkpt>
      <trkpt lat="44.45233" lon="1.4575">
        <ele>265</ele>
        <time>2021-08-16T09:25:57Z</time>
      </trkpt>
      <trkpt lat="44.45233" lon="1.45751">
        <ele>265</ele>
        <time>2021-08-16T09:25:58Z</time>
      </trkpt>
      <trkpt lat="44.45232" lon="1.45754">
        <ele>265.3</ele>
        <time>2021-08-16T09:25:59Z</time>
      </trkpt>
      <trkpt lat="44.45232" lon="1.45755">
        <ele>265.3</ele>
        <time>2021-08-16T09:26:00Z</time>
      </trkpt>
      <trkpt lat="44.45231" lon="1.45757">
        <ele>265.6</ele>
        <time>2021-08-16T09:26:02Z</time>
      </trkpt>
      <trkpt lat="44.45231" lon="1.4576">
        <ele>265.9</ele>
        <time>2021-08-16T09:26:03Z</time>
      </trkpt>
      <trkpt lat="44.45231" lon="1.45762">
        <ele>266.2</ele>
        <time>2021-08-16T09:26:04Z</time>
      </trkpt>
      <trkpt lat="44.4523" lon="1.45764">
        <ele>266.2</ele>
        <time>2021-08-16T09:26:05Z</time>
      </trkpt>
      <trkpt lat="44.4523" lon="1.45766">
        <ele>266.5</ele>
        <time>2021-08-16T09:26:07Z</time>
      </trkpt>
      <trkpt lat="44.4523" lon="1.45768">
        <ele>266.5</ele>
        <time>2021-08-16T09:26:08Z</time>
      </trkpt>
      <trkpt lat="44.4523" lon="1.45771">
        <ele>266.8</ele>
        <time>2021-08-16T09:26:09Z</time>
      </trkpt>
      <trkpt lat="44.4523" lon="1.45773">
        <ele>266.8</ele>
        <time>2021-08-16T09:26:11Z</time>
      </trkpt>
      <trkpt lat="44.45229" lon="1.45776">
        <ele>267.1</ele>
        <time>2021-08-16T09:26:12Z</time>
      </trkpt>
      <trkpt lat="44.45229" lon="1.45778">
        <ele>267.1</ele>
        <time>2021-08-16T09:26:13Z</time>
      </trkpt>
      <trkpt lat="44.45228" lon="1.45781">
        <ele>267.8</ele>
        <time>2021-08-16T09:26:15Z</time>
      </trkpt>
      <trkpt lat="44.45228" lon="1.45781">
        <ele>267.8</ele>
        <time>2021-08-16T09:26:16Z</time>
      </trkpt>
      <trkpt lat="44.45228" lon="1.45782">
        <ele>267.8</ele>
        <time>2021-08-16T09:26:17Z</time>
      </trkpt>
      <trkpt lat="44.45227" lon="1.45784">
        <ele>268.1</ele>
        <time>2021-08-16T09:26:18Z</time>
      </trkpt>
      <trkpt lat="44.45226" lon="1.45787">
        <ele>268.1</ele>
        <time>2021-08-16T09:26:19Z</time>
      </trkpt>
      <trkpt lat="44.45226" lon="1.45787">
        <ele>268.1</ele>
        <time>2021-08-16T09:26:20Z</time>
      </trkpt>
      <trkpt lat="44.45225" lon="1.45789">
        <ele>268.7</ele>
        <time>2021-08-16T09:26:21Z</time>
      </trkpt>
      <trkpt lat="44.45225" lon="1.4579">
        <ele>268.7</ele>
        <time>2021-08-16T09:26:23Z</time>
      </trkpt>
      <trkpt lat="44.45223" lon="1.45792">
        <ele>268.7</ele>
        <time>2021-08-16T09:26:24Z</time>
      </trkpt>
      <trkpt lat="44.45222" lon="1.45792">
        <ele>269.2</ele>
        <time>2021-08-16T09:26:25Z</time>
      </trkpt>
      <trkpt lat="44.45222" lon="1.45793">
        <ele>269.2</ele>
        <time>2021-08-16T09:26:26Z</time>
      </trkpt>
      <trkpt lat="44.45221" lon="1.45793">
        <ele>269.2</ele>
        <time>2021-08-16T09:26:28Z</time>
      </trkpt>
      <trkpt lat="44.45221" lon="1.45793">
        <ele>269.2</ele>
        <time>2021-08-16T09:26:29Z</time>
      </trkpt>
      <trkpt lat="44.4522" lon="1.45793">
        <ele>269.2</ele>
        <time>2021-08-16T09:26:30Z</time>
      </trkpt>
      <trkpt lat="44.45219" lon="1.45794">
        <ele>269.5</ele>
        <time>2021-08-16T09:26:32Z</time>
      </trkpt>
      <trkpt lat="44.45219" lon="1.45794">
        <ele>269.5</ele>
        <time>2021-08-16T09:26:33Z</time>
      </trkpt>
      <trkpt lat="44.45218" lon="1.45795">
        <ele>269.5</ele>
        <time>2021-08-16T09:26:34Z</time>
      </trkpt>
      <trkpt lat="44.45218" lon="1.45795">
        <ele>269.5</ele>
        <time>2021-08-16T09:26:35Z</time>
      </trkpt>
      <trkpt lat="44.45217" lon="1.45795">
        <ele>269.4</ele>
        <time>2021-08-16T09:26:36Z</time>
      </trkpt>
      <trkpt lat="44.45217" lon="1.45796">
        <ele>269.4</ele>
        <time>2021-08-16T09:26:38Z</time>
      </trkpt>
      <trkpt lat="44.45216" lon="1.45796">
        <ele>269.7</ele>
        <time>2021-08-16T09:26:40Z</time>
      </trkpt>
      <trkpt lat="44.45213" lon="1.45796">
        <ele>269.9</ele>
        <time>2021-08-16T09:26:41Z</time>
      </trkpt>
      <trkpt lat="44.4521" lon="1.45796">
        <ele>270.4</ele>
        <time>2021-08-16T09:26:43Z</time>
      </trkpt>
      <trkpt lat="44.45208" lon="1.45797">
        <ele>270.4</ele>
        <time>2021-08-16T09:26:44Z</time>
      </trkpt>
      <trkpt lat="44.45204" lon="1.45798">
        <ele>270.6</ele>
        <time>2021-08-16T09:26:45Z</time>
      </trkpt>
      <trkpt lat="44.45203" lon="1.45798">
        <ele>270.7</ele>
        <time>2021-08-16T09:26:46Z</time>
      </trkpt>
      <trkpt lat="44.45201" lon="1.45798">
        <ele>270.7</ele>
        <time>2021-08-16T09:26:48Z</time>
      </trkpt>
      <trkpt lat="44.45199" lon="1.45798">
        <ele>270.9</ele>
        <time>2021-08-16T09:26:49Z</time>
      </trkpt>
      <trkpt lat="44.45196" lon="1.45799">
        <ele>271</ele>
        <time>2021-08-16T09:26:51Z</time>
      </trkpt>
      <trkpt lat="44.45195" lon="1.45799">
        <ele>271</ele>
        <time>2021-08-16T09:26:52Z</time>
      </trkpt>
      <trkpt lat="44.45195" lon="1.45799">
        <ele>271</ele>
        <time>2021-08-16T09:26:53Z</time>
      </trkpt>
      <trkpt lat="44.45193" lon="1.458">
        <ele>271.2</ele>
        <time>2021-08-16T09:26:55Z</time>
      </trkpt>
      <trkpt lat="44.45193" lon="1.458">
        <ele>271.2</ele>
        <time>2021-08-16T09:26:56Z</time>
      </trkpt>
      <trkpt lat="44.45192" lon="1.458">
        <ele>271.2</ele>
        <time>2021-08-16T09:26:57Z</time>
      </trkpt>
      <trkpt lat="44.4519" lon="1.458">
        <ele>271.3</ele>
        <time>2021-08-16T09:26:58Z</time>
      </trkpt>
      <trkpt lat="44.45187" lon="1.45801">
        <ele>271.7</ele>
        <time>2021-08-16T09:27:00Z</time>
      </trkpt>
      <trkpt lat="44.45186" lon="1.45801">
        <ele>271.7</ele>
        <time>2021-08-16T09:27:01Z</time>
      </trkpt>
      <trkpt lat="44.45185" lon="1.45801">
        <ele>271.8</ele>
        <time>2021-08-16T09:27:02Z</time>
      </trkpt>
      <trkpt lat="44.45183" lon="1.45802">
        <ele>271.8</ele>
        <time>2021-08-16T09:27:04Z</time>
      </trkpt>
      <trkpt lat="44.45182" lon="1.45802">
        <ele>271.9</ele>
        <time>2021-08-16T09:27:05Z</time>
      </trkpt>
      <trkpt lat="44.4518" lon="1.45801">
        <ele>271.9</ele>
        <time>2021-08-16T09:27:06Z</time>
      </trkpt>
      <trkpt lat="44.45179" lon="1.45801">
        <ele>272</ele>
        <time>2021-08-16T09:27:07Z</time>
      </trkpt>
      <trkpt lat="44.45178" lon="1.45802">
        <ele>272</ele>
        <time>2021-08-16T09:27:08Z</time>
      </trkpt>
      <trkpt lat="44.45176" lon="1.45803">
        <ele>272.1</ele>
        <time>2021-08-16T09:27:10Z</time>
      </trkpt>
      <trkpt lat="44.45175" lon="1.45803">
        <ele>272.1</ele>
        <time>2021-08-16T09:27:11Z</time>
      </trkpt>
      <trkpt lat="44.45173" lon="1.45804">
        <ele>272.2</ele>
        <time>2021-08-16T09:27:13Z</time>
      </trkpt>
      <trkpt lat="44.45172" lon="1.45804">
        <ele>272.2</ele>
        <time>2021-08-16T09:27:14Z</time>
      </trkpt>
      <trkpt lat="44.4517" lon="1.45806">
        <ele>272.5</ele>
        <time>2021-08-16T09:27:16Z</time>
      </trkpt>
      <trkpt lat="44.45169" lon="1.45807">
        <ele>272.5</ele>
        <time>2021-08-16T09:27:17Z</time>
      </trkpt>
      <trkpt lat="44.45168" lon="1.45808">
        <ele>272.5</ele>
        <time>2021-08-16T09:27:18Z</time>
      </trkpt>
      <trkpt lat="44.45167" lon="1.4581">
        <ele>272.8</ele>
        <time>2021-08-16T09:27:20Z</time>
      </trkpt>
      <trkpt lat="44.45165" lon="1.45812">
        <ele>272.8</ele>
        <time>2021-08-16T09:27:21Z</time>
      </trkpt>
      <trkpt lat="44.45164" lon="1.45813">
        <ele>272.9</ele>
        <time>2021-08-16T09:27:22Z</time>
      </trkpt>
      <trkpt lat="44.45162" lon="1.45815">
        <ele>273.1</ele>
        <time>2021-08-16T09:27:24Z</time>
      </trkpt>
      <trkpt lat="44.4516" lon="1.45819">
        <ele>273.4</ele>
        <time>2021-08-16T09:27:26Z</time>
      </trkpt>
      <trkpt lat="44.45159" lon="1.4582">
        <ele>273.4</ele>
        <time>2021-08-16T09:27:28Z</time>
      </trkpt>
      <trkpt lat="44.45157" lon="1.45821">
        <ele>273.5</ele>
        <time>2021-08-16T09:27:29Z</time>
      </trkpt>
      <trkpt lat="44.45154" lon="1.45824">
        <ele>273.8</ele>
        <time>2021-08-16T09:27:31Z</time>
      </trkpt>
      <trkpt lat="44.45153" lon="1.45825">
        <ele>273.8</ele>
        <time>2021-08-16T09:27:32Z</time>
      </trkpt>
      <trkpt lat="44.45152" lon="1.45827">
        <ele>274.1</ele>
        <time>2021-08-16T09:27:34Z</time>
      </trkpt>
      <trkpt lat="44.45151" lon="1.45828">
        <ele>274.1</ele>
        <time>2021-08-16T09:27:35Z</time>
      </trkpt>
      <trkpt lat="44.4515" lon="1.4583">
        <ele>274.1</ele>
        <time>2021-08-16T09:27:36Z</time>
      </trkpt>
      <trkpt lat="44.45149" lon="1.45832">
        <ele>274.3</ele>
        <time>2021-08-16T09:27:38Z</time>
      </trkpt>
      <trkpt lat="44.45148" lon="1.45832">
        <ele>274.5</ele>
        <time>2021-08-16T09:27:40Z</time>
      </trkpt>
      <trkpt lat="44.45148" lon="1.45832">
        <ele>274.5</ele>
        <time>2021-08-16T09:27:41Z</time>
      </trkpt>
      <trkpt lat="44.45148" lon="1.45832">
        <ele>274.4</ele>
        <time>2021-08-16T09:27:42Z</time>
      </trkpt>
      <trkpt lat="44.45148" lon="1.45832">
        <ele>274.4</ele>
        <time>2021-08-16T09:27:43Z</time>
      </trkpt>
      <trkpt lat="44.45148" lon="1.45832">
        <ele>274.4</ele>
        <time>2021-08-16T09:27:45Z</time>
      </trkpt>
      <trkpt lat="44.45147" lon="1.45833">
        <ele>274.4</ele>
        <time>2021-08-16T09:27:46Z</time>
      </trkpt>
      <trkpt lat="44.45147" lon="1.45833">
        <ele>274.4</ele>
        <time>2021-08-16T09:27:48Z</time>
      </trkpt>
      <trkpt lat="44.45147" lon="1.45833">
        <ele>274.4</ele>
        <time>2021-08-16T09:27:49Z</time>
      </trkpt>
      <trkpt lat="44.45147" lon="1.45833">
        <ele>274.4</ele>
        <time>2021-08-16T09:27:51Z</time>
      </trkpt>
      <trkpt lat="44.45146" lon="1.45837">
        <ele>274.6</ele>
        <time>2021-08-16T09:34:08Z</time>
      </trkpt>
      <trkpt lat="44.45144" lon="1.45845">
        <ele>275.1</ele>
        <time>2021-08-16T09:34:10Z</time>
      </trkpt>
      <trkpt lat="44.45143" lon="1.45849">
        <ele>275.6</ele>
        <time>2021-08-16T09:34:12Z</time>
      </trkpt>
      <trkpt lat="44.45142" lon="1.4585">
        <ele>275.6</ele>
        <time>2021-08-16T09:34:14Z</time>
      </trkpt>
      <trkpt lat="44.45141" lon="1.45852">
        <ele>275.6</ele>
        <time>2021-08-16T09:34:15Z</time>
      </trkpt>
      <trkpt lat="44.4514" lon="1.45855">
        <ele>275.7</ele>
        <time>2021-08-16T09:34:17Z</time>
      </trkpt>
      <trkpt lat="44.45139" lon="1.45857">
        <ele>276.2</ele>
        <time>2021-08-16T09:34:18Z</time>
      </trkpt>
      <trkpt lat="44.45138" lon="1.45858">
        <ele>276.2</ele>
        <time>2021-08-16T09:34:19Z</time>
      </trkpt>
      <trkpt lat="44.45137" lon="1.4586">
        <ele>276.2</ele>
        <time>2021-08-16T09:34:21Z</time>
      </trkpt>
      <trkpt lat="44.45135" lon="1.45864">
        <ele>276.6</ele>
        <time>2021-08-16T09:34:23Z</time>
      </trkpt>
      <trkpt lat="44.45136" lon="1.45865">
        <ele>276.7</ele>
        <time>2021-08-16T09:34:24Z</time>
      </trkpt>
      <trkpt lat="44.45136" lon="1.45867">
        <ele>276.7</ele>
        <time>2021-08-16T09:34:25Z</time>
      </trkpt>
      <trkpt lat="44.45135" lon="1.45868">
        <ele>276.7</ele>
        <time>2021-08-16T09:34:26Z</time>
      </trkpt>
      <trkpt lat="44.45135" lon="1.45872">
        <ele>276.7</ele>
        <time>2021-08-16T09:34:28Z</time>
      </trkpt>
      <trkpt lat="44.45136" lon="1.45873">
        <ele>276.8</ele>
        <time>2021-08-16T09:34:29Z</time>
      </trkpt>
      <trkpt lat="44.45136" lon="1.45875">
        <ele>276.8</ele>
        <time>2021-08-16T09:34:30Z</time>
      </trkpt>
      <trkpt lat="44.45136" lon="1.45879">
        <ele>276.9</ele>
        <time>2021-08-16T09:34:32Z</time>
      </trkpt>
      <trkpt lat="44.45137" lon="1.45881">
        <ele>277</ele>
        <time>2021-08-16T09:34:33Z</time>
      </trkpt>
      <trkpt lat="44.45137" lon="1.45884">
        <ele>277</ele>
        <time>2021-08-16T09:34:35Z</time>
      </trkpt>
      <trkpt lat="44.45138" lon="1.45887">
        <ele>277.1</ele>
        <time>2021-08-16T09:34:36Z</time>
      </trkpt>
      <trkpt lat="44.45138" lon="1.45891">
        <ele>277.1</ele>
        <time>2021-08-16T09:34:38Z</time>
      </trkpt>
      <trkpt lat="44.45139" lon="1.45894">
        <ele>277.2</ele>
        <time>2021-08-16T09:34:39Z</time>
      </trkpt>
      <trkpt lat="44.45139" lon="1.45899">
        <ele>277.2</ele>
        <time>2021-08-16T09:34:41Z</time>
      </trkpt>
      <trkpt lat="44.45138" lon="1.45901">
        <ele>277.2</ele>
        <time>2021-08-16T09:34:42Z</time>
      </trkpt>
      <trkpt lat="44.45137" lon="1.45907">
        <ele>277.2</ele>
        <time>2021-08-16T09:34:44Z</time>
      </trkpt>
      <trkpt lat="44.45137" lon="1.45911">
        <ele>277.2</ele>
        <time>2021-08-16T09:34:46Z</time>
      </trkpt>
      <trkpt lat="44.45136" lon="1.45916">
        <ele>277.2</ele>
        <time>2021-08-16T09:34:47Z</time>
      </trkpt>
      <trkpt lat="44.45136" lon="1.45918">
        <ele>277.2</ele>
        <time>2021-08-16T09:34:48Z</time>
      </trkpt>
      <trkpt lat="44.45136" lon="1.45923">
        <ele>277.2</ele>
        <time>2021-08-16T09:34:50Z</time>
      </trkpt>
      <trkpt lat="44.45135" lon="1.45928">
        <ele>277.2</ele>
        <time>2021-08-16T09:34:52Z</time>
      </trkpt>
      <trkpt lat="44.45134" lon="1.4593">
        <ele>277.2</ele>
        <time>2021-08-16T09:34:53Z</time>
      </trkpt>
      <trkpt lat="44.45133" lon="1.45933">
        <ele>277.2</ele>
        <time>2021-08-16T09:34:54Z</time>
      </trkpt>
      <trkpt lat="44.45132" lon="1.45934">
        <ele>277.2</ele>
        <time>2021-08-16T09:34:55Z</time>
      </trkpt>
      <trkpt lat="44.45131" lon="1.45937">
        <ele>277.1</ele>
        <time>2021-08-16T09:34:56Z</time>
      </trkpt>
      <trkpt lat="44.45129" lon="1.4594">
        <ele>277.1</ele>
        <time>2021-08-16T09:34:58Z</time>
      </trkpt>
      <trkpt lat="44.45128" lon="1.45943">
        <ele>277.1</ele>
        <time>2021-08-16T09:34:59Z</time>
      </trkpt>
      <trkpt lat="44.45125" lon="1.45947">
        <ele>277</ele>
        <time>2021-08-16T09:35:01Z</time>
      </trkpt>
      <trkpt lat="44.45123" lon="1.45951">
        <ele>277</ele>
        <time>2021-08-16T09:35:02Z</time>
      </trkpt>
      <trkpt lat="44.45123" lon="1.45953">
        <ele>276.9</ele>
        <time>2021-08-16T09:35:03Z</time>
      </trkpt>
      <trkpt lat="44.45122" lon="1.45956">
        <ele>276.9</ele>
        <time>2021-08-16T09:35:04Z</time>
      </trkpt>
      <trkpt lat="44.45121" lon="1.45957">
        <ele>276.9</ele>
        <time>2021-08-16T09:35:06Z</time>
      </trkpt>
      <trkpt lat="44.45118" lon="1.45959">
        <ele>276.8</ele>
        <time>2021-08-16T09:35:07Z</time>
      </trkpt>
      <trkpt lat="44.45116" lon="1.45963">
        <ele>276.7</ele>
        <time>2021-08-16T09:35:08Z</time>
      </trkpt>
      <trkpt lat="44.45114" lon="1.45967">
        <ele>276.5</ele>
        <time>2021-08-16T09:35:10Z</time>
      </trkpt>
      <trkpt lat="44.45112" lon="1.4597">
        <ele>276.4</ele>
        <time>2021-08-16T09:35:11Z</time>
      </trkpt>
      <trkpt lat="44.4511" lon="1.45974">
        <ele>276.2</ele>
        <time>2021-08-16T09:35:12Z</time>
      </trkpt>
      <trkpt lat="44.45107" lon="1.45979">
        <ele>275.9</ele>
        <time>2021-08-16T09:35:14Z</time>
      </trkpt>
      <trkpt lat="44.45105" lon="1.45983">
        <ele>275.7</ele>
        <time>2021-08-16T09:35:15Z</time>
      </trkpt>
      <trkpt lat="44.45102" lon="1.45987">
        <ele>275.4</ele>
        <time>2021-08-16T09:35:17Z</time>
      </trkpt>
      <trkpt lat="44.45099" lon="1.45991">
        <ele>275.1</ele>
        <time>2021-08-16T09:35:18Z</time>
      </trkpt>
      <trkpt lat="44.45096" lon="1.45996">
        <ele>274.8</ele>
        <time>2021-08-16T09:35:19Z</time>
      </trkpt>
      <trkpt lat="44.4509" lon="1.46003">
        <ele>274.3</ele>
        <time>2021-08-16T09:35:21Z</time>
      </trkpt>
      <trkpt lat="44.45085" lon="1.46011">
        <ele>273.9</ele>
        <time>2021-08-16T09:35:22Z</time>
      </trkpt>
      <trkpt lat="44.45081" lon="1.46016">
        <ele>273.6</ele>
        <time>2021-08-16T09:35:23Z</time>
      </trkpt>
      <trkpt lat="44.45074" lon="1.46027">
        <ele>273</ele>
        <time>2021-08-16T09:35:25Z</time>
      </trkpt>
      <trkpt lat="44.4507" lon="1.46034">
        <ele>272.8</ele>
        <time>2021-08-16T09:35:26Z</time>
      </trkpt>
      <trkpt lat="44.45063" lon="1.46046">
        <ele>272.5</ele>
        <time>2021-08-16T09:35:28Z</time>
      </trkpt>
      <trkpt lat="44.45055" lon="1.46055">
        <ele>272.3</ele>
        <time>2021-08-16T09:35:30Z</time>
      </trkpt>
      <trkpt lat="44.45052" lon="1.46059">
        <ele>272.2</ele>
        <time>2021-08-16T09:35:31Z</time>
      </trkpt>
      <trkpt lat="44.4505" lon="1.46062">
        <ele>272.2</ele>
        <time>2021-08-16T09:35:32Z</time>
      </trkpt>
      <trkpt lat="44.45045" lon="1.46066">
        <ele>272.1</ele>
        <time>2021-08-16T09:35:34Z</time>
      </trkpt>
      <trkpt lat="44.45039" lon="1.4607">
        <ele>272.1</ele>
        <time>2021-08-16T09:35:35Z</time>
      </trkpt>
      <trkpt lat="44.45036" lon="1.46077">
        <ele>272</ele>
        <time>2021-08-16T09:35:36Z</time>
      </trkpt>
      <trkpt lat="44.4503" lon="1.46084">
        <ele>272</ele>
        <time>2021-08-16T09:35:38Z</time>
      </trkpt>
      <trkpt lat="44.45025" lon="1.46088">
        <ele>271.9</ele>
        <time>2021-08-16T09:35:40Z</time>
      </trkpt>
      <trkpt lat="44.45022" lon="1.46091">
        <ele>271.9</ele>
        <time>2021-08-16T09:35:41Z</time>
      </trkpt>
      <trkpt lat="44.45016" lon="1.46093">
        <ele>271.9</ele>
        <time>2021-08-16T09:35:42Z</time>
      </trkpt>
      <trkpt lat="44.45013" lon="1.46094">
        <ele>271.9</ele>
        <time>2021-08-16T09:35:43Z</time>
      </trkpt>
      <trkpt lat="44.4501" lon="1.46094">
        <ele>271.9</ele>
        <time>2021-08-16T09:35:44Z</time>
      </trkpt>
      <trkpt lat="44.45005" lon="1.46096">
        <ele>271.9</ele>
        <time>2021-08-16T09:35:46Z</time>
      </trkpt>
      <trkpt lat="44.45002" lon="1.46097">
        <ele>271.9</ele>
        <time>2021-08-16T09:35:47Z</time>
      </trkpt>
      <trkpt lat="44.44996" lon="1.461">
        <ele>272</ele>
        <time>2021-08-16T09:35:49Z</time>
      </trkpt>
      <trkpt lat="44.44993" lon="1.46102">
        <ele>272</ele>
        <time>2021-08-16T09:35:50Z</time>
      </trkpt>
      <trkpt lat="44.44987" lon="1.46105">
        <ele>272.1</ele>
        <time>2021-08-16T09:35:52Z</time>
      </trkpt>
      <trkpt lat="44.44983" lon="1.46107">
        <ele>272.2</ele>
        <time>2021-08-16T09:35:53Z</time>
      </trkpt>
      <trkpt lat="44.44978" lon="1.46108">
        <ele>272.3</ele>
        <time>2021-08-16T09:35:55Z</time>
      </trkpt>
      <trkpt lat="44.44974" lon="1.4611">
        <ele>272.4</ele>
        <time>2021-08-16T09:35:56Z</time>
      </trkpt>
      <trkpt lat="44.4497" lon="1.46112">
        <ele>272.6</ele>
        <time>2021-08-16T09:35:58Z</time>
      </trkpt>
      <trkpt lat="44.44967" lon="1.46113">
        <ele>272.7</ele>
        <time>2021-08-16T09:35:59Z</time>
      </trkpt>
      <trkpt lat="44.44964" lon="1.46114">
        <ele>272.8</ele>
        <time>2021-08-16T09:36:00Z</time>
      </trkpt>
      <trkpt lat="44.4496" lon="1.46115">
        <ele>272.9</ele>
        <time>2021-08-16T09:36:01Z</time>
      </trkpt>
      <trkpt lat="44.44959" lon="1.46115">
        <ele>273</ele>
        <time>2021-08-16T09:36:02Z</time>
      </trkpt>
      <trkpt lat="44.44956" lon="1.46116">
        <ele>273</ele>
        <time>2021-08-16T09:36:03Z</time>
      </trkpt>
      <trkpt lat="44.44954" lon="1.46117">
        <ele>273.1</ele>
        <time>2021-08-16T09:36:05Z</time>
      </trkpt>
      <trkpt lat="44.4495" lon="1.46118">
        <ele>273.3</ele>
        <time>2021-08-16T09:36:06Z</time>
      </trkpt>
      <trkpt lat="44.44949" lon="1.46119">
        <ele>273.3</ele>
        <time>2021-08-16T09:36:07Z</time>
      </trkpt>
      <trkpt lat="44.44946" lon="1.4612">
        <ele>273.4</ele>
        <time>2021-08-16T09:36:09Z</time>
      </trkpt>
      <trkpt lat="44.44944" lon="1.4612">
        <ele>273.5</ele>
        <time>2021-08-16T09:36:10Z</time>
      </trkpt>
      <trkpt lat="44.44943" lon="1.46121">
        <ele>273.5</ele>
        <time>2021-08-16T09:36:11Z</time>
      </trkpt>
      <trkpt lat="44.44941" lon="1.46122">
        <ele>273.6</ele>
        <time>2021-08-16T09:36:12Z</time>
      </trkpt>
      <trkpt lat="44.44938" lon="1.46125">
        <ele>273.7</ele>
        <time>2021-08-16T09:36:14Z</time>
      </trkpt>
      <trkpt lat="44.44936" lon="1.46128">
        <ele>273.8</ele>
        <time>2021-08-16T09:36:16Z</time>
      </trkpt>
      <trkpt lat="44.44934" lon="1.4613">
        <ele>273.9</ele>
        <time>2021-08-16T09:36:17Z</time>
      </trkpt>
      <trkpt lat="44.44931" lon="1.46133">
        <ele>274.1</ele>
        <time>2021-08-16T09:36:19Z</time>
      </trkpt>
      <trkpt lat="44.4493" lon="1.46134">
        <ele>274.1</ele>
        <time>2021-08-16T09:36:20Z</time>
      </trkpt>
      <trkpt lat="44.44928" lon="1.46136">
        <ele>274.2</ele>
        <time>2021-08-16T09:36:21Z</time>
      </trkpt>
      <trkpt lat="44.44925" lon="1.46139">
        <ele>274.3</ele>
        <time>2021-08-16T09:36:23Z</time>
      </trkpt>
      <trkpt lat="44.44924" lon="1.46141">
        <ele>274.4</ele>
        <time>2021-08-16T09:36:24Z</time>
      </trkpt>
      <trkpt lat="44.44921" lon="1.46143">
        <ele>274.4</ele>
        <time>2021-08-16T09:36:26Z</time>
      </trkpt>
      <trkpt lat="44.44918" lon="1.46145">
        <ele>274.5</ele>
        <time>2021-08-16T09:36:27Z</time>
      </trkpt>
      <trkpt lat="44.44916" lon="1.46147">
        <ele>274.6</ele>
        <time>2021-08-16T09:36:29Z</time>
      </trkpt>
      <trkpt lat="44.44914" lon="1.46149">
        <ele>274.7</ele>
        <time>2021-08-16T09:36:30Z</time>
      </trkpt>
      <trkpt lat="44.44912" lon="1.46152">
        <ele>274.7</ele>
        <time>2021-08-16T09:36:32Z</time>
      </trkpt>
      <trkpt lat="44.44909" lon="1.46155">
        <ele>274.8</ele>
        <time>2021-08-16T09:36:33Z</time>
      </trkpt>
      <trkpt lat="44.44908" lon="1.46156">
        <ele>274.8</ele>
        <time>2021-08-16T09:36:34Z</time>
      </trkpt>
      <trkpt lat="44.44907" lon="1.46157">
        <ele>274.8</ele>
        <time>2021-08-16T09:36:35Z</time>
      </trkpt>
      <trkpt lat="44.44905" lon="1.46159">
        <ele>274.8</ele>
        <time>2021-08-16T09:36:37Z</time>
      </trkpt>
      <trkpt lat="44.44903" lon="1.46162">
        <ele>274.8</ele>
        <time>2021-08-16T09:36:38Z</time>
      </trkpt>
      <trkpt lat="44.44902" lon="1.46163">
        <ele>274.8</ele>
        <time>2021-08-16T09:36:39Z</time>
      </trkpt>
      <trkpt lat="44.44899" lon="1.46167">
        <ele>274.9</ele>
        <time>2021-08-16T09:36:41Z</time>
      </trkpt>
      <trkpt lat="44.44898" lon="1.4617">
        <ele>274.8</ele>
        <time>2021-08-16T09:36:42Z</time>
      </trkpt>
      <trkpt lat="44.44897" lon="1.46172">
        <ele>274.8</ele>
        <time>2021-08-16T09:36:44Z</time>
      </trkpt>
      <trkpt lat="44.44895" lon="1.46176">
        <ele>274.8</ele>
        <time>2021-08-16T09:36:45Z</time>
      </trkpt>
      <trkpt lat="44.44894" lon="1.46178">
        <ele>274.8</ele>
        <time>2021-08-16T09:36:46Z</time>
      </trkpt>
      <trkpt lat="44.44892" lon="1.46182">
        <ele>274.8</ele>
        <time>2021-08-16T09:36:48Z</time>
      </trkpt>
      <trkpt lat="44.44892" lon="1.46183">
        <ele>274.8</ele>
        <time>2021-08-16T09:36:49Z</time>
      </trkpt>
      <trkpt lat="44.4489" lon="1.46187">
        <ele>274.8</ele>
        <time>2021-08-16T09:36:51Z</time>
      </trkpt>
      <trkpt lat="44.44888" lon="1.4619">
        <ele>274.7</ele>
        <time>2021-08-16T09:36:52Z</time>
      </trkpt>
      <trkpt lat="44.44885" lon="1.46194">
        <ele>274.7</ele>
        <time>2021-08-16T09:36:54Z</time>
      </trkpt>
      <trkpt lat="44.44881" lon="1.46197">
        <ele>274.6</ele>
        <time>2021-08-16T09:36:56Z</time>
      </trkpt>
      <trkpt lat="44.44879" lon="1.46199">
        <ele>274.5</ele>
        <time>2021-08-16T09:36:57Z</time>
      </trkpt>
      <trkpt lat="44.44876" lon="1.46201">
        <ele>274.5</ele>
        <time>2021-08-16T09:36:58Z</time>
      </trkpt>
      <trkpt lat="44.44875" lon="1.46202">
        <ele>274.4</ele>
        <time>2021-08-16T09:36:59Z</time>
      </trkpt>
      <trkpt lat="44.44871" lon="1.46205">
        <ele>274.3</ele>
        <time>2021-08-16T09:37:01Z</time>
      </trkpt>
      <trkpt lat="44.44867" lon="1.46207">
        <ele>274.2</ele>
        <time>2021-08-16T09:37:02Z</time>
      </trkpt>
      <trkpt lat="44.44866" lon="1.46208">
        <ele>274.1</ele>
        <time>2021-08-16T09:37:03Z</time>
      </trkpt>
      <trkpt lat="44.44864" lon="1.46211">
        <ele>274</ele>
        <time>2021-08-16T09:37:04Z</time>
      </trkpt>
      <trkpt lat="44.4486" lon="1.46214">
        <ele>273.7</ele>
        <time>2021-08-16T09:37:06Z</time>
      </trkpt>
      <trkpt lat="44.44857" lon="1.46217">
        <ele>273.5</ele>
        <time>2021-08-16T09:37:07Z</time>
      </trkpt>
      <trkpt lat="44.44852" lon="1.46224">
        <ele>272.9</ele>
        <time>2021-08-16T09:37:09Z</time>
      </trkpt>
      <trkpt lat="44.44848" lon="1.46228">
        <ele>272.6</ele>
        <time>2021-08-16T09:37:10Z</time>
      </trkpt>
      <trkpt lat="44.44843" lon="1.46234">
        <ele>272</ele>
        <time>2021-08-16T09:37:12Z</time>
      </trkpt>
      <trkpt lat="44.44839" lon="1.46238">
        <ele>271.5</ele>
        <time>2021-08-16T09:37:13Z</time>
      </trkpt>
      <trkpt lat="44.44833" lon="1.46243">
        <ele>270.9</ele>
        <time>2021-08-16T09:37:14Z</time>
      </trkpt>
      <trkpt lat="44.44824" lon="1.46252">
        <ele>269.9</ele>
        <time>2021-08-16T09:37:16Z</time>
      </trkpt>
      <trkpt lat="44.44819" lon="1.46256">
        <ele>269.4</ele>
        <time>2021-08-16T09:37:17Z</time>
      </trkpt>
      <trkpt lat="44.44807" lon="1.46265">
        <ele>268.3</ele>
        <time>2021-08-16T09:37:19Z</time>
      </trkpt>
      <trkpt lat="44.44801" lon="1.46269">
        <ele>267.7</ele>
        <time>2021-08-16T09:37:20Z</time>
      </trkpt>
      <trkpt lat="44.44787" lon="1.46276">
        <ele>266.5</ele>
        <time>2021-08-16T09:37:22Z</time>
      </trkpt>
      <trkpt lat="44.44772" lon="1.46283">
        <ele>265.4</ele>
        <time>2021-08-16T09:37:24Z</time>
      </trkpt>
      <trkpt lat="44.44758" lon="1.4629">
        <ele>264.4</ele>
        <time>2021-08-16T09:37:26Z</time>
      </trkpt>
      <trkpt lat="44.44744" lon="1.46296">
        <ele>263.8</ele>
        <time>2021-08-16T09:37:28Z</time>
      </trkpt>
      <trkpt lat="44.44732" lon="1.46302">
        <ele>263.5</ele>
        <time>2021-08-16T09:37:30Z</time>
      </trkpt>
      <trkpt lat="44.44727" lon="1.46306">
        <ele>263.5</ele>
        <time>2021-08-16T09:37:32Z</time>
      </trkpt>
      <trkpt lat="44.44725" lon="1.46309">
        <ele>263.5</ele>
        <time>2021-08-16T09:37:34Z</time>
      </trkpt>
      <trkpt lat="44.44722" lon="1.4631">
        <ele>263.5</ele>
        <time>2021-08-16T09:37:36Z</time>
      </trkpt>
      <trkpt lat="44.44719" lon="1.4631">
        <ele>263.5</ele>
        <time>2021-08-16T09:37:37Z</time>
      </trkpt>
      <trkpt lat="44.44714" lon="1.4631">
        <ele>263.6</ele>
        <time>2021-08-16T09:37:38Z</time>
      </trkpt>
      <trkpt lat="44.44709" lon="1.46312">
        <ele>263.8</ele>
        <time>2021-08-16T09:37:40Z</time>
      </trkpt>
      <trkpt lat="44.44706" lon="1.46313">
        <ele>263.9</ele>
        <time>2021-08-16T09:37:41Z</time>
      </trkpt>
      <trkpt lat="44.44704" lon="1.46315">
        <ele>264</ele>
        <time>2021-08-16T09:37:42Z</time>
      </trkpt>
      <trkpt lat="44.44702" lon="1.46316">
        <ele>264.1</ele>
        <time>2021-08-16T09:37:43Z</time>
      </trkpt>
      <trkpt lat="44.447" lon="1.46317">
        <ele>264.2</ele>
        <time>2021-08-16T09:37:44Z</time>
      </trkpt>
      <trkpt lat="44.44698" lon="1.46317">
        <ele>264.3</ele>
        <time>2021-08-16T09:37:45Z</time>
      </trkpt>
      <trkpt lat="44.44697" lon="1.46318">
        <ele>264.4</ele>
        <time>2021-08-16T09:37:47Z</time>
      </trkpt>
      <trkpt lat="44.44696" lon="1.46318">
        <ele>264.5</ele>
        <time>2021-08-16T09:37:48Z</time>
      </trkpt>
      <trkpt lat="44.44694" lon="1.46319">
        <ele>264.6</ele>
        <time>2021-08-16T09:37:49Z</time>
      </trkpt>
      <trkpt lat="44.44691" lon="1.46321">
        <ele>264.8</ele>
        <time>2021-08-16T09:37:50Z</time>
      </trkpt>
      <trkpt lat="44.4469" lon="1.46321">
        <ele>264.9</ele>
        <time>2021-08-16T09:37:51Z</time>
      </trkpt>
      <trkpt lat="44.44687" lon="1.46322">
        <ele>265.1</ele>
        <time>2021-08-16T09:37:53Z</time>
      </trkpt>
      <trkpt lat="44.44686" lon="1.46322">
        <ele>265.2</ele>
        <time>2021-08-16T09:37:54Z</time>
      </trkpt>
      <trkpt lat="44.44682" lon="1.46323">
        <ele>265.5</ele>
        <time>2021-08-16T09:37:56Z</time>
      </trkpt>
      <trkpt lat="44.44679" lon="1.46324">
        <ele>265.7</ele>
        <time>2021-08-16T09:37:57Z</time>
      </trkpt>
      <trkpt lat="44.44676" lon="1.46325">
        <ele>266</ele>
        <time>2021-08-16T09:37:58Z</time>
      </trkpt>
      <trkpt lat="44.44673" lon="1.46326">
        <ele>266.2</ele>
        <time>2021-08-16T09:38:00Z</time>
      </trkpt>
      <trkpt lat="44.4467" lon="1.46326">
        <ele>266.4</ele>
        <time>2021-08-16T09:38:01Z</time>
      </trkpt>
      <trkpt lat="44.44667" lon="1.46327">
        <ele>266.6</ele>
        <time>2021-08-16T09:38:03Z</time>
      </trkpt>
      <trkpt lat="44.44664" lon="1.46328">
        <ele>266.8</ele>
        <time>2021-08-16T09:38:04Z</time>
      </trkpt>
      <trkpt lat="44.44663" lon="1.46328">
        <ele>266.9</ele>
        <time>2021-08-16T09:38:05Z</time>
      </trkpt>
      <trkpt lat="44.44659" lon="1.46329">
        <ele>267.2</ele>
        <time>2021-08-16T09:38:07Z</time>
      </trkpt>
      <trkpt lat="44.44657" lon="1.46329">
        <ele>267.3</ele>
        <time>2021-08-16T09:38:08Z</time>
      </trkpt>
      <trkpt lat="44.44656" lon="1.4633">
        <ele>267.4</ele>
        <time>2021-08-16T09:38:09Z</time>
      </trkpt>
      <trkpt lat="44.44654" lon="1.46331">
        <ele>267.6</ele>
        <time>2021-08-16T09:38:10Z</time>
      </trkpt>
      <trkpt lat="44.44652" lon="1.46332">
        <ele>267.7</ele>
        <time>2021-08-16T09:38:12Z</time>
      </trkpt>
      <trkpt lat="44.44649" lon="1.46333">
        <ele>267.9</ele>
        <time>2021-08-16T09:38:13Z</time>
      </trkpt>
      <trkpt lat="44.44648" lon="1.46334">
        <ele>268</ele>
        <time>2021-08-16T09:38:14Z</time>
      </trkpt>
      <trkpt lat="44.44646" lon="1.46335">
        <ele>268.1</ele>
        <time>2021-08-16T09:38:15Z</time>
      </trkpt>
      <trkpt lat="44.44645" lon="1.46335">
        <ele>268.2</ele>
        <time>2021-08-16T09:38:16Z</time>
      </trkpt>
      <trkpt lat="44.44641" lon="1.46337">
        <ele>268.4</ele>
        <time>2021-08-16T09:38:18Z</time>
      </trkpt>
      <trkpt lat="44.4464" lon="1.46337">
        <ele>268.5</ele>
        <time>2021-08-16T09:38:19Z</time>
      </trkpt>
      <trkpt lat="44.44637" lon="1.46338">
        <ele>268.6</ele>
        <time>2021-08-16T09:38:20Z</time>
      </trkpt>
      <trkpt lat="44.44637" lon="1.46339">
        <ele>268.7</ele>
        <time>2021-08-16T09:38:21Z</time>
      </trkpt>
      <trkpt lat="44.44634" lon="1.4634">
        <ele>268.9</ele>
        <time>2021-08-16T09:38:22Z</time>
      </trkpt>
      <trkpt lat="44.44632" lon="1.46341">
        <ele>268.9</ele>
        <time>2021-08-16T09:38:23Z</time>
      </trkpt>
      <trkpt lat="44.44629" lon="1.46343">
        <ele>269.1</ele>
        <time>2021-08-16T09:38:25Z</time>
      </trkpt>
      <trkpt lat="44.44628" lon="1.46343">
        <ele>269.2</ele>
        <time>2021-08-16T09:38:26Z</time>
      </trkpt>
      <trkpt lat="44.44625" lon="1.46345">
        <ele>269.3</ele>
        <time>2021-08-16T09:38:27Z</time>
      </trkpt>
      <trkpt lat="44.44624" lon="1.46346">
        <ele>269.4</ele>
        <time>2021-08-16T09:38:28Z</time>
      </trkpt>
      <trkpt lat="44.44621" lon="1.46348">
        <ele>269.6</ele>
        <time>2021-08-16T09:38:29Z</time>
      </trkpt>
      <trkpt lat="44.4462" lon="1.46348">
        <ele>269.6</ele>
        <time>2021-08-16T09:38:30Z</time>
      </trkpt>
      <trkpt lat="44.44616" lon="1.4635">
        <ele>269.8</ele>
        <time>2021-08-16T09:38:32Z</time>
      </trkpt>
      <trkpt lat="44.44615" lon="1.46351">
        <ele>269.8</ele>
        <time>2021-08-16T09:38:33Z</time>
      </trkpt>
      <trkpt lat="44.44614" lon="1.46351">
        <ele>269.9</ele>
        <time>2021-08-16T09:38:34Z</time>
      </trkpt>
      <trkpt lat="44.44612" lon="1.46352">
        <ele>269.9</ele>
        <time>2021-08-16T09:38:35Z</time>
      </trkpt>
      <trkpt lat="44.44609" lon="1.46353">
        <ele>270</ele>
        <time>2021-08-16T09:38:37Z</time>
      </trkpt>
      <trkpt lat="44.44606" lon="1.46354">
        <ele>270.1</ele>
        <time>2021-08-16T09:38:38Z</time>
      </trkpt>
      <trkpt lat="44.44604" lon="1.46354">
        <ele>270.2</ele>
        <time>2021-08-16T09:38:39Z</time>
      </trkpt>
      <trkpt lat="44.446" lon="1.46355">
        <ele>270.3</ele>
        <time>2021-08-16T09:38:41Z</time>
      </trkpt>
      <trkpt lat="44.44598" lon="1.46356">
        <ele>270.3</ele>
        <time>2021-08-16T09:38:42Z</time>
      </trkpt>
      <trkpt lat="44.44597" lon="1.46356">
        <ele>270.3</ele>
        <time>2021-08-16T09:38:43Z</time>
      </trkpt>
      <trkpt lat="44.44593" lon="1.46356">
        <ele>270.4</ele>
        <time>2021-08-16T09:38:45Z</time>
      </trkpt>
      <trkpt lat="44.44592" lon="1.46356">
        <ele>270.4</ele>
        <time>2021-08-16T09:38:46Z</time>
      </trkpt>
      <trkpt lat="44.44587" lon="1.46355">
        <ele>270.5</ele>
        <time>2021-08-16T09:38:48Z</time>
      </trkpt>
      <trkpt lat="44.44586" lon="1.46355">
        <ele>270.5</ele>
        <time>2021-08-16T09:38:49Z</time>
      </trkpt>
      <trkpt lat="44.44584" lon="1.46355">
        <ele>270.6</ele>
        <time>2021-08-16T09:38:50Z</time>
      </trkpt>
      <trkpt lat="44.44581" lon="1.46354">
        <ele>270.6</ele>
        <time>2021-08-16T09:38:52Z</time>
      </trkpt>
      <trkpt lat="44.44578" lon="1.46354">
        <ele>270.6</ele>
        <time>2021-08-16T09:38:53Z</time>
      </trkpt>
      <trkpt lat="44.44574" lon="1.46351">
        <ele>270.6</ele>
        <time>2021-08-16T09:38:55Z</time>
      </trkpt>
      <trkpt lat="44.44572" lon="1.46351">
        <ele>270.6</ele>
        <time>2021-08-16T09:38:56Z</time>
      </trkpt>
      <trkpt lat="44.44571" lon="1.4635">
        <ele>270.6</ele>
        <time>2021-08-16T09:38:57Z</time>
      </trkpt>
      <trkpt lat="44.44569" lon="1.4635">
        <ele>270.6</ele>
        <time>2021-08-16T09:38:58Z</time>
      </trkpt>
      <trkpt lat="44.44567" lon="1.4635">
        <ele>270.6</ele>
        <time>2021-08-16T09:39:00Z</time>
      </trkpt>
      <trkpt lat="44.44564" lon="1.46351">
        <ele>270.6</ele>
        <time>2021-08-16T09:39:01Z</time>
      </trkpt>
      <trkpt lat="44.44563" lon="1.46351">
        <ele>270.6</ele>
        <time>2021-08-16T09:39:02Z</time>
      </trkpt>
      <trkpt lat="44.44561" lon="1.46352">
        <ele>270.6</ele>
        <time>2021-08-16T09:39:03Z</time>
      </trkpt>
      <trkpt lat="44.44559" lon="1.46353">
        <ele>270.5</ele>
        <time>2021-08-16T09:39:05Z</time>
      </trkpt>
      <trkpt lat="44.44556" lon="1.46355">
        <ele>270.5</ele>
        <time>2021-08-16T09:39:06Z</time>
      </trkpt>
      <trkpt lat="44.44553" lon="1.46358">
        <ele>270.5</ele>
        <time>2021-08-16T09:39:08Z</time>
      </trkpt>
      <trkpt lat="44.44551" lon="1.4636">
        <ele>270.5</ele>
        <time>2021-08-16T09:39:09Z</time>
      </trkpt>
      <trkpt lat="44.44549" lon="1.46363">
        <ele>270.5</ele>
        <time>2021-08-16T09:39:11Z</time>
      </trkpt>
      <trkpt lat="44.44548" lon="1.46366">
        <ele>270.5</ele>
        <time>2021-08-16T09:39:12Z</time>
      </trkpt>
      <trkpt lat="44.44547" lon="1.46368">
        <ele>270.5</ele>
        <time>2021-08-16T09:39:14Z</time>
      </trkpt>
      <trkpt lat="44.44546" lon="1.4637">
        <ele>270.5</ele>
        <time>2021-08-16T09:39:15Z</time>
      </trkpt>
      <trkpt lat="44.44545" lon="1.46374">
        <ele>270.5</ele>
        <time>2021-08-16T09:39:17Z</time>
      </trkpt>
      <trkpt lat="44.44544" lon="1.46378">
        <ele>270.5</ele>
        <time>2021-08-16T09:39:18Z</time>
      </trkpt>
      <trkpt lat="44.44544" lon="1.4638">
        <ele>270.5</ele>
        <time>2021-08-16T09:39:19Z</time>
      </trkpt>
      <trkpt lat="44.44543" lon="1.46383">
        <ele>270.5</ele>
        <time>2021-08-16T09:39:20Z</time>
      </trkpt>
      <trkpt lat="44.44541" lon="1.46388">
        <ele>270.5</ele>
        <time>2021-08-16T09:39:22Z</time>
      </trkpt>
      <trkpt lat="44.4454" lon="1.46391">
        <ele>270.5</ele>
        <time>2021-08-16T09:39:23Z</time>
      </trkpt>
      <trkpt lat="44.44537" lon="1.46394">
        <ele>270.5</ele>
        <time>2021-08-16T09:39:25Z</time>
      </trkpt>
      <trkpt lat="44.44535" lon="1.46397">
        <ele>270.4</ele>
        <time>2021-08-16T09:39:26Z</time>
      </trkpt>
      <trkpt lat="44.44533" lon="1.46401">
        <ele>270.4</ele>
        <time>2021-08-16T09:39:28Z</time>
      </trkpt>
      <trkpt lat="44.4453" lon="1.46404">
        <ele>270.4</ele>
        <time>2021-08-16T09:39:29Z</time>
      </trkpt>
      <trkpt lat="44.44527" lon="1.46406">
        <ele>270.3</ele>
        <time>2021-08-16T09:39:30Z</time>
      </trkpt>
      <trkpt lat="44.44524" lon="1.46409">
        <ele>270.2</ele>
        <time>2021-08-16T09:39:32Z</time>
      </trkpt>
      <trkpt lat="44.44521" lon="1.46411">
        <ele>270.2</ele>
        <time>2021-08-16T09:39:33Z</time>
      </trkpt>
      <trkpt lat="44.44518" lon="1.46412">
        <ele>270.1</ele>
        <time>2021-08-16T09:39:34Z</time>
      </trkpt>
      <trkpt lat="44.44514" lon="1.46416">
        <ele>270</ele>
        <time>2021-08-16T09:39:36Z</time>
      </trkpt>
      <trkpt lat="44.44512" lon="1.46417">
        <ele>269.9</ele>
        <time>2021-08-16T09:39:37Z</time>
      </trkpt>
      <trkpt lat="44.4451" lon="1.46417">
        <ele>269.9</ele>
        <time>2021-08-16T09:39:38Z</time>
      </trkpt>
      <trkpt lat="44.44507" lon="1.46419">
        <ele>269.7</ele>
        <time>2021-08-16T09:39:40Z</time>
      </trkpt>
      <trkpt lat="44.44504" lon="1.4642">
        <ele>269.6</ele>
        <time>2021-08-16T09:39:41Z</time>
      </trkpt>
      <trkpt lat="44.445" lon="1.46419">
        <ele>269.5</ele>
        <time>2021-08-16T09:39:42Z</time>
      </trkpt>
      <trkpt lat="44.44499" lon="1.46419">
        <ele>269.4</ele>
        <time>2021-08-16T09:39:43Z</time>
      </trkpt>
      <trkpt lat="44.44496" lon="1.46419">
        <ele>269.3</ele>
        <time>2021-08-16T09:39:45Z</time>
      </trkpt>
      <trkpt lat="44.44493" lon="1.46419">
        <ele>269.2</ele>
        <time>2021-08-16T09:39:46Z</time>
      </trkpt>
      <trkpt lat="44.4449" lon="1.46419">
        <ele>269.1</ele>
        <time>2021-08-16T09:39:47Z</time>
      </trkpt>
      <trkpt lat="44.44486" lon="1.46418">
        <ele>269</ele>
        <time>2021-08-16T09:39:48Z</time>
      </trkpt>
      <trkpt lat="44.44482" lon="1.46416">
        <ele>268.8</ele>
        <time>2021-08-16T09:39:49Z</time>
      </trkpt>
      <trkpt lat="44.44479" lon="1.46415">
        <ele>268.7</ele>
        <time>2021-08-16T09:39:51Z</time>
      </trkpt>
      <trkpt lat="44.44475" lon="1.46414">
        <ele>268.6</ele>
        <time>2021-08-16T09:39:52Z</time>
      </trkpt>
      <trkpt lat="44.44471" lon="1.46412">
        <ele>268.5</ele>
        <time>2021-08-16T09:39:53Z</time>
      </trkpt>
      <trkpt lat="44.44466" lon="1.46411">
        <ele>268.4</ele>
        <time>2021-08-16T09:39:54Z</time>
      </trkpt>
      <trkpt lat="44.44462" lon="1.46409">
        <ele>268.3</ele>
        <time>2021-08-16T09:39:55Z</time>
      </trkpt>
      <trkpt lat="44.44458" lon="1.46409">
        <ele>268.1</ele>
        <time>2021-08-16T09:39:56Z</time>
      </trkpt>
      <trkpt lat="44.44454" lon="1.46408">
        <ele>268</ele>
        <time>2021-08-16T09:39:58Z</time>
      </trkpt>
      <trkpt lat="44.44449" lon="1.46406">
        <ele>267.8</ele>
        <time>2021-08-16T09:39:59Z</time>
      </trkpt>
      <trkpt lat="44.44445" lon="1.46405">
        <ele>267.7</ele>
        <time>2021-08-16T09:40:00Z</time>
      </trkpt>
      <trkpt lat="44.44441" lon="1.46404">
        <ele>267.6</ele>
        <time>2021-08-16T09:40:01Z</time>
      </trkpt>
      <trkpt lat="44.44436" lon="1.46403">
        <ele>267.4</ele>
        <time>2021-08-16T09:40:03Z</time>
      </trkpt>
      <trkpt lat="44.44432" lon="1.46402">
        <ele>267.3</ele>
        <time>2021-08-16T09:40:04Z</time>
      </trkpt>
      <trkpt lat="44.44427" lon="1.46401">
        <ele>267.2</ele>
        <time>2021-08-16T09:40:05Z</time>
      </trkpt>
      <trkpt lat="44.44423" lon="1.464">
        <ele>267.1</ele>
        <time>2021-08-16T09:40:06Z</time>
      </trkpt>
      <trkpt lat="44.4442" lon="1.464">
        <ele>267.1</ele>
        <time>2021-08-16T09:40:07Z</time>
      </trkpt>
      <trkpt lat="44.44416" lon="1.46399">
        <ele>267.1</ele>
        <time>2021-08-16T09:40:08Z</time>
      </trkpt>
      <trkpt lat="44.44411" lon="1.46398">
        <ele>267.1</ele>
        <time>2021-08-16T09:40:10Z</time>
      </trkpt>
      <trkpt lat="44.44407" lon="1.46398">
        <ele>267.1</ele>
        <time>2021-08-16T09:40:11Z</time>
      </trkpt>
      <trkpt lat="44.44403" lon="1.46397">
        <ele>267.1</ele>
        <time>2021-08-16T09:40:12Z</time>
      </trkpt>
      <trkpt lat="44.444" lon="1.46397">
        <ele>267</ele>
        <time>2021-08-16T09:40:13Z</time>
      </trkpt>
      <trkpt lat="44.44399" lon="1.46398">
        <ele>267</ele>
        <time>2021-08-16T09:40:14Z</time>
      </trkpt>
      <trkpt lat="44.44396" lon="1.46398">
        <ele>267</ele>
        <time>2021-08-16T09:40:16Z</time>
      </trkpt>
      <trkpt lat="44.44393" lon="1.46397">
        <ele>266.9</ele>
        <time>2021-08-16T09:40:17Z</time>
      </trkpt>
      <trkpt lat="44.44391" lon="1.46397">
        <ele>266.9</ele>
        <time>2021-08-16T09:40:18Z</time>
      </trkpt>
      <trkpt lat="44.44387" lon="1.46398">
        <ele>266.9</ele>
        <time>2021-08-16T09:40:20Z</time>
      </trkpt>
      <trkpt lat="44.44384" lon="1.46397">
        <ele>266.9</ele>
        <time>2021-08-16T09:40:21Z</time>
      </trkpt>
      <trkpt lat="44.44381" lon="1.46397">
        <ele>266.8</ele>
        <time>2021-08-16T09:40:22Z</time>
      </trkpt>
      <trkpt lat="44.44378" lon="1.46397">
        <ele>266.8</ele>
        <time>2021-08-16T09:40:24Z</time>
      </trkpt>
      <trkpt lat="44.44375" lon="1.46399">
        <ele>266.8</ele>
        <time>2021-08-16T09:40:25Z</time>
      </trkpt>
      <trkpt lat="44.44373" lon="1.464">
        <ele>266.8</ele>
        <time>2021-08-16T09:40:26Z</time>
      </trkpt>
      <trkpt lat="44.44369" lon="1.46402">
        <ele>266.8</ele>
        <time>2021-08-16T09:40:28Z</time>
      </trkpt>
      <trkpt lat="44.44366" lon="1.46404">
        <ele>266.8</ele>
        <time>2021-08-16T09:40:29Z</time>
      </trkpt>
      <trkpt lat="44.44365" lon="1.46405">
        <ele>266.8</ele>
        <time>2021-08-16T09:40:30Z</time>
      </trkpt>
      <trkpt lat="44.44362" lon="1.46407">
        <ele>266.8</ele>
        <time>2021-08-16T09:40:31Z</time>
      </trkpt>
      <trkpt lat="44.44361" lon="1.46407">
        <ele>266.8</ele>
        <time>2021-08-16T09:40:32Z</time>
      </trkpt>
      <trkpt lat="44.44358" lon="1.4641">
        <ele>266.8</ele>
        <time>2021-08-16T09:40:34Z</time>
      </trkpt>
      <trkpt lat="44.44355" lon="1.46413">
        <ele>266.9</ele>
        <time>2021-08-16T09:40:36Z</time>
      </trkpt>
      <trkpt lat="44.44353" lon="1.46415">
        <ele>266.9</ele>
        <time>2021-08-16T09:40:37Z</time>
      </trkpt>
      <trkpt lat="44.44349" lon="1.46419">
        <ele>266.9</ele>
        <time>2021-08-16T09:40:38Z</time>
      </trkpt>
      <trkpt lat="44.44345" lon="1.46422">
        <ele>267</ele>
        <time>2021-08-16T09:40:40Z</time>
      </trkpt>
      <trkpt lat="44.44343" lon="1.46423">
        <ele>267.1</ele>
        <time>2021-08-16T09:40:41Z</time>
      </trkpt>
      <trkpt lat="44.44341" lon="1.46425">
        <ele>267.1</ele>
        <time>2021-08-16T09:40:43Z</time>
      </trkpt>
      <trkpt lat="44.44338" lon="1.46427">
        <ele>267.2</ele>
        <time>2021-08-16T09:40:44Z</time>
      </trkpt>
      <trkpt lat="44.44337" lon="1.46427">
        <ele>267.2</ele>
        <time>2021-08-16T09:40:45Z</time>
      </trkpt>
      <trkpt lat="44.44334" lon="1.46429">
        <ele>267.3</ele>
        <time>2021-08-16T09:40:46Z</time>
      </trkpt>
      <trkpt lat="44.44333" lon="1.4643">
        <ele>267.3</ele>
        <time>2021-08-16T09:40:47Z</time>
      </trkpt>
      <trkpt lat="44.44331" lon="1.46431">
        <ele>267.4</ele>
        <time>2021-08-16T09:40:48Z</time>
      </trkpt>
      <trkpt lat="44.44328" lon="1.46432">
        <ele>267.4</ele>
        <time>2021-08-16T09:40:50Z</time>
      </trkpt>
      <trkpt lat="44.44326" lon="1.46434">
        <ele>267.5</ele>
        <time>2021-08-16T09:40:51Z</time>
      </trkpt>
      <trkpt lat="44.44321" lon="1.46437">
        <ele>267.6</ele>
        <time>2021-08-16T09:40:53Z</time>
      </trkpt>
      <trkpt lat="44.44319" lon="1.46438">
        <ele>267.6</ele>
        <time>2021-08-16T09:40:54Z</time>
      </trkpt>
      <trkpt lat="44.44318" lon="1.46439">
        <ele>267.7</ele>
        <time>2021-08-16T09:40:55Z</time>
      </trkpt>
      <trkpt lat="44.44315" lon="1.46441">
        <ele>267.7</ele>
        <time>2021-08-16T09:40:56Z</time>
      </trkpt>
      <trkpt lat="44.44311" lon="1.46445">
        <ele>267.8</ele>
        <time>2021-08-16T09:40:58Z</time>
      </trkpt>
      <trkpt lat="44.44308" lon="1.46447">
        <ele>267.8</ele>
        <time>2021-08-16T09:40:59Z</time>
      </trkpt>
      <trkpt lat="44.44306" lon="1.46449">
        <ele>267.8</ele>
        <time>2021-08-16T09:41:00Z</time>
      </trkpt>
      <trkpt lat="44.44303" lon="1.46452">
        <ele>267.8</ele>
        <time>2021-08-16T09:41:02Z</time>
      </trkpt>
      <trkpt lat="44.443" lon="1.46454">
        <ele>267.8</ele>
        <time>2021-08-16T09:41:03Z</time>
      </trkpt>
      <trkpt lat="44.44297" lon="1.46455">
        <ele>267.8</ele>
        <time>2021-08-16T09:41:04Z</time>
      </trkpt>
      <trkpt lat="44.44294" lon="1.46457">
        <ele>267.9</ele>
        <time>2021-08-16T09:41:05Z</time>
      </trkpt>
      <trkpt lat="44.44293" lon="1.46458">
        <ele>267.9</ele>
        <time>2021-08-16T09:41:06Z</time>
      </trkpt>
      <trkpt lat="44.44291" lon="1.46461">
        <ele>267.9</ele>
        <time>2021-08-16T09:41:07Z</time>
      </trkpt>
      <trkpt lat="44.44287" lon="1.46465">
        <ele>267.9</ele>
        <time>2021-08-16T09:41:09Z</time>
      </trkpt>
      <trkpt lat="44.44284" lon="1.46468">
        <ele>267.9</ele>
        <time>2021-08-16T09:41:11Z</time>
      </trkpt>
      <trkpt lat="44.44281" lon="1.46471">
        <ele>267.9</ele>
        <time>2021-08-16T09:41:12Z</time>
      </trkpt>
      <trkpt lat="44.44279" lon="1.46472">
        <ele>267.9</ele>
        <time>2021-08-16T09:41:13Z</time>
      </trkpt>
      <trkpt lat="44.44276" lon="1.46474">
        <ele>267.9</ele>
        <time>2021-08-16T09:41:15Z</time>
      </trkpt>
      <trkpt lat="44.44273" lon="1.46477">
        <ele>267.9</ele>
        <time>2021-08-16T09:41:16Z</time>
      </trkpt>
      <trkpt lat="44.44272" lon="1.46478">
        <ele>267.9</ele>
        <time>2021-08-16T09:41:17Z</time>
      </trkpt>
      <trkpt lat="44.4427" lon="1.4648">
        <ele>267.9</ele>
        <time>2021-08-16T09:41:18Z</time>
      </trkpt>
      <trkpt lat="44.44269" lon="1.46481">
        <ele>267.9</ele>
        <time>2021-08-16T09:41:19Z</time>
      </trkpt>
      <trkpt lat="44.44268" lon="1.46482">
        <ele>267.9</ele>
        <time>2021-08-16T09:41:20Z</time>
      </trkpt>
      <trkpt lat="44.44265" lon="1.46483">
        <ele>267.9</ele>
        <time>2021-08-16T09:41:22Z</time>
      </trkpt>
      <trkpt lat="44.44264" lon="1.46484">
        <ele>267.9</ele>
        <time>2021-08-16T09:41:23Z</time>
      </trkpt>
      <trkpt lat="44.44264" lon="1.46484">
        <ele>267.9</ele>
        <time>2021-08-16T09:41:24Z</time>
      </trkpt>
      <trkpt lat="44.44264" lon="1.46484">
        <ele>267.9</ele>
        <time>2021-08-16T09:41:25Z</time>
      </trkpt>
      <trkpt lat="44.44264" lon="1.46484">
        <ele>267.9</ele>
        <time>2021-08-16T09:41:26Z</time>
      </trkpt>
      <trkpt lat="44.44264" lon="1.46483">
        <ele>267.9</ele>
        <time>2021-08-16T09:41:28Z</time>
      </trkpt>
      <trkpt lat="44.44264" lon="1.46483">
        <ele>267.9</ele>
        <time>2021-08-16T09:41:29Z</time>
      </trkpt>
      <trkpt lat="44.44264" lon="1.46483">
        <ele>267.9</ele>
        <time>2021-08-16T09:41:30Z</time>
      </trkpt>
      <trkpt lat="44.44264" lon="1.46483">
        <ele>267.9</ele>
        <time>2021-08-16T09:41:31Z</time>
      </trkpt>
      <trkpt lat="44.44264" lon="1.46483">
        <ele>267.9</ele>
        <time>2021-08-16T09:41:32Z</time>
      </trkpt>
      <trkpt lat="44.44263" lon="1.46483">
        <ele>267.9</ele>
        <time>2021-08-16T09:41:34Z</time>
      </trkpt>
      <trkpt lat="44.44262" lon="1.46484">
        <ele>267.9</ele>
        <time>2021-08-16T09:41:40Z</time>
      </trkpt>
      <trkpt lat="44.4426" lon="1.46486">
        <ele>267.9</ele>
        <time>2021-08-16T09:41:41Z</time>
      </trkpt>
      <trkpt lat="44.44256" lon="1.46488">
        <ele>267.9</ele>
        <time>2021-08-16T09:41:43Z</time>
      </trkpt>
      <trkpt lat="44.44253" lon="1.4649">
        <ele>268</ele>
        <time>2021-08-16T09:41:44Z</time>
      </trkpt>
      <trkpt lat="44.4425" lon="1.46492">
        <ele>268</ele>
        <time>2021-08-16T09:41:46Z</time>
      </trkpt>
      <trkpt lat="44.44248" lon="1.46494">
        <ele>267.9</ele>
        <time>2021-08-16T09:41:47Z</time>
      </trkpt>
      <trkpt lat="44.44245" lon="1.46498">
        <ele>267.8</ele>
        <time>2021-08-16T09:41:48Z</time>
      </trkpt>
      <trkpt lat="44.44242" lon="1.46503">
        <ele>267.7</ele>
        <time>2021-08-16T09:41:49Z</time>
      </trkpt>
      <trkpt lat="44.44241" lon="1.46504">
        <ele>267.7</ele>
        <time>2021-08-16T09:41:50Z</time>
      </trkpt>
      <trkpt lat="44.44239" lon="1.46508">
        <ele>267.6</ele>
        <time>2021-08-16T09:41:52Z</time>
      </trkpt>
      <trkpt lat="44.44236" lon="1.46513">
        <ele>267.5</ele>
        <time>2021-08-16T09:41:53Z</time>
      </trkpt>
      <trkpt lat="44.44236" lon="1.46514">
        <ele>267.5</ele>
        <time>2021-08-16T09:41:54Z</time>
      </trkpt>
      <trkpt lat="44.44234" lon="1.46517">
        <ele>267.4</ele>
        <time>2021-08-16T09:41:55Z</time>
      </trkpt>
      <trkpt lat="44.4423" lon="1.46521">
        <ele>267.3</ele>
        <time>2021-08-16T09:41:57Z</time>
      </trkpt>
      <trkpt lat="44.44227" lon="1.46523">
        <ele>267.2</ele>
        <time>2021-08-16T09:41:58Z</time>
      </trkpt>
      <trkpt lat="44.44224" lon="1.46525">
        <ele>267.4</ele>
        <time>2021-08-16T09:42:00Z</time>
      </trkpt>
      <trkpt lat="44.44221" lon="1.46527">
        <ele>267.4</ele>
        <time>2021-08-16T09:42:01Z</time>
      </trkpt>
      <trkpt lat="44.44219" lon="1.46528">
        <ele>267.6</ele>
        <time>2021-08-16T09:42:02Z</time>
      </trkpt>
      <trkpt lat="44.44215" lon="1.4653">
        <ele>267.8</ele>
        <time>2021-08-16T09:42:04Z</time>
      </trkpt>
      <trkpt lat="44.44211" lon="1.46533">
        <ele>267.8</ele>
        <time>2021-08-16T09:42:06Z</time>
      </trkpt>
      <trkpt lat="44.44209" lon="1.46533">
        <ele>268</ele>
        <time>2021-08-16T09:42:07Z</time>
      </trkpt>
      <trkpt lat="44.44208" lon="1.46534">
        <ele>268.1</ele>
        <time>2021-08-16T09:42:08Z</time>
      </trkpt>
      <trkpt lat="44.44205" lon="1.46529">
        <ele>268.2</ele>
        <time>2021-08-16T09:42:10Z</time>
      </trkpt>
      <trkpt lat="44.44203" lon="1.46528">
        <ele>268.5</ele>
        <time>2021-08-16T09:42:11Z</time>
      </trkpt>
      <trkpt lat="44.44202" lon="1.46528">
        <ele>268.5</ele>
        <time>2021-08-16T09:42:12Z</time>
      </trkpt>
      <trkpt lat="44.44198" lon="1.46528">
        <ele>268.5</ele>
        <time>2021-08-16T09:42:14Z</time>
      </trkpt>
      <trkpt lat="44.44195" lon="1.4653">
        <ele>268.5</ele>
        <time>2021-08-16T09:42:15Z</time>
      </trkpt>
      <trkpt lat="44.44194" lon="1.46533">
        <ele>268.6</ele>
        <time>2021-08-16T09:42:16Z</time>
      </trkpt>
      <trkpt lat="44.44192" lon="1.46536">
        <ele>268.6</ele>
        <time>2021-08-16T09:42:18Z</time>
      </trkpt>
      <trkpt lat="44.4419" lon="1.4654">
        <ele>268.6</ele>
        <time>2021-08-16T09:42:19Z</time>
      </trkpt>
      <trkpt lat="44.44189" lon="1.46541">
        <ele>268.6</ele>
        <time>2021-08-16T09:42:20Z</time>
      </trkpt>
      <trkpt lat="44.44186" lon="1.46545">
        <ele>268.7</ele>
        <time>2021-08-16T09:42:22Z</time>
      </trkpt>
      <trkpt lat="44.44184" lon="1.4655">
        <ele>268.8</ele>
        <time>2021-08-16T09:42:23Z</time>
      </trkpt>
      <trkpt lat="44.44183" lon="1.46552">
        <ele>268.8</ele>
        <time>2021-08-16T09:42:24Z</time>
      </trkpt>
      <trkpt lat="44.44179" lon="1.46557">
        <ele>268.9</ele>
        <time>2021-08-16T09:42:26Z</time>
      </trkpt>
      <trkpt lat="44.44178" lon="1.46558">
        <ele>268.9</ele>
        <time>2021-08-16T09:42:27Z</time>
      </trkpt>
      <trkpt lat="44.44177" lon="1.46559">
        <ele>268.9</ele>
        <time>2021-08-16T09:42:28Z</time>
      </trkpt>
      <trkpt lat="44.44175" lon="1.46563">
        <ele>269</ele>
        <time>2021-08-16T09:42:29Z</time>
      </trkpt>
      <trkpt lat="44.44174" lon="1.46564">
        <ele>269</ele>
        <time>2021-08-16T09:42:30Z</time>
      </trkpt>
      <trkpt lat="44.44173" lon="1.46568">
        <ele>269.1</ele>
        <time>2021-08-16T09:42:32Z</time>
      </trkpt>
      <trkpt lat="44.44171" lon="1.4657">
        <ele>269.2</ele>
        <time>2021-08-16T09:42:33Z</time>
      </trkpt>
      <trkpt lat="44.44168" lon="1.46573">
        <ele>269.3</ele>
        <time>2021-08-16T09:42:35Z</time>
      </trkpt>
      <trkpt lat="44.44166" lon="1.46577">
        <ele>269.4</ele>
        <time>2021-08-16T09:42:36Z</time>
      </trkpt>
      <trkpt lat="44.44164" lon="1.4658">
        <ele>269.5</ele>
        <time>2021-08-16T09:42:37Z</time>
      </trkpt>
      <trkpt lat="44.4416" lon="1.46586">
        <ele>269.6</ele>
        <time>2021-08-16T09:42:39Z</time>
      </trkpt>
      <trkpt lat="44.44159" lon="1.4659">
        <ele>269.7</ele>
        <time>2021-08-16T09:42:40Z</time>
      </trkpt>
      <trkpt lat="44.44156" lon="1.46595">
        <ele>269.9</ele>
        <time>2021-08-16T09:42:41Z</time>
      </trkpt>
      <trkpt lat="44.44155" lon="1.46596">
        <ele>269.9</ele>
        <time>2021-08-16T09:42:42Z</time>
      </trkpt>
      <trkpt lat="44.44152" lon="1.466">
        <ele>270</ele>
        <time>2021-08-16T09:42:44Z</time>
      </trkpt>
      <trkpt lat="44.4415" lon="1.46606">
        <ele>270.2</ele>
        <time>2021-08-16T09:42:45Z</time>
      </trkpt>
      <trkpt lat="44.44146" lon="1.46612">
        <ele>270.5</ele>
        <time>2021-08-16T09:42:47Z</time>
      </trkpt>
      <trkpt lat="44.44145" lon="1.46616">
        <ele>270.6</ele>
        <time>2021-08-16T09:42:48Z</time>
      </trkpt>
      <trkpt lat="44.44145" lon="1.46616">
        <ele>270.6</ele>
        <time>2021-08-16T09:42:50Z</time>
      </trkpt>
      <trkpt lat="44.44145" lon="1.46615">
        <ele>270.7</ele>
        <time>2021-08-16T09:42:52Z</time>
      </trkpt>
      <trkpt lat="44.44145" lon="1.46615">
        <ele>270.7</ele>
        <time>2021-08-16T09:42:53Z</time>
      </trkpt>
      <trkpt lat="44.44145" lon="1.46618">
        <ele>270.7</ele>
        <time>2021-08-16T09:42:54Z</time>
      </trkpt>
      <trkpt lat="44.44142" lon="1.46622">
        <ele>270.9</ele>
        <time>2021-08-16T09:42:56Z</time>
      </trkpt>
      <trkpt lat="44.44139" lon="1.46625">
        <ele>271</ele>
        <time>2021-08-16T09:42:57Z</time>
      </trkpt>
      <trkpt lat="44.44135" lon="1.46628">
        <ele>271.2</ele>
        <time>2021-08-16T09:42:58Z</time>
      </trkpt>
      <trkpt lat="44.44133" lon="1.46631">
        <ele>271.3</ele>
        <time>2021-08-16T09:42:59Z</time>
      </trkpt>
      <trkpt lat="44.44131" lon="1.46635">
        <ele>271.5</ele>
        <time>2021-08-16T09:43:00Z</time>
      </trkpt>
      <trkpt lat="44.4413" lon="1.46636">
        <ele>271.5</ele>
        <time>2021-08-16T09:43:01Z</time>
      </trkpt>
      <trkpt lat="44.44129" lon="1.4664">
        <ele>271.6</ele>
        <time>2021-08-16T09:43:02Z</time>
      </trkpt>
      <trkpt lat="44.44126" lon="1.46645">
        <ele>271.7</ele>
        <time>2021-08-16T09:43:04Z</time>
      </trkpt>
      <trkpt lat="44.44125" lon="1.46649">
        <ele>271.8</ele>
        <time>2021-08-16T09:43:05Z</time>
      </trkpt>
      <trkpt lat="44.44123" lon="1.46654">
        <ele>271.9</ele>
        <time>2021-08-16T09:43:06Z</time>
      </trkpt>
      <trkpt lat="44.44121" lon="1.46659">
        <ele>272</ele>
        <time>2021-08-16T09:43:07Z</time>
      </trkpt>
      <trkpt lat="44.4412" lon="1.46661">
        <ele>272</ele>
        <time>2021-08-16T09:43:08Z</time>
      </trkpt>
      <trkpt lat="44.44118" lon="1.46665">
        <ele>272.1</ele>
        <time>2021-08-16T09:43:10Z</time>
      </trkpt>
      <trkpt lat="44.44116" lon="1.46668">
        <ele>272.2</ele>
        <time>2021-08-16T09:43:11Z</time>
      </trkpt>
      <trkpt lat="44.44115" lon="1.46672">
        <ele>272.2</ele>
        <time>2021-08-16T09:43:12Z</time>
      </trkpt>
      <trkpt lat="44.44113" lon="1.46677">
        <ele>272.3</ele>
        <time>2021-08-16T09:43:14Z</time>
      </trkpt>
      <trkpt lat="44.44112" lon="1.4668">
        <ele>272.4</ele>
        <time>2021-08-16T09:43:15Z</time>
      </trkpt>
      <trkpt lat="44.44111" lon="1.46683">
        <ele>272.4</ele>
        <time>2021-08-16T09:43:17Z</time>
      </trkpt>
      <trkpt lat="44.44109" lon="1.46687">
        <ele>272.5</ele>
        <time>2021-08-16T09:43:18Z</time>
      </trkpt>
      <trkpt lat="44.44108" lon="1.46688">
        <ele>272.5</ele>
        <time>2021-08-16T09:43:19Z</time>
      </trkpt>
      <trkpt lat="44.44106" lon="1.46692">
        <ele>272.6</ele>
        <time>2021-08-16T09:43:20Z</time>
      </trkpt>
      <trkpt lat="44.44105" lon="1.46694">
        <ele>272.6</ele>
        <time>2021-08-16T09:43:21Z</time>
      </trkpt>
      <trkpt lat="44.44103" lon="1.46698">
        <ele>272.6</ele>
        <time>2021-08-16T09:43:22Z</time>
      </trkpt>
      <trkpt lat="44.44102" lon="1.467">
        <ele>272.7</ele>
        <time>2021-08-16T09:43:23Z</time>
      </trkpt>
      <trkpt lat="44.441" lon="1.46704">
        <ele>272.7</ele>
        <time>2021-08-16T09:43:25Z</time>
      </trkpt>
      <trkpt lat="44.44098" lon="1.46709">
        <ele>272.8</ele>
        <time>2021-08-16T09:43:26Z</time>
      </trkpt>
      <trkpt lat="44.44097" lon="1.46711">
        <ele>272.8</ele>
        <time>2021-08-16T09:43:27Z</time>
      </trkpt>
      <trkpt lat="44.44096" lon="1.46715">
        <ele>272.8</ele>
        <time>2021-08-16T09:43:29Z</time>
      </trkpt>
      <trkpt lat="44.44094" lon="1.46719">
        <ele>272.9</ele>
        <time>2021-08-16T09:43:30Z</time>
      </trkpt>
      <trkpt lat="44.44092" lon="1.46723">
        <ele>272.9</ele>
        <time>2021-08-16T09:43:32Z</time>
      </trkpt>
      <trkpt lat="44.4409" lon="1.46727">
        <ele>273</ele>
        <time>2021-08-16T09:43:33Z</time>
      </trkpt>
      <trkpt lat="44.44088" lon="1.46731">
        <ele>273</ele>
        <time>2021-08-16T09:43:34Z</time>
      </trkpt>
      <trkpt lat="44.44087" lon="1.46732">
        <ele>273</ele>
        <time>2021-08-16T09:43:35Z</time>
      </trkpt>
      <trkpt lat="44.44086" lon="1.46734">
        <ele>273.1</ele>
        <time>2021-08-16T09:43:36Z</time>
      </trkpt>
      <trkpt lat="44.44083" lon="1.46738">
        <ele>273.1</ele>
        <time>2021-08-16T09:43:38Z</time>
      </trkpt>
      <trkpt lat="44.44082" lon="1.46741">
        <ele>273.1</ele>
        <time>2021-08-16T09:43:39Z</time>
      </trkpt>
      <trkpt lat="44.4408" lon="1.46746">
        <ele>273.1</ele>
        <time>2021-08-16T09:43:41Z</time>
      </trkpt>
      <trkpt lat="44.44077" lon="1.4675">
        <ele>273.1</ele>
        <time>2021-08-16T09:43:42Z</time>
      </trkpt>
      <trkpt lat="44.44076" lon="1.46752">
        <ele>273.1</ele>
        <time>2021-08-16T09:43:43Z</time>
      </trkpt>
      <trkpt lat="44.44074" lon="1.46756">
        <ele>273.1</ele>
        <time>2021-08-16T09:43:45Z</time>
      </trkpt>
      <trkpt lat="44.44071" lon="1.46759">
        <ele>273.1</ele>
        <time>2021-08-16T09:43:46Z</time>
      </trkpt>
      <trkpt lat="44.44068" lon="1.46765">
        <ele>273.1</ele>
        <time>2021-08-16T09:43:48Z</time>
      </trkpt>
      <trkpt lat="44.44065" lon="1.46768">
        <ele>273</ele>
        <time>2021-08-16T09:43:49Z</time>
      </trkpt>
      <trkpt lat="44.44064" lon="1.4677">
        <ele>273</ele>
        <time>2021-08-16T09:43:50Z</time>
      </trkpt>
      <trkpt lat="44.44062" lon="1.46773">
        <ele>272.9</ele>
        <time>2021-08-16T09:43:52Z</time>
      </trkpt>
      <trkpt lat="44.44062" lon="1.46774">
        <ele>272.9</ele>
        <time>2021-08-16T09:43:53Z</time>
      </trkpt>
      <trkpt lat="44.44062" lon="1.46773">
        <ele>272.9</ele>
        <time>2021-08-16T09:43:55Z</time>
      </trkpt>
      <trkpt lat="44.44062" lon="1.46773">
        <ele>272.9</ele>
        <time>2021-08-16T09:43:56Z</time>
      </trkpt>
      <trkpt lat="44.44061" lon="1.46773">
        <ele>272.9</ele>
        <time>2021-08-16T09:43:58Z</time>
      </trkpt>
      <trkpt lat="44.44062" lon="1.46772">
        <ele>272.9</ele>
        <time>2021-08-16T09:44:00Z</time>
      </trkpt>
      <trkpt lat="44.44062" lon="1.46772">
        <ele>272.9</ele>
        <time>2021-08-16T09:44:02Z</time>
      </trkpt>
      <trkpt lat="44.44058" lon="1.46779">
        <ele>272.7</ele>
        <time>2021-08-16T09:44:52Z</time>
      </trkpt>
      <trkpt lat="44.44058" lon="1.46781">
        <ele>272.6</ele>
        <time>2021-08-16T09:44:53Z</time>
      </trkpt>
      <trkpt lat="44.44056" lon="1.46786">
        <ele>272.5</ele>
        <time>2021-08-16T09:44:55Z</time>
      </trkpt>
      <trkpt lat="44.4405" lon="1.46791">
        <ele>272.2</ele>
        <time>2021-08-16T09:44:56Z</time>
      </trkpt>
      <trkpt lat="44.44044" lon="1.468">
        <ele>271.9</ele>
        <time>2021-08-16T09:44:58Z</time>
      </trkpt>
      <trkpt lat="44.44038" lon="1.46805">
        <ele>271.7</ele>
        <time>2021-08-16T09:44:59Z</time>
      </trkpt>
      <trkpt lat="44.44034" lon="1.46809">
        <ele>271.5</ele>
        <time>2021-08-16T09:45:00Z</time>
      </trkpt>
      <trkpt lat="44.44031" lon="1.46813">
        <ele>271.4</ele>
        <time>2021-08-16T09:45:01Z</time>
      </trkpt>
      <trkpt lat="44.44029" lon="1.46812">
        <ele>271.3</ele>
        <time>2021-08-16T09:45:02Z</time>
      </trkpt>
      <trkpt lat="44.44022" lon="1.46823">
        <ele>271.1</ele>
        <time>2021-08-16T09:45:04Z</time>
      </trkpt>
      <trkpt lat="44.44018" lon="1.4683">
        <ele>271</ele>
        <time>2021-08-16T09:45:05Z</time>
      </trkpt>
      <trkpt lat="44.44014" lon="1.46836">
        <ele>270.9</ele>
        <time>2021-08-16T09:45:07Z</time>
      </trkpt>
      <trkpt lat="44.4401" lon="1.46841">
        <ele>270.8</ele>
        <time>2021-08-16T09:45:08Z</time>
      </trkpt>
      <trkpt lat="44.44006" lon="1.46845">
        <ele>270.8</ele>
        <time>2021-08-16T09:45:09Z</time>
      </trkpt>
      <trkpt lat="44.44001" lon="1.46852">
        <ele>270.7</ele>
        <time>2021-08-16T09:45:11Z</time>
      </trkpt>
      <trkpt lat="44.43997" lon="1.46855">
        <ele>270.7</ele>
        <time>2021-08-16T09:45:12Z</time>
      </trkpt>
      <trkpt lat="44.43992" lon="1.46858">
        <ele>270.7</ele>
        <time>2021-08-16T09:45:13Z</time>
      </trkpt>
      <trkpt lat="44.43988" lon="1.46859">
        <ele>270.7</ele>
        <time>2021-08-16T09:45:14Z</time>
      </trkpt>
      <trkpt lat="44.43983" lon="1.4686">
        <ele>270.6</ele>
        <time>2021-08-16T09:45:15Z</time>
      </trkpt>
      <trkpt lat="44.43978" lon="1.46861">
        <ele>270.6</ele>
        <time>2021-08-16T09:45:17Z</time>
      </trkpt>
      <trkpt lat="44.43975" lon="1.46862">
        <ele>270.6</ele>
        <time>2021-08-16T09:45:18Z</time>
      </trkpt>
      <trkpt lat="44.43969" lon="1.46864">
        <ele>270.6</ele>
        <time>2021-08-16T09:45:19Z</time>
      </trkpt>
      <trkpt lat="44.43963" lon="1.46866">
        <ele>270.7</ele>
        <time>2021-08-16T09:45:21Z</time>
      </trkpt>
      <trkpt lat="44.43958" lon="1.46866">
        <ele>270.9</ele>
        <time>2021-08-16T09:45:22Z</time>
      </trkpt>
      <trkpt lat="44.43954" lon="1.46866">
        <ele>271</ele>
        <time>2021-08-16T09:45:23Z</time>
      </trkpt>
      <trkpt lat="44.43947" lon="1.46866">
        <ele>271.3</ele>
        <time>2021-08-16T09:45:25Z</time>
      </trkpt>
      <trkpt lat="44.43942" lon="1.46866">
        <ele>271.5</ele>
        <time>2021-08-16T09:45:26Z</time>
      </trkpt>
      <trkpt lat="44.43936" lon="1.46866">
        <ele>271.9</ele>
        <time>2021-08-16T09:45:28Z</time>
      </trkpt>
      <trkpt lat="44.43932" lon="1.46866">
        <ele>272.1</ele>
        <time>2021-08-16T09:45:29Z</time>
      </trkpt>
      <trkpt lat="44.43928" lon="1.46867">
        <ele>272.4</ele>
        <time>2021-08-16T09:45:31Z</time>
      </trkpt>
      <trkpt lat="44.43924" lon="1.46868">
        <ele>272.6</ele>
        <time>2021-08-16T09:45:32Z</time>
      </trkpt>
      <trkpt lat="44.43921" lon="1.46869">
        <ele>272.9</ele>
        <time>2021-08-16T09:45:33Z</time>
      </trkpt>
      <trkpt lat="44.43919" lon="1.46869">
        <ele>273</ele>
        <time>2021-08-16T09:45:34Z</time>
      </trkpt>
      <trkpt lat="44.43916" lon="1.46869">
        <ele>273.2</ele>
        <time>2021-08-16T09:45:35Z</time>
      </trkpt>
      <trkpt lat="44.43915" lon="1.46869">
        <ele>273.2</ele>
        <time>2021-08-16T09:45:36Z</time>
      </trkpt>
      <trkpt lat="44.43912" lon="1.46868">
        <ele>273.4</ele>
        <time>2021-08-16T09:45:37Z</time>
      </trkpt>
      <trkpt lat="44.4391" lon="1.46867">
        <ele>273.5</ele>
        <time>2021-08-16T09:45:38Z</time>
      </trkpt>
      <trkpt lat="44.43907" lon="1.46867">
        <ele>273.6</ele>
        <time>2021-08-16T09:45:39Z</time>
      </trkpt>
      <trkpt lat="44.43904" lon="1.46867">
        <ele>273.8</ele>
        <time>2021-08-16T09:45:41Z</time>
      </trkpt>
      <trkpt lat="44.43901" lon="1.46866">
        <ele>273.9</ele>
        <time>2021-08-16T09:45:42Z</time>
      </trkpt>
      <trkpt lat="44.43898" lon="1.46865">
        <ele>273.9</ele>
        <time>2021-08-16T09:45:43Z</time>
      </trkpt>
      <trkpt lat="44.43895" lon="1.46863">
        <ele>274</ele>
        <time>2021-08-16T09:45:45Z</time>
      </trkpt>
      <trkpt lat="44.43892" lon="1.46862">
        <ele>274.1</ele>
        <time>2021-08-16T09:45:46Z</time>
      </trkpt>
      <trkpt lat="44.43889" lon="1.4686">
        <ele>274.2</ele>
        <time>2021-08-16T09:45:47Z</time>
      </trkpt>
      <trkpt lat="44.43886" lon="1.46859">
        <ele>274.3</ele>
        <time>2021-08-16T09:45:49Z</time>
      </trkpt>
      <trkpt lat="44.43883" lon="1.46858">
        <ele>274.3</ele>
        <time>2021-08-16T09:45:50Z</time>
      </trkpt>
      <trkpt lat="44.43879" lon="1.46857">
        <ele>274.4</ele>
        <time>2021-08-16T09:45:51Z</time>
      </trkpt>
      <trkpt lat="44.43877" lon="1.46856">
        <ele>274.4</ele>
        <time>2021-08-16T09:45:52Z</time>
      </trkpt>
      <trkpt lat="44.43873" lon="1.46856">
        <ele>274.4</ele>
        <time>2021-08-16T09:45:53Z</time>
      </trkpt>
      <trkpt lat="44.43872" lon="1.46855">
        <ele>274.5</ele>
        <time>2021-08-16T09:45:54Z</time>
      </trkpt>
      <trkpt lat="44.43869" lon="1.46855">
        <ele>274.5</ele>
        <time>2021-08-16T09:45:55Z</time>
      </trkpt>
      <trkpt lat="44.43865" lon="1.46854">
        <ele>274.5</ele>
        <time>2021-08-16T09:45:57Z</time>
      </trkpt>
      <trkpt lat="44.43862" lon="1.46853">
        <ele>274.5</ele>
        <time>2021-08-16T09:45:58Z</time>
      </trkpt>
      <trkpt lat="44.43859" lon="1.46852">
        <ele>274.5</ele>
        <time>2021-08-16T09:45:59Z</time>
      </trkpt>
      <trkpt lat="44.43855" lon="1.46851">
        <ele>274.5</ele>
        <time>2021-08-16T09:46:01Z</time>
      </trkpt>
      <trkpt lat="44.43851" lon="1.46848">
        <ele>274.5</ele>
        <time>2021-08-16T09:46:03Z</time>
      </trkpt>
      <trkpt lat="44.43849" lon="1.46848">
        <ele>274.4</ele>
        <time>2021-08-16T09:46:04Z</time>
      </trkpt>
      <trkpt lat="44.43846" lon="1.46846">
        <ele>274.3</ele>
        <time>2021-08-16T09:46:06Z</time>
      </trkpt>
      <trkpt lat="44.43843" lon="1.46848">
        <ele>274.2</ele>
        <time>2021-08-16T09:46:07Z</time>
      </trkpt>
      <trkpt lat="44.43839" lon="1.46851">
        <ele>274</ele>
        <time>2021-08-16T09:46:09Z</time>
      </trkpt>
      <trkpt lat="44.43836" lon="1.46852">
        <ele>273.9</ele>
        <time>2021-08-16T09:46:10Z</time>
      </trkpt>
      <trkpt lat="44.43832" lon="1.46853">
        <ele>273.8</ele>
        <time>2021-08-16T09:46:11Z</time>
      </trkpt>
      <trkpt lat="44.43827" lon="1.46855">
        <ele>273.6</ele>
        <time>2021-08-16T09:46:13Z</time>
      </trkpt>
      <trkpt lat="44.43824" lon="1.46857">
        <ele>273.4</ele>
        <time>2021-08-16T09:46:14Z</time>
      </trkpt>
      <trkpt lat="44.43821" lon="1.4686">
        <ele>273.3</ele>
        <time>2021-08-16T09:46:15Z</time>
      </trkpt>
      <trkpt lat="44.43817" lon="1.46864">
        <ele>273.1</ele>
        <time>2021-08-16T09:46:16Z</time>
      </trkpt>
      <trkpt lat="44.43812" lon="1.46866">
        <ele>272.9</ele>
        <time>2021-08-16T09:46:18Z</time>
      </trkpt>
      <trkpt lat="44.43807" lon="1.46868">
        <ele>272.7</ele>
        <time>2021-08-16T09:46:19Z</time>
      </trkpt>
      <trkpt lat="44.43803" lon="1.46869">
        <ele>272.6</ele>
        <time>2021-08-16T09:46:20Z</time>
      </trkpt>
      <trkpt lat="44.43796" lon="1.46871">
        <ele>272.5</ele>
        <time>2021-08-16T09:46:22Z</time>
      </trkpt>
      <trkpt lat="44.43792" lon="1.46874">
        <ele>272.5</ele>
        <time>2021-08-16T09:46:23Z</time>
      </trkpt>
      <trkpt lat="44.43788" lon="1.46875">
        <ele>272.4</ele>
        <time>2021-08-16T09:46:24Z</time>
      </trkpt>
      <trkpt lat="44.43783" lon="1.46877">
        <ele>272.4</ele>
        <time>2021-08-16T09:46:25Z</time>
      </trkpt>
      <trkpt lat="44.43779" lon="1.4688">
        <ele>272.4</ele>
        <time>2021-08-16T09:46:26Z</time>
      </trkpt>
      <trkpt lat="44.43771" lon="1.46886">
        <ele>272.5</ele>
        <time>2021-08-16T09:46:28Z</time>
      </trkpt>
      <trkpt lat="44.43765" lon="1.46891">
        <ele>272.5</ele>
        <time>2021-08-16T09:46:30Z</time>
      </trkpt>
      <trkpt lat="44.4376" lon="1.46896">
        <ele>272.6</ele>
        <time>2021-08-16T09:46:31Z</time>
      </trkpt>
      <trkpt lat="44.43755" lon="1.469">
        <ele>272.7</ele>
        <time>2021-08-16T09:46:32Z</time>
      </trkpt>
      <trkpt lat="44.43751" lon="1.46903">
        <ele>272.9</ele>
        <time>2021-08-16T09:46:33Z</time>
      </trkpt>
      <trkpt lat="44.43745" lon="1.46908">
        <ele>273.2</ele>
        <time>2021-08-16T09:46:35Z</time>
      </trkpt>
      <trkpt lat="44.43741" lon="1.46911">
        <ele>273.4</ele>
        <time>2021-08-16T09:46:36Z</time>
      </trkpt>
      <trkpt lat="44.43737" lon="1.46915">
        <ele>273.7</ele>
        <time>2021-08-16T09:46:38Z</time>
      </trkpt>
      <trkpt lat="44.43734" lon="1.46918">
        <ele>274</ele>
        <time>2021-08-16T09:46:39Z</time>
      </trkpt>
      <trkpt lat="44.43729" lon="1.46921">
        <ele>274.4</ele>
        <time>2021-08-16T09:46:41Z</time>
      </trkpt>
      <trkpt lat="44.43728" lon="1.46921">
        <ele>274.5</ele>
        <time>2021-08-16T09:46:42Z</time>
      </trkpt>
      <trkpt lat="44.43727" lon="1.46922">
        <ele>274.6</ele>
        <time>2021-08-16T09:46:43Z</time>
      </trkpt>
      <trkpt lat="44.43725" lon="1.46924">
        <ele>274.7</ele>
        <time>2021-08-16T09:46:44Z</time>
      </trkpt>
      <trkpt lat="44.43723" lon="1.46927">
        <ele>275</ele>
        <time>2021-08-16T09:46:46Z</time>
      </trkpt>
      <trkpt lat="44.4372" lon="1.46929">
        <ele>275.3</ele>
        <time>2021-08-16T09:46:47Z</time>
      </trkpt>
      <trkpt lat="44.43719" lon="1.46929">
        <ele>275.4</ele>
        <time>2021-08-16T09:46:48Z</time>
      </trkpt>
      <trkpt lat="44.43716" lon="1.46932">
        <ele>275.7</ele>
        <time>2021-08-16T09:46:50Z</time>
      </trkpt>
      <trkpt lat="44.43714" lon="1.46934">
        <ele>276</ele>
        <time>2021-08-16T09:46:51Z</time>
      </trkpt>
      <trkpt lat="44.43711" lon="1.46936">
        <ele>276.3</ele>
        <time>2021-08-16T09:46:53Z</time>
      </trkpt>
      <trkpt lat="44.4371" lon="1.46937">
        <ele>276.4</ele>
        <time>2021-08-16T09:46:54Z</time>
      </trkpt>
      <trkpt lat="44.43708" lon="1.46938">
        <ele>276.6</ele>
        <time>2021-08-16T09:46:55Z</time>
      </trkpt>
      <trkpt lat="44.43706" lon="1.4694">
        <ele>276.8</ele>
        <time>2021-08-16T09:46:56Z</time>
      </trkpt>
      <trkpt lat="44.43706" lon="1.4694">
        <ele>276.9</ele>
        <time>2021-08-16T09:46:58Z</time>
      </trkpt>
      <trkpt lat="44.43705" lon="1.46941">
        <ele>277</ele>
        <time>2021-08-16T09:46:59Z</time>
      </trkpt>
      <trkpt lat="44.43704" lon="1.46942">
        <ele>277.1</ele>
        <time>2021-08-16T09:47:01Z</time>
      </trkpt>
      <trkpt lat="44.43703" lon="1.46943">
        <ele>277.2</ele>
        <time>2021-08-16T09:47:02Z</time>
      </trkpt>
      <trkpt lat="44.43703" lon="1.46944">
        <ele>277.4</ele>
        <time>2021-08-16T09:47:03Z</time>
      </trkpt>
      <trkpt lat="44.43702" lon="1.46944">
        <ele>277.5</ele>
        <time>2021-08-16T09:47:05Z</time>
      </trkpt>
      <trkpt lat="44.43701" lon="1.46945">
        <ele>277.6</ele>
        <time>2021-08-16T09:47:06Z</time>
      </trkpt>
      <trkpt lat="44.437" lon="1.46946">
        <ele>277.7</ele>
        <time>2021-08-16T09:50:39Z</time>
      </trkpt>
      <trkpt lat="44.43699" lon="1.46947">
        <ele>277.8</ele>
        <time>2021-08-16T09:50:40Z</time>
      </trkpt>
      <trkpt lat="44.43697" lon="1.46951">
        <ele>278.1</ele>
        <time>2021-08-16T09:50:41Z</time>
      </trkpt>
      <trkpt lat="44.43695" lon="1.46955">
        <ele>278.6</ele>
        <time>2021-08-16T09:50:43Z</time>
      </trkpt>
      <trkpt lat="44.43692" lon="1.46959">
        <ele>279</ele>
        <time>2021-08-16T09:50:44Z</time>
      </trkpt>
      <trkpt lat="44.43688" lon="1.46965">
        <ele>279.5</ele>
        <time>2021-08-16T09:50:46Z</time>
      </trkpt>
      <trkpt lat="44.43684" lon="1.46971">
        <ele>280</ele>
        <time>2021-08-16T09:50:48Z</time>
      </trkpt>
      <trkpt lat="44.4368" lon="1.46975">
        <ele>280.3</ele>
        <time>2021-08-16T09:50:50Z</time>
      </trkpt>
      <trkpt lat="44.43677" lon="1.4698">
        <ele>280.6</ele>
        <time>2021-08-16T09:50:51Z</time>
      </trkpt>
      <trkpt lat="44.43673" lon="1.46985">
        <ele>280.9</ele>
        <time>2021-08-16T09:50:53Z</time>
      </trkpt>
      <trkpt lat="44.4367" lon="1.4699">
        <ele>281.2</ele>
        <time>2021-08-16T09:50:54Z</time>
      </trkpt>
      <trkpt lat="44.43668" lon="1.46993">
        <ele>281.3</ele>
        <time>2021-08-16T09:50:56Z</time>
      </trkpt>
      <trkpt lat="44.43666" lon="1.46997">
        <ele>281.5</ele>
        <time>2021-08-16T09:50:57Z</time>
      </trkpt>
      <trkpt lat="44.43663" lon="1.47">
        <ele>281.7</ele>
        <time>2021-08-16T09:50:58Z</time>
      </trkpt>
      <trkpt lat="44.43662" lon="1.47003">
        <ele>281.8</ele>
        <time>2021-08-16T09:50:59Z</time>
      </trkpt>
      <trkpt lat="44.4366" lon="1.47006">
        <ele>281.9</ele>
        <time>2021-08-16T09:51:00Z</time>
      </trkpt>
      <trkpt lat="44.43658" lon="1.47011">
        <ele>282.1</ele>
        <time>2021-08-16T09:51:02Z</time>
      </trkpt>
      <trkpt lat="44.43656" lon="1.47015">
        <ele>282.1</ele>
        <time>2021-08-16T09:51:03Z</time>
      </trkpt>
      <trkpt lat="44.43653" lon="1.4702">
        <ele>282.2</ele>
        <time>2021-08-16T09:51:05Z</time>
      </trkpt>
      <trkpt lat="44.43651" lon="1.47024">
        <ele>282.2</ele>
        <time>2021-08-16T09:51:06Z</time>
      </trkpt>
      <trkpt lat="44.43649" lon="1.47029">
        <ele>282.2</ele>
        <time>2021-08-16T09:51:07Z</time>
      </trkpt>
      <trkpt lat="44.43648" lon="1.47033">
        <ele>282.2</ele>
        <time>2021-08-16T09:51:09Z</time>
      </trkpt>
      <trkpt lat="44.43647" lon="1.47037">
        <ele>282.2</ele>
        <time>2021-08-16T09:51:10Z</time>
      </trkpt>
      <trkpt lat="44.43644" lon="1.47042">
        <ele>282.2</ele>
        <time>2021-08-16T09:51:11Z</time>
      </trkpt>
      <trkpt lat="44.4364" lon="1.47048">
        <ele>282.2</ele>
        <time>2021-08-16T09:51:13Z</time>
      </trkpt>
      <trkpt lat="44.43639" lon="1.47051">
        <ele>282.1</ele>
        <time>2021-08-16T09:51:14Z</time>
      </trkpt>
      <trkpt lat="44.43635" lon="1.47055">
        <ele>282.1</ele>
        <time>2021-08-16T09:51:16Z</time>
      </trkpt>
      <trkpt lat="44.43631" lon="1.4706">
        <ele>282.1</ele>
        <time>2021-08-16T09:51:18Z</time>
      </trkpt>
      <trkpt lat="44.43629" lon="1.47065">
        <ele>282</ele>
        <time>2021-08-16T09:51:20Z</time>
      </trkpt>
      <trkpt lat="44.43626" lon="1.4707">
        <ele>281.9</ele>
        <time>2021-08-16T09:51:22Z</time>
      </trkpt>
      <trkpt lat="44.43623" lon="1.47073">
        <ele>281.9</ele>
        <time>2021-08-16T09:51:23Z</time>
      </trkpt>
      <trkpt lat="44.43622" lon="1.47074">
        <ele>281.8</ele>
        <time>2021-08-16T09:51:24Z</time>
      </trkpt>
      <trkpt lat="44.43618" lon="1.47081">
        <ele>281.7</ele>
        <time>2021-08-16T09:51:26Z</time>
      </trkpt>
      <trkpt lat="44.43615" lon="1.47084">
        <ele>281.7</ele>
        <time>2021-08-16T09:51:27Z</time>
      </trkpt>
      <trkpt lat="44.4361" lon="1.47092">
        <ele>281.6</ele>
        <time>2021-08-16T09:51:29Z</time>
      </trkpt>
      <trkpt lat="44.43607" lon="1.47097">
        <ele>281.5</ele>
        <time>2021-08-16T09:51:30Z</time>
      </trkpt>
      <trkpt lat="44.43602" lon="1.47108">
        <ele>281.4</ele>
        <time>2021-08-16T09:51:32Z</time>
      </trkpt>
      <trkpt lat="44.43597" lon="1.47116">
        <ele>281.3</ele>
        <time>2021-08-16T09:51:34Z</time>
      </trkpt>
      <trkpt lat="44.43592" lon="1.47121">
        <ele>281.3</ele>
        <time>2021-08-16T09:51:36Z</time>
      </trkpt>
      <trkpt lat="44.43589" lon="1.47123">
        <ele>281.3</ele>
        <time>2021-08-16T09:51:37Z</time>
      </trkpt>
      <trkpt lat="44.43585" lon="1.47128">
        <ele>281.2</ele>
        <time>2021-08-16T09:51:39Z</time>
      </trkpt>
      <trkpt lat="44.4358" lon="1.47131">
        <ele>281.1</ele>
        <time>2021-08-16T09:51:41Z</time>
      </trkpt>
      <trkpt lat="44.43577" lon="1.47133">
        <ele>281.1</ele>
        <time>2021-08-16T09:51:42Z</time>
      </trkpt>
      <trkpt lat="44.43572" lon="1.47135">
        <ele>281.1</ele>
        <time>2021-08-16T09:51:44Z</time>
      </trkpt>
      <trkpt lat="44.43568" lon="1.47136">
        <ele>281</ele>
        <time>2021-08-16T09:51:45Z</time>
      </trkpt>
      <trkpt lat="44.43561" lon="1.47138">
        <ele>281</ele>
        <time>2021-08-16T09:51:47Z</time>
      </trkpt>
      <trkpt lat="44.43553" lon="1.4714">
        <ele>280.9</ele>
        <time>2021-08-16T09:51:49Z</time>
      </trkpt>
      <trkpt lat="44.43549" lon="1.47142">
        <ele>280.9</ele>
        <time>2021-08-16T09:51:50Z</time>
      </trkpt>
      <trkpt lat="44.43542" lon="1.47144">
        <ele>280.9</ele>
        <time>2021-08-16T09:51:52Z</time>
      </trkpt>
      <trkpt lat="44.43534" lon="1.47147">
        <ele>280.9</ele>
        <time>2021-08-16T09:51:54Z</time>
      </trkpt>
      <trkpt lat="44.43531" lon="1.47148">
        <ele>280.9</ele>
        <time>2021-08-16T09:51:55Z</time>
      </trkpt>
      <trkpt lat="44.43527" lon="1.47149">
        <ele>280.9</ele>
        <time>2021-08-16T09:51:56Z</time>
      </trkpt>
      <trkpt lat="44.43524" lon="1.47151">
        <ele>280.9</ele>
        <time>2021-08-16T09:51:57Z</time>
      </trkpt>
      <trkpt lat="44.43521" lon="1.47152">
        <ele>280.9</ele>
        <time>2021-08-16T09:51:58Z</time>
      </trkpt>
      <trkpt lat="44.43515" lon="1.47155">
        <ele>280.9</ele>
        <time>2021-08-16T09:52:00Z</time>
      </trkpt>
      <trkpt lat="44.43511" lon="1.47157">
        <ele>280.9</ele>
        <time>2021-08-16T09:52:01Z</time>
      </trkpt>
      <trkpt lat="44.43508" lon="1.47158">
        <ele>280.9</ele>
        <time>2021-08-16T09:52:02Z</time>
      </trkpt>
      <trkpt lat="44.43502" lon="1.47162">
        <ele>280.8</ele>
        <time>2021-08-16T09:52:04Z</time>
      </trkpt>
      <trkpt lat="44.43498" lon="1.47163">
        <ele>280.7</ele>
        <time>2021-08-16T09:52:05Z</time>
      </trkpt>
      <trkpt lat="44.43495" lon="1.47165">
        <ele>280.7</ele>
        <time>2021-08-16T09:52:06Z</time>
      </trkpt>
      <trkpt lat="44.43492" lon="1.47166">
        <ele>280.6</ele>
        <time>2021-08-16T09:52:07Z</time>
      </trkpt>
      <trkpt lat="44.43488" lon="1.47168">
        <ele>280.5</ele>
        <time>2021-08-16T09:52:08Z</time>
      </trkpt>
      <trkpt lat="44.43482" lon="1.47172">
        <ele>280.4</ele>
        <time>2021-08-16T09:52:10Z</time>
      </trkpt>
      <trkpt lat="44.43478" lon="1.47174">
        <ele>280.3</ele>
        <time>2021-08-16T09:52:11Z</time>
      </trkpt>
      <trkpt lat="44.43475" lon="1.47176">
        <ele>280.2</ele>
        <time>2021-08-16T09:52:12Z</time>
      </trkpt>
      <trkpt lat="44.43472" lon="1.47178">
        <ele>280.1</ele>
        <time>2021-08-16T09:52:13Z</time>
      </trkpt>
      <trkpt lat="44.43469" lon="1.47179">
        <ele>280</ele>
        <time>2021-08-16T09:52:14Z</time>
      </trkpt>
      <trkpt lat="44.43461" lon="1.47183">
        <ele>279.8</ele>
        <time>2021-08-16T09:52:16Z</time>
      </trkpt>
      <trkpt lat="44.43454" lon="1.47187">
        <ele>279.6</ele>
        <time>2021-08-16T09:52:18Z</time>
      </trkpt>
      <trkpt lat="44.43446" lon="1.47193">
        <ele>279.4</ele>
        <time>2021-08-16T09:52:20Z</time>
      </trkpt>
      <trkpt lat="44.43441" lon="1.47197">
        <ele>279.2</ele>
        <time>2021-08-16T09:52:22Z</time>
      </trkpt>
      <trkpt lat="44.43437" lon="1.47199">
        <ele>279.1</ele>
        <time>2021-08-16T09:52:23Z</time>
      </trkpt>
      <trkpt lat="44.4343" lon="1.47205">
        <ele>278.8</ele>
        <time>2021-08-16T09:52:25Z</time>
      </trkpt>
      <trkpt lat="44.43428" lon="1.47208">
        <ele>278.7</ele>
        <time>2021-08-16T09:52:26Z</time>
      </trkpt>
      <trkpt lat="44.43422" lon="1.47214">
        <ele>278.5</ele>
        <time>2021-08-16T09:52:28Z</time>
      </trkpt>
      <trkpt lat="44.43416" lon="1.47221">
        <ele>278.3</ele>
        <time>2021-08-16T09:52:30Z</time>
      </trkpt>
      <trkpt lat="44.43412" lon="1.47227">
        <ele>278.1</ele>
        <time>2021-08-16T09:52:32Z</time>
      </trkpt>
      <trkpt lat="44.43407" lon="1.47233">
        <ele>277.8</ele>
        <time>2021-08-16T09:52:34Z</time>
      </trkpt>
      <trkpt lat="44.43403" lon="1.47237">
        <ele>277.7</ele>
        <time>2021-08-16T09:52:35Z</time>
      </trkpt>
      <trkpt lat="44.434" lon="1.4724">
        <ele>277.6</ele>
        <time>2021-08-16T09:52:36Z</time>
      </trkpt>
      <trkpt lat="44.43397" lon="1.47243">
        <ele>277.4</ele>
        <time>2021-08-16T09:52:37Z</time>
      </trkpt>
      <trkpt lat="44.43394" lon="1.47246">
        <ele>277.3</ele>
        <time>2021-08-16T09:52:38Z</time>
      </trkpt>
      <trkpt lat="44.43389" lon="1.47253">
        <ele>277</ele>
        <time>2021-08-16T09:52:40Z</time>
      </trkpt>
      <trkpt lat="44.43385" lon="1.47256">
        <ele>276.8</ele>
        <time>2021-08-16T09:52:41Z</time>
      </trkpt>
      <trkpt lat="44.43379" lon="1.47263">
        <ele>276.5</ele>
        <time>2021-08-16T09:52:43Z</time>
      </trkpt>
      <trkpt lat="44.43375" lon="1.47267">
        <ele>276.3</ele>
        <time>2021-08-16T09:52:44Z</time>
      </trkpt>
      <trkpt lat="44.43367" lon="1.47274">
        <ele>276</ele>
        <time>2021-08-16T09:52:46Z</time>
      </trkpt>
      <trkpt lat="44.4336" lon="1.47281">
        <ele>275.8</ele>
        <time>2021-08-16T09:52:48Z</time>
      </trkpt>
      <trkpt lat="44.43353" lon="1.47288">
        <ele>275.6</ele>
        <time>2021-08-16T09:52:50Z</time>
      </trkpt>
      <trkpt lat="44.43346" lon="1.47294">
        <ele>275.4</ele>
        <time>2021-08-16T09:52:52Z</time>
      </trkpt>
      <trkpt lat="44.43343" lon="1.47298">
        <ele>275.3</ele>
        <time>2021-08-16T09:52:53Z</time>
      </trkpt>
      <trkpt lat="44.4334" lon="1.47301">
        <ele>275.3</ele>
        <time>2021-08-16T09:52:54Z</time>
      </trkpt>
      <trkpt lat="44.43334" lon="1.47307">
        <ele>275.1</ele>
        <time>2021-08-16T09:52:56Z</time>
      </trkpt>
      <trkpt lat="44.43328" lon="1.47313">
        <ele>274.9</ele>
        <time>2021-08-16T09:52:58Z</time>
      </trkpt>
      <trkpt lat="44.43325" lon="1.47316">
        <ele>274.8</ele>
        <time>2021-08-16T09:52:59Z</time>
      </trkpt>
      <trkpt lat="44.43322" lon="1.47319">
        <ele>274.7</ele>
        <time>2021-08-16T09:53:00Z</time>
      </trkpt>
      <trkpt lat="44.43319" lon="1.47322">
        <ele>274.6</ele>
        <time>2021-08-16T09:53:01Z</time>
      </trkpt>
      <trkpt lat="44.43316" lon="1.47325">
        <ele>274.5</ele>
        <time>2021-08-16T09:53:02Z</time>
      </trkpt>
      <trkpt lat="44.4331" lon="1.47328">
        <ele>274.4</ele>
        <time>2021-08-16T09:53:04Z</time>
      </trkpt>
      <trkpt lat="44.43306" lon="1.47329">
        <ele>274.3</ele>
        <time>2021-08-16T09:53:05Z</time>
      </trkpt>
      <trkpt lat="44.433" lon="1.47329">
        <ele>274.2</ele>
        <time>2021-08-16T09:53:07Z</time>
      </trkpt>
      <trkpt lat="44.43297" lon="1.47329">
        <ele>274.2</ele>
        <time>2021-08-16T09:53:08Z</time>
      </trkpt>
      <trkpt lat="44.43291" lon="1.47332">
        <ele>274.2</ele>
        <time>2021-08-16T09:53:10Z</time>
      </trkpt>
      <trkpt lat="44.43284" lon="1.47338">
        <ele>274.2</ele>
        <time>2021-08-16T09:53:12Z</time>
      </trkpt>
      <trkpt lat="44.43278" lon="1.47345">
        <ele>274.2</ele>
        <time>2021-08-16T09:53:14Z</time>
      </trkpt>
      <trkpt lat="44.43273" lon="1.4735">
        <ele>274.2</ele>
        <time>2021-08-16T09:53:16Z</time>
      </trkpt>
      <trkpt lat="44.4327" lon="1.47352">
        <ele>274.1</ele>
        <time>2021-08-16T09:53:17Z</time>
      </trkpt>
      <trkpt lat="44.43267" lon="1.47356">
        <ele>274.1</ele>
        <time>2021-08-16T09:53:18Z</time>
      </trkpt>
      <trkpt lat="44.43261" lon="1.47362">
        <ele>274</ele>
        <time>2021-08-16T09:53:20Z</time>
      </trkpt>
      <trkpt lat="44.43255" lon="1.4737">
        <ele>274</ele>
        <time>2021-08-16T09:53:22Z</time>
      </trkpt>
      <trkpt lat="44.43248" lon="1.47376">
        <ele>273.9</ele>
        <time>2021-08-16T09:53:24Z</time>
      </trkpt>
      <trkpt lat="44.43242" lon="1.47382">
        <ele>273.8</ele>
        <time>2021-08-16T09:53:26Z</time>
      </trkpt>
      <trkpt lat="44.43236" lon="1.47389">
        <ele>273.7</ele>
        <time>2021-08-16T09:53:28Z</time>
      </trkpt>
      <trkpt lat="44.4323" lon="1.47396">
        <ele>273.5</ele>
        <time>2021-08-16T09:53:30Z</time>
      </trkpt>
      <trkpt lat="44.43227" lon="1.474">
        <ele>273.4</ele>
        <time>2021-08-16T09:53:31Z</time>
      </trkpt>
      <trkpt lat="44.43225" lon="1.47403">
        <ele>273.3</ele>
        <time>2021-08-16T09:53:32Z</time>
      </trkpt>
      <trkpt lat="44.43221" lon="1.47412">
        <ele>273.2</ele>
        <time>2021-08-16T09:53:34Z</time>
      </trkpt>
      <trkpt lat="44.43217" lon="1.47421">
        <ele>273</ele>
        <time>2021-08-16T09:53:36Z</time>
      </trkpt>
      <trkpt lat="44.43213" lon="1.4743">
        <ele>272.8</ele>
        <time>2021-08-16T09:53:38Z</time>
      </trkpt>
      <trkpt lat="44.43209" lon="1.47439">
        <ele>272.6</ele>
        <time>2021-08-16T09:53:40Z</time>
      </trkpt>
      <trkpt lat="44.43207" lon="1.47445">
        <ele>272.5</ele>
        <time>2021-08-16T09:53:41Z</time>
      </trkpt>
      <trkpt lat="44.43205" lon="1.4745">
        <ele>272.4</ele>
        <time>2021-08-16T09:53:42Z</time>
      </trkpt>
      <trkpt lat="44.432" lon="1.47461">
        <ele>272.3</ele>
        <time>2021-08-16T09:53:44Z</time>
      </trkpt>
      <trkpt lat="44.43195" lon="1.47473">
        <ele>272.3</ele>
        <time>2021-08-16T09:53:46Z</time>
      </trkpt>
      <trkpt lat="44.43191" lon="1.47481">
        <ele>272.2</ele>
        <time>2021-08-16T09:53:48Z</time>
      </trkpt>
      <trkpt lat="44.43188" lon="1.47485">
        <ele>272.2</ele>
        <time>2021-08-16T09:53:49Z</time>
      </trkpt>
      <trkpt lat="44.43186" lon="1.47488">
        <ele>272.3</ele>
        <time>2021-08-16T09:53:50Z</time>
      </trkpt>
      <trkpt lat="44.4318" lon="1.47494">
        <ele>272.4</ele>
        <time>2021-08-16T09:53:52Z</time>
      </trkpt>
      <trkpt lat="44.43177" lon="1.47497">
        <ele>272.5</ele>
        <time>2021-08-16T09:53:53Z</time>
      </trkpt>
      <trkpt lat="44.43172" lon="1.47503">
        <ele>272.7</ele>
        <time>2021-08-16T09:53:55Z</time>
      </trkpt>
      <trkpt lat="44.43167" lon="1.47507">
        <ele>273</ele>
        <time>2021-08-16T09:53:56Z</time>
      </trkpt>
      <trkpt lat="44.43161" lon="1.47511">
        <ele>273.3</ele>
        <time>2021-08-16T09:53:58Z</time>
      </trkpt>
      <trkpt lat="44.43154" lon="1.47516">
        <ele>273.7</ele>
        <time>2021-08-16T09:54:00Z</time>
      </trkpt>
      <trkpt lat="44.43151" lon="1.47518">
        <ele>273.9</ele>
        <time>2021-08-16T09:54:01Z</time>
      </trkpt>
      <trkpt lat="44.43148" lon="1.4752">
        <ele>274.1</ele>
        <time>2021-08-16T09:54:02Z</time>
      </trkpt>
      <trkpt lat="44.43143" lon="1.47523">
        <ele>274.3</ele>
        <time>2021-08-16T09:54:04Z</time>
      </trkpt>
      <trkpt lat="44.43138" lon="1.47528">
        <ele>274.6</ele>
        <time>2021-08-16T09:54:06Z</time>
      </trkpt>
      <trkpt lat="44.43135" lon="1.4753">
        <ele>274.7</ele>
        <time>2021-08-16T09:54:07Z</time>
      </trkpt>
      <trkpt lat="44.43133" lon="1.47532">
        <ele>274.9</ele>
        <time>2021-08-16T09:54:08Z</time>
      </trkpt>
      <trkpt lat="44.43128" lon="1.47536">
        <ele>275</ele>
        <time>2021-08-16T09:54:10Z</time>
      </trkpt>
      <trkpt lat="44.43122" lon="1.4754">
        <ele>275.2</ele>
        <time>2021-08-16T09:54:12Z</time>
      </trkpt>
      <trkpt lat="44.43119" lon="1.47542">
        <ele>275.3</ele>
        <time>2021-08-16T09:54:13Z</time>
      </trkpt>
      <trkpt lat="44.43116" lon="1.47544">
        <ele>275.3</ele>
        <time>2021-08-16T09:54:14Z</time>
      </trkpt>
      <trkpt lat="44.43113" lon="1.47546">
        <ele>275.4</ele>
        <time>2021-08-16T09:54:15Z</time>
      </trkpt>
      <trkpt lat="44.43108" lon="1.47552">
        <ele>275.4</ele>
        <time>2021-08-16T09:54:17Z</time>
      </trkpt>
      <trkpt lat="44.43101" lon="1.47556">
        <ele>275.5</ele>
        <time>2021-08-16T09:54:19Z</time>
      </trkpt>
      <trkpt lat="44.43098" lon="1.47559">
        <ele>275.5</ele>
        <time>2021-08-16T09:54:20Z</time>
      </trkpt>
      <trkpt lat="44.43094" lon="1.47561">
        <ele>275.5</ele>
        <time>2021-08-16T09:54:21Z</time>
      </trkpt>
      <trkpt lat="44.43088" lon="1.47565">
        <ele>275.6</ele>
        <time>2021-08-16T09:54:23Z</time>
      </trkpt>
      <trkpt lat="44.43081" lon="1.47569">
        <ele>275.7</ele>
        <time>2021-08-16T09:54:25Z</time>
      </trkpt>
      <trkpt lat="44.43077" lon="1.47571">
        <ele>275.7</ele>
        <time>2021-08-16T09:54:26Z</time>
      </trkpt>
      <trkpt lat="44.4307" lon="1.47573">
        <ele>275.9</ele>
        <time>2021-08-16T09:54:28Z</time>
      </trkpt>
      <trkpt lat="44.43067" lon="1.47573">
        <ele>275.9</ele>
        <time>2021-08-16T09:54:29Z</time>
      </trkpt>
      <trkpt lat="44.43061" lon="1.47575">
        <ele>276.1</ele>
        <time>2021-08-16T09:54:31Z</time>
      </trkpt>
      <trkpt lat="44.43058" lon="1.47576">
        <ele>276.1</ele>
        <time>2021-08-16T09:54:32Z</time>
      </trkpt>
      <trkpt lat="44.43052" lon="1.47577">
        <ele>276.2</ele>
        <time>2021-08-16T09:54:34Z</time>
      </trkpt>
      <trkpt lat="44.43049" lon="1.47578">
        <ele>276.2</ele>
        <time>2021-08-16T09:54:35Z</time>
      </trkpt>
      <trkpt lat="44.43046" lon="1.47579">
        <ele>276.2</ele>
        <time>2021-08-16T09:54:36Z</time>
      </trkpt>
      <trkpt lat="44.43043" lon="1.47581">
        <ele>276.2</ele>
        <time>2021-08-16T09:54:37Z</time>
      </trkpt>
      <trkpt lat="44.4304" lon="1.47583">
        <ele>276.2</ele>
        <time>2021-08-16T09:54:38Z</time>
      </trkpt>
      <trkpt lat="44.43035" lon="1.47587">
        <ele>276.3</ele>
        <time>2021-08-16T09:54:40Z</time>
      </trkpt>
      <trkpt lat="44.43031" lon="1.47589">
        <ele>276.3</ele>
        <time>2021-08-16T09:54:41Z</time>
      </trkpt>
      <trkpt lat="44.43029" lon="1.47591">
        <ele>276.3</ele>
        <time>2021-08-16T09:54:42Z</time>
      </trkpt>
      <trkpt lat="44.43022" lon="1.47594">
        <ele>276.3</ele>
        <time>2021-08-16T09:54:44Z</time>
      </trkpt>
      <trkpt lat="44.43018" lon="1.47596">
        <ele>276.3</ele>
        <time>2021-08-16T09:54:45Z</time>
      </trkpt>
      <trkpt lat="44.43012" lon="1.47598">
        <ele>276.4</ele>
        <time>2021-08-16T09:54:47Z</time>
      </trkpt>
      <trkpt lat="44.43009" lon="1.47599">
        <ele>276.5</ele>
        <time>2021-08-16T09:54:48Z</time>
      </trkpt>
      <trkpt lat="44.43005" lon="1.47599">
        <ele>276.6</ele>
        <time>2021-08-16T09:54:49Z</time>
      </trkpt>
      <trkpt lat="44.43002" lon="1.476">
        <ele>276.7</ele>
        <time>2021-08-16T09:54:50Z</time>
      </trkpt>
      <trkpt lat="44.42997" lon="1.47602">
        <ele>276.7</ele>
        <time>2021-08-16T09:54:52Z</time>
      </trkpt>
      <trkpt lat="44.42992" lon="1.47603">
        <ele>276.8</ele>
        <time>2021-08-16T09:54:54Z</time>
      </trkpt>
      <trkpt lat="44.42989" lon="1.47603">
        <ele>276.8</ele>
        <time>2021-08-16T09:54:55Z</time>
      </trkpt>
      <trkpt lat="44.42987" lon="1.47603">
        <ele>276.9</ele>
        <time>2021-08-16T09:54:56Z</time>
      </trkpt>
      <trkpt lat="44.42982" lon="1.47602">
        <ele>276.9</ele>
        <time>2021-08-16T09:54:58Z</time>
      </trkpt>
      <trkpt lat="44.42979" lon="1.47602">
        <ele>277</ele>
        <time>2021-08-16T09:54:59Z</time>
      </trkpt>
      <trkpt lat="44.42975" lon="1.476">
        <ele>277</ele>
        <time>2021-08-16T09:55:01Z</time>
      </trkpt>
      <trkpt lat="44.42971" lon="1.47598">
        <ele>277</ele>
        <time>2021-08-16T09:55:02Z</time>
      </trkpt>
      <trkpt lat="44.42966" lon="1.47595">
        <ele>277.1</ele>
        <time>2021-08-16T09:55:04Z</time>
      </trkpt>
      <trkpt lat="44.42963" lon="1.47593">
        <ele>277.1</ele>
        <time>2021-08-16T09:55:05Z</time>
      </trkpt>
      <trkpt lat="44.42957" lon="1.47588">
        <ele>277.2</ele>
        <time>2021-08-16T09:55:07Z</time>
      </trkpt>
      <trkpt lat="44.42954" lon="1.47585">
        <ele>277.2</ele>
        <time>2021-08-16T09:55:08Z</time>
      </trkpt>
      <trkpt lat="44.42949" lon="1.4758">
        <ele>277.3</ele>
        <time>2021-08-16T09:55:10Z</time>
      </trkpt>
      <trkpt lat="44.42944" lon="1.47575">
        <ele>277.4</ele>
        <time>2021-08-16T09:55:12Z</time>
      </trkpt>
      <trkpt lat="44.42941" lon="1.47573">
        <ele>277.4</ele>
        <time>2021-08-16T09:55:13Z</time>
      </trkpt>
      <trkpt lat="44.42938" lon="1.47571">
        <ele>277.4</ele>
        <time>2021-08-16T09:55:14Z</time>
      </trkpt>
      <trkpt lat="44.42933" lon="1.47566">
        <ele>277.5</ele>
        <time>2021-08-16T09:55:16Z</time>
      </trkpt>
      <trkpt lat="44.42928" lon="1.47562">
        <ele>277.5</ele>
        <time>2021-08-16T09:55:18Z</time>
      </trkpt>
      <trkpt lat="44.42925" lon="1.4756">
        <ele>277.6</ele>
        <time>2021-08-16T09:55:19Z</time>
      </trkpt>
      <trkpt lat="44.42923" lon="1.47559">
        <ele>277.6</ele>
        <time>2021-08-16T09:55:20Z</time>
      </trkpt>
      <trkpt lat="44.42917" lon="1.47556">
        <ele>277.6</ele>
        <time>2021-08-16T09:55:22Z</time>
      </trkpt>
      <trkpt lat="44.42912" lon="1.47553">
        <ele>277.7</ele>
        <time>2021-08-16T09:55:24Z</time>
      </trkpt>
      <trkpt lat="44.4291" lon="1.47551">
        <ele>277.7</ele>
        <time>2021-08-16T09:55:25Z</time>
      </trkpt>
      <trkpt lat="44.42906" lon="1.47548">
        <ele>277.7</ele>
        <time>2021-08-16T09:55:26Z</time>
      </trkpt>
      <trkpt lat="44.42902" lon="1.47546">
        <ele>277.8</ele>
        <time>2021-08-16T09:55:28Z</time>
      </trkpt>
      <trkpt lat="44.42896" lon="1.47544">
        <ele>277.8</ele>
        <time>2021-08-16T09:55:30Z</time>
      </trkpt>
      <trkpt lat="44.42893" lon="1.47543">
        <ele>277.8</ele>
        <time>2021-08-16T09:55:31Z</time>
      </trkpt>
      <trkpt lat="44.4289" lon="1.47542">
        <ele>277.9</ele>
        <time>2021-08-16T09:55:32Z</time>
      </trkpt>
      <trkpt lat="44.42884" lon="1.47541">
        <ele>277.9</ele>
        <time>2021-08-16T09:55:34Z</time>
      </trkpt>
      <trkpt lat="44.42882" lon="1.47541">
        <ele>278</ele>
        <time>2021-08-16T09:55:35Z</time>
      </trkpt>
      <trkpt lat="44.42876" lon="1.4754">
        <ele>278</ele>
        <time>2021-08-16T09:55:37Z</time>
      </trkpt>
      <trkpt lat="44.42873" lon="1.4754">
        <ele>278.1</ele>
        <time>2021-08-16T09:55:38Z</time>
      </trkpt>
      <trkpt lat="44.42868" lon="1.47538">
        <ele>278.1</ele>
        <time>2021-08-16T09:55:40Z</time>
      </trkpt>
      <trkpt lat="44.42865" lon="1.47538">
        <ele>278.1</ele>
        <time>2021-08-16T09:55:41Z</time>
      </trkpt>
      <trkpt lat="44.42859" lon="1.47538">
        <ele>278.2</ele>
        <time>2021-08-16T09:55:43Z</time>
      </trkpt>
      <trkpt lat="44.42856" lon="1.47538">
        <ele>278.2</ele>
        <time>2021-08-16T09:55:44Z</time>
      </trkpt>
      <trkpt lat="44.42849" lon="1.4754">
        <ele>278.2</ele>
        <time>2021-08-16T09:55:46Z</time>
      </trkpt>
      <trkpt lat="44.42843" lon="1.47541">
        <ele>278.3</ele>
        <time>2021-08-16T09:55:48Z</time>
      </trkpt>
      <trkpt lat="44.4284" lon="1.47541">
        <ele>278.3</ele>
        <time>2021-08-16T09:55:49Z</time>
      </trkpt>
      <trkpt lat="44.42837" lon="1.47541">
        <ele>278.3</ele>
        <time>2021-08-16T09:55:50Z</time>
      </trkpt>
      <trkpt lat="44.42831" lon="1.47543">
        <ele>278.3</ele>
        <time>2021-08-16T09:55:52Z</time>
      </trkpt>
      <trkpt lat="44.42828" lon="1.47544">
        <ele>278.3</ele>
        <time>2021-08-16T09:55:53Z</time>
      </trkpt>
      <trkpt lat="44.42825" lon="1.47544">
        <ele>278.3</ele>
        <time>2021-08-16T09:55:54Z</time>
      </trkpt>
      <trkpt lat="44.42822" lon="1.47545">
        <ele>278.4</ele>
        <time>2021-08-16T09:55:55Z</time>
      </trkpt>
      <trkpt lat="44.42819" lon="1.47546">
        <ele>278.4</ele>
        <time>2021-08-16T09:55:56Z</time>
      </trkpt>
      <trkpt lat="44.42813" lon="1.47547">
        <ele>278.4</ele>
        <time>2021-08-16T09:55:58Z</time>
      </trkpt>
      <trkpt lat="44.4281" lon="1.47547">
        <ele>278.4</ele>
        <time>2021-08-16T09:55:59Z</time>
      </trkpt>
      <trkpt lat="44.42804" lon="1.47549">
        <ele>278.4</ele>
        <time>2021-08-16T09:56:01Z</time>
      </trkpt>
      <trkpt lat="44.42801" lon="1.47549">
        <ele>278.4</ele>
        <time>2021-08-16T09:56:02Z</time>
      </trkpt>
      <trkpt lat="44.42795" lon="1.4755">
        <ele>278.4</ele>
        <time>2021-08-16T09:56:04Z</time>
      </trkpt>
      <trkpt lat="44.42792" lon="1.47551">
        <ele>278.3</ele>
        <time>2021-08-16T09:56:05Z</time>
      </trkpt>
      <trkpt lat="44.42789" lon="1.47552">
        <ele>278.3</ele>
        <time>2021-08-16T09:56:06Z</time>
      </trkpt>
      <trkpt lat="44.42782" lon="1.47553">
        <ele>278.3</ele>
        <time>2021-08-16T09:56:08Z</time>
      </trkpt>
      <trkpt lat="44.42776" lon="1.47554">
        <ele>278.3</ele>
        <time>2021-08-16T09:56:10Z</time>
      </trkpt>
      <trkpt lat="44.42774" lon="1.47554">
        <ele>278.3</ele>
        <time>2021-08-16T09:56:11Z</time>
      </trkpt>
      <trkpt lat="44.42771" lon="1.47554">
        <ele>278.3</ele>
        <time>2021-08-16T09:56:12Z</time>
      </trkpt>
      <trkpt lat="44.42768" lon="1.47555">
        <ele>278.3</ele>
        <time>2021-08-16T09:56:13Z</time>
      </trkpt>
      <trkpt lat="44.42765" lon="1.47555">
        <ele>278.2</ele>
        <time>2021-08-16T09:56:14Z</time>
      </trkpt>
      <trkpt lat="44.42759" lon="1.47556">
        <ele>278.2</ele>
        <time>2021-08-16T09:56:16Z</time>
      </trkpt>
      <trkpt lat="44.42756" lon="1.47557">
        <ele>278.2</ele>
        <time>2021-08-16T09:56:17Z</time>
      </trkpt>
      <trkpt lat="44.42749" lon="1.47557">
        <ele>278.2</ele>
        <time>2021-08-16T09:56:19Z</time>
      </trkpt>
      <trkpt lat="44.42746" lon="1.47557">
        <ele>278.1</ele>
        <time>2021-08-16T09:56:20Z</time>
      </trkpt>
      <trkpt lat="44.42743" lon="1.47557">
        <ele>278.1</ele>
        <time>2021-08-16T09:56:21Z</time>
      </trkpt>
      <trkpt lat="44.42738" lon="1.47559">
        <ele>278.1</ele>
        <time>2021-08-16T09:56:23Z</time>
      </trkpt>
      <trkpt lat="44.42732" lon="1.4756">
        <ele>278.1</ele>
        <time>2021-08-16T09:56:25Z</time>
      </trkpt>
      <trkpt lat="44.42729" lon="1.47561">
        <ele>278.1</ele>
        <time>2021-08-16T09:56:26Z</time>
      </trkpt>
      <trkpt lat="44.42723" lon="1.47563">
        <ele>278</ele>
        <time>2021-08-16T09:56:28Z</time>
      </trkpt>
      <trkpt lat="44.4272" lon="1.47564">
        <ele>278</ele>
        <time>2021-08-16T09:56:29Z</time>
      </trkpt>
      <trkpt lat="44.42714" lon="1.47567">
        <ele>278</ele>
        <time>2021-08-16T09:56:31Z</time>
      </trkpt>
      <trkpt lat="44.42711" lon="1.47569">
        <ele>278</ele>
        <time>2021-08-16T09:56:32Z</time>
      </trkpt>
      <trkpt lat="44.42705" lon="1.47573">
        <ele>278</ele>
        <time>2021-08-16T09:56:34Z</time>
      </trkpt>
      <trkpt lat="44.42702" lon="1.47575">
        <ele>277.9</ele>
        <time>2021-08-16T09:56:35Z</time>
      </trkpt>
      <trkpt lat="44.42699" lon="1.47577">
        <ele>277.9</ele>
        <time>2021-08-16T09:56:36Z</time>
      </trkpt>
      <trkpt lat="44.42693" lon="1.4758">
        <ele>277.9</ele>
        <time>2021-08-16T09:56:38Z</time>
      </trkpt>
      <trkpt lat="44.42688" lon="1.47584">
        <ele>277.8</ele>
        <time>2021-08-16T09:56:40Z</time>
      </trkpt>
      <trkpt lat="44.42685" lon="1.47586">
        <ele>277.8</ele>
        <time>2021-08-16T09:56:41Z</time>
      </trkpt>
      <trkpt lat="44.42679" lon="1.47591">
        <ele>277.8</ele>
        <time>2021-08-16T09:56:43Z</time>
      </trkpt>
      <trkpt lat="44.42676" lon="1.47593">
        <ele>277.8</ele>
        <time>2021-08-16T09:56:44Z</time>
      </trkpt>
      <trkpt lat="44.42671" lon="1.47597">
        <ele>277.8</ele>
        <time>2021-08-16T09:56:46Z</time>
      </trkpt>
      <trkpt lat="44.42665" lon="1.47602">
        <ele>277.8</ele>
        <time>2021-08-16T09:56:48Z</time>
      </trkpt>
      <trkpt lat="44.42662" lon="1.47604">
        <ele>277.8</ele>
        <time>2021-08-16T09:56:49Z</time>
      </trkpt>
      <trkpt lat="44.4266" lon="1.47607">
        <ele>277.8</ele>
        <time>2021-08-16T09:56:50Z</time>
      </trkpt>
      <trkpt lat="44.42658" lon="1.4761">
        <ele>277.8</ele>
        <time>2021-08-16T09:56:51Z</time>
      </trkpt>
      <trkpt lat="44.42653" lon="1.47616">
        <ele>277.8</ele>
        <time>2021-08-16T09:56:53Z</time>
      </trkpt>
      <trkpt lat="44.42649" lon="1.47622">
        <ele>277.7</ele>
        <time>2021-08-16T09:56:55Z</time>
      </trkpt>
      <trkpt lat="44.42647" lon="1.47626">
        <ele>277.7</ele>
        <time>2021-08-16T09:56:56Z</time>
      </trkpt>
      <trkpt lat="44.42643" lon="1.47634">
        <ele>277.7</ele>
        <time>2021-08-16T09:56:58Z</time>
      </trkpt>
      <trkpt lat="44.4264" lon="1.47643">
        <ele>277.7</ele>
        <time>2021-08-16T09:57:00Z</time>
      </trkpt>
      <trkpt lat="44.42637" lon="1.47651">
        <ele>277.7</ele>
        <time>2021-08-16T09:57:02Z</time>
      </trkpt>
      <trkpt lat="44.42634" lon="1.47658">
        <ele>277.7</ele>
        <time>2021-08-16T09:57:04Z</time>
      </trkpt>
      <trkpt lat="44.42633" lon="1.47661">
        <ele>277.7</ele>
        <time>2021-08-16T09:57:05Z</time>
      </trkpt>
      <trkpt lat="44.42631" lon="1.47665">
        <ele>277.8</ele>
        <time>2021-08-16T09:57:06Z</time>
      </trkpt>
      <trkpt lat="44.42629" lon="1.47669">
        <ele>277.8</ele>
        <time>2021-08-16T09:57:07Z</time>
      </trkpt>
      <trkpt lat="44.42628" lon="1.47673">
        <ele>277.8</ele>
        <time>2021-08-16T09:57:08Z</time>
      </trkpt>
      <trkpt lat="44.42625" lon="1.47681">
        <ele>277.9</ele>
        <time>2021-08-16T09:57:10Z</time>
      </trkpt>
      <trkpt lat="44.42623" lon="1.47684">
        <ele>277.9</ele>
        <time>2021-08-16T09:57:11Z</time>
      </trkpt>
      <trkpt lat="44.4262" lon="1.47691">
        <ele>278</ele>
        <time>2021-08-16T09:57:13Z</time>
      </trkpt>
      <trkpt lat="44.42619" lon="1.47694">
        <ele>278</ele>
        <time>2021-08-16T09:57:14Z</time>
      </trkpt>
      <trkpt lat="44.42616" lon="1.47701">
        <ele>278.1</ele>
        <time>2021-08-16T09:57:16Z</time>
      </trkpt>
      <trkpt lat="44.42613" lon="1.4771">
        <ele>278.2</ele>
        <time>2021-08-16T09:57:18Z</time>
      </trkpt>
      <trkpt lat="44.42611" lon="1.47714">
        <ele>278.3</ele>
        <time>2021-08-16T09:57:19Z</time>
      </trkpt>
      <trkpt lat="44.4261" lon="1.47719">
        <ele>278.4</ele>
        <time>2021-08-16T09:57:20Z</time>
      </trkpt>
      <trkpt lat="44.42608" lon="1.47728">
        <ele>278.5</ele>
        <time>2021-08-16T09:57:22Z</time>
      </trkpt>
      <trkpt lat="44.42607" lon="1.47733">
        <ele>278.5</ele>
        <time>2021-08-16T09:57:23Z</time>
      </trkpt>
      <trkpt lat="44.42605" lon="1.47742">
        <ele>278.6</ele>
        <time>2021-08-16T09:57:25Z</time>
      </trkpt>
      <trkpt lat="44.42605" lon="1.47746">
        <ele>278.6</ele>
        <time>2021-08-16T09:57:26Z</time>
      </trkpt>
      <trkpt lat="44.42603" lon="1.47754">
        <ele>278.7</ele>
        <time>2021-08-16T09:57:28Z</time>
      </trkpt>
      <trkpt lat="44.42601" lon="1.47758">
        <ele>278.7</ele>
        <time>2021-08-16T09:57:29Z</time>
      </trkpt>
      <trkpt lat="44.426" lon="1.47762">
        <ele>278.8</ele>
        <time>2021-08-16T09:57:30Z</time>
      </trkpt>
      <trkpt lat="44.42598" lon="1.47772">
        <ele>278.9</ele>
        <time>2021-08-16T09:57:32Z</time>
      </trkpt>
      <trkpt lat="44.42597" lon="1.4778">
        <ele>278.9</ele>
        <time>2021-08-16T09:57:34Z</time>
      </trkpt>
      <trkpt lat="44.42594" lon="1.47791">
        <ele>279</ele>
        <time>2021-08-16T09:57:36Z</time>
      </trkpt>
      <trkpt lat="44.42593" lon="1.47797">
        <ele>279.1</ele>
        <time>2021-08-16T09:57:38Z</time>
      </trkpt>
      <trkpt lat="44.4259" lon="1.47806">
        <ele>279.1</ele>
        <time>2021-08-16T09:57:40Z</time>
      </trkpt>
      <trkpt lat="44.42588" lon="1.47815">
        <ele>279.2</ele>
        <time>2021-08-16T09:57:42Z</time>
      </trkpt>
      <trkpt lat="44.42587" lon="1.47819">
        <ele>279.2</ele>
        <time>2021-08-16T09:57:43Z</time>
      </trkpt>
      <trkpt lat="44.42585" lon="1.47823">
        <ele>279.2</ele>
        <time>2021-08-16T09:57:44Z</time>
      </trkpt>
      <trkpt lat="44.42582" lon="1.47831">
        <ele>279.2</ele>
        <time>2021-08-16T09:57:46Z</time>
      </trkpt>
      <trkpt lat="44.42578" lon="1.47839">
        <ele>279.2</ele>
        <time>2021-08-16T09:57:48Z</time>
      </trkpt>
      <trkpt lat="44.42577" lon="1.47843">
        <ele>279.2</ele>
        <time>2021-08-16T09:57:49Z</time>
      </trkpt>
      <trkpt lat="44.42575" lon="1.47846">
        <ele>279.3</ele>
        <time>2021-08-16T09:57:50Z</time>
      </trkpt>
      <trkpt lat="44.42571" lon="1.47853">
        <ele>279.3</ele>
        <time>2021-08-16T09:57:52Z</time>
      </trkpt>
      <trkpt lat="44.42567" lon="1.4786">
        <ele>279.3</ele>
        <time>2021-08-16T09:57:54Z</time>
      </trkpt>
      <trkpt lat="44.42565" lon="1.47864">
        <ele>279.4</ele>
        <time>2021-08-16T09:57:55Z</time>
      </trkpt>
      <trkpt lat="44.42564" lon="1.47867">
        <ele>279.4</ele>
        <time>2021-08-16T09:57:56Z</time>
      </trkpt>
      <trkpt lat="44.4256" lon="1.47874">
        <ele>279.4</ele>
        <time>2021-08-16T09:57:58Z</time>
      </trkpt>
      <trkpt lat="44.42557" lon="1.4788">
        <ele>279.5</ele>
        <time>2021-08-16T09:58:00Z</time>
      </trkpt>
      <trkpt lat="44.42556" lon="1.47884">
        <ele>279.5</ele>
        <time>2021-08-16T09:58:01Z</time>
      </trkpt>
      <trkpt lat="44.42554" lon="1.47888">
        <ele>279.5</ele>
        <time>2021-08-16T09:58:02Z</time>
      </trkpt>
      <trkpt lat="44.42551" lon="1.47895">
        <ele>279.6</ele>
        <time>2021-08-16T09:58:04Z</time>
      </trkpt>
      <trkpt lat="44.42549" lon="1.47899">
        <ele>279.6</ele>
        <time>2021-08-16T09:58:05Z</time>
      </trkpt>
      <trkpt lat="44.42548" lon="1.47903">
        <ele>279.6</ele>
        <time>2021-08-16T09:58:06Z</time>
      </trkpt>
      <trkpt lat="44.42546" lon="1.47908">
        <ele>279.7</ele>
        <time>2021-08-16T09:58:07Z</time>
      </trkpt>
      <trkpt lat="44.42545" lon="1.47912">
        <ele>279.7</ele>
        <time>2021-08-16T09:58:08Z</time>
      </trkpt>
      <trkpt lat="44.42542" lon="1.4792">
        <ele>279.8</ele>
        <time>2021-08-16T09:58:10Z</time>
      </trkpt>
      <trkpt lat="44.42541" lon="1.47924">
        <ele>279.9</ele>
        <time>2021-08-16T09:58:11Z</time>
      </trkpt>
      <trkpt lat="44.42539" lon="1.4793">
        <ele>279.9</ele>
        <time>2021-08-16T09:58:12Z</time>
      </trkpt>
      <trkpt lat="44.42539" lon="1.47932">
        <ele>280</ele>
        <time>2021-08-16T09:58:13Z</time>
      </trkpt>
      <trkpt lat="44.42538" lon="1.47937">
        <ele>280</ele>
        <time>2021-08-16T09:58:14Z</time>
      </trkpt>
      <trkpt lat="44.42536" lon="1.47945">
        <ele>280.1</ele>
        <time>2021-08-16T09:58:16Z</time>
      </trkpt>
      <trkpt lat="44.42535" lon="1.47948">
        <ele>280.2</ele>
        <time>2021-08-16T09:58:17Z</time>
      </trkpt>
      <trkpt lat="44.42533" lon="1.47956">
        <ele>280.3</ele>
        <time>2021-08-16T09:58:19Z</time>
      </trkpt>
      <trkpt lat="44.42532" lon="1.4796">
        <ele>280.4</ele>
        <time>2021-08-16T09:58:20Z</time>
      </trkpt>
      <trkpt lat="44.42531" lon="1.47967">
        <ele>280.5</ele>
        <time>2021-08-16T09:58:22Z</time>
      </trkpt>
      <trkpt lat="44.42529" lon="1.47975">
        <ele>280.7</ele>
        <time>2021-08-16T09:58:24Z</time>
      </trkpt>
      <trkpt lat="44.42526" lon="1.47984">
        <ele>281</ele>
        <time>2021-08-16T09:58:26Z</time>
      </trkpt>
      <trkpt lat="44.42523" lon="1.47992">
        <ele>281.2</ele>
        <time>2021-08-16T09:58:28Z</time>
      </trkpt>
      <trkpt lat="44.4252" lon="1.47998">
        <ele>281.4</ele>
        <time>2021-08-16T09:58:30Z</time>
      </trkpt>
      <trkpt lat="44.42517" lon="1.48003">
        <ele>281.9</ele>
        <time>2021-08-16T09:58:31Z</time>
      </trkpt>
      <trkpt lat="44.42515" lon="1.48007">
        <ele>282</ele>
        <time>2021-08-16T09:58:32Z</time>
      </trkpt>
      <trkpt lat="44.42512" lon="1.48012">
        <ele>282.3</ele>
        <time>2021-08-16T09:58:34Z</time>
      </trkpt>
      <trkpt lat="44.42507" lon="1.48015">
        <ele>282.6</ele>
        <time>2021-08-16T09:58:36Z</time>
      </trkpt>
      <trkpt lat="44.42506" lon="1.4802">
        <ele>282.8</ele>
        <time>2021-08-16T09:58:37Z</time>
      </trkpt>
      <trkpt lat="44.42504" lon="1.48024">
        <ele>283</ele>
        <time>2021-08-16T09:58:38Z</time>
      </trkpt>
      <trkpt lat="44.425" lon="1.48028">
        <ele>283.3</ele>
        <time>2021-08-16T09:58:40Z</time>
      </trkpt>
      <trkpt lat="44.42499" lon="1.48029">
        <ele>283.4</ele>
        <time>2021-08-16T09:58:41Z</time>
      </trkpt>
      <trkpt lat="44.42498" lon="1.48031">
        <ele>283.5</ele>
        <time>2021-08-16T09:58:42Z</time>
      </trkpt>
      <trkpt lat="44.42494" lon="1.48034">
        <ele>283.7</ele>
        <time>2021-08-16T09:58:44Z</time>
      </trkpt>
      <trkpt lat="44.42493" lon="1.48036">
        <ele>283.8</ele>
        <time>2021-08-16T09:58:45Z</time>
      </trkpt>
      <trkpt lat="44.4249" lon="1.48038">
        <ele>283.9</ele>
        <time>2021-08-16T09:58:47Z</time>
      </trkpt>
      <trkpt lat="44.42488" lon="1.48041">
        <ele>284.1</ele>
        <time>2021-08-16T09:58:48Z</time>
      </trkpt>
      <trkpt lat="44.42485" lon="1.48043">
        <ele>284.3</ele>
        <time>2021-08-16T09:58:50Z</time>
      </trkpt>
      <trkpt lat="44.42482" lon="1.48045">
        <ele>284.5</ele>
        <time>2021-08-16T09:58:52Z</time>
      </trkpt>
      <trkpt lat="44.4248" lon="1.48047">
        <ele>284.6</ele>
        <time>2021-08-16T09:58:53Z</time>
      </trkpt>
      <trkpt lat="44.42477" lon="1.4805">
        <ele>284.7</ele>
        <time>2021-08-16T09:58:55Z</time>
      </trkpt>
      <trkpt lat="44.42475" lon="1.4805">
        <ele>284.8</ele>
        <time>2021-08-16T09:58:56Z</time>
      </trkpt>
      <trkpt lat="44.42473" lon="1.48052">
        <ele>285</ele>
        <time>2021-08-16T09:58:58Z</time>
      </trkpt>
      <trkpt lat="44.4247" lon="1.48054">
        <ele>285.1</ele>
        <time>2021-08-16T09:58:59Z</time>
      </trkpt>
      <trkpt lat="44.42469" lon="1.48055">
        <ele>285.2</ele>
        <time>2021-08-16T09:59:00Z</time>
      </trkpt>
      <trkpt lat="44.42466" lon="1.48058">
        <ele>285.4</ele>
        <time>2021-08-16T09:59:02Z</time>
      </trkpt>
      <trkpt lat="44.42463" lon="1.48059">
        <ele>285.5</ele>
        <time>2021-08-16T09:59:03Z</time>
      </trkpt>
      <trkpt lat="44.4246" lon="1.48061">
        <ele>285.6</ele>
        <time>2021-08-16T09:59:05Z</time>
      </trkpt>
      <trkpt lat="44.42459" lon="1.48064">
        <ele>285.7</ele>
        <time>2021-08-16T09:59:06Z</time>
      </trkpt>
      <trkpt lat="44.42455" lon="1.48065">
        <ele>285.9</ele>
        <time>2021-08-16T09:59:08Z</time>
      </trkpt>
      <trkpt lat="44.42449" lon="1.48066">
        <ele>286.1</ele>
        <time>2021-08-16T09:59:10Z</time>
      </trkpt>
      <trkpt lat="44.42446" lon="1.48067">
        <ele>286.2</ele>
        <time>2021-08-16T09:59:11Z</time>
      </trkpt>
      <trkpt lat="44.42445" lon="1.48068">
        <ele>286.2</ele>
        <time>2021-08-16T09:59:12Z</time>
      </trkpt>
      <trkpt lat="44.42442" lon="1.48069">
        <ele>286.3</ele>
        <time>2021-08-16T09:59:13Z</time>
      </trkpt>
      <trkpt lat="44.42441" lon="1.48069">
        <ele>286.4</ele>
        <time>2021-08-16T09:59:14Z</time>
      </trkpt>
      <trkpt lat="44.42437" lon="1.48071">
        <ele>286.5</ele>
        <time>2021-08-16T09:59:16Z</time>
      </trkpt>
      <trkpt lat="44.42433" lon="1.48071">
        <ele>286.5</ele>
        <time>2021-08-16T09:59:18Z</time>
      </trkpt>
      <trkpt lat="44.4243" lon="1.48071">
        <ele>286.6</ele>
        <time>2021-08-16T09:59:19Z</time>
      </trkpt>
      <trkpt lat="44.42429" lon="1.48071">
        <ele>286.6</ele>
        <time>2021-08-16T09:59:20Z</time>
      </trkpt>
      <trkpt lat="44.42424" lon="1.48069">
        <ele>286.6</ele>
        <time>2021-08-16T09:59:22Z</time>
      </trkpt>
      <trkpt lat="44.4242" lon="1.4807">
        <ele>286.6</ele>
        <time>2021-08-16T09:59:24Z</time>
      </trkpt>
      <trkpt lat="44.42417" lon="1.48069">
        <ele>286.7</ele>
        <time>2021-08-16T09:59:25Z</time>
      </trkpt>
      <trkpt lat="44.42415" lon="1.48069">
        <ele>286.7</ele>
        <time>2021-08-16T09:59:26Z</time>
      </trkpt>
      <trkpt lat="44.42411" lon="1.48068">
        <ele>286.7</ele>
        <time>2021-08-16T09:59:28Z</time>
      </trkpt>
      <trkpt lat="44.42408" lon="1.48068">
        <ele>286.7</ele>
        <time>2021-08-16T09:59:29Z</time>
      </trkpt>
      <trkpt lat="44.42406" lon="1.48067">
        <ele>286.7</ele>
        <time>2021-08-16T09:59:30Z</time>
      </trkpt>
      <trkpt lat="44.42403" lon="1.48067">
        <ele>286.7</ele>
        <time>2021-08-16T09:59:31Z</time>
      </trkpt>
      <trkpt lat="44.42402" lon="1.48066">
        <ele>286.7</ele>
        <time>2021-08-16T09:59:32Z</time>
      </trkpt>
      <trkpt lat="44.42397" lon="1.48065">
        <ele>286.8</ele>
        <time>2021-08-16T09:59:34Z</time>
      </trkpt>
      <trkpt lat="44.42395" lon="1.48064">
        <ele>286.8</ele>
        <time>2021-08-16T09:59:35Z</time>
      </trkpt>
      <trkpt lat="44.4239" lon="1.48064">
        <ele>286.8</ele>
        <time>2021-08-16T09:59:37Z</time>
      </trkpt>
      <trkpt lat="44.42384" lon="1.48062">
        <ele>286.9</ele>
        <time>2021-08-16T09:59:39Z</time>
      </trkpt>
      <trkpt lat="44.42379" lon="1.48061">
        <ele>286.9</ele>
        <time>2021-08-16T09:59:41Z</time>
      </trkpt>
      <trkpt lat="44.42374" lon="1.48058">
        <ele>287</ele>
        <time>2021-08-16T09:59:42Z</time>
      </trkpt>
      <trkpt lat="44.42369" lon="1.48056">
        <ele>287</ele>
        <time>2021-08-16T09:59:44Z</time>
      </trkpt>
      <trkpt lat="44.42366" lon="1.48054">
        <ele>287</ele>
        <time>2021-08-16T09:59:45Z</time>
      </trkpt>
      <trkpt lat="44.42361" lon="1.48052">
        <ele>287.1</ele>
        <time>2021-08-16T09:59:46Z</time>
      </trkpt>
      <trkpt lat="44.42354" lon="1.4805">
        <ele>287.1</ele>
        <time>2021-08-16T09:59:48Z</time>
      </trkpt>
      <trkpt lat="44.42349" lon="1.48049">
        <ele>287.1</ele>
        <time>2021-08-16T09:59:49Z</time>
      </trkpt>
      <trkpt lat="44.42344" lon="1.48048">
        <ele>287.2</ele>
        <time>2021-08-16T09:59:50Z</time>
      </trkpt>
      <trkpt lat="44.42338" lon="1.48048">
        <ele>287.2</ele>
        <time>2021-08-16T09:59:52Z</time>
      </trkpt>
      <trkpt lat="44.42333" lon="1.48048">
        <ele>287.3</ele>
        <time>2021-08-16T09:59:53Z</time>
      </trkpt>
      <trkpt lat="44.42327" lon="1.48049">
        <ele>287.4</ele>
        <time>2021-08-16T09:59:54Z</time>
      </trkpt>
      <trkpt lat="44.42323" lon="1.48049">
        <ele>287.4</ele>
        <time>2021-08-16T09:59:55Z</time>
      </trkpt>
      <trkpt lat="44.42319" lon="1.4805">
        <ele>287.4</ele>
        <time>2021-08-16T09:59:56Z</time>
      </trkpt>
      <trkpt lat="44.42314" lon="1.48051">
        <ele>287.5</ele>
        <time>2021-08-16T09:59:57Z</time>
      </trkpt>
      <trkpt lat="44.42309" lon="1.48051">
        <ele>287.6</ele>
        <time>2021-08-16T09:59:58Z</time>
      </trkpt>
      <trkpt lat="44.42304" lon="1.48053">
        <ele>287.6</ele>
        <time>2021-08-16T10:00:00Z</time>
      </trkpt>
      <trkpt lat="44.42299" lon="1.48054">
        <ele>287.6</ele>
        <time>2021-08-16T10:00:01Z</time>
      </trkpt>
      <trkpt lat="44.42294" lon="1.48054">
        <ele>287.7</ele>
        <time>2021-08-16T10:00:02Z</time>
      </trkpt>
      <trkpt lat="44.42287" lon="1.48055">
        <ele>287.7</ele>
        <time>2021-08-16T10:00:04Z</time>
      </trkpt>
      <trkpt lat="44.42283" lon="1.48056">
        <ele>287.7</ele>
        <time>2021-08-16T10:00:05Z</time>
      </trkpt>
      <trkpt lat="44.42279" lon="1.48056">
        <ele>287.7</ele>
        <time>2021-08-16T10:00:06Z</time>
      </trkpt>
      <trkpt lat="44.42275" lon="1.48056">
        <ele>287.7</ele>
        <time>2021-08-16T10:00:07Z</time>
      </trkpt>
      <trkpt lat="44.4227" lon="1.48057">
        <ele>287.6</ele>
        <time>2021-08-16T10:00:08Z</time>
      </trkpt>
      <trkpt lat="44.42265" lon="1.48058">
        <ele>287.6</ele>
        <time>2021-08-16T10:00:10Z</time>
      </trkpt>
      <trkpt lat="44.42258" lon="1.4806">
        <ele>287.5</ele>
        <time>2021-08-16T10:00:11Z</time>
      </trkpt>
      <trkpt lat="44.42255" lon="1.4806">
        <ele>287.5</ele>
        <time>2021-08-16T10:00:12Z</time>
      </trkpt>
      <trkpt lat="44.42246" lon="1.48062">
        <ele>287.3</ele>
        <time>2021-08-16T10:00:14Z</time>
      </trkpt>
      <trkpt lat="44.42238" lon="1.48065">
        <ele>287.2</ele>
        <time>2021-08-16T10:00:16Z</time>
      </trkpt>
      <trkpt lat="44.4223" lon="1.48068">
        <ele>286.9</ele>
        <time>2021-08-16T10:00:18Z</time>
      </trkpt>
      <trkpt lat="44.42225" lon="1.48068">
        <ele>286.8</ele>
        <time>2021-08-16T10:00:19Z</time>
      </trkpt>
      <trkpt lat="44.42221" lon="1.48068">
        <ele>286.6</ele>
        <time>2021-08-16T10:00:20Z</time>
      </trkpt>
      <trkpt lat="44.42217" lon="1.48068">
        <ele>286.5</ele>
        <time>2021-08-16T10:00:21Z</time>
      </trkpt>
      <trkpt lat="44.42213" lon="1.48068">
        <ele>286.4</ele>
        <time>2021-08-16T10:00:22Z</time>
      </trkpt>
      <trkpt lat="44.42205" lon="1.48067">
        <ele>286.1</ele>
        <time>2021-08-16T10:00:24Z</time>
      </trkpt>
      <trkpt lat="44.422" lon="1.48067">
        <ele>285.9</ele>
        <time>2021-08-16T10:00:25Z</time>
      </trkpt>
      <trkpt lat="44.42195" lon="1.48066">
        <ele>285.7</ele>
        <time>2021-08-16T10:00:26Z</time>
      </trkpt>
      <trkpt lat="44.42185" lon="1.48066">
        <ele>285.3</ele>
        <time>2021-08-16T10:00:28Z</time>
      </trkpt>
      <trkpt lat="44.42181" lon="1.48065">
        <ele>285.1</ele>
        <time>2021-08-16T10:00:29Z</time>
      </trkpt>
      <trkpt lat="44.42171" lon="1.48063">
        <ele>284.8</ele>
        <time>2021-08-16T10:00:31Z</time>
      </trkpt>
      <trkpt lat="44.42162" lon="1.48062">
        <ele>284.5</ele>
        <time>2021-08-16T10:00:33Z</time>
      </trkpt>
      <trkpt lat="44.42157" lon="1.48062">
        <ele>284.3</ele>
        <time>2021-08-16T10:00:34Z</time>
      </trkpt>
      <trkpt lat="44.42148" lon="1.48061">
        <ele>284</ele>
        <time>2021-08-16T10:00:36Z</time>
      </trkpt>
      <trkpt lat="44.42143" lon="1.4806">
        <ele>283.8</ele>
        <time>2021-08-16T10:00:37Z</time>
      </trkpt>
      <trkpt lat="44.42133" lon="1.48059">
        <ele>283.6</ele>
        <time>2021-08-16T10:00:39Z</time>
      </trkpt>
      <trkpt lat="44.42128" lon="1.48058">
        <ele>283.5</ele>
        <time>2021-08-16T10:00:40Z</time>
      </trkpt>
      <trkpt lat="44.42119" lon="1.48056">
        <ele>283.4</ele>
        <time>2021-08-16T10:00:42Z</time>
      </trkpt>
      <trkpt lat="44.42114" lon="1.48055">
        <ele>283.4</ele>
        <time>2021-08-16T10:00:43Z</time>
      </trkpt>
      <trkpt lat="44.42105" lon="1.48054">
        <ele>283.5</ele>
        <time>2021-08-16T10:00:45Z</time>
      </trkpt>
      <trkpt lat="44.42097" lon="1.48053">
        <ele>283.6</ele>
        <time>2021-08-16T10:00:47Z</time>
      </trkpt>
      <trkpt lat="44.42093" lon="1.48052">
        <ele>283.7</ele>
        <time>2021-08-16T10:00:48Z</time>
      </trkpt>
      <trkpt lat="44.42089" lon="1.48051">
        <ele>283.7</ele>
        <time>2021-08-16T10:00:49Z</time>
      </trkpt>
      <trkpt lat="44.42085" lon="1.48051">
        <ele>283.8</ele>
        <time>2021-08-16T10:00:50Z</time>
      </trkpt>
      <trkpt lat="44.42077" lon="1.48052">
        <ele>284</ele>
        <time>2021-08-16T10:00:52Z</time>
      </trkpt>
      <trkpt lat="44.42073" lon="1.48052">
        <ele>283.9</ele>
        <time>2021-08-16T10:00:53Z</time>
      </trkpt>
      <trkpt lat="44.4207" lon="1.48051">
        <ele>283.9</ele>
        <time>2021-08-16T10:00:54Z</time>
      </trkpt>
      <trkpt lat="44.42066" lon="1.48051">
        <ele>283.9</ele>
        <time>2021-08-16T10:00:55Z</time>
      </trkpt>
      <trkpt lat="44.42063" lon="1.48051">
        <ele>283.9</ele>
        <time>2021-08-16T10:00:56Z</time>
      </trkpt>
      <trkpt lat="44.42056" lon="1.48052">
        <ele>283.8</ele>
        <time>2021-08-16T10:00:58Z</time>
      </trkpt>
      <trkpt lat="44.42053" lon="1.48052">
        <ele>283.8</ele>
        <time>2021-08-16T10:00:59Z</time>
      </trkpt>
      <trkpt lat="44.42046" lon="1.48051">
        <ele>283.8</ele>
        <time>2021-08-16T10:01:01Z</time>
      </trkpt>
      <trkpt lat="44.4204" lon="1.48053">
        <ele>283.8</ele>
        <time>2021-08-16T10:01:03Z</time>
      </trkpt>
      <trkpt lat="44.42037" lon="1.48055">
        <ele>283.7</ele>
        <time>2021-08-16T10:01:04Z</time>
      </trkpt>
      <trkpt lat="44.42035" lon="1.48057">
        <ele>283.5</ele>
        <time>2021-08-16T10:01:05Z</time>
      </trkpt>
      <trkpt lat="44.42032" lon="1.4806">
        <ele>283.3</ele>
        <time>2021-08-16T10:01:06Z</time>
      </trkpt>
      <trkpt lat="44.42026" lon="1.48069">
        <ele>282.8</ele>
        <time>2021-08-16T10:01:08Z</time>
      </trkpt>
      <trkpt lat="44.42021" lon="1.48081">
        <ele>282.2</ele>
        <time>2021-08-16T10:01:10Z</time>
      </trkpt>
      <trkpt lat="44.42015" lon="1.48093">
        <ele>281.6</ele>
        <time>2021-08-16T10:01:12Z</time>
      </trkpt>
      <trkpt lat="44.42012" lon="1.48099">
        <ele>281.3</ele>
        <time>2021-08-16T10:01:13Z</time>
      </trkpt>
      <trkpt lat="44.42009" lon="1.48106">
        <ele>281</ele>
        <time>2021-08-16T10:01:14Z</time>
      </trkpt>
      <trkpt lat="44.42002" lon="1.48118">
        <ele>280.3</ele>
        <time>2021-08-16T10:01:16Z</time>
      </trkpt>
      <trkpt lat="44.41998" lon="1.48125">
        <ele>279.9</ele>
        <time>2021-08-16T10:01:17Z</time>
      </trkpt>
      <trkpt lat="44.41994" lon="1.48133">
        <ele>279.5</ele>
        <time>2021-08-16T10:01:18Z</time>
      </trkpt>
      <trkpt lat="44.41986" lon="1.48148">
        <ele>278.8</ele>
        <time>2021-08-16T10:01:20Z</time>
      </trkpt>
      <trkpt lat="44.41978" lon="1.48164">
        <ele>278.1</ele>
        <time>2021-08-16T10:01:22Z</time>
      </trkpt>
      <trkpt lat="44.41971" lon="1.4818">
        <ele>277.5</ele>
        <time>2021-08-16T10:01:24Z</time>
      </trkpt>
      <trkpt lat="44.41964" lon="1.48196">
        <ele>276.9</ele>
        <time>2021-08-16T10:01:26Z</time>
      </trkpt>
      <trkpt lat="44.4196" lon="1.48204">
        <ele>276.6</ele>
        <time>2021-08-16T10:01:27Z</time>
      </trkpt>
      <trkpt lat="44.41952" lon="1.4822">
        <ele>275.9</ele>
        <time>2021-08-16T10:01:29Z</time>
      </trkpt>
      <trkpt lat="44.41946" lon="1.48237">
        <ele>275.3</ele>
        <time>2021-08-16T10:01:31Z</time>
      </trkpt>
      <trkpt lat="44.41939" lon="1.48256">
        <ele>274.5</ele>
        <time>2021-08-16T10:01:33Z</time>
      </trkpt>
      <trkpt lat="44.41936" lon="1.48266">
        <ele>274.1</ele>
        <time>2021-08-16T10:01:34Z</time>
      </trkpt>
      <trkpt lat="44.41929" lon="1.48285">
        <ele>273.3</ele>
        <time>2021-08-16T10:01:36Z</time>
      </trkpt>
      <trkpt lat="44.41923" lon="1.48304">
        <ele>272.5</ele>
        <time>2021-08-16T10:01:38Z</time>
      </trkpt>
      <trkpt lat="44.41918" lon="1.48325">
        <ele>271.7</ele>
        <time>2021-08-16T10:01:40Z</time>
      </trkpt>
      <trkpt lat="44.41915" lon="1.48335">
        <ele>271.3</ele>
        <time>2021-08-16T10:01:41Z</time>
      </trkpt>
      <trkpt lat="44.41913" lon="1.48345">
        <ele>270.8</ele>
        <time>2021-08-16T10:01:42Z</time>
      </trkpt>
      <trkpt lat="44.41906" lon="1.48366">
        <ele>270</ele>
        <time>2021-08-16T10:01:44Z</time>
      </trkpt>
      <trkpt lat="44.41903" lon="1.48376">
        <ele>269.7</ele>
        <time>2021-08-16T10:01:45Z</time>
      </trkpt>
      <trkpt lat="44.41897" lon="1.48397">
        <ele>269.1</ele>
        <time>2021-08-16T10:01:47Z</time>
      </trkpt>
      <trkpt lat="44.41891" lon="1.48418">
        <ele>268.7</ele>
        <time>2021-08-16T10:01:49Z</time>
      </trkpt>
      <trkpt lat="44.41888" lon="1.48428">
        <ele>268.5</ele>
        <time>2021-08-16T10:01:50Z</time>
      </trkpt>
      <trkpt lat="44.41882" lon="1.48448">
        <ele>268.2</ele>
        <time>2021-08-16T10:01:52Z</time>
      </trkpt>
      <trkpt lat="44.4188" lon="1.48458">
        <ele>268.1</ele>
        <time>2021-08-16T10:01:53Z</time>
      </trkpt>
      <trkpt lat="44.41877" lon="1.48467">
        <ele>268</ele>
        <time>2021-08-16T10:01:54Z</time>
      </trkpt>
      <trkpt lat="44.41874" lon="1.48476">
        <ele>267.9</ele>
        <time>2021-08-16T10:01:55Z</time>
      </trkpt>
      <trkpt lat="44.41872" lon="1.48485">
        <ele>267.9</ele>
        <time>2021-08-16T10:01:56Z</time>
      </trkpt>
      <trkpt lat="44.41868" lon="1.48502">
        <ele>267.8</ele>
        <time>2021-08-16T10:01:58Z</time>
      </trkpt>
      <trkpt lat="44.41867" lon="1.4851">
        <ele>267.8</ele>
        <time>2021-08-16T10:01:59Z</time>
      </trkpt>
      <trkpt lat="44.41863" lon="1.48526">
        <ele>267.9</ele>
        <time>2021-08-16T10:02:01Z</time>
      </trkpt>
      <trkpt lat="44.4186" lon="1.48533">
        <ele>267.9</ele>
        <time>2021-08-16T10:02:02Z</time>
      </trkpt>
      <trkpt lat="44.41858" lon="1.4854">
        <ele>267.9</ele>
        <time>2021-08-16T10:02:03Z</time>
      </trkpt>
      <trkpt lat="44.41856" lon="1.48547">
        <ele>268</ele>
        <time>2021-08-16T10:02:04Z</time>
      </trkpt>
      <trkpt lat="44.41856" lon="1.4856">
        <ele>268.3</ele>
        <time>2021-08-16T10:02:06Z</time>
      </trkpt>
      <trkpt lat="44.41856" lon="1.48567">
        <ele>268.5</ele>
        <time>2021-08-16T10:02:07Z</time>
      </trkpt>
      <trkpt lat="44.41857" lon="1.48573">
        <ele>268.7</ele>
        <time>2021-08-16T10:02:08Z</time>
      </trkpt>
      <trkpt lat="44.41861" lon="1.48584">
        <ele>269</ele>
        <time>2021-08-16T10:02:10Z</time>
      </trkpt>
      <trkpt lat="44.41862" lon="1.48588">
        <ele>269.2</ele>
        <time>2021-08-16T10:02:11Z</time>
      </trkpt>
      <trkpt lat="44.41865" lon="1.48593">
        <ele>269.4</ele>
        <time>2021-08-16T10:02:12Z</time>
      </trkpt>
      <trkpt lat="44.41868" lon="1.48596">
        <ele>269.5</ele>
        <time>2021-08-16T10:02:13Z</time>
      </trkpt>
      <trkpt lat="44.41871" lon="1.486">
        <ele>269.7</ele>
        <time>2021-08-16T10:02:14Z</time>
      </trkpt>
      <trkpt lat="44.41877" lon="1.48607">
        <ele>270.1</ele>
        <time>2021-08-16T10:02:16Z</time>
      </trkpt>
      <trkpt lat="44.4188" lon="1.48611">
        <ele>270.2</ele>
        <time>2021-08-16T10:02:17Z</time>
      </trkpt>
      <trkpt lat="44.41884" lon="1.48613">
        <ele>270.4</ele>
        <time>2021-08-16T10:02:18Z</time>
      </trkpt>
      <trkpt lat="44.41891" lon="1.48624">
        <ele>270.7</ele>
        <time>2021-08-16T10:02:20Z</time>
      </trkpt>
      <trkpt lat="44.41894" lon="1.48631">
        <ele>270.9</ele>
        <time>2021-08-16T10:02:22Z</time>
      </trkpt>
      <trkpt lat="44.41896" lon="1.48636">
        <ele>271</ele>
        <time>2021-08-16T10:02:23Z</time>
      </trkpt>
      <trkpt lat="44.41901" lon="1.48644">
        <ele>271.2</ele>
        <time>2021-08-16T10:02:25Z</time>
      </trkpt>
      <trkpt lat="44.41904" lon="1.48648">
        <ele>271.3</ele>
        <time>2021-08-16T10:02:26Z</time>
      </trkpt>
      <trkpt lat="44.41907" lon="1.48656">
        <ele>271.4</ele>
        <time>2021-08-16T10:02:28Z</time>
      </trkpt>
      <trkpt lat="44.41909" lon="1.48659">
        <ele>271.5</ele>
        <time>2021-08-16T10:02:29Z</time>
      </trkpt>
      <trkpt lat="44.41912" lon="1.48664">
        <ele>271.5</ele>
        <time>2021-08-16T10:02:30Z</time>
      </trkpt>
      <trkpt lat="44.41918" lon="1.48672">
        <ele>271.6</ele>
        <time>2021-08-16T10:02:32Z</time>
      </trkpt>
      <trkpt lat="44.41923" lon="1.48679">
        <ele>271.7</ele>
        <time>2021-08-16T10:02:34Z</time>
      </trkpt>
      <trkpt lat="44.41927" lon="1.48687">
        <ele>271.8</ele>
        <time>2021-08-16T10:02:36Z</time>
      </trkpt>
      <trkpt lat="44.41931" lon="1.48694">
        <ele>271.8</ele>
        <time>2021-08-16T10:02:38Z</time>
      </trkpt>
      <trkpt lat="44.41934" lon="1.48699">
        <ele>271.9</ele>
        <time>2021-08-16T10:02:39Z</time>
      </trkpt>
      <trkpt lat="44.41937" lon="1.48704">
        <ele>272</ele>
        <time>2021-08-16T10:02:40Z</time>
      </trkpt>
      <trkpt lat="44.41939" lon="1.48707">
        <ele>272</ele>
        <time>2021-08-16T10:02:41Z</time>
      </trkpt>
      <trkpt lat="44.41941" lon="1.48712">
        <ele>272</ele>
        <time>2021-08-16T10:02:42Z</time>
      </trkpt>
      <trkpt lat="44.41947" lon="1.48721">
        <ele>272.1</ele>
        <time>2021-08-16T10:02:44Z</time>
      </trkpt>
      <trkpt lat="44.41951" lon="1.48729">
        <ele>272.2</ele>
        <time>2021-08-16T10:02:46Z</time>
      </trkpt>
      <trkpt lat="44.41953" lon="1.48734">
        <ele>272.3</ele>
        <time>2021-08-16T10:02:47Z</time>
      </trkpt>
      <trkpt lat="44.41955" lon="1.48739">
        <ele>272.3</ele>
        <time>2021-08-16T10:02:48Z</time>
      </trkpt>
      <trkpt lat="44.4196" lon="1.4875">
        <ele>272.4</ele>
        <time>2021-08-16T10:02:50Z</time>
      </trkpt>
      <trkpt lat="44.41964" lon="1.48759">
        <ele>272.5</ele>
        <time>2021-08-16T10:02:52Z</time>
      </trkpt>
      <trkpt lat="44.41967" lon="1.48765">
        <ele>272.5</ele>
        <time>2021-08-16T10:02:53Z</time>
      </trkpt>
      <trkpt lat="44.41969" lon="1.4877">
        <ele>272.6</ele>
        <time>2021-08-16T10:02:54Z</time>
      </trkpt>
      <trkpt lat="44.41973" lon="1.48778">
        <ele>272.7</ele>
        <time>2021-08-16T10:02:56Z</time>
      </trkpt>
      <trkpt lat="44.41975" lon="1.48783">
        <ele>272.7</ele>
        <time>2021-08-16T10:02:57Z</time>
      </trkpt>
      <trkpt lat="44.41977" lon="1.48789">
        <ele>272.8</ele>
        <time>2021-08-16T10:02:58Z</time>
      </trkpt>
      <trkpt lat="44.4198" lon="1.48794">
        <ele>272.8</ele>
        <time>2021-08-16T10:02:59Z</time>
      </trkpt>
      <trkpt lat="44.41983" lon="1.488">
        <ele>272.9</ele>
        <time>2021-08-16T10:03:01Z</time>
      </trkpt>
      <trkpt lat="44.41987" lon="1.48805">
        <ele>273</ele>
        <time>2021-08-16T10:03:02Z</time>
      </trkpt>
      <trkpt lat="44.41991" lon="1.48812">
        <ele>273.1</ele>
        <time>2021-08-16T10:03:04Z</time>
      </trkpt>
      <trkpt lat="44.41994" lon="1.48817">
        <ele>273.2</ele>
        <time>2021-08-16T10:03:05Z</time>
      </trkpt>
      <trkpt lat="44.41997" lon="1.4882">
        <ele>273.2</ele>
        <time>2021-08-16T10:03:06Z</time>
      </trkpt>
      <trkpt lat="44.42" lon="1.48824">
        <ele>273.3</ele>
        <time>2021-08-16T10:03:07Z</time>
      </trkpt>
      <trkpt lat="44.42004" lon="1.48827">
        <ele>273.4</ele>
        <time>2021-08-16T10:03:09Z</time>
      </trkpt>
      <trkpt lat="44.42007" lon="1.4883">
        <ele>273.4</ele>
        <time>2021-08-16T10:03:10Z</time>
      </trkpt>
      <trkpt lat="44.42012" lon="1.48835">
        <ele>273.5</ele>
        <time>2021-08-16T10:03:11Z</time>
      </trkpt>
      <trkpt lat="44.42016" lon="1.48839">
        <ele>273.5</ele>
        <time>2021-08-16T10:03:12Z</time>
      </trkpt>
      <trkpt lat="44.4202" lon="1.48844">
        <ele>273.5</ele>
        <time>2021-08-16T10:03:14Z</time>
      </trkpt>
      <trkpt lat="44.42024" lon="1.4885">
        <ele>273.4</ele>
        <time>2021-08-16T10:03:15Z</time>
      </trkpt>
      <trkpt lat="44.42027" lon="1.48856">
        <ele>273.3</ele>
        <time>2021-08-16T10:03:17Z</time>
      </trkpt>
      <trkpt lat="44.4203" lon="1.48863">
        <ele>273.2</ele>
        <time>2021-08-16T10:03:18Z</time>
      </trkpt>
      <trkpt lat="44.42033" lon="1.48872">
        <ele>273.1</ele>
        <time>2021-08-16T10:03:20Z</time>
      </trkpt>
      <trkpt lat="44.42036" lon="1.4888">
        <ele>272.9</ele>
        <time>2021-08-16T10:03:22Z</time>
      </trkpt>
      <trkpt lat="44.42039" lon="1.48886">
        <ele>272.8</ele>
        <time>2021-08-16T10:03:23Z</time>
      </trkpt>
      <trkpt lat="44.42041" lon="1.48892">
        <ele>272.7</ele>
        <time>2021-08-16T10:03:24Z</time>
      </trkpt>
      <trkpt lat="44.42043" lon="1.48902">
        <ele>272.5</ele>
        <time>2021-08-16T10:03:26Z</time>
      </trkpt>
      <trkpt lat="44.42047" lon="1.48916">
        <ele>272</ele>
        <time>2021-08-16T10:03:28Z</time>
      </trkpt>
      <trkpt lat="44.42049" lon="1.48923">
        <ele>271.8</ele>
        <time>2021-08-16T10:03:29Z</time>
      </trkpt>
      <trkpt lat="44.42051" lon="1.48929">
        <ele>271.6</ele>
        <time>2021-08-16T10:03:30Z</time>
      </trkpt>
      <trkpt lat="44.42052" lon="1.48936">
        <ele>271.3</ele>
        <time>2021-08-16T10:03:31Z</time>
      </trkpt>
      <trkpt lat="44.42054" lon="1.48943">
        <ele>271.1</ele>
        <time>2021-08-16T10:03:32Z</time>
      </trkpt>
      <trkpt lat="44.42057" lon="1.48959">
        <ele>270.4</ele>
        <time>2021-08-16T10:03:34Z</time>
      </trkpt>
      <trkpt lat="44.42059" lon="1.48967">
        <ele>270</ele>
        <time>2021-08-16T10:03:35Z</time>
      </trkpt>
      <trkpt lat="44.42061" lon="1.48976">
        <ele>269.5</ele>
        <time>2021-08-16T10:03:36Z</time>
      </trkpt>
      <trkpt lat="44.42065" lon="1.48996">
        <ele>268.4</ele>
        <time>2021-08-16T10:03:38Z</time>
      </trkpt>
      <trkpt lat="44.4207" lon="1.49017">
        <ele>267.1</ele>
        <time>2021-08-16T10:03:40Z</time>
      </trkpt>
      <trkpt lat="44.42072" lon="1.49027">
        <ele>266.4</ele>
        <time>2021-08-16T10:03:41Z</time>
      </trkpt>
      <trkpt lat="44.42075" lon="1.49037">
        <ele>265.8</ele>
        <time>2021-08-16T10:03:42Z</time>
      </trkpt>
      <trkpt lat="44.42081" lon="1.4906">
        <ele>264.4</ele>
        <time>2021-08-16T10:03:44Z</time>
      </trkpt>
      <trkpt lat="44.42086" lon="1.49083">
        <ele>263.1</ele>
        <time>2021-08-16T10:03:46Z</time>
      </trkpt>
      <trkpt lat="44.42091" lon="1.49107">
        <ele>262.1</ele>
        <time>2021-08-16T10:03:48Z</time>
      </trkpt>
      <trkpt lat="44.42093" lon="1.4912">
        <ele>261.6</ele>
        <time>2021-08-16T10:03:49Z</time>
      </trkpt>
      <trkpt lat="44.42095" lon="1.49132">
        <ele>261.1</ele>
        <time>2021-08-16T10:03:50Z</time>
      </trkpt>
      <trkpt lat="44.42097" lon="1.49156">
        <ele>260.3</ele>
        <time>2021-08-16T10:03:52Z</time>
      </trkpt>
      <trkpt lat="44.42098" lon="1.49179">
        <ele>259.6</ele>
        <time>2021-08-16T10:03:54Z</time>
      </trkpt>
      <trkpt lat="44.42101" lon="1.49201">
        <ele>259</ele>
        <time>2021-08-16T10:03:56Z</time>
      </trkpt>
      <trkpt lat="44.42103" lon="1.49211">
        <ele>258.8</ele>
        <time>2021-08-16T10:03:57Z</time>
      </trkpt>
      <trkpt lat="44.42106" lon="1.49221">
        <ele>258.6</ele>
        <time>2021-08-16T10:03:58Z</time>
      </trkpt>
      <trkpt lat="44.42111" lon="1.49239">
        <ele>258.2</ele>
        <time>2021-08-16T10:04:00Z</time>
      </trkpt>
      <trkpt lat="44.42113" lon="1.49248">
        <ele>258</ele>
        <time>2021-08-16T10:04:01Z</time>
      </trkpt>
      <trkpt lat="44.42115" lon="1.49257">
        <ele>257.8</ele>
        <time>2021-08-16T10:04:02Z</time>
      </trkpt>
      <trkpt lat="44.42118" lon="1.49275">
        <ele>257.3</ele>
        <time>2021-08-16T10:04:04Z</time>
      </trkpt>
      <trkpt lat="44.42122" lon="1.49291">
        <ele>256.8</ele>
        <time>2021-08-16T10:04:06Z</time>
      </trkpt>
      <trkpt lat="44.42125" lon="1.49308">
        <ele>256.3</ele>
        <time>2021-08-16T10:04:08Z</time>
      </trkpt>
      <trkpt lat="44.42129" lon="1.49324">
        <ele>256</ele>
        <time>2021-08-16T10:04:10Z</time>
      </trkpt>
      <trkpt lat="44.42131" lon="1.49332">
        <ele>255.7</ele>
        <time>2021-08-16T10:04:11Z</time>
      </trkpt>
      <trkpt lat="44.42135" lon="1.49347">
        <ele>255.3</ele>
        <time>2021-08-16T10:04:13Z</time>
      </trkpt>
      <trkpt lat="44.42137" lon="1.49354">
        <ele>255.1</ele>
        <time>2021-08-16T10:04:14Z</time>
      </trkpt>
      <trkpt lat="44.4214" lon="1.49368">
        <ele>254.8</ele>
        <time>2021-08-16T10:04:16Z</time>
      </trkpt>
      <trkpt lat="44.42141" lon="1.49374">
        <ele>254.7</ele>
        <time>2021-08-16T10:04:17Z</time>
      </trkpt>
      <trkpt lat="44.42141" lon="1.49379">
        <ele>254.6</ele>
        <time>2021-08-16T10:04:18Z</time>
      </trkpt>
    </trkseg>
  </trk>
</gpx>